<?xml version="1.0" encoding="UTF-8" standalone="no" ?>
<gpx xmlns="http://www.topografix.com/GPX/1/1" xmlns:xsi="http://www.w3.org/2001/XMLSchema-instance" xsi:schemaLocation="http://www.topografix.com/GPX/1/1 http://www.topografix.com/GPX/1/1/gpx.xsd" version="1.1" creator="VisuGPX - https://www.visugpx.com">
  <metadata>
    <name>2020-11-04 08:48:44</name>
    <desc><![CDATA[File with points/tracks from Locus Map/3.49.0]]></desc>
  </metadata>
  <trk>
    <name><![CDATA[2020-11-04 08:48:44]]></name>
    <extensions>
      <line xmlns="http://www.topografix.com/GPX/gpx_style/0/2">
        <color>0000FF</color>
        <opacity>0.59</opacity>
        <width>6.0</width>
      </line>
    </extensions>
    <trkseg>
      <trkpt lat="49.72956" lon="5.65964">
        <ele>401.61</ele>
        <time>2020-11-04T07:49:29.810Z</time>
      </trkpt>
      <trkpt lat="49.72957" lon="5.65958">
        <ele>401.77</ele>
        <time>2020-11-04T07:49:39.854Z</time>
      </trkpt>
      <trkpt lat="49.72958" lon="5.65953">
        <ele>401.83</ele>
        <time>2020-11-04T07:49:44.874Z</time>
      </trkpt>
      <trkpt lat="49.72953" lon="5.6597">
        <ele>401.9</ele>
        <time>2020-11-04T07:49:49.885Z</time>
      </trkpt>
      <trkpt lat="49.7295" lon="5.65978">
        <ele>401.95</ele>
        <time>2020-11-04T07:49:54.891Z</time>
      </trkpt>
      <trkpt lat="49.7295" lon="5.65978">
        <ele>402</ele>
        <time>2020-11-04T07:50:00.890Z</time>
      </trkpt>
      <trkpt lat="49.7295" lon="5.65975">
        <ele>402.08</ele>
        <time>2020-11-04T07:50:06.091Z</time>
      </trkpt>
      <trkpt lat="49.7295" lon="5.65974">
        <ele>402.12</ele>
        <time>2020-11-04T07:50:11.109Z</time>
      </trkpt>
      <trkpt lat="49.7295" lon="5.65974">
        <ele>402.18</ele>
        <time>2020-11-04T07:50:15.966Z</time>
      </trkpt>
      <trkpt lat="49.72952" lon="5.65969">
        <ele>402.21</ele>
        <time>2020-11-04T07:50:21.295Z</time>
      </trkpt>
      <trkpt lat="49.72952" lon="5.65968">
        <ele>402.23</ele>
        <time>2020-11-04T07:50:26.405Z</time>
      </trkpt>
      <trkpt lat="49.72951" lon="5.65973">
        <ele>402.29</ele>
        <time>2020-11-04T07:50:31.344Z</time>
      </trkpt>
      <trkpt lat="49.72951" lon="5.65973">
        <ele>402.3</ele>
        <time>2020-11-04T07:50:36.364Z</time>
      </trkpt>
      <trkpt lat="49.7295" lon="5.65972">
        <ele>402.32</ele>
        <time>2020-11-04T07:50:40.792Z</time>
      </trkpt>
      <trkpt lat="49.72951" lon="5.65968">
        <ele>402.34</ele>
        <time>2020-11-04T07:50:46.437Z</time>
      </trkpt>
      <trkpt lat="49.72955" lon="5.65958">
        <ele>402.35</ele>
        <time>2020-11-04T07:50:51.452Z</time>
      </trkpt>
      <trkpt lat="49.72956" lon="5.65955">
        <ele>402.36</ele>
        <time>2020-11-04T07:50:56.468Z</time>
      </trkpt>
      <trkpt lat="49.72956" lon="5.65957">
        <ele>402.37</ele>
        <time>2020-11-04T07:51:01.519Z</time>
      </trkpt>
      <trkpt lat="49.72958" lon="5.65966">
        <ele>402.38</ele>
        <time>2020-11-04T07:51:06.000Z</time>
      </trkpt>
      <trkpt lat="49.72963" lon="5.6597">
        <ele>402.41</ele>
        <time>2020-11-04T07:51:11.000Z</time>
      </trkpt>
      <trkpt lat="49.72954" lon="5.65971">
        <ele>402.42</ele>
        <time>2020-11-04T07:51:14.000Z</time>
      </trkpt>
      <trkpt lat="49.72952" lon="5.6597">
        <ele>402.43</ele>
        <time>2020-11-04T07:51:19.000Z</time>
      </trkpt>
      <trkpt lat="49.7295" lon="5.65969">
        <ele>402.43</ele>
        <time>2020-11-04T07:51:24.000Z</time>
      </trkpt>
      <trkpt lat="49.72949" lon="5.65968">
        <ele>402.44</ele>
        <time>2020-11-04T07:51:29.000Z</time>
      </trkpt>
      <trkpt lat="49.72949" lon="5.65969">
        <ele>402.44</ele>
        <time>2020-11-04T07:51:34.000Z</time>
      </trkpt>
      <trkpt lat="49.72952" lon="5.65967">
        <ele>402.44</ele>
        <time>2020-11-04T07:51:39.000Z</time>
      </trkpt>
      <trkpt lat="49.72948" lon="5.65968">
        <ele>402.44</ele>
        <time>2020-11-04T07:51:44.000Z</time>
      </trkpt>
      <trkpt lat="49.72948" lon="5.65969">
        <ele>402.44</ele>
        <time>2020-11-04T07:51:49.000Z</time>
      </trkpt>
      <trkpt lat="49.72948" lon="5.65969">
        <ele>402.44</ele>
        <time>2020-11-04T07:51:54.000Z</time>
      </trkpt>
      <trkpt lat="49.72948" lon="5.65968">
        <ele>400.5</ele>
        <time>2020-11-04T07:51:59.000Z</time>
      </trkpt>
      <trkpt lat="49.72949" lon="5.65968">
        <ele>398.13</ele>
        <time>2020-11-04T07:52:04.000Z</time>
      </trkpt>
      <trkpt lat="49.72949" lon="5.65967">
        <ele>399.61</ele>
        <time>2020-11-04T07:52:09.000Z</time>
      </trkpt>
      <trkpt lat="49.72949" lon="5.65967">
        <ele>400.77</ele>
        <time>2020-11-04T07:52:14.451Z</time>
      </trkpt>
      <trkpt lat="49.72948" lon="5.65968">
        <ele>401.46</ele>
        <time>2020-11-04T07:52:19.000Z</time>
      </trkpt>
      <trkpt lat="49.72948" lon="5.65968">
        <ele>401.86</ele>
        <time>2020-11-04T07:52:24.000Z</time>
      </trkpt>
      <trkpt lat="49.72947" lon="5.65968">
        <ele>402.1</ele>
        <time>2020-11-04T07:52:29.000Z</time>
      </trkpt>
      <trkpt lat="49.72947" lon="5.65968">
        <ele>402.24</ele>
        <time>2020-11-04T07:52:34.000Z</time>
      </trkpt>
      <trkpt lat="49.72947" lon="5.65968">
        <ele>402.32</ele>
        <time>2020-11-04T07:52:39.000Z</time>
      </trkpt>
      <trkpt lat="49.72947" lon="5.65968">
        <ele>402.37</ele>
        <time>2020-11-04T07:52:44.000Z</time>
      </trkpt>
      <trkpt lat="49.72947" lon="5.65968">
        <ele>402.4</ele>
        <time>2020-11-04T07:52:49.000Z</time>
      </trkpt>
      <trkpt lat="49.72947" lon="5.65968">
        <ele>402.42</ele>
        <time>2020-11-04T07:52:54.000Z</time>
      </trkpt>
      <trkpt lat="49.72947" lon="5.65968">
        <ele>402.43</ele>
        <time>2020-11-04T07:52:59.000Z</time>
      </trkpt>
      <trkpt lat="49.72947" lon="5.65967">
        <ele>402.43</ele>
        <time>2020-11-04T07:53:03.477Z</time>
      </trkpt>
      <trkpt lat="49.72947" lon="5.65967">
        <ele>399.77</ele>
        <time>2020-11-04T07:53:08.164Z</time>
      </trkpt>
      <trkpt lat="49.7295" lon="5.65971">
        <ele>397.73</ele>
        <time>2020-11-04T07:53:12.712Z</time>
      </trkpt>
      <trkpt lat="49.72955" lon="5.65973">
        <ele>398.49</ele>
        <time>2020-11-04T07:53:17.000Z</time>
      </trkpt>
      <trkpt lat="49.72962" lon="5.65982">
        <ele>399.41</ele>
        <time>2020-11-04T07:53:20.000Z</time>
      </trkpt>
      <trkpt lat="49.72965" lon="5.65984">
        <ele>400.09</ele>
        <time>2020-11-04T07:53:25.000Z</time>
      </trkpt>
      <trkpt lat="49.72964" lon="5.65983">
        <ele>400.25</ele>
        <time>2020-11-04T07:53:29.176Z</time>
      </trkpt>
      <trkpt lat="49.72962" lon="5.65974">
        <ele>400.42</ele>
        <time>2020-11-04T07:53:33.631Z</time>
      </trkpt>
      <trkpt lat="49.72957" lon="5.65961">
        <ele>400.47</ele>
        <time>2020-11-04T07:53:38.490Z</time>
      </trkpt>
      <trkpt lat="49.72956" lon="5.65959">
        <ele>400.51</ele>
        <time>2020-11-04T07:53:44.104Z</time>
      </trkpt>
      <trkpt lat="49.72955" lon="5.65961">
        <ele>400.52</ele>
        <time>2020-11-04T07:53:49.000Z</time>
      </trkpt>
      <trkpt lat="49.72953" lon="5.65962">
        <ele>400.53</ele>
        <time>2020-11-04T07:53:54.000Z</time>
      </trkpt>
      <trkpt lat="49.72952" lon="5.65964">
        <ele>400.54</ele>
        <time>2020-11-04T07:53:59.000Z</time>
      </trkpt>
      <trkpt lat="49.72948" lon="5.65966">
        <ele>400.54</ele>
        <time>2020-11-04T07:54:04.000Z</time>
      </trkpt>
      <trkpt lat="49.72949" lon="5.65969">
        <ele>399.71</ele>
        <time>2020-11-04T07:54:08.801Z</time>
      </trkpt>
      <trkpt lat="49.7295" lon="5.65972">
        <ele>396.21</ele>
        <time>2020-11-04T07:54:13.304Z</time>
      </trkpt>
      <trkpt lat="49.72952" lon="5.65974">
        <ele>398.76</ele>
        <time>2020-11-04T07:54:18.169Z</time>
      </trkpt>
      <trkpt lat="49.72952" lon="5.65977">
        <ele>395.71</ele>
        <time>2020-11-04T07:54:23.000Z</time>
      </trkpt>
      <trkpt lat="49.72961" lon="5.65975">
        <ele>394.08</ele>
        <time>2020-11-04T07:54:27.865Z</time>
      </trkpt>
      <trkpt lat="49.7297" lon="5.65975">
        <ele>393.33</ele>
        <time>2020-11-04T07:54:32.000Z</time>
      </trkpt>
      <trkpt lat="49.72973" lon="5.65964">
        <ele>392.88</ele>
        <time>2020-11-04T07:54:37.000Z</time>
      </trkpt>
      <trkpt lat="49.72976" lon="5.6595">
        <ele>392.66</ele>
        <time>2020-11-04T07:54:41.483Z</time>
      </trkpt>
      <trkpt lat="49.72978" lon="5.65932">
        <ele>392.49</ele>
        <time>2020-11-04T07:54:46.531Z</time>
      </trkpt>
      <trkpt lat="49.72979" lon="5.65918">
        <ele>392.42</ele>
        <time>2020-11-04T07:54:49.000Z</time>
      </trkpt>
      <trkpt lat="49.72981" lon="5.65902">
        <ele>392.36</ele>
        <time>2020-11-04T07:54:53.000Z</time>
      </trkpt>
      <trkpt lat="49.72983" lon="5.65885">
        <ele>392.33</ele>
        <time>2020-11-04T07:54:56.000Z</time>
      </trkpt>
      <trkpt lat="49.72985" lon="5.6587">
        <ele>392.31</ele>
        <time>2020-11-04T07:54:59.000Z</time>
      </trkpt>
      <trkpt lat="49.72988" lon="5.65855">
        <ele>392.29</ele>
        <time>2020-11-04T07:55:02.000Z</time>
      </trkpt>
      <trkpt lat="49.7299" lon="5.65838">
        <ele>392.28</ele>
        <time>2020-11-04T07:55:05.000Z</time>
      </trkpt>
      <trkpt lat="49.72995" lon="5.65822">
        <ele>392.27</ele>
        <time>2020-11-04T07:55:08.000Z</time>
      </trkpt>
      <trkpt lat="49.73" lon="5.65804">
        <ele>392.26</ele>
        <time>2020-11-04T07:55:11.000Z</time>
      </trkpt>
      <trkpt lat="49.73007" lon="5.65785">
        <ele>392.26</ele>
        <time>2020-11-04T07:55:14.000Z</time>
      </trkpt>
      <trkpt lat="49.73012" lon="5.65769">
        <ele>392.25</ele>
        <time>2020-11-04T07:55:17.000Z</time>
      </trkpt>
      <trkpt lat="49.73018" lon="5.6575">
        <ele>395.27</ele>
        <time>2020-11-04T07:55:20.000Z</time>
      </trkpt>
      <trkpt lat="49.7302" lon="5.65735">
        <ele>396.74</ele>
        <time>2020-11-04T07:55:22.000Z</time>
      </trkpt>
      <trkpt lat="49.7302" lon="5.65719">
        <ele>397.85</ele>
        <time>2020-11-04T07:55:24.000Z</time>
      </trkpt>
      <trkpt lat="49.73018" lon="5.65705">
        <ele>398.59</ele>
        <time>2020-11-04T07:55:26.000Z</time>
      </trkpt>
      <trkpt lat="49.73016" lon="5.65689">
        <ele>399.2</ele>
        <time>2020-11-04T07:55:28.000Z</time>
      </trkpt>
      <trkpt lat="49.73013" lon="5.65674">
        <ele>399.64</ele>
        <time>2020-11-04T07:55:30.000Z</time>
      </trkpt>
      <trkpt lat="49.7301" lon="5.65655">
        <ele>399.98</ele>
        <time>2020-11-04T07:55:33.000Z</time>
      </trkpt>
      <trkpt lat="49.73023" lon="5.65646">
        <ele>400.19</ele>
        <time>2020-11-04T07:55:36.000Z</time>
      </trkpt>
      <trkpt lat="49.73034" lon="5.65643">
        <ele>400.35</ele>
        <time>2020-11-04T07:55:38.000Z</time>
      </trkpt>
      <trkpt lat="49.73043" lon="5.6564">
        <ele>400.32</ele>
        <time>2020-11-04T07:55:40.000Z</time>
      </trkpt>
      <trkpt lat="49.73055" lon="5.65637">
        <ele>399.97</ele>
        <time>2020-11-04T07:55:43.433Z</time>
      </trkpt>
      <trkpt lat="49.73067" lon="5.65633">
        <ele>399.3</ele>
        <time>2020-11-04T07:55:46.000Z</time>
      </trkpt>
      <trkpt lat="49.73069" lon="5.65632">
        <ele>398.24</ele>
        <time>2020-11-04T07:55:50.300Z</time>
      </trkpt>
      <trkpt lat="49.73085" lon="5.65626">
        <ele>397.55</ele>
        <time>2020-11-04T07:55:52.000Z</time>
      </trkpt>
      <trkpt lat="49.73092" lon="5.65627">
        <ele>397.02</ele>
        <time>2020-11-04T07:55:57.000Z</time>
      </trkpt>
      <trkpt lat="49.73092" lon="5.65628">
        <ele>396.49</ele>
        <time>2020-11-04T07:56:02.000Z</time>
      </trkpt>
      <trkpt lat="49.73096" lon="5.65646">
        <ele>395.1</ele>
        <time>2020-11-04T07:56:07.000Z</time>
      </trkpt>
      <trkpt lat="49.73096" lon="5.65663">
        <ele>394.5</ele>
        <time>2020-11-04T07:56:10.000Z</time>
      </trkpt>
      <trkpt lat="49.73095" lon="5.65679">
        <ele>394.23</ele>
        <time>2020-11-04T07:56:12.000Z</time>
      </trkpt>
      <trkpt lat="49.73096" lon="5.65695">
        <ele>394.03</ele>
        <time>2020-11-04T07:56:14.000Z</time>
      </trkpt>
      <trkpt lat="49.73097" lon="5.65712">
        <ele>393.69</ele>
        <time>2020-11-04T07:56:16.000Z</time>
      </trkpt>
      <trkpt lat="49.73097" lon="5.65727">
        <ele>393.78</ele>
        <time>2020-11-04T07:56:18.000Z</time>
      </trkpt>
      <trkpt lat="49.73096" lon="5.65745">
        <ele>394.32</ele>
        <time>2020-11-04T07:56:20.000Z</time>
      </trkpt>
      <trkpt lat="49.73097" lon="5.65763">
        <ele>394.92</ele>
        <time>2020-11-04T07:56:22.000Z</time>
      </trkpt>
      <trkpt lat="49.73098" lon="5.65784">
        <ele>395.36</ele>
        <time>2020-11-04T07:56:24.000Z</time>
      </trkpt>
      <trkpt lat="49.731" lon="5.65803">
        <ele>395.71</ele>
        <time>2020-11-04T07:56:26.000Z</time>
      </trkpt>
      <trkpt lat="49.73101" lon="5.65823">
        <ele>396.07</ele>
        <time>2020-11-04T07:56:28.000Z</time>
      </trkpt>
      <trkpt lat="49.73102" lon="5.65844">
        <ele>396.29</ele>
        <time>2020-11-04T07:56:30.000Z</time>
      </trkpt>
      <trkpt lat="49.73102" lon="5.65865">
        <ele>396.54</ele>
        <time>2020-11-04T07:56:32.000Z</time>
      </trkpt>
      <trkpt lat="49.73102" lon="5.65885">
        <ele>396.6</ele>
        <time>2020-11-04T07:56:34.000Z</time>
      </trkpt>
      <trkpt lat="49.73101" lon="5.65906">
        <ele>396.48</ele>
        <time>2020-11-04T07:56:36.000Z</time>
      </trkpt>
      <trkpt lat="49.731" lon="5.65926">
        <ele>396.14</ele>
        <time>2020-11-04T07:56:38.000Z</time>
      </trkpt>
      <trkpt lat="49.73097" lon="5.65946">
        <ele>395.41</ele>
        <time>2020-11-04T07:56:40.000Z</time>
      </trkpt>
      <trkpt lat="49.73094" lon="5.65966">
        <ele>394.67</ele>
        <time>2020-11-04T07:56:42.000Z</time>
      </trkpt>
      <trkpt lat="49.73088" lon="5.65983">
        <ele>394.11</ele>
        <time>2020-11-04T07:56:44.000Z</time>
      </trkpt>
      <trkpt lat="49.73095" lon="5.65996">
        <ele>392.61</ele>
        <time>2020-11-04T07:56:48.000Z</time>
      </trkpt>
      <trkpt lat="49.73108" lon="5.65998">
        <ele>391.08</ele>
        <time>2020-11-04T07:56:50.000Z</time>
      </trkpt>
      <trkpt lat="49.73119" lon="5.65999">
        <ele>389.52</ele>
        <time>2020-11-04T07:56:52.000Z</time>
      </trkpt>
      <trkpt lat="49.73131" lon="5.66">
        <ele>387.15</ele>
        <time>2020-11-04T07:56:55.000Z</time>
      </trkpt>
      <trkpt lat="49.73138" lon="5.66005">
        <ele>385.06</ele>
        <time>2020-11-04T07:56:59.470Z</time>
      </trkpt>
      <trkpt lat="49.73129" lon="5.66018">
        <ele>384.06</ele>
        <time>2020-11-04T07:57:03.508Z</time>
      </trkpt>
      <trkpt lat="49.73118" lon="5.6603">
        <ele>384.14</ele>
        <time>2020-11-04T07:57:06.488Z</time>
      </trkpt>
      <trkpt lat="49.73109" lon="5.66042">
        <ele>384.73</ele>
        <time>2020-11-04T07:57:09.532Z</time>
      </trkpt>
      <trkpt lat="49.731" lon="5.66054">
        <ele>385.29</ele>
        <time>2020-11-04T07:57:12.000Z</time>
      </trkpt>
      <trkpt lat="49.73093" lon="5.66065">
        <ele>385.94</ele>
        <time>2020-11-04T07:57:14.517Z</time>
      </trkpt>
      <trkpt lat="49.73091" lon="5.66081">
        <ele>386.67</ele>
        <time>2020-11-04T07:57:17.493Z</time>
      </trkpt>
      <trkpt lat="49.73082" lon="5.66098">
        <ele>387.52</ele>
        <time>2020-11-04T07:57:20.481Z</time>
      </trkpt>
      <trkpt lat="49.73077" lon="5.66115">
        <ele>387.77</ele>
        <time>2020-11-04T07:57:22.000Z</time>
      </trkpt>
      <trkpt lat="49.73071" lon="5.6613">
        <ele>387.96</ele>
        <time>2020-11-04T07:57:24.512Z</time>
      </trkpt>
      <trkpt lat="49.73066" lon="5.66151">
        <ele>386.25</ele>
        <time>2020-11-04T07:57:28.481Z</time>
      </trkpt>
      <trkpt lat="49.73063" lon="5.66167">
        <ele>385.45</ele>
        <time>2020-11-04T07:57:30.492Z</time>
      </trkpt>
      <trkpt lat="49.7306" lon="5.66187">
        <ele>384.91</ele>
        <time>2020-11-04T07:57:33.506Z</time>
      </trkpt>
      <trkpt lat="49.7306" lon="5.66203">
        <ele>384.96</ele>
        <time>2020-11-04T07:57:36.487Z</time>
      </trkpt>
      <trkpt lat="49.73055" lon="5.66217">
        <ele>385.31</ele>
        <time>2020-11-04T07:57:38.496Z</time>
      </trkpt>
      <trkpt lat="49.73052" lon="5.66233">
        <ele>385.26</ele>
        <time>2020-11-04T07:57:41.478Z</time>
      </trkpt>
      <trkpt lat="49.73047" lon="5.66246">
        <ele>384.47</ele>
        <time>2020-11-04T07:57:45.478Z</time>
      </trkpt>
      <trkpt lat="49.73042" lon="5.66261">
        <ele>384.29</ele>
        <time>2020-11-04T07:57:49.495Z</time>
      </trkpt>
      <trkpt lat="49.73037" lon="5.66277">
        <ele>385.53</ele>
        <time>2020-11-04T07:57:53.478Z</time>
      </trkpt>
      <trkpt lat="49.73041" lon="5.66292">
        <ele>386.83</ele>
        <time>2020-11-04T07:57:57.135Z</time>
      </trkpt>
      <trkpt lat="49.73047" lon="5.66304">
        <ele>386.89</ele>
        <time>2020-11-04T07:57:59.220Z</time>
      </trkpt>
      <trkpt lat="49.73052" lon="5.66315">
        <ele>386.97</ele>
        <time>2020-11-04T07:58:01.224Z</time>
      </trkpt>
      <trkpt lat="49.73058" lon="5.66332">
        <ele>387.01</ele>
        <time>2020-11-04T07:58:03.480Z</time>
      </trkpt>
      <trkpt lat="49.73063" lon="5.66346">
        <ele>387.05</ele>
        <time>2020-11-04T07:58:05.498Z</time>
      </trkpt>
      <trkpt lat="49.73066" lon="5.6636">
        <ele>387.1</ele>
        <time>2020-11-04T07:58:07.491Z</time>
      </trkpt>
      <trkpt lat="49.73069" lon="5.66379">
        <ele>387.48</ele>
        <time>2020-11-04T07:58:10.491Z</time>
      </trkpt>
      <trkpt lat="49.73073" lon="5.66395">
        <ele>388.12</ele>
        <time>2020-11-04T07:58:13.454Z</time>
      </trkpt>
      <trkpt lat="49.73076" lon="5.66414">
        <ele>387.93</ele>
        <time>2020-11-04T07:58:16.480Z</time>
      </trkpt>
      <trkpt lat="49.73078" lon="5.66436">
        <ele>386.57</ele>
        <time>2020-11-04T07:58:19.482Z</time>
      </trkpt>
      <trkpt lat="49.73074" lon="5.66454">
        <ele>384.96</ele>
        <time>2020-11-04T07:58:22.460Z</time>
      </trkpt>
      <trkpt lat="49.73071" lon="5.66469">
        <ele>384.47</ele>
        <time>2020-11-04T07:58:24.462Z</time>
      </trkpt>
      <trkpt lat="49.73068" lon="5.66486">
        <ele>384.64</ele>
        <time>2020-11-04T07:58:26.718Z</time>
      </trkpt>
      <trkpt lat="49.73063" lon="5.665">
        <ele>385.08</ele>
        <time>2020-11-04T07:58:29.466Z</time>
      </trkpt>
      <trkpt lat="49.73061" lon="5.66517">
        <ele>385.87</ele>
        <time>2020-11-04T07:58:31.456Z</time>
      </trkpt>
      <trkpt lat="49.73059" lon="5.66533">
        <ele>386.56</ele>
        <time>2020-11-04T07:58:33.459Z</time>
      </trkpt>
      <trkpt lat="49.73057" lon="5.66549">
        <ele>387.46</ele>
        <time>2020-11-04T07:58:36.000Z</time>
      </trkpt>
      <trkpt lat="49.73057" lon="5.66567">
        <ele>387.78</ele>
        <time>2020-11-04T07:58:38.000Z</time>
      </trkpt>
      <trkpt lat="49.73057" lon="5.66584">
        <ele>387.87</ele>
        <time>2020-11-04T07:58:40.000Z</time>
      </trkpt>
      <trkpt lat="49.73055" lon="5.66601">
        <ele>387.82</ele>
        <time>2020-11-04T07:58:42.000Z</time>
      </trkpt>
      <trkpt lat="49.73053" lon="5.66618">
        <ele>387.78</ele>
        <time>2020-11-04T07:58:44.000Z</time>
      </trkpt>
      <trkpt lat="49.73056" lon="5.66636">
        <ele>387.48</ele>
        <time>2020-11-04T07:58:46.000Z</time>
      </trkpt>
      <trkpt lat="49.73059" lon="5.66652">
        <ele>387.12</ele>
        <time>2020-11-04T07:58:48.000Z</time>
      </trkpt>
      <trkpt lat="49.73062" lon="5.66667">
        <ele>386.75</ele>
        <time>2020-11-04T07:58:50.000Z</time>
      </trkpt>
      <trkpt lat="49.73062" lon="5.66687">
        <ele>386.39</ele>
        <time>2020-11-04T07:58:53.000Z</time>
      </trkpt>
      <trkpt lat="49.73062" lon="5.66703">
        <ele>386.19</ele>
        <time>2020-11-04T07:58:55.000Z</time>
      </trkpt>
      <trkpt lat="49.73063" lon="5.66724">
        <ele>385.68</ele>
        <time>2020-11-04T07:58:59.477Z</time>
      </trkpt>
      <trkpt lat="49.73066" lon="5.66737">
        <ele>385.36</ele>
        <time>2020-11-04T07:59:01.390Z</time>
      </trkpt>
      <trkpt lat="49.73069" lon="5.66752">
        <ele>385.11</ele>
        <time>2020-11-04T07:59:03.481Z</time>
      </trkpt>
      <trkpt lat="49.73074" lon="5.6677">
        <ele>384.86</ele>
        <time>2020-11-04T07:59:06.485Z</time>
      </trkpt>
      <trkpt lat="49.73081" lon="5.66785">
        <ele>384.55</ele>
        <time>2020-11-04T07:59:09.483Z</time>
      </trkpt>
      <trkpt lat="49.73086" lon="5.66798">
        <ele>384.42</ele>
        <time>2020-11-04T07:59:12.475Z</time>
      </trkpt>
      <trkpt lat="49.73089" lon="5.66815">
        <ele>384.14</ele>
        <time>2020-11-04T07:59:16.478Z</time>
      </trkpt>
      <trkpt lat="49.73097" lon="5.66828">
        <ele>384.17</ele>
        <time>2020-11-04T07:59:19.470Z</time>
      </trkpt>
      <trkpt lat="49.73102" lon="5.66843">
        <ele>384.12</ele>
        <time>2020-11-04T07:59:22.473Z</time>
      </trkpt>
      <trkpt lat="49.7311" lon="5.66855">
        <ele>384.57</ele>
        <time>2020-11-04T07:59:25.213Z</time>
      </trkpt>
      <trkpt lat="49.73114" lon="5.66868">
        <ele>385.89</ele>
        <time>2020-11-04T07:59:28.470Z</time>
      </trkpt>
      <trkpt lat="49.73118" lon="5.66883">
        <ele>387.62</ele>
        <time>2020-11-04T07:59:31.000Z</time>
      </trkpt>
      <trkpt lat="49.73124" lon="5.66894">
        <ele>388.61</ele>
        <time>2020-11-04T07:59:33.460Z</time>
      </trkpt>
      <trkpt lat="49.7313" lon="5.66909">
        <ele>389.9</ele>
        <time>2020-11-04T07:59:36.477Z</time>
      </trkpt>
      <trkpt lat="49.73134" lon="5.66923">
        <ele>391.12</ele>
        <time>2020-11-04T07:59:39.479Z</time>
      </trkpt>
      <trkpt lat="49.73139" lon="5.66937">
        <ele>392.28</ele>
        <time>2020-11-04T07:59:42.483Z</time>
      </trkpt>
      <trkpt lat="49.73144" lon="5.66951">
        <ele>393.45</ele>
        <time>2020-11-04T07:59:45.468Z</time>
      </trkpt>
      <trkpt lat="49.73148" lon="5.66966">
        <ele>394.61</ele>
        <time>2020-11-04T07:59:48.489Z</time>
      </trkpt>
      <trkpt lat="49.73154" lon="5.6698">
        <ele>395.69</ele>
        <time>2020-11-04T07:59:51.484Z</time>
      </trkpt>
      <trkpt lat="49.73161" lon="5.66994">
        <ele>396.59</ele>
        <time>2020-11-04T07:59:54.524Z</time>
      </trkpt>
      <trkpt lat="49.73168" lon="5.67009">
        <ele>397.54</ele>
        <time>2020-11-04T07:59:58.471Z</time>
      </trkpt>
      <trkpt lat="49.73173" lon="5.67024">
        <ele>397.76</ele>
        <time>2020-11-04T08:00:01.480Z</time>
      </trkpt>
      <trkpt lat="49.73183" lon="5.67031">
        <ele>398.1</ele>
        <time>2020-11-04T08:00:04.463Z</time>
      </trkpt>
      <trkpt lat="49.73192" lon="5.67034">
        <ele>397.06</ele>
        <time>2020-11-04T08:00:06.000Z</time>
      </trkpt>
      <trkpt lat="49.73205" lon="5.67039">
        <ele>395.79</ele>
        <time>2020-11-04T08:00:08.000Z</time>
      </trkpt>
      <trkpt lat="49.73219" lon="5.67047">
        <ele>394.54</ele>
        <time>2020-11-04T08:00:10.000Z</time>
      </trkpt>
      <trkpt lat="49.73233" lon="5.67055">
        <ele>393.53</ele>
        <time>2020-11-04T08:00:12.000Z</time>
      </trkpt>
      <trkpt lat="49.73247" lon="5.67064">
        <ele>392.78</ele>
        <time>2020-11-04T08:00:14.000Z</time>
      </trkpt>
      <trkpt lat="49.73261" lon="5.6707">
        <ele>392.29</ele>
        <time>2020-11-04T08:00:16.000Z</time>
      </trkpt>
      <trkpt lat="49.73276" lon="5.67081">
        <ele>391.82</ele>
        <time>2020-11-04T08:00:18.000Z</time>
      </trkpt>
      <trkpt lat="49.7329" lon="5.67092">
        <ele>391.93</ele>
        <time>2020-11-04T08:00:20.000Z</time>
      </trkpt>
      <trkpt lat="49.73305" lon="5.67097">
        <ele>392.21</ele>
        <time>2020-11-04T08:00:22.000Z</time>
      </trkpt>
      <trkpt lat="49.73319" lon="5.67106">
        <ele>392.55</ele>
        <time>2020-11-04T08:00:24.000Z</time>
      </trkpt>
      <trkpt lat="49.73332" lon="5.6711">
        <ele>393</ele>
        <time>2020-11-04T08:00:26.000Z</time>
      </trkpt>
      <trkpt lat="49.73349" lon="5.67115">
        <ele>392.49</ele>
        <time>2020-11-04T08:00:28.000Z</time>
      </trkpt>
      <trkpt lat="49.73363" lon="5.67115">
        <ele>391.83</ele>
        <time>2020-11-04T08:00:30.000Z</time>
      </trkpt>
      <trkpt lat="49.73376" lon="5.67114">
        <ele>391.31</ele>
        <time>2020-11-04T08:00:32.000Z</time>
      </trkpt>
      <trkpt lat="49.73387" lon="5.67113">
        <ele>391</ele>
        <time>2020-11-04T08:00:34.000Z</time>
      </trkpt>
      <trkpt lat="49.73397" lon="5.67113">
        <ele>390.73</ele>
        <time>2020-11-04T08:00:36.000Z</time>
      </trkpt>
      <trkpt lat="49.73408" lon="5.67115">
        <ele>390.71</ele>
        <time>2020-11-04T08:00:39.000Z</time>
      </trkpt>
      <trkpt lat="49.73417" lon="5.67118">
        <ele>391.05</ele>
        <time>2020-11-04T08:00:42.000Z</time>
      </trkpt>
      <trkpt lat="49.73427" lon="5.67126">
        <ele>391.6</ele>
        <time>2020-11-04T08:00:45.481Z</time>
      </trkpt>
      <trkpt lat="49.73438" lon="5.67133">
        <ele>391.28</ele>
        <time>2020-11-04T08:00:49.000Z</time>
      </trkpt>
      <trkpt lat="49.7345" lon="5.67139">
        <ele>391.11</ele>
        <time>2020-11-04T08:00:51.473Z</time>
      </trkpt>
      <trkpt lat="49.73459" lon="5.67137">
        <ele>389.84</ele>
        <time>2020-11-04T08:00:55.509Z</time>
      </trkpt>
      <trkpt lat="49.73461" lon="5.67137">
        <ele>388.1</ele>
        <time>2020-11-04T08:01:00.480Z</time>
      </trkpt>
      <trkpt lat="49.73468" lon="5.67137">
        <ele>386.45</ele>
        <time>2020-11-04T08:01:04.490Z</time>
      </trkpt>
      <trkpt lat="49.73467" lon="5.67136">
        <ele>385.65</ele>
        <time>2020-11-04T08:01:08.751Z</time>
      </trkpt>
      <trkpt lat="49.73468" lon="5.67139">
        <ele>387.05</ele>
        <time>2020-11-04T08:01:13.000Z</time>
      </trkpt>
      <trkpt lat="49.73468" lon="5.67141">
        <ele>388.3</ele>
        <time>2020-11-04T08:01:18.000Z</time>
      </trkpt>
      <trkpt lat="49.73468" lon="5.67139">
        <ele>388.89</ele>
        <time>2020-11-04T08:01:23.000Z</time>
      </trkpt>
      <trkpt lat="49.73469" lon="5.67132">
        <ele>389.23</ele>
        <time>2020-11-04T08:01:28.000Z</time>
      </trkpt>
      <trkpt lat="49.73469" lon="5.67131">
        <ele>389.46</ele>
        <time>2020-11-04T08:01:33.000Z</time>
      </trkpt>
      <trkpt lat="49.73468" lon="5.67131">
        <ele>389.59</ele>
        <time>2020-11-04T08:01:38.000Z</time>
      </trkpt>
      <trkpt lat="49.73468" lon="5.67132">
        <ele>389.98</ele>
        <time>2020-11-04T08:01:43.000Z</time>
      </trkpt>
      <trkpt lat="49.73468" lon="5.67132">
        <ele>389.92</ele>
        <time>2020-11-04T08:01:48.000Z</time>
      </trkpt>
      <trkpt lat="49.73468" lon="5.67132">
        <ele>389.83</ele>
        <time>2020-11-04T08:01:53.000Z</time>
      </trkpt>
      <trkpt lat="49.73468" lon="5.67132">
        <ele>390.03</ele>
        <time>2020-11-04T08:01:58.000Z</time>
      </trkpt>
      <trkpt lat="49.73469" lon="5.67132">
        <ele>390.19</ele>
        <time>2020-11-04T08:02:03.000Z</time>
      </trkpt>
      <trkpt lat="49.73469" lon="5.67132">
        <ele>390.29</ele>
        <time>2020-11-04T08:02:08.000Z</time>
      </trkpt>
      <trkpt lat="49.73469" lon="5.67132">
        <ele>390.1</ele>
        <time>2020-11-04T08:02:13.000Z</time>
      </trkpt>
      <trkpt lat="49.7347" lon="5.67131">
        <ele>390.19</ele>
        <time>2020-11-04T08:02:18.000Z</time>
      </trkpt>
      <trkpt lat="49.73472" lon="5.6713">
        <ele>390.29</ele>
        <time>2020-11-04T08:02:23.000Z</time>
      </trkpt>
      <trkpt lat="49.73472" lon="5.6713">
        <ele>390.35</ele>
        <time>2020-11-04T08:02:28.000Z</time>
      </trkpt>
      <trkpt lat="49.73473" lon="5.67129">
        <ele>390.38</ele>
        <time>2020-11-04T08:02:33.000Z</time>
      </trkpt>
      <trkpt lat="49.73474" lon="5.67128">
        <ele>390.4</ele>
        <time>2020-11-04T08:02:38.000Z</time>
      </trkpt>
      <trkpt lat="49.73474" lon="5.67127">
        <ele>390.41</ele>
        <time>2020-11-04T08:02:43.000Z</time>
      </trkpt>
      <trkpt lat="49.73474" lon="5.67127">
        <ele>390.18</ele>
        <time>2020-11-04T08:02:48.000Z</time>
      </trkpt>
      <trkpt lat="49.73474" lon="5.67127">
        <ele>389.99</ele>
        <time>2020-11-04T08:02:53.000Z</time>
      </trkpt>
      <trkpt lat="49.73476" lon="5.67127">
        <ele>390.16</ele>
        <time>2020-11-04T08:02:58.000Z</time>
      </trkpt>
      <trkpt lat="49.73476" lon="5.67127">
        <ele>390.28</ele>
        <time>2020-11-04T08:03:03.000Z</time>
      </trkpt>
      <trkpt lat="49.73477" lon="5.67127">
        <ele>390.35</ele>
        <time>2020-11-04T08:03:08.000Z</time>
      </trkpt>
      <trkpt lat="49.73477" lon="5.67127">
        <ele>390.39</ele>
        <time>2020-11-04T08:03:13.000Z</time>
      </trkpt>
      <trkpt lat="49.73478" lon="5.67126">
        <ele>390.41</ele>
        <time>2020-11-04T08:03:18.000Z</time>
      </trkpt>
      <trkpt lat="49.73478" lon="5.67126">
        <ele>390.13</ele>
        <time>2020-11-04T08:03:23.000Z</time>
      </trkpt>
      <trkpt lat="49.73478" lon="5.67126">
        <ele>390.23</ele>
        <time>2020-11-04T08:03:28.000Z</time>
      </trkpt>
      <trkpt lat="49.73478" lon="5.67125">
        <ele>390.03</ele>
        <time>2020-11-04T08:03:33.000Z</time>
      </trkpt>
      <trkpt lat="49.73479" lon="5.67124">
        <ele>390.18</ele>
        <time>2020-11-04T08:03:38.000Z</time>
      </trkpt>
      <trkpt lat="49.73479" lon="5.67124">
        <ele>390.29</ele>
        <time>2020-11-04T08:03:43.000Z</time>
      </trkpt>
      <trkpt lat="49.73479" lon="5.67125">
        <ele>390.36</ele>
        <time>2020-11-04T08:03:48.000Z</time>
      </trkpt>
      <trkpt lat="49.7348" lon="5.67126">
        <ele>390.1</ele>
        <time>2020-11-04T08:03:53.000Z</time>
      </trkpt>
      <trkpt lat="49.73479" lon="5.67127">
        <ele>389.93</ele>
        <time>2020-11-04T08:03:58.000Z</time>
      </trkpt>
      <trkpt lat="49.7348" lon="5.67126">
        <ele>390.12</ele>
        <time>2020-11-04T08:04:03.000Z</time>
      </trkpt>
      <trkpt lat="49.7348" lon="5.67126">
        <ele>390.26</ele>
        <time>2020-11-04T08:04:08.000Z</time>
      </trkpt>
      <trkpt lat="49.7348" lon="5.67127">
        <ele>390.34</ele>
        <time>2020-11-04T08:04:13.000Z</time>
      </trkpt>
      <trkpt lat="49.7348" lon="5.67128">
        <ele>390.38</ele>
        <time>2020-11-04T08:04:18.000Z</time>
      </trkpt>
      <trkpt lat="49.7348" lon="5.67127">
        <ele>390.4</ele>
        <time>2020-11-04T08:04:23.000Z</time>
      </trkpt>
      <trkpt lat="49.7348" lon="5.67127">
        <ele>390.41</ele>
        <time>2020-11-04T08:04:28.000Z</time>
      </trkpt>
      <trkpt lat="49.7348" lon="5.67127">
        <ele>390.42</ele>
        <time>2020-11-04T08:04:33.000Z</time>
      </trkpt>
      <trkpt lat="49.7348" lon="5.67127">
        <ele>390.42</ele>
        <time>2020-11-04T08:04:38.000Z</time>
      </trkpt>
      <trkpt lat="49.7348" lon="5.67127">
        <ele>390.14</ele>
        <time>2020-11-04T08:04:43.000Z</time>
      </trkpt>
      <trkpt lat="49.73474" lon="5.67123">
        <ele>390.23</ele>
        <time>2020-11-04T08:04:48.000Z</time>
      </trkpt>
      <trkpt lat="49.73464" lon="5.67121">
        <ele>390.3</ele>
        <time>2020-11-04T08:04:52.000Z</time>
      </trkpt>
      <trkpt lat="49.73455" lon="5.67117">
        <ele>390.33</ele>
        <time>2020-11-04T08:04:55.000Z</time>
      </trkpt>
      <trkpt lat="49.73445" lon="5.67112">
        <ele>390.36</ele>
        <time>2020-11-04T08:04:58.000Z</time>
      </trkpt>
      <trkpt lat="49.73434" lon="5.67107">
        <ele>390.38</ele>
        <time>2020-11-04T08:05:01.000Z</time>
      </trkpt>
      <trkpt lat="49.73431" lon="5.67094">
        <ele>390.4</ele>
        <time>2020-11-04T08:05:06.000Z</time>
      </trkpt>
      <trkpt lat="49.73438" lon="5.67087">
        <ele>390.41</ele>
        <time>2020-11-04T08:05:11.000Z</time>
      </trkpt>
      <trkpt lat="49.73444" lon="5.67081">
        <ele>390.42</ele>
        <time>2020-11-04T08:05:15.474Z</time>
      </trkpt>
      <trkpt lat="49.7345" lon="5.67066">
        <ele>390.42</ele>
        <time>2020-11-04T08:05:18.494Z</time>
      </trkpt>
      <trkpt lat="49.73455" lon="5.67052">
        <ele>390.42</ele>
        <time>2020-11-04T08:05:22.489Z</time>
      </trkpt>
      <trkpt lat="49.73461" lon="5.67048">
        <ele>390.43</ele>
        <time>2020-11-04T08:05:27.327Z</time>
      </trkpt>
      <trkpt lat="49.7347" lon="5.67053">
        <ele>390.43</ele>
        <time>2020-11-04T08:05:32.000Z</time>
      </trkpt>
      <trkpt lat="49.7348" lon="5.67053">
        <ele>390.43</ele>
        <time>2020-11-04T08:05:37.000Z</time>
      </trkpt>
      <trkpt lat="49.73484" lon="5.67039">
        <ele>390.43</ele>
        <time>2020-11-04T08:05:41.000Z</time>
      </trkpt>
      <trkpt lat="49.73479" lon="5.67026">
        <ele>390.62</ele>
        <time>2020-11-04T08:05:45.000Z</time>
      </trkpt>
      <trkpt lat="49.73472" lon="5.67014">
        <ele>391.77</ele>
        <time>2020-11-04T08:05:49.000Z</time>
      </trkpt>
      <trkpt lat="49.73468" lon="5.67006">
        <ele>395.07</ele>
        <time>2020-11-04T08:05:54.000Z</time>
      </trkpt>
      <trkpt lat="49.73462" lon="5.66996">
        <ele>397.92</ele>
        <time>2020-11-04T08:05:58.518Z</time>
      </trkpt>
      <trkpt lat="49.73457" lon="5.66983">
        <ele>400.05</ele>
        <time>2020-11-04T08:06:02.028Z</time>
      </trkpt>
      <trkpt lat="49.73457" lon="5.66976">
        <ele>403.45</ele>
        <time>2020-11-04T08:06:07.000Z</time>
      </trkpt>
      <trkpt lat="49.73456" lon="5.66973">
        <ele>405.61</ele>
        <time>2020-11-04T08:06:11.905Z</time>
      </trkpt>
      <trkpt lat="49.73448" lon="5.66962">
        <ele>406.57</ele>
        <time>2020-11-04T08:06:16.476Z</time>
      </trkpt>
      <trkpt lat="49.73449" lon="5.66963">
        <ele>407.71</ele>
        <time>2020-11-04T08:06:20.484Z</time>
      </trkpt>
      <trkpt lat="49.7345" lon="5.66964">
        <ele>408.31</ele>
        <time>2020-11-04T08:06:24.529Z</time>
      </trkpt>
      <trkpt lat="49.73449" lon="5.66964">
        <ele>408.42</ele>
        <time>2020-11-04T08:06:29.000Z</time>
      </trkpt>
      <trkpt lat="49.73447" lon="5.66965">
        <ele>407.82</ele>
        <time>2020-11-04T08:06:34.000Z</time>
      </trkpt>
      <trkpt lat="49.73445" lon="5.66967">
        <ele>406.97</ele>
        <time>2020-11-04T08:06:38.737Z</time>
      </trkpt>
      <trkpt lat="49.73443" lon="5.66971">
        <ele>406.62</ele>
        <time>2020-11-04T08:06:43.000Z</time>
      </trkpt>
      <trkpt lat="49.73441" lon="5.66973">
        <ele>405.81</ele>
        <time>2020-11-04T08:06:48.000Z</time>
      </trkpt>
      <trkpt lat="49.73441" lon="5.66974">
        <ele>404.54</ele>
        <time>2020-11-04T08:06:53.000Z</time>
      </trkpt>
      <trkpt lat="49.73441" lon="5.66976">
        <ele>403.47</ele>
        <time>2020-11-04T08:06:58.000Z</time>
      </trkpt>
      <trkpt lat="49.73441" lon="5.66977">
        <ele>402.45</ele>
        <time>2020-11-04T08:07:03.000Z</time>
      </trkpt>
      <trkpt lat="49.73441" lon="5.66977">
        <ele>401.86</ele>
        <time>2020-11-04T08:07:08.000Z</time>
      </trkpt>
      <trkpt lat="49.73441" lon="5.66976">
        <ele>401.61</ele>
        <time>2020-11-04T08:07:13.000Z</time>
      </trkpt>
      <trkpt lat="49.7344" lon="5.66973">
        <ele>401.2</ele>
        <time>2020-11-04T08:07:18.000Z</time>
      </trkpt>
      <trkpt lat="49.73439" lon="5.66971">
        <ele>400.26</ele>
        <time>2020-11-04T08:07:23.000Z</time>
      </trkpt>
      <trkpt lat="49.73439" lon="5.66971">
        <ele>399.55</ele>
        <time>2020-11-04T08:07:28.000Z</time>
      </trkpt>
      <trkpt lat="49.73439" lon="5.66971">
        <ele>399.12</ele>
        <time>2020-11-04T08:07:33.000Z</time>
      </trkpt>
      <trkpt lat="49.73438" lon="5.66971">
        <ele>398.89</ele>
        <time>2020-11-04T08:07:38.000Z</time>
      </trkpt>
      <trkpt lat="49.73438" lon="5.66972">
        <ele>398.84</ele>
        <time>2020-11-04T08:07:43.000Z</time>
      </trkpt>
      <trkpt lat="49.73438" lon="5.66972">
        <ele>398.84</ele>
        <time>2020-11-04T08:07:48.000Z</time>
      </trkpt>
      <trkpt lat="49.73438" lon="5.66972">
        <ele>398.97</ele>
        <time>2020-11-04T08:07:53.000Z</time>
      </trkpt>
      <trkpt lat="49.73438" lon="5.66972">
        <ele>398.92</ele>
        <time>2020-11-04T08:07:58.000Z</time>
      </trkpt>
      <trkpt lat="49.73437" lon="5.66972">
        <ele>398.65</ele>
        <time>2020-11-04T08:08:03.000Z</time>
      </trkpt>
      <trkpt lat="49.73437" lon="5.66972">
        <ele>398.46</ele>
        <time>2020-11-04T08:08:08.000Z</time>
      </trkpt>
      <trkpt lat="49.73437" lon="5.66972">
        <ele>398.36</ele>
        <time>2020-11-04T08:08:13.000Z</time>
      </trkpt>
      <trkpt lat="49.73437" lon="5.66972">
        <ele>398.31</ele>
        <time>2020-11-04T08:08:18.000Z</time>
      </trkpt>
      <trkpt lat="49.73437" lon="5.66972">
        <ele>398.28</ele>
        <time>2020-11-04T08:08:23.000Z</time>
      </trkpt>
      <trkpt lat="49.73437" lon="5.66972">
        <ele>398.26</ele>
        <time>2020-11-04T08:08:28.000Z</time>
      </trkpt>
      <trkpt lat="49.73437" lon="5.66972">
        <ele>398.26</ele>
        <time>2020-11-04T08:08:33.000Z</time>
      </trkpt>
      <trkpt lat="49.73437" lon="5.66972">
        <ele>398.26</ele>
        <time>2020-11-04T08:08:38.000Z</time>
      </trkpt>
      <trkpt lat="49.73437" lon="5.66972">
        <ele>398.26</ele>
        <time>2020-11-04T08:08:43.000Z</time>
      </trkpt>
      <trkpt lat="49.73437" lon="5.66972">
        <ele>398.25</ele>
        <time>2020-11-04T08:08:48.000Z</time>
      </trkpt>
      <trkpt lat="49.73437" lon="5.66972">
        <ele>398.25</ele>
        <time>2020-11-04T08:08:53.000Z</time>
      </trkpt>
      <trkpt lat="49.73437" lon="5.66972">
        <ele>398.24</ele>
        <time>2020-11-04T08:08:58.000Z</time>
      </trkpt>
      <trkpt lat="49.73436" lon="5.66971">
        <ele>398.27</ele>
        <time>2020-11-04T08:09:03.000Z</time>
      </trkpt>
      <trkpt lat="49.73433" lon="5.66963">
        <ele>399</ele>
        <time>2020-11-04T08:09:07.468Z</time>
      </trkpt>
      <trkpt lat="49.73425" lon="5.66951">
        <ele>399.75</ele>
        <time>2020-11-04T08:09:10.395Z</time>
      </trkpt>
      <trkpt lat="49.73422" lon="5.66935">
        <ele>401.16</ele>
        <time>2020-11-04T08:09:14.479Z</time>
      </trkpt>
      <trkpt lat="49.73419" lon="5.66923">
        <ele>403.3</ele>
        <time>2020-11-04T08:09:18.495Z</time>
      </trkpt>
      <trkpt lat="49.73412" lon="5.66909">
        <ele>405</ele>
        <time>2020-11-04T08:09:22.468Z</time>
      </trkpt>
      <trkpt lat="49.73407" lon="5.66898">
        <ele>407.16</ele>
        <time>2020-11-04T08:09:26.466Z</time>
      </trkpt>
      <trkpt lat="49.734" lon="5.66886">
        <ele>408.98</ele>
        <time>2020-11-04T08:09:30.488Z</time>
      </trkpt>
      <trkpt lat="49.73393" lon="5.66876">
        <ele>411.06</ele>
        <time>2020-11-04T08:09:35.008Z</time>
      </trkpt>
      <trkpt lat="49.73388" lon="5.66863">
        <ele>413.36</ele>
        <time>2020-11-04T08:09:39.454Z</time>
      </trkpt>
      <trkpt lat="49.73384" lon="5.66848">
        <ele>415.05</ele>
        <time>2020-11-04T08:09:44.490Z</time>
      </trkpt>
      <trkpt lat="49.73381" lon="5.66834">
        <ele>415.91</ele>
        <time>2020-11-04T08:09:48.483Z</time>
      </trkpt>
      <trkpt lat="49.73381" lon="5.66817">
        <ele>417.21</ele>
        <time>2020-11-04T08:09:52.495Z</time>
      </trkpt>
      <trkpt lat="49.7338" lon="5.668">
        <ele>419.28</ele>
        <time>2020-11-04T08:09:57.476Z</time>
      </trkpt>
      <trkpt lat="49.73378" lon="5.66789">
        <ele>421.21</ele>
        <time>2020-11-04T08:10:01.479Z</time>
      </trkpt>
      <trkpt lat="49.73376" lon="5.66774">
        <ele>422.7</ele>
        <time>2020-11-04T08:10:05.492Z</time>
      </trkpt>
      <trkpt lat="49.73377" lon="5.66758">
        <ele>424.27</ele>
        <time>2020-11-04T08:10:09.488Z</time>
      </trkpt>
      <trkpt lat="49.73378" lon="5.6674">
        <ele>425.72</ele>
        <time>2020-11-04T08:10:13.482Z</time>
      </trkpt>
      <trkpt lat="49.73378" lon="5.66726">
        <ele>427.29</ele>
        <time>2020-11-04T08:10:17.502Z</time>
      </trkpt>
      <trkpt lat="49.7338" lon="5.66709">
        <ele>427.95</ele>
        <time>2020-11-04T08:10:20.467Z</time>
      </trkpt>
      <trkpt lat="49.73381" lon="5.66693">
        <ele>428.02</ele>
        <time>2020-11-04T08:10:23.455Z</time>
      </trkpt>
      <trkpt lat="49.73381" lon="5.66676">
        <ele>427.84</ele>
        <time>2020-11-04T08:10:26.489Z</time>
      </trkpt>
      <trkpt lat="49.73381" lon="5.66657">
        <ele>427.15</ele>
        <time>2020-11-04T08:10:29.501Z</time>
      </trkpt>
      <trkpt lat="49.73381" lon="5.66642">
        <ele>426.6</ele>
        <time>2020-11-04T08:10:32.493Z</time>
      </trkpt>
      <trkpt lat="49.73381" lon="5.66628">
        <ele>426.72</ele>
        <time>2020-11-04T08:10:35.485Z</time>
      </trkpt>
      <trkpt lat="49.73382" lon="5.66612">
        <ele>426.4</ele>
        <time>2020-11-04T08:10:38.486Z</time>
      </trkpt>
      <trkpt lat="49.73385" lon="5.66595">
        <ele>425.97</ele>
        <time>2020-11-04T08:10:41.471Z</time>
      </trkpt>
      <trkpt lat="49.73388" lon="5.66581">
        <ele>425.98</ele>
        <time>2020-11-04T08:10:43.479Z</time>
      </trkpt>
      <trkpt lat="49.73393" lon="5.66566">
        <ele>428.41</ele>
        <time>2020-11-04T08:10:48.472Z</time>
      </trkpt>
      <trkpt lat="49.73396" lon="5.6655">
        <ele>429.54</ele>
        <time>2020-11-04T08:10:52.461Z</time>
      </trkpt>
      <trkpt lat="49.73398" lon="5.66536">
        <ele>428.9</ele>
        <time>2020-11-04T08:10:55.463Z</time>
      </trkpt>
      <trkpt lat="49.73401" lon="5.66521">
        <ele>426.96</ele>
        <time>2020-11-04T08:10:58.457Z</time>
      </trkpt>
      <trkpt lat="49.73404" lon="5.66507">
        <ele>425.61</ele>
        <time>2020-11-04T08:11:01.496Z</time>
      </trkpt>
      <trkpt lat="49.73404" lon="5.66492">
        <ele>425.36</ele>
        <time>2020-11-04T08:11:04.462Z</time>
      </trkpt>
      <trkpt lat="49.73405" lon="5.66476">
        <ele>425.49</ele>
        <time>2020-11-04T08:11:07.457Z</time>
      </trkpt>
      <trkpt lat="49.73407" lon="5.66459">
        <ele>424.94</ele>
        <time>2020-11-04T08:11:10.455Z</time>
      </trkpt>
      <trkpt lat="49.7341" lon="5.6644">
        <ele>424.61</ele>
        <time>2020-11-04T08:11:13.510Z</time>
      </trkpt>
      <trkpt lat="49.73413" lon="5.66425">
        <ele>424.08</ele>
        <time>2020-11-04T08:11:16.294Z</time>
      </trkpt>
      <trkpt lat="49.73417" lon="5.66406">
        <ele>424.41</ele>
        <time>2020-11-04T08:11:19.506Z</time>
      </trkpt>
      <trkpt lat="49.73421" lon="5.66389">
        <ele>425.35</ele>
        <time>2020-11-04T08:11:22.467Z</time>
      </trkpt>
      <trkpt lat="49.73423" lon="5.6637">
        <ele>426.5</ele>
        <time>2020-11-04T08:11:25.465Z</time>
      </trkpt>
      <trkpt lat="49.73425" lon="5.66357">
        <ele>427.47</ele>
        <time>2020-11-04T08:11:27.457Z</time>
      </trkpt>
      <trkpt lat="49.73427" lon="5.66337">
        <ele>429</ele>
        <time>2020-11-04T08:11:30.530Z</time>
      </trkpt>
      <trkpt lat="49.73431" lon="5.66317">
        <ele>430.79</ele>
        <time>2020-11-04T08:11:33.540Z</time>
      </trkpt>
      <trkpt lat="49.73433" lon="5.66298">
        <ele>431.95</ele>
        <time>2020-11-04T08:11:36.510Z</time>
      </trkpt>
      <trkpt lat="49.73436" lon="5.66281">
        <ele>433.05</ele>
        <time>2020-11-04T08:11:39.465Z</time>
      </trkpt>
      <trkpt lat="49.73441" lon="5.66263">
        <ele>433.93</ele>
        <time>2020-11-04T08:11:42.488Z</time>
      </trkpt>
      <trkpt lat="49.73445" lon="5.66248">
        <ele>434.56</ele>
        <time>2020-11-04T08:11:44.466Z</time>
      </trkpt>
      <trkpt lat="49.73446" lon="5.6623">
        <ele>435.01</ele>
        <time>2020-11-04T08:11:46.654Z</time>
      </trkpt>
      <trkpt lat="49.73446" lon="5.66212">
        <ele>435.23</ele>
        <time>2020-11-04T08:11:49.465Z</time>
      </trkpt>
      <trkpt lat="49.73448" lon="5.66198">
        <ele>435.64</ele>
        <time>2020-11-04T08:11:51.489Z</time>
      </trkpt>
      <trkpt lat="49.73451" lon="5.66184">
        <ele>435.79</ele>
        <time>2020-11-04T08:11:54.092Z</time>
      </trkpt>
      <trkpt lat="49.73453" lon="5.66175">
        <ele>435.85</ele>
        <time>2020-11-04T08:11:58.468Z</time>
      </trkpt>
      <trkpt lat="49.73455" lon="5.66161">
        <ele>435.86</ele>
        <time>2020-11-04T08:12:00.460Z</time>
      </trkpt>
      <trkpt lat="49.73459" lon="5.66139">
        <ele>435.48</ele>
        <time>2020-11-04T08:12:02.000Z</time>
      </trkpt>
      <trkpt lat="49.73461" lon="5.6612">
        <ele>434.66</ele>
        <time>2020-11-04T08:12:04.497Z</time>
      </trkpt>
      <trkpt lat="49.73464" lon="5.66105">
        <ele>433.79</ele>
        <time>2020-11-04T08:12:06.494Z</time>
      </trkpt>
      <trkpt lat="49.73468" lon="5.66092">
        <ele>433.02</ele>
        <time>2020-11-04T08:12:08.490Z</time>
      </trkpt>
      <trkpt lat="49.73474" lon="5.66076">
        <ele>431.79</ele>
        <time>2020-11-04T08:12:11.530Z</time>
      </trkpt>
      <trkpt lat="49.73481" lon="5.66092">
        <ele>429.71</ele>
        <time>2020-11-04T08:12:14.491Z</time>
      </trkpt>
      <trkpt lat="49.73488" lon="5.66103">
        <ele>427.41</ele>
        <time>2020-11-04T08:12:18.502Z</time>
      </trkpt>
      <trkpt lat="49.73499" lon="5.66105">
        <ele>426.13</ele>
        <time>2020-11-04T08:12:22.482Z</time>
      </trkpt>
      <trkpt lat="49.73512" lon="5.66104">
        <ele>425.09</ele>
        <time>2020-11-04T08:12:25.464Z</time>
      </trkpt>
      <trkpt lat="49.73522" lon="5.66105">
        <ele>423.98</ele>
        <time>2020-11-04T08:12:28.492Z</time>
      </trkpt>
      <trkpt lat="49.73532" lon="5.66108">
        <ele>422.78</ele>
        <time>2020-11-04T08:12:33.462Z</time>
      </trkpt>
      <trkpt lat="49.73541" lon="5.66113">
        <ele>423.83</ele>
        <time>2020-11-04T08:12:38.475Z</time>
      </trkpt>
      <trkpt lat="49.7355" lon="5.66109">
        <ele>425.87</ele>
        <time>2020-11-04T08:12:42.472Z</time>
      </trkpt>
      <trkpt lat="49.7356" lon="5.66108">
        <ele>429.21</ele>
        <time>2020-11-04T08:12:47.124Z</time>
      </trkpt>
      <trkpt lat="49.73566" lon="5.66118">
        <ele>430.96</ele>
        <time>2020-11-04T08:12:50.481Z</time>
      </trkpt>
      <trkpt lat="49.73574" lon="5.66135">
        <ele>431.13</ele>
        <time>2020-11-04T08:12:54.494Z</time>
      </trkpt>
      <trkpt lat="49.73577" lon="5.6615">
        <ele>430.63</ele>
        <time>2020-11-04T08:12:57.469Z</time>
      </trkpt>
      <trkpt lat="49.73582" lon="5.66162">
        <ele>430.18</ele>
        <time>2020-11-04T08:13:00.501Z</time>
      </trkpt>
      <trkpt lat="49.73589" lon="5.66173">
        <ele>429.35</ele>
        <time>2020-11-04T08:13:03.504Z</time>
      </trkpt>
      <trkpt lat="49.736" lon="5.66175">
        <ele>428.82</ele>
        <time>2020-11-04T08:13:06.470Z</time>
      </trkpt>
      <trkpt lat="49.73609" lon="5.66181">
        <ele>428.63</ele>
        <time>2020-11-04T08:13:09.463Z</time>
      </trkpt>
      <trkpt lat="49.73618" lon="5.66186">
        <ele>427.5</ele>
        <time>2020-11-04T08:13:13.502Z</time>
      </trkpt>
      <trkpt lat="49.73629" lon="5.6619">
        <ele>426.8</ele>
        <time>2020-11-04T08:13:18.498Z</time>
      </trkpt>
      <trkpt lat="49.7364" lon="5.66194">
        <ele>428.21</ele>
        <time>2020-11-04T08:13:23.466Z</time>
      </trkpt>
      <trkpt lat="49.73649" lon="5.66198">
        <ele>428.81</ele>
        <time>2020-11-04T08:13:27.454Z</time>
      </trkpt>
      <trkpt lat="49.7366" lon="5.66193">
        <ele>429.07</ele>
        <time>2020-11-04T08:13:31.478Z</time>
      </trkpt>
      <trkpt lat="49.7367" lon="5.66189">
        <ele>429.98</ele>
        <time>2020-11-04T08:13:34.468Z</time>
      </trkpt>
      <trkpt lat="49.73673" lon="5.66172">
        <ele>430.97</ele>
        <time>2020-11-04T08:13:37.122Z</time>
      </trkpt>
      <trkpt lat="49.73679" lon="5.66156">
        <ele>432.16</ele>
        <time>2020-11-04T08:13:40.502Z</time>
      </trkpt>
      <trkpt lat="49.73684" lon="5.66143">
        <ele>432.83</ele>
        <time>2020-11-04T08:13:43.477Z</time>
      </trkpt>
      <trkpt lat="49.73687" lon="5.66128">
        <ele>432.21</ele>
        <time>2020-11-04T08:13:47.162Z</time>
      </trkpt>
      <trkpt lat="49.73695" lon="5.66115">
        <ele>431.7</ele>
        <time>2020-11-04T08:13:51.458Z</time>
      </trkpt>
      <trkpt lat="49.73701" lon="5.66104">
        <ele>431.73</ele>
        <time>2020-11-04T08:13:55.457Z</time>
      </trkpt>
      <trkpt lat="49.73706" lon="5.66093">
        <ele>432.94</ele>
        <time>2020-11-04T08:13:59.470Z</time>
      </trkpt>
      <trkpt lat="49.73713" lon="5.66081">
        <ele>435.78</ele>
        <time>2020-11-04T08:14:04.482Z</time>
      </trkpt>
      <trkpt lat="49.73718" lon="5.66068">
        <ele>437.08</ele>
        <time>2020-11-04T08:14:08.460Z</time>
      </trkpt>
      <trkpt lat="49.73723" lon="5.66054">
        <ele>437.52</ele>
        <time>2020-11-04T08:14:10.463Z</time>
      </trkpt>
      <trkpt lat="49.73729" lon="5.66039">
        <ele>438.01</ele>
        <time>2020-11-04T08:14:13.486Z</time>
      </trkpt>
      <trkpt lat="49.7373" lon="5.66023">
        <ele>437.56</ele>
        <time>2020-11-04T08:14:16.683Z</time>
      </trkpt>
      <trkpt lat="49.73732" lon="5.66009">
        <ele>435.88</ele>
        <time>2020-11-04T08:14:19.500Z</time>
      </trkpt>
      <trkpt lat="49.73732" lon="5.65992">
        <ele>434.78</ele>
        <time>2020-11-04T08:14:22.491Z</time>
      </trkpt>
      <trkpt lat="49.73732" lon="5.65976">
        <ele>434.68</ele>
        <time>2020-11-04T08:14:25.506Z</time>
      </trkpt>
      <trkpt lat="49.7373" lon="5.65962">
        <ele>434.54</ele>
        <time>2020-11-04T08:14:28.539Z</time>
      </trkpt>
      <trkpt lat="49.73728" lon="5.65946">
        <ele>433.14</ele>
        <time>2020-11-04T08:14:32.491Z</time>
      </trkpt>
      <trkpt lat="49.7373" lon="5.65932">
        <ele>430.42</ele>
        <time>2020-11-04T08:14:35.000Z</time>
      </trkpt>
      <trkpt lat="49.73726" lon="5.65918">
        <ele>427.39</ele>
        <time>2020-11-04T08:14:38.492Z</time>
      </trkpt>
      <trkpt lat="49.73728" lon="5.65904">
        <ele>425.94</ele>
        <time>2020-11-04T08:14:41.471Z</time>
      </trkpt>
      <trkpt lat="49.73734" lon="5.65892">
        <ele>425.95</ele>
        <time>2020-11-04T08:14:45.507Z</time>
      </trkpt>
      <trkpt lat="49.7374" lon="5.65871">
        <ele>427.11</ele>
        <time>2020-11-04T08:14:49.513Z</time>
      </trkpt>
      <trkpt lat="49.73742" lon="5.65854">
        <ele>427.57</ele>
        <time>2020-11-04T08:14:51.483Z</time>
      </trkpt>
      <trkpt lat="49.73746" lon="5.65835">
        <ele>428.37</ele>
        <time>2020-11-04T08:14:54.510Z</time>
      </trkpt>
      <trkpt lat="49.73751" lon="5.65822">
        <ele>428.87</ele>
        <time>2020-11-04T08:14:56.518Z</time>
      </trkpt>
      <trkpt lat="49.73756" lon="5.6581">
        <ele>429.37</ele>
        <time>2020-11-04T08:14:58.489Z</time>
      </trkpt>
      <trkpt lat="49.73761" lon="5.65798">
        <ele>429.89</ele>
        <time>2020-11-04T08:15:01.460Z</time>
      </trkpt>
      <trkpt lat="49.73768" lon="5.65781">
        <ele>430.47</ele>
        <time>2020-11-04T08:15:04.458Z</time>
      </trkpt>
      <trkpt lat="49.73775" lon="5.65767">
        <ele>430.88</ele>
        <time>2020-11-04T08:15:07.475Z</time>
      </trkpt>
      <trkpt lat="49.73781" lon="5.65756">
        <ele>431.63</ele>
        <time>2020-11-04T08:15:10.454Z</time>
      </trkpt>
      <trkpt lat="49.73788" lon="5.65747">
        <ele>433.4</ele>
        <time>2020-11-04T08:15:14.365Z</time>
      </trkpt>
      <trkpt lat="49.73794" lon="5.65734">
        <ele>438.29</ele>
        <time>2020-11-04T08:15:19.501Z</time>
      </trkpt>
      <trkpt lat="49.73802" lon="5.65716">
        <ele>439.5</ele>
        <time>2020-11-04T08:15:22.501Z</time>
      </trkpt>
      <trkpt lat="49.73807" lon="5.657">
        <ele>440.04</ele>
        <time>2020-11-04T08:15:25.490Z</time>
      </trkpt>
      <trkpt lat="49.7381" lon="5.65687">
        <ele>440.51</ele>
        <time>2020-11-04T08:15:28.000Z</time>
      </trkpt>
      <trkpt lat="49.73813" lon="5.65673">
        <ele>440.77</ele>
        <time>2020-11-04T08:15:31.000Z</time>
      </trkpt>
      <trkpt lat="49.73822" lon="5.65661">
        <ele>440.33</ele>
        <time>2020-11-04T08:15:35.000Z</time>
      </trkpt>
      <trkpt lat="49.73832" lon="5.65649">
        <ele>440.33</ele>
        <time>2020-11-04T08:15:38.000Z</time>
      </trkpt>
      <trkpt lat="49.73838" lon="5.6564">
        <ele>440.1</ele>
        <time>2020-11-04T08:15:40.000Z</time>
      </trkpt>
      <trkpt lat="49.73845" lon="5.65629">
        <ele>439.67</ele>
        <time>2020-11-04T08:15:42.000Z</time>
      </trkpt>
      <trkpt lat="49.73853" lon="5.65614">
        <ele>438.57</ele>
        <time>2020-11-04T08:15:45.000Z</time>
      </trkpt>
      <trkpt lat="49.73857" lon="5.65594">
        <ele>437.61</ele>
        <time>2020-11-04T08:15:48.000Z</time>
      </trkpt>
      <trkpt lat="49.73856" lon="5.65575">
        <ele>436.85</ele>
        <time>2020-11-04T08:15:51.000Z</time>
      </trkpt>
      <trkpt lat="49.73856" lon="5.65559">
        <ele>436.18</ele>
        <time>2020-11-04T08:15:54.000Z</time>
      </trkpt>
      <trkpt lat="49.73856" lon="5.65543">
        <ele>435.83</ele>
        <time>2020-11-04T08:15:56.925Z</time>
      </trkpt>
      <trkpt lat="49.73857" lon="5.65527">
        <ele>436.32</ele>
        <time>2020-11-04T08:16:00.243Z</time>
      </trkpt>
      <trkpt lat="49.73852" lon="5.65518">
        <ele>437.24</ele>
        <time>2020-11-04T08:16:05.423Z</time>
      </trkpt>
      <trkpt lat="49.7385" lon="5.6551">
        <ele>436.54</ele>
        <time>2020-11-04T08:16:09.482Z</time>
      </trkpt>
      <trkpt lat="49.73849" lon="5.65506">
        <ele>434.54</ele>
        <time>2020-11-04T08:16:13.514Z</time>
      </trkpt>
      <trkpt lat="49.73846" lon="5.65499">
        <ele>432.09</ele>
        <time>2020-11-04T08:16:17.539Z</time>
      </trkpt>
      <trkpt lat="49.7384" lon="5.6549">
        <ele>429.52</ele>
        <time>2020-11-04T08:16:22.085Z</time>
      </trkpt>
      <trkpt lat="49.73832" lon="5.65478">
        <ele>430.11</ele>
        <time>2020-11-04T08:16:26.468Z</time>
      </trkpt>
      <trkpt lat="49.73825" lon="5.65469">
        <ele>431.38</ele>
        <time>2020-11-04T08:16:29.282Z</time>
      </trkpt>
      <trkpt lat="49.73819" lon="5.65458">
        <ele>432.1</ele>
        <time>2020-11-04T08:16:32.661Z</time>
      </trkpt>
      <trkpt lat="49.73812" lon="5.65447">
        <ele>432.46</ele>
        <time>2020-11-04T08:16:36.219Z</time>
      </trkpt>
      <trkpt lat="49.73803" lon="5.6544">
        <ele>432.58</ele>
        <time>2020-11-04T08:16:39.646Z</time>
      </trkpt>
      <trkpt lat="49.73792" lon="5.65432">
        <ele>432.2</ele>
        <time>2020-11-04T08:16:43.505Z</time>
      </trkpt>
      <trkpt lat="49.73783" lon="5.6543">
        <ele>432.34</ele>
        <time>2020-11-04T08:16:46.546Z</time>
      </trkpt>
      <trkpt lat="49.7377" lon="5.65427">
        <ele>432.35</ele>
        <time>2020-11-04T08:16:49.499Z</time>
      </trkpt>
      <trkpt lat="49.73759" lon="5.65414">
        <ele>431.24</ele>
        <time>2020-11-04T08:16:52.000Z</time>
      </trkpt>
      <trkpt lat="49.73753" lon="5.654">
        <ele>430.33</ele>
        <time>2020-11-04T08:16:55.023Z</time>
      </trkpt>
      <trkpt lat="49.73743" lon="5.6539">
        <ele>430.24</ele>
        <time>2020-11-04T08:16:58.000Z</time>
      </trkpt>
      <trkpt lat="49.73734" lon="5.6539">
        <ele>429.63</ele>
        <time>2020-11-04T08:16:59.983Z</time>
      </trkpt>
      <trkpt lat="49.73723" lon="5.65397">
        <ele>428.77</ele>
        <time>2020-11-04T08:17:02.007Z</time>
      </trkpt>
      <trkpt lat="49.73713" lon="5.65409">
        <ele>428.28</ele>
        <time>2020-11-04T08:17:04.472Z</time>
      </trkpt>
      <trkpt lat="49.73705" lon="5.6542">
        <ele>427.9</ele>
        <time>2020-11-04T08:17:07.384Z</time>
      </trkpt>
      <trkpt lat="49.73698" lon="5.65429">
        <ele>428.63</ele>
        <time>2020-11-04T08:17:10.127Z</time>
      </trkpt>
      <trkpt lat="49.73692" lon="5.65441">
        <ele>430.06</ele>
        <time>2020-11-04T08:17:13.801Z</time>
      </trkpt>
      <trkpt lat="49.73688" lon="5.65457">
        <ele>430.66</ele>
        <time>2020-11-04T08:17:17.462Z</time>
      </trkpt>
      <trkpt lat="49.73683" lon="5.6547">
        <ele>431</ele>
        <time>2020-11-04T08:17:19.762Z</time>
      </trkpt>
      <trkpt lat="49.73679" lon="5.65483">
        <ele>431.04</ele>
        <time>2020-11-04T08:17:22.497Z</time>
      </trkpt>
      <trkpt lat="49.73675" lon="5.65501">
        <ele>431.05</ele>
        <time>2020-11-04T08:17:25.514Z</time>
      </trkpt>
      <trkpt lat="49.73664" lon="5.65511">
        <ele>431.81</ele>
        <time>2020-11-04T08:17:30.526Z</time>
      </trkpt>
      <trkpt lat="49.73664" lon="5.6553">
        <ele>432.33</ele>
        <time>2020-11-04T08:17:33.000Z</time>
      </trkpt>
      <trkpt lat="49.73665" lon="5.65544">
        <ele>432.71</ele>
        <time>2020-11-04T08:17:35.124Z</time>
      </trkpt>
      <trkpt lat="49.73668" lon="5.65563">
        <ele>432.99</ele>
        <time>2020-11-04T08:17:37.546Z</time>
      </trkpt>
      <trkpt lat="49.73671" lon="5.65578">
        <ele>433.35</ele>
        <time>2020-11-04T08:17:39.492Z</time>
      </trkpt>
      <trkpt lat="49.73671" lon="5.65597">
        <ele>434.59</ele>
        <time>2020-11-04T08:17:42.473Z</time>
      </trkpt>
      <trkpt lat="49.73661" lon="5.65601">
        <ele>435.29</ele>
        <time>2020-11-04T08:17:45.340Z</time>
      </trkpt>
      <trkpt lat="49.73655" lon="5.65609">
        <ele>434</ele>
        <time>2020-11-04T08:17:49.492Z</time>
      </trkpt>
      <trkpt lat="49.73652" lon="5.65619">
        <ele>433.21</ele>
        <time>2020-11-04T08:17:54.489Z</time>
      </trkpt>
      <trkpt lat="49.73651" lon="5.65628">
        <ele>433.18</ele>
        <time>2020-11-04T08:17:58.498Z</time>
      </trkpt>
      <trkpt lat="49.73653" lon="5.65643">
        <ele>433.93</ele>
        <time>2020-11-04T08:18:03.305Z</time>
      </trkpt>
      <trkpt lat="49.73645" lon="5.65657">
        <ele>434.6</ele>
        <time>2020-11-04T08:18:07.497Z</time>
      </trkpt>
      <trkpt lat="49.73639" lon="5.65668">
        <ele>434.51</ele>
        <time>2020-11-04T08:18:10.520Z</time>
      </trkpt>
      <trkpt lat="49.73633" lon="5.65667">
        <ele>434.79</ele>
        <time>2020-11-04T08:18:15.000Z</time>
      </trkpt>
      <trkpt lat="49.73625" lon="5.65673">
        <ele>435.94</ele>
        <time>2020-11-04T08:18:19.484Z</time>
      </trkpt>
      <trkpt lat="49.73616" lon="5.65683">
        <ele>437.57</ele>
        <time>2020-11-04T08:18:23.475Z</time>
      </trkpt>
      <trkpt lat="49.73605" lon="5.65687">
        <ele>438.02</ele>
        <time>2020-11-04T08:18:26.520Z</time>
      </trkpt>
      <trkpt lat="49.73597" lon="5.65678">
        <ele>436.76</ele>
        <time>2020-11-04T08:18:31.497Z</time>
      </trkpt>
      <trkpt lat="49.73589" lon="5.65669">
        <ele>434.94</ele>
        <time>2020-11-04T08:18:36.458Z</time>
      </trkpt>
      <trkpt lat="49.73579" lon="5.65663">
        <ele>434.19</ele>
        <time>2020-11-04T08:18:39.454Z</time>
      </trkpt>
      <trkpt lat="49.73574" lon="5.65651">
        <ele>433.64</ele>
        <time>2020-11-04T08:18:43.000Z</time>
      </trkpt>
      <trkpt lat="49.73565" lon="5.65638">
        <ele>433.44</ele>
        <time>2020-11-04T08:18:46.363Z</time>
      </trkpt>
      <trkpt lat="49.73562" lon="5.65624">
        <ele>433.63</ele>
        <time>2020-11-04T08:18:50.000Z</time>
      </trkpt>
      <trkpt lat="49.73558" lon="5.6561">
        <ele>434.43</ele>
        <time>2020-11-04T08:18:53.504Z</time>
      </trkpt>
      <trkpt lat="49.73555" lon="5.65597">
        <ele>434.62</ele>
        <time>2020-11-04T08:18:55.223Z</time>
      </trkpt>
      <trkpt lat="49.73548" lon="5.65585">
        <ele>434.62</ele>
        <time>2020-11-04T08:18:56.903Z</time>
      </trkpt>
      <trkpt lat="49.73543" lon="5.65573">
        <ele>433.66</ele>
        <time>2020-11-04T08:19:00.160Z</time>
      </trkpt>
      <trkpt lat="49.73545" lon="5.6556">
        <ele>431.89</ele>
        <time>2020-11-04T08:19:04.918Z</time>
      </trkpt>
      <trkpt lat="49.73549" lon="5.65546">
        <ele>431.43</ele>
        <time>2020-11-04T08:19:09.053Z</time>
      </trkpt>
      <trkpt lat="49.73553" lon="5.6553">
        <ele>430.76</ele>
        <time>2020-11-04T08:19:12.513Z</time>
      </trkpt>
      <trkpt lat="49.73559" lon="5.65519">
        <ele>429.39</ele>
        <time>2020-11-04T08:19:16.000Z</time>
      </trkpt>
      <trkpt lat="49.73559" lon="5.65504">
        <ele>427.91</ele>
        <time>2020-11-04T08:19:20.510Z</time>
      </trkpt>
      <trkpt lat="49.73559" lon="5.65488">
        <ele>427.29</ele>
        <time>2020-11-04T08:19:22.492Z</time>
      </trkpt>
      <trkpt lat="49.73567" lon="5.65479">
        <ele>426.85</ele>
        <time>2020-11-04T08:19:26.512Z</time>
      </trkpt>
      <trkpt lat="49.73572" lon="5.6547">
        <ele>426.71</ele>
        <time>2020-11-04T08:19:30.513Z</time>
      </trkpt>
      <trkpt lat="49.73577" lon="5.65456">
        <ele>426.46</ele>
        <time>2020-11-04T08:19:34.484Z</time>
      </trkpt>
      <trkpt lat="49.73581" lon="5.65436">
        <ele>425.68</ele>
        <time>2020-11-04T08:19:37.492Z</time>
      </trkpt>
      <trkpt lat="49.73584" lon="5.65421">
        <ele>424.08</ele>
        <time>2020-11-04T08:19:41.000Z</time>
      </trkpt>
      <trkpt lat="49.73585" lon="5.65416">
        <ele>422.96</ele>
        <time>2020-11-04T08:19:46.000Z</time>
      </trkpt>
      <trkpt lat="49.73585" lon="5.65416">
        <ele>422.23</ele>
        <time>2020-11-04T08:19:51.000Z</time>
      </trkpt>
      <trkpt lat="49.73585" lon="5.65417">
        <ele>421.6</ele>
        <time>2020-11-04T08:19:55.262Z</time>
      </trkpt>
      <trkpt lat="49.73586" lon="5.65416">
        <ele>420.54</ele>
        <time>2020-11-04T08:19:59.922Z</time>
      </trkpt>
      <trkpt lat="49.73586" lon="5.65414">
        <ele>419.56</ele>
        <time>2020-11-04T08:20:04.000Z</time>
      </trkpt>
      <trkpt lat="49.73587" lon="5.65413">
        <ele>418.88</ele>
        <time>2020-11-04T08:20:09.000Z</time>
      </trkpt>
      <trkpt lat="49.73588" lon="5.65413">
        <ele>418.46</ele>
        <time>2020-11-04T08:20:14.000Z</time>
      </trkpt>
      <trkpt lat="49.73589" lon="5.65413">
        <ele>418.13</ele>
        <time>2020-11-04T08:20:19.000Z</time>
      </trkpt>
      <trkpt lat="49.73589" lon="5.65414">
        <ele>417.79</ele>
        <time>2020-11-04T08:20:24.000Z</time>
      </trkpt>
      <trkpt lat="49.73589" lon="5.65414">
        <ele>417.5</ele>
        <time>2020-11-04T08:20:29.000Z</time>
      </trkpt>
      <trkpt lat="49.73589" lon="5.65414">
        <ele>417.33</ele>
        <time>2020-11-04T08:20:34.000Z</time>
      </trkpt>
      <trkpt lat="49.73589" lon="5.65413">
        <ele>417.23</ele>
        <time>2020-11-04T08:20:39.000Z</time>
      </trkpt>
      <trkpt lat="49.73589" lon="5.65413">
        <ele>417.17</ele>
        <time>2020-11-04T08:20:44.000Z</time>
      </trkpt>
      <trkpt lat="49.73589" lon="5.65413">
        <ele>417.12</ele>
        <time>2020-11-04T08:20:49.000Z</time>
      </trkpt>
      <trkpt lat="49.73589" lon="5.65413">
        <ele>417.1</ele>
        <time>2020-11-04T08:20:53.504Z</time>
      </trkpt>
      <trkpt lat="49.73589" lon="5.65413">
        <ele>417.05</ele>
        <time>2020-11-04T08:20:58.000Z</time>
      </trkpt>
      <trkpt lat="49.73589" lon="5.65413">
        <ele>417.01</ele>
        <time>2020-11-04T08:21:03.000Z</time>
      </trkpt>
      <trkpt lat="49.73589" lon="5.65413">
        <ele>416.97</ele>
        <time>2020-11-04T08:21:08.527Z</time>
      </trkpt>
      <trkpt lat="49.73589" lon="5.65412">
        <ele>416.83</ele>
        <time>2020-11-04T08:21:13.000Z</time>
      </trkpt>
      <trkpt lat="49.73589" lon="5.65412">
        <ele>416.86</ele>
        <time>2020-11-04T08:21:17.506Z</time>
      </trkpt>
      <trkpt lat="49.73588" lon="5.65412">
        <ele>416.77</ele>
        <time>2020-11-04T08:21:22.000Z</time>
      </trkpt>
      <trkpt lat="49.73588" lon="5.65411">
        <ele>416.68</ele>
        <time>2020-11-04T08:21:27.000Z</time>
      </trkpt>
      <trkpt lat="49.73588" lon="5.65411">
        <ele>416.69</ele>
        <time>2020-11-04T08:21:32.000Z</time>
      </trkpt>
      <trkpt lat="49.73588" lon="5.65412">
        <ele>417.8</ele>
        <time>2020-11-04T08:21:36.490Z</time>
      </trkpt>
      <trkpt lat="49.73589" lon="5.65399">
        <ele>419.42</ele>
        <time>2020-11-04T08:21:41.531Z</time>
      </trkpt>
      <trkpt lat="49.73594" lon="5.6538">
        <ele>419.9</ele>
        <time>2020-11-04T08:21:44.525Z</time>
      </trkpt>
      <trkpt lat="49.73599" lon="5.65363">
        <ele>420.16</ele>
        <time>2020-11-04T08:21:46.490Z</time>
      </trkpt>
      <trkpt lat="49.73603" lon="5.65347">
        <ele>420.32</ele>
        <time>2020-11-04T08:21:48.528Z</time>
      </trkpt>
      <trkpt lat="49.73611" lon="5.65333">
        <ele>419.83</ele>
        <time>2020-11-04T08:21:50.543Z</time>
      </trkpt>
      <trkpt lat="49.73618" lon="5.65324">
        <ele>419.7</ele>
        <time>2020-11-04T08:21:52.497Z</time>
      </trkpt>
      <trkpt lat="49.7363" lon="5.65329">
        <ele>419.59</ele>
        <time>2020-11-04T08:21:55.431Z</time>
      </trkpt>
      <trkpt lat="49.73635" lon="5.65318">
        <ele>419.77</ele>
        <time>2020-11-04T08:21:57.489Z</time>
      </trkpt>
      <trkpt lat="49.73639" lon="5.65299">
        <ele>420.06</ele>
        <time>2020-11-04T08:22:00.000Z</time>
      </trkpt>
      <trkpt lat="49.73637" lon="5.65283">
        <ele>420.37</ele>
        <time>2020-11-04T08:22:02.478Z</time>
      </trkpt>
      <trkpt lat="49.73625" lon="5.65273">
        <ele>420.81</ele>
        <time>2020-11-04T08:22:06.457Z</time>
      </trkpt>
      <trkpt lat="49.73617" lon="5.65266">
        <ele>420.77</ele>
        <time>2020-11-04T08:22:07.662Z</time>
      </trkpt>
      <trkpt lat="49.73613" lon="5.65253">
        <ele>420.86</ele>
        <time>2020-11-04T08:22:11.091Z</time>
      </trkpt>
      <trkpt lat="49.73612" lon="5.6524">
        <ele>420.25</ele>
        <time>2020-11-04T08:22:15.367Z</time>
      </trkpt>
      <trkpt lat="49.73616" lon="5.65234">
        <ele>418.72</ele>
        <time>2020-11-04T08:22:19.821Z</time>
      </trkpt>
      <trkpt lat="49.73617" lon="5.65225">
        <ele>417.3</ele>
        <time>2020-11-04T08:22:24.246Z</time>
      </trkpt>
      <trkpt lat="49.73619" lon="5.6521">
        <ele>414.68</ele>
        <time>2020-11-04T08:22:28.000Z</time>
      </trkpt>
      <trkpt lat="49.73626" lon="5.65203">
        <ele>411.92</ele>
        <time>2020-11-04T08:22:32.071Z</time>
      </trkpt>
      <trkpt lat="49.73626" lon="5.65188">
        <ele>410.44</ele>
        <time>2020-11-04T08:22:34.983Z</time>
      </trkpt>
      <trkpt lat="49.73631" lon="5.65187">
        <ele>408.33</ele>
        <time>2020-11-04T08:22:39.082Z</time>
      </trkpt>
      <trkpt lat="49.73632" lon="5.65176">
        <ele>399.58</ele>
        <time>2020-11-04T08:22:44.151Z</time>
      </trkpt>
      <trkpt lat="49.73635" lon="5.65161">
        <ele>394.4</ele>
        <time>2020-11-04T08:22:48.000Z</time>
      </trkpt>
      <trkpt lat="49.73639" lon="5.65158">
        <ele>392.76</ele>
        <time>2020-11-04T08:22:52.025Z</time>
      </trkpt>
      <trkpt lat="49.73631" lon="5.65159">
        <ele>391.3</ele>
        <time>2020-11-04T08:22:57.000Z</time>
      </trkpt>
      <trkpt lat="49.73629" lon="5.65159">
        <ele>390.53</ele>
        <time>2020-11-04T08:23:02.000Z</time>
      </trkpt>
      <trkpt lat="49.73628" lon="5.65158">
        <ele>390.17</ele>
        <time>2020-11-04T08:23:07.000Z</time>
      </trkpt>
      <trkpt lat="49.73627" lon="5.65157">
        <ele>389.93</ele>
        <time>2020-11-04T08:23:12.000Z</time>
      </trkpt>
      <trkpt lat="49.73627" lon="5.65156">
        <ele>389.81</ele>
        <time>2020-11-04T08:23:17.000Z</time>
      </trkpt>
      <trkpt lat="49.73629" lon="5.65152">
        <ele>390.68</ele>
        <time>2020-11-04T08:23:22.000Z</time>
      </trkpt>
      <trkpt lat="49.73628" lon="5.6515">
        <ele>390.89</ele>
        <time>2020-11-04T08:23:27.000Z</time>
      </trkpt>
      <trkpt lat="49.73627" lon="5.65148">
        <ele>390.31</ele>
        <time>2020-11-04T08:23:32.000Z</time>
      </trkpt>
      <trkpt lat="49.73627" lon="5.65147">
        <ele>390</ele>
        <time>2020-11-04T08:23:37.000Z</time>
      </trkpt>
      <trkpt lat="49.73627" lon="5.65147">
        <ele>389.84</ele>
        <time>2020-11-04T08:23:42.000Z</time>
      </trkpt>
      <trkpt lat="49.73627" lon="5.65146">
        <ele>389.75</ele>
        <time>2020-11-04T08:23:47.000Z</time>
      </trkpt>
      <trkpt lat="49.73627" lon="5.65146">
        <ele>390.65</ele>
        <time>2020-11-04T08:23:52.000Z</time>
      </trkpt>
      <trkpt lat="49.73623" lon="5.65143">
        <ele>390.87</ele>
        <time>2020-11-04T08:23:57.000Z</time>
      </trkpt>
      <trkpt lat="49.73624" lon="5.65143">
        <ele>390.65</ele>
        <time>2020-11-04T08:24:02.536Z</time>
      </trkpt>
      <trkpt lat="49.73611" lon="5.65133">
        <ele>391.82</ele>
        <time>2020-11-04T08:24:07.504Z</time>
      </trkpt>
      <trkpt lat="49.736" lon="5.65129">
        <ele>392.07</ele>
        <time>2020-11-04T08:24:09.000Z</time>
      </trkpt>
      <trkpt lat="49.73592" lon="5.65123">
        <ele>392.28</ele>
        <time>2020-11-04T08:24:11.523Z</time>
      </trkpt>
      <trkpt lat="49.73582" lon="5.65114">
        <ele>392.51</ele>
        <time>2020-11-04T08:24:14.528Z</time>
      </trkpt>
      <trkpt lat="49.73573" lon="5.65103">
        <ele>392.64</ele>
        <time>2020-11-04T08:24:16.000Z</time>
      </trkpt>
      <trkpt lat="49.73563" lon="5.6509">
        <ele>392.77</ele>
        <time>2020-11-04T08:24:19.000Z</time>
      </trkpt>
      <trkpt lat="49.73556" lon="5.65079">
        <ele>392.85</ele>
        <time>2020-11-04T08:24:21.000Z</time>
      </trkpt>
      <trkpt lat="49.73549" lon="5.65068">
        <ele>392.9</ele>
        <time>2020-11-04T08:24:23.000Z</time>
      </trkpt>
      <trkpt lat="49.73542" lon="5.65057">
        <ele>392.95</ele>
        <time>2020-11-04T08:24:25.000Z</time>
      </trkpt>
      <trkpt lat="49.73534" lon="5.65045">
        <ele>392.99</ele>
        <time>2020-11-04T08:24:27.000Z</time>
      </trkpt>
      <trkpt lat="49.73526" lon="5.65034">
        <ele>393.02</ele>
        <time>2020-11-04T08:24:29.000Z</time>
      </trkpt>
      <trkpt lat="49.7352" lon="5.65023">
        <ele>393.04</ele>
        <time>2020-11-04T08:24:31.000Z</time>
      </trkpt>
      <trkpt lat="49.73513" lon="5.65012">
        <ele>393.06</ele>
        <time>2020-11-04T08:24:33.000Z</time>
      </trkpt>
      <trkpt lat="49.73505" lon="5.65001">
        <ele>393.08</ele>
        <time>2020-11-04T08:24:35.000Z</time>
      </trkpt>
      <trkpt lat="49.73498" lon="5.64989">
        <ele>393.09</ele>
        <time>2020-11-04T08:24:37.000Z</time>
      </trkpt>
      <trkpt lat="49.73491" lon="5.64975">
        <ele>393.11</ele>
        <time>2020-11-04T08:24:39.000Z</time>
      </trkpt>
      <trkpt lat="49.73483" lon="5.64959">
        <ele>393.11</ele>
        <time>2020-11-04T08:24:41.000Z</time>
      </trkpt>
      <trkpt lat="49.73476" lon="5.64942">
        <ele>393.12</ele>
        <time>2020-11-04T08:24:43.000Z</time>
      </trkpt>
      <trkpt lat="49.73465" lon="5.64924">
        <ele>393.13</ele>
        <time>2020-11-04T08:24:45.000Z</time>
      </trkpt>
      <trkpt lat="49.73457" lon="5.64906">
        <ele>393.13</ele>
        <time>2020-11-04T08:24:47.000Z</time>
      </trkpt>
      <trkpt lat="49.7345" lon="5.64891">
        <ele>393.14</ele>
        <time>2020-11-04T08:24:49.000Z</time>
      </trkpt>
      <trkpt lat="49.73439" lon="5.64879">
        <ele>393.14</ele>
        <time>2020-11-04T08:24:51.000Z</time>
      </trkpt>
      <trkpt lat="49.73429" lon="5.6487">
        <ele>393.14</ele>
        <time>2020-11-04T08:24:53.000Z</time>
      </trkpt>
      <trkpt lat="49.73418" lon="5.64859">
        <ele>393.14</ele>
        <time>2020-11-04T08:24:55.000Z</time>
      </trkpt>
      <trkpt lat="49.73407" lon="5.64848">
        <ele>393.15</ele>
        <time>2020-11-04T08:24:57.000Z</time>
      </trkpt>
      <trkpt lat="49.73394" lon="5.64834">
        <ele>393.15</ele>
        <time>2020-11-04T08:24:59.000Z</time>
      </trkpt>
      <trkpt lat="49.73385" lon="5.6482">
        <ele>391.47</ele>
        <time>2020-11-04T08:25:01.000Z</time>
      </trkpt>
      <trkpt lat="49.7338" lon="5.64802">
        <ele>388.48</ele>
        <time>2020-11-04T08:25:03.000Z</time>
      </trkpt>
      <trkpt lat="49.73376" lon="5.64783">
        <ele>385.89</ele>
        <time>2020-11-04T08:25:05.000Z</time>
      </trkpt>
      <trkpt lat="49.73375" lon="5.64765">
        <ele>383.86</ele>
        <time>2020-11-04T08:25:07.000Z</time>
      </trkpt>
      <trkpt lat="49.73375" lon="5.64749">
        <ele>382.16</ele>
        <time>2020-11-04T08:25:09.000Z</time>
      </trkpt>
      <trkpt lat="49.73373" lon="5.64733">
        <ele>380.19</ele>
        <time>2020-11-04T08:25:12.000Z</time>
      </trkpt>
      <trkpt lat="49.7337" lon="5.64715">
        <ele>378.52</ele>
        <time>2020-11-04T08:25:15.000Z</time>
      </trkpt>
      <trkpt lat="49.7337" lon="5.64699">
        <ele>377.73</ele>
        <time>2020-11-04T08:25:17.000Z</time>
      </trkpt>
      <trkpt lat="49.73367" lon="5.64683">
        <ele>376.99</ele>
        <time>2020-11-04T08:25:19.000Z</time>
      </trkpt>
      <trkpt lat="49.73363" lon="5.64668">
        <ele>376.34</ele>
        <time>2020-11-04T08:25:21.000Z</time>
      </trkpt>
      <trkpt lat="49.73356" lon="5.64655">
        <ele>375.67</ele>
        <time>2020-11-04T08:25:23.000Z</time>
      </trkpt>
      <trkpt lat="49.73348" lon="5.64644">
        <ele>375.01</ele>
        <time>2020-11-04T08:25:25.000Z</time>
      </trkpt>
      <trkpt lat="49.7334" lon="5.64631">
        <ele>374.39</ele>
        <time>2020-11-04T08:25:27.000Z</time>
      </trkpt>
      <trkpt lat="49.73336" lon="5.64615">
        <ele>373.91</ele>
        <time>2020-11-04T08:25:29.000Z</time>
      </trkpt>
      <trkpt lat="49.73331" lon="5.64598">
        <ele>373.02</ele>
        <time>2020-11-04T08:25:31.000Z</time>
      </trkpt>
      <trkpt lat="49.73326" lon="5.64583">
        <ele>372.16</ele>
        <time>2020-11-04T08:25:33.000Z</time>
      </trkpt>
      <trkpt lat="49.73322" lon="5.64568">
        <ele>371.48</ele>
        <time>2020-11-04T08:25:35.000Z</time>
      </trkpt>
      <trkpt lat="49.73318" lon="5.64552">
        <ele>370.77</ele>
        <time>2020-11-04T08:25:37.000Z</time>
      </trkpt>
      <trkpt lat="49.73315" lon="5.64537">
        <ele>370.26</ele>
        <time>2020-11-04T08:25:39.000Z</time>
      </trkpt>
      <trkpt lat="49.73313" lon="5.64521">
        <ele>370.16</ele>
        <time>2020-11-04T08:25:41.000Z</time>
      </trkpt>
      <trkpt lat="49.73309" lon="5.64506">
        <ele>369.86</ele>
        <time>2020-11-04T08:25:43.000Z</time>
      </trkpt>
      <trkpt lat="49.73305" lon="5.64491">
        <ele>369.71</ele>
        <time>2020-11-04T08:25:45.000Z</time>
      </trkpt>
      <trkpt lat="49.73301" lon="5.64477">
        <ele>369.64</ele>
        <time>2020-11-04T08:25:47.000Z</time>
      </trkpt>
      <trkpt lat="49.73298" lon="5.64463">
        <ele>369.81</ele>
        <time>2020-11-04T08:25:49.000Z</time>
      </trkpt>
      <trkpt lat="49.73295" lon="5.64449">
        <ele>370.03</ele>
        <time>2020-11-04T08:25:51.000Z</time>
      </trkpt>
      <trkpt lat="49.73291" lon="5.64436">
        <ele>370.18</ele>
        <time>2020-11-04T08:25:53.000Z</time>
      </trkpt>
      <trkpt lat="49.73288" lon="5.64422">
        <ele>370.39</ele>
        <time>2020-11-04T08:25:55.000Z</time>
      </trkpt>
      <trkpt lat="49.73286" lon="5.64408">
        <ele>370.56</ele>
        <time>2020-11-04T08:25:57.000Z</time>
      </trkpt>
      <trkpt lat="49.73283" lon="5.64393">
        <ele>370.8</ele>
        <time>2020-11-04T08:25:59.000Z</time>
      </trkpt>
      <trkpt lat="49.73279" lon="5.64379">
        <ele>371.01</ele>
        <time>2020-11-04T08:26:01.000Z</time>
      </trkpt>
      <trkpt lat="49.73274" lon="5.64365">
        <ele>371.15</ele>
        <time>2020-11-04T08:26:03.000Z</time>
      </trkpt>
      <trkpt lat="49.7327" lon="5.64352">
        <ele>371.21</ele>
        <time>2020-11-04T08:26:05.000Z</time>
      </trkpt>
      <trkpt lat="49.73265" lon="5.64337">
        <ele>371.5</ele>
        <time>2020-11-04T08:26:08.000Z</time>
      </trkpt>
      <trkpt lat="49.73261" lon="5.64324">
        <ele>372.22</ele>
        <time>2020-11-04T08:26:10.578Z</time>
      </trkpt>
      <trkpt lat="49.73257" lon="5.64311">
        <ele>373.1</ele>
        <time>2020-11-04T08:26:13.502Z</time>
      </trkpt>
      <trkpt lat="49.73253" lon="5.64296">
        <ele>373.91</ele>
        <time>2020-11-04T08:26:15.793Z</time>
      </trkpt>
      <trkpt lat="49.73248" lon="5.64284">
        <ele>374.72</ele>
        <time>2020-11-04T08:26:20.000Z</time>
      </trkpt>
      <trkpt lat="49.7325" lon="5.64281">
        <ele>374.97</ele>
        <time>2020-11-04T08:26:24.073Z</time>
      </trkpt>
      <trkpt lat="49.73254" lon="5.64278">
        <ele>375.2</ele>
        <time>2020-11-04T08:26:28.460Z</time>
      </trkpt>
      <trkpt lat="49.73258" lon="5.64271">
        <ele>375.32</ele>
        <time>2020-11-04T08:26:32.502Z</time>
      </trkpt>
      <trkpt lat="49.73262" lon="5.64263">
        <ele>375.39</ele>
        <time>2020-11-04T08:26:37.470Z</time>
      </trkpt>
      <trkpt lat="49.7327" lon="5.64253">
        <ele>375.41</ele>
        <time>2020-11-04T08:26:41.499Z</time>
      </trkpt>
      <trkpt lat="49.73276" lon="5.64243">
        <ele>375.43</ele>
        <time>2020-11-04T08:26:44.485Z</time>
      </trkpt>
      <trkpt lat="49.73286" lon="5.64231">
        <ele>375.44</ele>
        <time>2020-11-04T08:26:48.486Z</time>
      </trkpt>
      <trkpt lat="49.73293" lon="5.64221">
        <ele>375.44</ele>
        <time>2020-11-04T08:26:51.483Z</time>
      </trkpt>
      <trkpt lat="49.73302" lon="5.64212">
        <ele>375.45</ele>
        <time>2020-11-04T08:26:54.490Z</time>
      </trkpt>
      <trkpt lat="49.73312" lon="5.64206">
        <ele>375.45</ele>
        <time>2020-11-04T08:26:58.000Z</time>
      </trkpt>
      <trkpt lat="49.73315" lon="5.64195">
        <ele>375.46</ele>
        <time>2020-11-04T08:27:02.479Z</time>
      </trkpt>
      <trkpt lat="49.73317" lon="5.64179">
        <ele>375.46</ele>
        <time>2020-11-04T08:27:06.217Z</time>
      </trkpt>
      <trkpt lat="49.73319" lon="5.64164">
        <ele>375.46</ele>
        <time>2020-11-04T08:27:09.494Z</time>
      </trkpt>
      <trkpt lat="49.73321" lon="5.6415">
        <ele>375.46</ele>
        <time>2020-11-04T08:27:12.482Z</time>
      </trkpt>
      <trkpt lat="49.73324" lon="5.64135">
        <ele>375.46</ele>
        <time>2020-11-04T08:27:15.483Z</time>
      </trkpt>
      <trkpt lat="49.73327" lon="5.64121">
        <ele>375.46</ele>
        <time>2020-11-04T08:27:18.494Z</time>
      </trkpt>
      <trkpt lat="49.73335" lon="5.64112">
        <ele>375.46</ele>
        <time>2020-11-04T08:27:21.487Z</time>
      </trkpt>
      <trkpt lat="49.73343" lon="5.64104">
        <ele>375.46</ele>
        <time>2020-11-04T08:27:25.494Z</time>
      </trkpt>
      <trkpt lat="49.73348" lon="5.64092">
        <ele>374.59</ele>
        <time>2020-11-04T08:27:29.495Z</time>
      </trkpt>
      <trkpt lat="49.73354" lon="5.64081">
        <ele>374.69</ele>
        <time>2020-11-04T08:27:34.151Z</time>
      </trkpt>
      <trkpt lat="49.73356" lon="5.64071">
        <ele>375.83</ele>
        <time>2020-11-04T08:27:38.491Z</time>
      </trkpt>
      <trkpt lat="49.73352" lon="5.64055">
        <ele>376.01</ele>
        <time>2020-11-04T08:27:41.489Z</time>
      </trkpt>
      <trkpt lat="49.73341" lon="5.64045">
        <ele>375.91</ele>
        <time>2020-11-04T08:27:44.495Z</time>
      </trkpt>
      <trkpt lat="49.73331" lon="5.64039">
        <ele>375.86</ele>
        <time>2020-11-04T08:27:47.499Z</time>
      </trkpt>
      <trkpt lat="49.73322" lon="5.64032">
        <ele>376.19</ele>
        <time>2020-11-04T08:27:50.486Z</time>
      </trkpt>
      <trkpt lat="49.73317" lon="5.64015">
        <ele>376.63</ele>
        <time>2020-11-04T08:27:53.483Z</time>
      </trkpt>
      <trkpt lat="49.73311" lon="5.64001">
        <ele>376.54</ele>
        <time>2020-11-04T08:27:55.601Z</time>
      </trkpt>
      <trkpt lat="49.73303" lon="5.63992">
        <ele>376.64</ele>
        <time>2020-11-04T08:27:57.000Z</time>
      </trkpt>
      <trkpt lat="49.73291" lon="5.63981">
        <ele>376.66</ele>
        <time>2020-11-04T08:27:59.000Z</time>
      </trkpt>
      <trkpt lat="49.73278" lon="5.63969">
        <ele>376.46</ele>
        <time>2020-11-04T08:28:01.000Z</time>
      </trkpt>
      <trkpt lat="49.73266" lon="5.63957">
        <ele>376.2</ele>
        <time>2020-11-04T08:28:03.000Z</time>
      </trkpt>
      <trkpt lat="49.73256" lon="5.63946">
        <ele>376.11</ele>
        <time>2020-11-04T08:28:05.000Z</time>
      </trkpt>
      <trkpt lat="49.73248" lon="5.63934">
        <ele>376.12</ele>
        <time>2020-11-04T08:28:07.000Z</time>
      </trkpt>
      <trkpt lat="49.73239" lon="5.63921">
        <ele>376.18</ele>
        <time>2020-11-04T08:28:09.000Z</time>
      </trkpt>
      <trkpt lat="49.73232" lon="5.63908">
        <ele>376.15</ele>
        <time>2020-11-04T08:28:11.000Z</time>
      </trkpt>
      <trkpt lat="49.73228" lon="5.63895">
        <ele>376.14</ele>
        <time>2020-11-04T08:28:13.000Z</time>
      </trkpt>
      <trkpt lat="49.73223" lon="5.63878">
        <ele>376.34</ele>
        <time>2020-11-04T08:28:16.000Z</time>
      </trkpt>
      <trkpt lat="49.73218" lon="5.63866">
        <ele>376.36</ele>
        <time>2020-11-04T08:28:18.000Z</time>
      </trkpt>
      <trkpt lat="49.73212" lon="5.63853">
        <ele>376.41</ele>
        <time>2020-11-04T08:28:20.510Z</time>
      </trkpt>
      <trkpt lat="49.73206" lon="5.63839">
        <ele>376.68</ele>
        <time>2020-11-04T08:28:23.071Z</time>
      </trkpt>
      <trkpt lat="49.73204" lon="5.63823">
        <ele>376.95</ele>
        <time>2020-11-04T08:28:25.532Z</time>
      </trkpt>
      <trkpt lat="49.73202" lon="5.63808">
        <ele>377.15</ele>
        <time>2020-11-04T08:28:27.487Z</time>
      </trkpt>
      <trkpt lat="49.73199" lon="5.63794">
        <ele>377.53</ele>
        <time>2020-11-04T08:28:29.475Z</time>
      </trkpt>
      <trkpt lat="49.73195" lon="5.63781">
        <ele>378.1</ele>
        <time>2020-11-04T08:28:32.479Z</time>
      </trkpt>
      <trkpt lat="49.73194" lon="5.63767">
        <ele>378.97</ele>
        <time>2020-11-04T08:28:36.594Z</time>
      </trkpt>
      <trkpt lat="49.73197" lon="5.63749">
        <ele>379.43</ele>
        <time>2020-11-04T08:28:40.515Z</time>
      </trkpt>
      <trkpt lat="49.73197" lon="5.63735">
        <ele>379.12</ele>
        <time>2020-11-04T08:28:42.000Z</time>
      </trkpt>
      <trkpt lat="49.73195" lon="5.63718">
        <ele>379.01</ele>
        <time>2020-11-04T08:28:44.000Z</time>
      </trkpt>
      <trkpt lat="49.73188" lon="5.63702">
        <ele>378.56</ele>
        <time>2020-11-04T08:28:46.000Z</time>
      </trkpt>
      <trkpt lat="49.73183" lon="5.63689">
        <ele>378.27</ele>
        <time>2020-11-04T08:28:48.000Z</time>
      </trkpt>
      <trkpt lat="49.73178" lon="5.63675">
        <ele>378.24</ele>
        <time>2020-11-04T08:28:50.481Z</time>
      </trkpt>
      <trkpt lat="49.73171" lon="5.63659">
        <ele>378.67</ele>
        <time>2020-11-04T08:28:53.000Z</time>
      </trkpt>
      <trkpt lat="49.7317" lon="5.63643">
        <ele>379.86</ele>
        <time>2020-11-04T08:28:55.711Z</time>
      </trkpt>
      <trkpt lat="49.73163" lon="5.63629">
        <ele>380.8</ele>
        <time>2020-11-04T08:28:58.000Z</time>
      </trkpt>
      <trkpt lat="49.73156" lon="5.63616">
        <ele>381.1</ele>
        <time>2020-11-04T08:29:00.000Z</time>
      </trkpt>
      <trkpt lat="49.7315" lon="5.63604">
        <ele>381.39</ele>
        <time>2020-11-04T08:29:02.000Z</time>
      </trkpt>
      <trkpt lat="49.73145" lon="5.63589">
        <ele>381.63</ele>
        <time>2020-11-04T08:29:04.521Z</time>
      </trkpt>
      <trkpt lat="49.7314" lon="5.63568">
        <ele>381.83</ele>
        <time>2020-11-04T08:29:08.495Z</time>
      </trkpt>
      <trkpt lat="49.73132" lon="5.63553">
        <ele>381.78</ele>
        <time>2020-11-04T08:29:10.539Z</time>
      </trkpt>
      <trkpt lat="49.73125" lon="5.6354">
        <ele>381.97</ele>
        <time>2020-11-04T08:29:12.489Z</time>
      </trkpt>
      <trkpt lat="49.73121" lon="5.63528">
        <ele>382.45</ele>
        <time>2020-11-04T08:29:14.499Z</time>
      </trkpt>
      <trkpt lat="49.73118" lon="5.63514">
        <ele>383.06</ele>
        <time>2020-11-04T08:29:16.494Z</time>
      </trkpt>
      <trkpt lat="49.73112" lon="5.63502">
        <ele>383.68</ele>
        <time>2020-11-04T08:29:18.465Z</time>
      </trkpt>
      <trkpt lat="49.73105" lon="5.6349">
        <ele>384.16</ele>
        <time>2020-11-04T08:29:20.467Z</time>
      </trkpt>
      <trkpt lat="49.73094" lon="5.63481">
        <ele>383.66</ele>
        <time>2020-11-04T08:29:22.000Z</time>
      </trkpt>
      <trkpt lat="49.73085" lon="5.63468">
        <ele>383.09</ele>
        <time>2020-11-04T08:29:24.000Z</time>
      </trkpt>
      <trkpt lat="49.73079" lon="5.63454">
        <ele>382.42</ele>
        <time>2020-11-04T08:29:26.495Z</time>
      </trkpt>
      <trkpt lat="49.73071" lon="5.63441">
        <ele>382.01</ele>
        <time>2020-11-04T08:29:28.000Z</time>
      </trkpt>
      <trkpt lat="49.73063" lon="5.63427">
        <ele>381.4</ele>
        <time>2020-11-04T08:29:30.000Z</time>
      </trkpt>
      <trkpt lat="49.73053" lon="5.63412">
        <ele>380.7</ele>
        <time>2020-11-04T08:29:32.000Z</time>
      </trkpt>
      <trkpt lat="49.73047" lon="5.63397">
        <ele>380.05</ele>
        <time>2020-11-04T08:29:34.000Z</time>
      </trkpt>
      <trkpt lat="49.73045" lon="5.6338">
        <ele>379.49</ele>
        <time>2020-11-04T08:29:36.000Z</time>
      </trkpt>
      <trkpt lat="49.73043" lon="5.63364">
        <ele>379.27</ele>
        <time>2020-11-04T08:29:38.000Z</time>
      </trkpt>
      <trkpt lat="49.73039" lon="5.6335">
        <ele>379.02</ele>
        <time>2020-11-04T08:29:40.000Z</time>
      </trkpt>
      <trkpt lat="49.73033" lon="5.63338">
        <ele>378.62</ele>
        <time>2020-11-04T08:29:42.000Z</time>
      </trkpt>
      <trkpt lat="49.73027" lon="5.63323">
        <ele>378.34</ele>
        <time>2020-11-04T08:29:45.000Z</time>
      </trkpt>
      <trkpt lat="49.73024" lon="5.63307">
        <ele>378.85</ele>
        <time>2020-11-04T08:29:48.000Z</time>
      </trkpt>
      <trkpt lat="49.73024" lon="5.63288">
        <ele>380.06</ele>
        <time>2020-11-04T08:29:51.505Z</time>
      </trkpt>
      <trkpt lat="49.73019" lon="5.63269">
        <ele>381.78</ele>
        <time>2020-11-04T08:29:54.202Z</time>
      </trkpt>
      <trkpt lat="49.73017" lon="5.63253">
        <ele>382.78</ele>
        <time>2020-11-04T08:29:56.466Z</time>
      </trkpt>
      <trkpt lat="49.73015" lon="5.63237">
        <ele>383.46</ele>
        <time>2020-11-04T08:29:58.496Z</time>
      </trkpt>
      <trkpt lat="49.73014" lon="5.63222">
        <ele>384.16</ele>
        <time>2020-11-04T08:30:00.000Z</time>
      </trkpt>
      <trkpt lat="49.73014" lon="5.63205">
        <ele>385.05</ele>
        <time>2020-11-04T08:30:02.000Z</time>
      </trkpt>
      <trkpt lat="49.73015" lon="5.63191">
        <ele>385.93</ele>
        <time>2020-11-04T08:30:04.000Z</time>
      </trkpt>
      <trkpt lat="49.73013" lon="5.63175">
        <ele>386.93</ele>
        <time>2020-11-04T08:30:06.129Z</time>
      </trkpt>
      <trkpt lat="49.73015" lon="5.63159">
        <ele>387.37</ele>
        <time>2020-11-04T08:30:08.000Z</time>
      </trkpt>
      <trkpt lat="49.73015" lon="5.63143">
        <ele>387.6</ele>
        <time>2020-11-04T08:30:10.000Z</time>
      </trkpt>
      <trkpt lat="49.73017" lon="5.63128">
        <ele>387.65</ele>
        <time>2020-11-04T08:30:12.000Z</time>
      </trkpt>
      <trkpt lat="49.73018" lon="5.6311">
        <ele>387.7</ele>
        <time>2020-11-04T08:30:14.467Z</time>
      </trkpt>
      <trkpt lat="49.73018" lon="5.63094">
        <ele>387.35</ele>
        <time>2020-11-04T08:30:17.000Z</time>
      </trkpt>
      <trkpt lat="49.7302" lon="5.63079">
        <ele>386.49</ele>
        <time>2020-11-04T08:30:19.000Z</time>
      </trkpt>
      <trkpt lat="49.73021" lon="5.63062">
        <ele>385.1</ele>
        <time>2020-11-04T08:30:22.521Z</time>
      </trkpt>
      <trkpt lat="49.73025" lon="5.63044">
        <ele>384.41</ele>
        <time>2020-11-04T08:30:24.482Z</time>
      </trkpt>
      <trkpt lat="49.73029" lon="5.6303">
        <ele>383.52</ele>
        <time>2020-11-04T08:30:26.000Z</time>
      </trkpt>
      <trkpt lat="49.73034" lon="5.63016">
        <ele>382.79</ele>
        <time>2020-11-04T08:30:28.000Z</time>
      </trkpt>
      <trkpt lat="49.73039" lon="5.63003">
        <ele>382.25</ele>
        <time>2020-11-04T08:30:30.000Z</time>
      </trkpt>
      <trkpt lat="49.73045" lon="5.62987">
        <ele>381.95</ele>
        <time>2020-11-04T08:30:32.490Z</time>
      </trkpt>
      <trkpt lat="49.73051" lon="5.62972">
        <ele>381.85</ele>
        <time>2020-11-04T08:30:35.481Z</time>
      </trkpt>
      <trkpt lat="49.73052" lon="5.62948">
        <ele>381.69</ele>
        <time>2020-11-04T08:30:38.000Z</time>
      </trkpt>
      <trkpt lat="49.73054" lon="5.62926">
        <ele>380.96</ele>
        <time>2020-11-04T08:30:40.000Z</time>
      </trkpt>
      <trkpt lat="49.73056" lon="5.62905">
        <ele>380.13</ele>
        <time>2020-11-04T08:30:42.000Z</time>
      </trkpt>
      <trkpt lat="49.73055" lon="5.62887">
        <ele>379.2</ele>
        <time>2020-11-04T08:30:44.000Z</time>
      </trkpt>
      <trkpt lat="49.7305" lon="5.62873">
        <ele>378.27</ele>
        <time>2020-11-04T08:30:46.525Z</time>
      </trkpt>
      <trkpt lat="49.73037" lon="5.6287">
        <ele>377.36</ele>
        <time>2020-11-04T08:30:48.000Z</time>
      </trkpt>
      <trkpt lat="49.73026" lon="5.62872">
        <ele>376.35</ele>
        <time>2020-11-04T08:30:50.000Z</time>
      </trkpt>
      <trkpt lat="49.73015" lon="5.62874">
        <ele>375.53</ele>
        <time>2020-11-04T08:30:52.000Z</time>
      </trkpt>
      <trkpt lat="49.73004" lon="5.62879">
        <ele>374.75</ele>
        <time>2020-11-04T08:30:54.000Z</time>
      </trkpt>
      <trkpt lat="49.72994" lon="5.62885">
        <ele>373.99</ele>
        <time>2020-11-04T08:30:56.000Z</time>
      </trkpt>
      <trkpt lat="49.72984" lon="5.62888">
        <ele>373.19</ele>
        <time>2020-11-04T08:30:58.000Z</time>
      </trkpt>
      <trkpt lat="49.72971" lon="5.62893">
        <ele>372.13</ele>
        <time>2020-11-04T08:31:01.000Z</time>
      </trkpt>
      <trkpt lat="49.72962" lon="5.62897">
        <ele>371.32</ele>
        <time>2020-11-04T08:31:03.000Z</time>
      </trkpt>
      <trkpt lat="49.72951" lon="5.62894">
        <ele>370.76</ele>
        <time>2020-11-04T08:31:05.000Z</time>
      </trkpt>
      <trkpt lat="49.72937" lon="5.6289">
        <ele>370.28</ele>
        <time>2020-11-04T08:31:07.000Z</time>
      </trkpt>
      <trkpt lat="49.72923" lon="5.62886">
        <ele>369.9</ele>
        <time>2020-11-04T08:31:09.000Z</time>
      </trkpt>
      <trkpt lat="49.72909" lon="5.62887">
        <ele>369.34</ele>
        <time>2020-11-04T08:31:11.000Z</time>
      </trkpt>
      <trkpt lat="49.72896" lon="5.6289">
        <ele>368.72</ele>
        <time>2020-11-04T08:31:13.000Z</time>
      </trkpt>
      <trkpt lat="49.72883" lon="5.62891">
        <ele>368.41</ele>
        <time>2020-11-04T08:31:15.000Z</time>
      </trkpt>
      <trkpt lat="49.7287" lon="5.62894">
        <ele>367.99</ele>
        <time>2020-11-04T08:31:17.000Z</time>
      </trkpt>
      <trkpt lat="49.72859" lon="5.62896">
        <ele>367.78</ele>
        <time>2020-11-04T08:31:19.000Z</time>
      </trkpt>
      <trkpt lat="49.72847" lon="5.62903">
        <ele>367.62</ele>
        <time>2020-11-04T08:31:21.000Z</time>
      </trkpt>
      <trkpt lat="49.72835" lon="5.62907">
        <ele>367.33</ele>
        <time>2020-11-04T08:31:23.000Z</time>
      </trkpt>
      <trkpt lat="49.72824" lon="5.6291">
        <ele>366.81</ele>
        <time>2020-11-04T08:31:25.000Z</time>
      </trkpt>
      <trkpt lat="49.72812" lon="5.62913">
        <ele>366.53</ele>
        <time>2020-11-04T08:31:27.000Z</time>
      </trkpt>
      <trkpt lat="49.72801" lon="5.62915">
        <ele>366.57</ele>
        <time>2020-11-04T08:31:29.000Z</time>
      </trkpt>
      <trkpt lat="49.72789" lon="5.62918">
        <ele>366.87</ele>
        <time>2020-11-04T08:31:31.000Z</time>
      </trkpt>
      <trkpt lat="49.72779" lon="5.62928">
        <ele>366.73</ele>
        <time>2020-11-04T08:31:33.000Z</time>
      </trkpt>
      <trkpt lat="49.72769" lon="5.62935">
        <ele>365.99</ele>
        <time>2020-11-04T08:31:35.000Z</time>
      </trkpt>
      <trkpt lat="49.72756" lon="5.62939">
        <ele>364.75</ele>
        <time>2020-11-04T08:31:38.000Z</time>
      </trkpt>
      <trkpt lat="49.72748" lon="5.62936">
        <ele>365.24</ele>
        <time>2020-11-04T08:31:43.000Z</time>
      </trkpt>
      <trkpt lat="49.72741" lon="5.6292">
        <ele>367.75</ele>
        <time>2020-11-04T08:31:46.890Z</time>
      </trkpt>
      <trkpt lat="49.72732" lon="5.62909">
        <ele>368.85</ele>
        <time>2020-11-04T08:31:48.706Z</time>
      </trkpt>
      <trkpt lat="49.72722" lon="5.62895">
        <ele>369.9</ele>
        <time>2020-11-04T08:31:51.000Z</time>
      </trkpt>
      <trkpt lat="49.72712" lon="5.62884">
        <ele>370.14</ele>
        <time>2020-11-04T08:31:53.000Z</time>
      </trkpt>
      <trkpt lat="49.72706" lon="5.62872">
        <ele>370.55</ele>
        <time>2020-11-04T08:31:55.000Z</time>
      </trkpt>
      <trkpt lat="49.72703" lon="5.62854">
        <ele>372.07</ele>
        <time>2020-11-04T08:31:58.221Z</time>
      </trkpt>
      <trkpt lat="49.72698" lon="5.62842">
        <ele>373.2</ele>
        <time>2020-11-04T08:32:00.000Z</time>
      </trkpt>
      <trkpt lat="49.72691" lon="5.62827">
        <ele>374.82</ele>
        <time>2020-11-04T08:32:03.107Z</time>
      </trkpt>
      <trkpt lat="49.72687" lon="5.6281">
        <ele>376.81</ele>
        <time>2020-11-04T08:32:05.911Z</time>
      </trkpt>
      <trkpt lat="49.72683" lon="5.62795">
        <ele>379.14</ele>
        <time>2020-11-04T08:32:08.608Z</time>
      </trkpt>
      <trkpt lat="49.72678" lon="5.6278">
        <ele>379.98</ele>
        <time>2020-11-04T08:32:10.888Z</time>
      </trkpt>
      <trkpt lat="49.72673" lon="5.62766">
        <ele>380.54</ele>
        <time>2020-11-04T08:32:13.112Z</time>
      </trkpt>
      <trkpt lat="49.72672" lon="5.62747">
        <ele>381.82</ele>
        <time>2020-11-04T08:32:16.107Z</time>
      </trkpt>
      <trkpt lat="49.72671" lon="5.62728">
        <ele>382.96</ele>
        <time>2020-11-04T08:32:18.910Z</time>
      </trkpt>
      <trkpt lat="49.72672" lon="5.62712">
        <ele>383.98</ele>
        <time>2020-11-04T08:32:21.000Z</time>
      </trkpt>
      <trkpt lat="49.72669" lon="5.62695">
        <ele>384.67</ele>
        <time>2020-11-04T08:32:23.000Z</time>
      </trkpt>
      <trkpt lat="49.72666" lon="5.62675">
        <ele>385.23</ele>
        <time>2020-11-04T08:32:25.000Z</time>
      </trkpt>
      <trkpt lat="49.72661" lon="5.62658">
        <ele>385.12</ele>
        <time>2020-11-04T08:32:27.000Z</time>
      </trkpt>
      <trkpt lat="49.72655" lon="5.62641">
        <ele>384.47</ele>
        <time>2020-11-04T08:32:29.000Z</time>
      </trkpt>
      <trkpt lat="49.72654" lon="5.62619">
        <ele>383.62</ele>
        <time>2020-11-04T08:32:31.000Z</time>
      </trkpt>
      <trkpt lat="49.72652" lon="5.62596">
        <ele>382.45</ele>
        <time>2020-11-04T08:32:33.000Z</time>
      </trkpt>
      <trkpt lat="49.72648" lon="5.62575">
        <ele>381.25</ele>
        <time>2020-11-04T08:32:35.000Z</time>
      </trkpt>
      <trkpt lat="49.72645" lon="5.62555">
        <ele>380.32</ele>
        <time>2020-11-04T08:32:37.000Z</time>
      </trkpt>
      <trkpt lat="49.72642" lon="5.62539">
        <ele>379.51</ele>
        <time>2020-11-04T08:32:39.000Z</time>
      </trkpt>
      <trkpt lat="49.7264" lon="5.62523">
        <ele>378.96</ele>
        <time>2020-11-04T08:32:41.000Z</time>
      </trkpt>
      <trkpt lat="49.72639" lon="5.62508">
        <ele>378.92</ele>
        <time>2020-11-04T08:32:43.000Z</time>
      </trkpt>
      <trkpt lat="49.72638" lon="5.62492">
        <ele>379.09</ele>
        <time>2020-11-04T08:32:45.000Z</time>
      </trkpt>
      <trkpt lat="49.72636" lon="5.62474">
        <ele>379.35</ele>
        <time>2020-11-04T08:32:47.000Z</time>
      </trkpt>
      <trkpt lat="49.72634" lon="5.62457">
        <ele>379.65</ele>
        <time>2020-11-04T08:32:49.000Z</time>
      </trkpt>
      <trkpt lat="49.72632" lon="5.62441">
        <ele>379.99</ele>
        <time>2020-11-04T08:32:51.000Z</time>
      </trkpt>
      <trkpt lat="49.72627" lon="5.62426">
        <ele>380.13</ele>
        <time>2020-11-04T08:32:53.000Z</time>
      </trkpt>
      <trkpt lat="49.72622" lon="5.62409">
        <ele>379.62</ele>
        <time>2020-11-04T08:32:55.000Z</time>
      </trkpt>
      <trkpt lat="49.72617" lon="5.6239">
        <ele>379.36</ele>
        <time>2020-11-04T08:32:57.000Z</time>
      </trkpt>
      <trkpt lat="49.72614" lon="5.62369">
        <ele>379.12</ele>
        <time>2020-11-04T08:32:59.000Z</time>
      </trkpt>
      <trkpt lat="49.7261" lon="5.62347">
        <ele>378.91</ele>
        <time>2020-11-04T08:33:01.000Z</time>
      </trkpt>
      <trkpt lat="49.72607" lon="5.62327">
        <ele>378.56</ele>
        <time>2020-11-04T08:33:03.000Z</time>
      </trkpt>
      <trkpt lat="49.72604" lon="5.62308">
        <ele>378.11</ele>
        <time>2020-11-04T08:33:05.000Z</time>
      </trkpt>
      <trkpt lat="49.72601" lon="5.62291">
        <ele>377.81</ele>
        <time>2020-11-04T08:33:07.000Z</time>
      </trkpt>
      <trkpt lat="49.72597" lon="5.62274">
        <ele>377.43</ele>
        <time>2020-11-04T08:33:09.000Z</time>
      </trkpt>
      <trkpt lat="49.72594" lon="5.62256">
        <ele>377.08</ele>
        <time>2020-11-04T08:33:11.000Z</time>
      </trkpt>
      <trkpt lat="49.72592" lon="5.62238">
        <ele>376.73</ele>
        <time>2020-11-04T08:33:13.000Z</time>
      </trkpt>
      <trkpt lat="49.7259" lon="5.62221">
        <ele>376.44</ele>
        <time>2020-11-04T08:33:15.000Z</time>
      </trkpt>
      <trkpt lat="49.72587" lon="5.62205">
        <ele>376.26</ele>
        <time>2020-11-04T08:33:17.000Z</time>
      </trkpt>
      <trkpt lat="49.72585" lon="5.62192">
        <ele>376.35</ele>
        <time>2020-11-04T08:33:19.000Z</time>
      </trkpt>
      <trkpt lat="49.72578" lon="5.62181">
        <ele>375.68</ele>
        <time>2020-11-04T08:33:21.000Z</time>
      </trkpt>
      <trkpt lat="49.72572" lon="5.62165">
        <ele>375.2</ele>
        <time>2020-11-04T08:33:23.000Z</time>
      </trkpt>
      <trkpt lat="49.72567" lon="5.6215">
        <ele>374.99</ele>
        <time>2020-11-04T08:33:25.000Z</time>
      </trkpt>
      <trkpt lat="49.72561" lon="5.62136">
        <ele>374.74</ele>
        <time>2020-11-04T08:33:27.000Z</time>
      </trkpt>
      <trkpt lat="49.72555" lon="5.62124">
        <ele>374.7</ele>
        <time>2020-11-04T08:33:29.000Z</time>
      </trkpt>
      <trkpt lat="49.72547" lon="5.62112">
        <ele>375.26</ele>
        <time>2020-11-04T08:33:32.000Z</time>
      </trkpt>
      <trkpt lat="49.7254" lon="5.621">
        <ele>375.61</ele>
        <time>2020-11-04T08:33:34.586Z</time>
      </trkpt>
      <trkpt lat="49.72539" lon="5.62079">
        <ele>375.75</ele>
        <time>2020-11-04T08:33:37.000Z</time>
      </trkpt>
      <trkpt lat="49.72537" lon="5.62058">
        <ele>375.29</ele>
        <time>2020-11-04T08:33:39.000Z</time>
      </trkpt>
      <trkpt lat="49.72527" lon="5.6204">
        <ele>374.58</ele>
        <time>2020-11-04T08:33:41.000Z</time>
      </trkpt>
      <trkpt lat="49.72514" lon="5.62027">
        <ele>373.79</ele>
        <time>2020-11-04T08:33:43.000Z</time>
      </trkpt>
      <trkpt lat="49.72503" lon="5.62016">
        <ele>373.05</ele>
        <time>2020-11-04T08:33:45.000Z</time>
      </trkpt>
      <trkpt lat="49.72494" lon="5.62004">
        <ele>372.21</ele>
        <time>2020-11-04T08:33:47.000Z</time>
      </trkpt>
      <trkpt lat="49.72485" lon="5.61993">
        <ele>371.57</ele>
        <time>2020-11-04T08:33:49.000Z</time>
      </trkpt>
      <trkpt lat="49.72478" lon="5.61981">
        <ele>371</ele>
        <time>2020-11-04T08:33:51.000Z</time>
      </trkpt>
      <trkpt lat="49.72469" lon="5.61971">
        <ele>370.51</ele>
        <time>2020-11-04T08:33:53.000Z</time>
      </trkpt>
      <trkpt lat="49.72462" lon="5.6196">
        <ele>370.04</ele>
        <time>2020-11-04T08:33:55.000Z</time>
      </trkpt>
      <trkpt lat="49.72454" lon="5.61948">
        <ele>369.57</ele>
        <time>2020-11-04T08:33:57.000Z</time>
      </trkpt>
      <trkpt lat="49.72446" lon="5.61936">
        <ele>369.11</ele>
        <time>2020-11-04T08:33:59.000Z</time>
      </trkpt>
      <trkpt lat="49.72438" lon="5.61925">
        <ele>368.62</ele>
        <time>2020-11-04T08:34:01.000Z</time>
      </trkpt>
      <trkpt lat="49.72429" lon="5.61914">
        <ele>368.06</ele>
        <time>2020-11-04T08:34:03.000Z</time>
      </trkpt>
      <trkpt lat="49.72421" lon="5.61903">
        <ele>367.5</ele>
        <time>2020-11-04T08:34:05.000Z</time>
      </trkpt>
      <trkpt lat="49.72412" lon="5.61893">
        <ele>366.57</ele>
        <time>2020-11-04T08:34:07.000Z</time>
      </trkpt>
      <trkpt lat="49.72402" lon="5.6188">
        <ele>365.05</ele>
        <time>2020-11-04T08:34:10.000Z</time>
      </trkpt>
      <trkpt lat="49.72404" lon="5.61864">
        <ele>363.39</ele>
        <time>2020-11-04T08:34:13.000Z</time>
      </trkpt>
      <trkpt lat="49.72408" lon="5.61851">
        <ele>362.65</ele>
        <time>2020-11-04T08:34:15.290Z</time>
      </trkpt>
      <trkpt lat="49.72412" lon="5.61839">
        <ele>361.8</ele>
        <time>2020-11-04T08:34:17.000Z</time>
      </trkpt>
      <trkpt lat="49.72415" lon="5.61825">
        <ele>361</ele>
        <time>2020-11-04T08:34:20.000Z</time>
      </trkpt>
      <trkpt lat="49.72417" lon="5.61809">
        <ele>360.72</ele>
        <time>2020-11-04T08:34:22.000Z</time>
      </trkpt>
      <trkpt lat="49.7242" lon="5.61794">
        <ele>360.48</ele>
        <time>2020-11-04T08:34:24.546Z</time>
      </trkpt>
      <trkpt lat="49.72423" lon="5.61777">
        <ele>360.29</ele>
        <time>2020-11-04T08:34:26.492Z</time>
      </trkpt>
      <trkpt lat="49.72428" lon="5.61759">
        <ele>360.08</ele>
        <time>2020-11-04T08:34:29.000Z</time>
      </trkpt>
      <trkpt lat="49.72431" lon="5.61745">
        <ele>359.97</ele>
        <time>2020-11-04T08:34:31.000Z</time>
      </trkpt>
      <trkpt lat="49.72435" lon="5.6173">
        <ele>359.88</ele>
        <time>2020-11-04T08:34:33.000Z</time>
      </trkpt>
      <trkpt lat="49.72438" lon="5.61716">
        <ele>359.8</ele>
        <time>2020-11-04T08:34:35.000Z</time>
      </trkpt>
      <trkpt lat="49.72444" lon="5.61702">
        <ele>359.74</ele>
        <time>2020-11-04T08:34:37.000Z</time>
      </trkpt>
      <trkpt lat="49.72452" lon="5.61691">
        <ele>359.7</ele>
        <time>2020-11-04T08:34:39.000Z</time>
      </trkpt>
      <trkpt lat="49.7246" lon="5.61684">
        <ele>359.66</ele>
        <time>2020-11-04T08:34:41.000Z</time>
      </trkpt>
      <trkpt lat="49.72469" lon="5.61679">
        <ele>359.63</ele>
        <time>2020-11-04T08:34:43.000Z</time>
      </trkpt>
      <trkpt lat="49.72481" lon="5.61674">
        <ele>359.59</ele>
        <time>2020-11-04T08:34:46.000Z</time>
      </trkpt>
      <trkpt lat="49.72492" lon="5.61672">
        <ele>359.56</ele>
        <time>2020-11-04T08:34:49.000Z</time>
      </trkpt>
      <trkpt lat="49.72502" lon="5.61663">
        <ele>359.53</ele>
        <time>2020-11-04T08:34:53.206Z</time>
      </trkpt>
      <trkpt lat="49.72511" lon="5.61654">
        <ele>359.52</ele>
        <time>2020-11-04T08:34:56.029Z</time>
      </trkpt>
      <trkpt lat="49.72521" lon="5.61647">
        <ele>359.51</ele>
        <time>2020-11-04T08:34:58.484Z</time>
      </trkpt>
      <trkpt lat="49.72529" lon="5.61641">
        <ele>359.51</ele>
        <time>2020-11-04T08:35:01.430Z</time>
      </trkpt>
      <trkpt lat="49.72539" lon="5.61636">
        <ele>359.5</ele>
        <time>2020-11-04T08:35:05.165Z</time>
      </trkpt>
      <trkpt lat="49.72549" lon="5.61626">
        <ele>359.5</ele>
        <time>2020-11-04T08:35:09.432Z</time>
      </trkpt>
      <trkpt lat="49.72559" lon="5.61617">
        <ele>360.8</ele>
        <time>2020-11-04T08:35:13.000Z</time>
      </trkpt>
      <trkpt lat="49.72568" lon="5.61608">
        <ele>365.67</ele>
        <time>2020-11-04T08:35:16.693Z</time>
      </trkpt>
      <trkpt lat="49.72577" lon="5.61602">
        <ele>368.66</ele>
        <time>2020-11-04T08:35:20.010Z</time>
      </trkpt>
      <trkpt lat="49.72587" lon="5.61594">
        <ele>370.72</ele>
        <time>2020-11-04T08:35:23.291Z</time>
      </trkpt>
      <trkpt lat="49.72598" lon="5.61587">
        <ele>372.38</ele>
        <time>2020-11-04T08:35:27.367Z</time>
      </trkpt>
      <trkpt lat="49.72609" lon="5.61576">
        <ele>373.26</ele>
        <time>2020-11-04T08:35:31.074Z</time>
      </trkpt>
      <trkpt lat="49.7262" lon="5.6157">
        <ele>373.81</ele>
        <time>2020-11-04T08:35:35.054Z</time>
      </trkpt>
      <trkpt lat="49.72629" lon="5.61564">
        <ele>373.55</ele>
        <time>2020-11-04T08:35:38.276Z</time>
      </trkpt>
      <trkpt lat="49.7264" lon="5.61556">
        <ele>372.78</ele>
        <time>2020-11-04T08:35:41.000Z</time>
      </trkpt>
      <trkpt lat="49.7265" lon="5.61553">
        <ele>372.19</ele>
        <time>2020-11-04T08:35:43.156Z</time>
      </trkpt>
      <trkpt lat="49.72659" lon="5.61547">
        <ele>371.76</ele>
        <time>2020-11-04T08:35:45.671Z</time>
      </trkpt>
      <trkpt lat="49.72669" lon="5.61539">
        <ele>371.48</ele>
        <time>2020-11-04T08:35:48.129Z</time>
      </trkpt>
      <trkpt lat="49.72679" lon="5.61535">
        <ele>371.39</ele>
        <time>2020-11-04T08:35:50.727Z</time>
      </trkpt>
      <trkpt lat="49.7269" lon="5.6153">
        <ele>371.65</ele>
        <time>2020-11-04T08:35:53.810Z</time>
      </trkpt>
      <trkpt lat="49.72699" lon="5.61526">
        <ele>371.86</ele>
        <time>2020-11-04T08:35:56.213Z</time>
      </trkpt>
      <trkpt lat="49.72709" lon="5.6152">
        <ele>371.95</ele>
        <time>2020-11-04T08:35:58.974Z</time>
      </trkpt>
      <trkpt lat="49.72718" lon="5.61514">
        <ele>371.94</ele>
        <time>2020-11-04T08:36:00.974Z</time>
      </trkpt>
      <trkpt lat="49.72727" lon="5.61507">
        <ele>372</ele>
        <time>2020-11-04T08:36:03.408Z</time>
      </trkpt>
      <trkpt lat="49.72737" lon="5.61502">
        <ele>371.86</ele>
        <time>2020-11-04T08:36:05.691Z</time>
      </trkpt>
      <trkpt lat="49.72749" lon="5.61497">
        <ele>371.82</ele>
        <time>2020-11-04T08:36:08.496Z</time>
      </trkpt>
      <trkpt lat="49.72758" lon="5.61494">
        <ele>372.01</ele>
        <time>2020-11-04T08:36:10.492Z</time>
      </trkpt>
      <trkpt lat="49.72768" lon="5.61494">
        <ele>372.2</ele>
        <time>2020-11-04T08:36:12.485Z</time>
      </trkpt>
      <trkpt lat="49.72777" lon="5.61495">
        <ele>372.51</ele>
        <time>2020-11-04T08:36:14.511Z</time>
      </trkpt>
      <trkpt lat="49.72789" lon="5.61496">
        <ele>372.92</ele>
        <time>2020-11-04T08:36:18.106Z</time>
      </trkpt>
      <trkpt lat="49.728" lon="5.61496">
        <ele>372.81</ele>
        <time>2020-11-04T08:36:20.471Z</time>
      </trkpt>
      <trkpt lat="49.72811" lon="5.61492">
        <ele>372.68</ele>
        <time>2020-11-04T08:36:22.468Z</time>
      </trkpt>
      <trkpt lat="49.7282" lon="5.61488">
        <ele>372.53</ele>
        <time>2020-11-04T08:36:24.507Z</time>
      </trkpt>
      <trkpt lat="49.72829" lon="5.61482">
        <ele>372.35</ele>
        <time>2020-11-04T08:36:26.521Z</time>
      </trkpt>
      <trkpt lat="49.72838" lon="5.61475">
        <ele>372.27</ele>
        <time>2020-11-04T08:36:28.468Z</time>
      </trkpt>
      <trkpt lat="49.72845" lon="5.61468">
        <ele>372.27</ele>
        <time>2020-11-04T08:36:30.470Z</time>
      </trkpt>
      <trkpt lat="49.72855" lon="5.61457">
        <ele>372.38</ele>
        <time>2020-11-04T08:36:33.083Z</time>
      </trkpt>
      <trkpt lat="49.72864" lon="5.61446">
        <ele>372.64</ele>
        <time>2020-11-04T08:36:36.473Z</time>
      </trkpt>
      <trkpt lat="49.72872" lon="5.61438">
        <ele>372.89</ele>
        <time>2020-11-04T08:36:38.480Z</time>
      </trkpt>
      <trkpt lat="49.72883" lon="5.61428">
        <ele>373.31</ele>
        <time>2020-11-04T08:36:41.471Z</time>
      </trkpt>
      <trkpt lat="49.72892" lon="5.61418">
        <ele>373.77</ele>
        <time>2020-11-04T08:36:44.503Z</time>
      </trkpt>
      <trkpt lat="49.72902" lon="5.61406">
        <ele>374.27</ele>
        <time>2020-11-04T08:36:47.471Z</time>
      </trkpt>
      <trkpt lat="49.72911" lon="5.61391">
        <ele>374.63</ele>
        <time>2020-11-04T08:36:50.491Z</time>
      </trkpt>
      <trkpt lat="49.72919" lon="5.61378">
        <ele>375.23</ele>
        <time>2020-11-04T08:36:53.492Z</time>
      </trkpt>
      <trkpt lat="49.72927" lon="5.61366">
        <ele>375.84</ele>
        <time>2020-11-04T08:36:56.516Z</time>
      </trkpt>
      <trkpt lat="49.72933" lon="5.61353">
        <ele>376.4</ele>
        <time>2020-11-04T08:36:59.472Z</time>
      </trkpt>
      <trkpt lat="49.72941" lon="5.6134">
        <ele>376.8</ele>
        <time>2020-11-04T08:37:02.490Z</time>
      </trkpt>
      <trkpt lat="49.7295" lon="5.61327">
        <ele>376.97</ele>
        <time>2020-11-04T08:37:06.510Z</time>
      </trkpt>
      <trkpt lat="49.72959" lon="5.61314">
        <ele>377.01</ele>
        <time>2020-11-04T08:37:09.501Z</time>
      </trkpt>
      <trkpt lat="49.72966" lon="5.61304">
        <ele>377.43</ele>
        <time>2020-11-04T08:37:12.755Z</time>
      </trkpt>
      <trkpt lat="49.72974" lon="5.61292">
        <ele>378.2</ele>
        <time>2020-11-04T08:37:16.498Z</time>
      </trkpt>
      <trkpt lat="49.72983" lon="5.6128">
        <ele>379.68</ele>
        <time>2020-11-04T08:37:20.484Z</time>
      </trkpt>
      <trkpt lat="49.7299" lon="5.6127">
        <ele>380.98</ele>
        <time>2020-11-04T08:37:23.478Z</time>
      </trkpt>
      <trkpt lat="49.72999" lon="5.61256">
        <ele>382.31</ele>
        <time>2020-11-04T08:37:27.485Z</time>
      </trkpt>
      <trkpt lat="49.73007" lon="5.61242">
        <ele>383.75</ele>
        <time>2020-11-04T08:37:31.501Z</time>
      </trkpt>
      <trkpt lat="49.73015" lon="5.61229">
        <ele>385.11</ele>
        <time>2020-11-04T08:37:35.000Z</time>
      </trkpt>
      <trkpt lat="49.73024" lon="5.61218">
        <ele>386.22</ele>
        <time>2020-11-04T08:37:39.481Z</time>
      </trkpt>
      <trkpt lat="49.73033" lon="5.6121">
        <ele>386.72</ele>
        <time>2020-11-04T08:37:42.000Z</time>
      </trkpt>
      <trkpt lat="49.73042" lon="5.61204">
        <ele>387.22</ele>
        <time>2020-11-04T08:37:45.479Z</time>
      </trkpt>
      <trkpt lat="49.73051" lon="5.612">
        <ele>388.25</ele>
        <time>2020-11-04T08:37:49.526Z</time>
      </trkpt>
      <trkpt lat="49.73058" lon="5.61184">
        <ele>388.67</ele>
        <time>2020-11-04T08:37:52.477Z</time>
      </trkpt>
      <trkpt lat="49.73062" lon="5.61172">
        <ele>389.06</ele>
        <time>2020-11-04T08:37:55.469Z</time>
      </trkpt>
      <trkpt lat="49.73066" lon="5.61156">
        <ele>389.61</ele>
        <time>2020-11-04T08:37:59.084Z</time>
      </trkpt>
      <trkpt lat="49.73069" lon="5.61141">
        <ele>389.99</ele>
        <time>2020-11-04T08:38:02.480Z</time>
      </trkpt>
      <trkpt lat="49.73072" lon="5.61127">
        <ele>390.65</ele>
        <time>2020-11-04T08:38:05.658Z</time>
      </trkpt>
      <trkpt lat="49.73079" lon="5.61115">
        <ele>391.37</ele>
        <time>2020-11-04T08:38:09.247Z</time>
      </trkpt>
      <trkpt lat="49.73081" lon="5.61101">
        <ele>391.73</ele>
        <time>2020-11-04T08:38:12.773Z</time>
      </trkpt>
      <trkpt lat="49.73084" lon="5.61084">
        <ele>392.19</ele>
        <time>2020-11-04T08:38:16.328Z</time>
      </trkpt>
      <trkpt lat="49.73088" lon="5.61069">
        <ele>392.7</ele>
        <time>2020-11-04T08:38:19.501Z</time>
      </trkpt>
      <trkpt lat="49.73094" lon="5.61053">
        <ele>392.97</ele>
        <time>2020-11-04T08:38:22.496Z</time>
      </trkpt>
      <trkpt lat="49.73098" lon="5.61041">
        <ele>393.23</ele>
        <time>2020-11-04T08:38:25.493Z</time>
      </trkpt>
      <trkpt lat="49.73102" lon="5.61026">
        <ele>393.69</ele>
        <time>2020-11-04T08:38:28.496Z</time>
      </trkpt>
      <trkpt lat="49.73104" lon="5.61007">
        <ele>394.31</ele>
        <time>2020-11-04T08:38:31.501Z</time>
      </trkpt>
      <trkpt lat="49.73106" lon="5.60989">
        <ele>394.84</ele>
        <time>2020-11-04T08:38:34.491Z</time>
      </trkpt>
      <trkpt lat="49.7311" lon="5.60974">
        <ele>395.2</ele>
        <time>2020-11-04T08:38:37.512Z</time>
      </trkpt>
      <trkpt lat="49.73113" lon="5.60955">
        <ele>395.22</ele>
        <time>2020-11-04T08:38:40.000Z</time>
      </trkpt>
      <trkpt lat="49.73114" lon="5.60941">
        <ele>395.12</ele>
        <time>2020-11-04T08:38:42.000Z</time>
      </trkpt>
      <trkpt lat="49.73118" lon="5.60925">
        <ele>394.96</ele>
        <time>2020-11-04T08:38:44.000Z</time>
      </trkpt>
      <trkpt lat="49.73121" lon="5.60906">
        <ele>394.68</ele>
        <time>2020-11-04T08:38:46.000Z</time>
      </trkpt>
      <trkpt lat="49.73125" lon="5.60887">
        <ele>394.4</ele>
        <time>2020-11-04T08:38:48.000Z</time>
      </trkpt>
      <trkpt lat="49.73128" lon="5.60866">
        <ele>393.94</ele>
        <time>2020-11-04T08:38:50.000Z</time>
      </trkpt>
      <trkpt lat="49.73132" lon="5.60844">
        <ele>393.42</ele>
        <time>2020-11-04T08:38:52.000Z</time>
      </trkpt>
      <trkpt lat="49.73136" lon="5.60822">
        <ele>392.7</ele>
        <time>2020-11-04T08:38:54.000Z</time>
      </trkpt>
      <trkpt lat="49.73139" lon="5.60799">
        <ele>391.93</ele>
        <time>2020-11-04T08:38:56.000Z</time>
      </trkpt>
      <trkpt lat="49.73142" lon="5.60777">
        <ele>391.36</ele>
        <time>2020-11-04T08:38:58.000Z</time>
      </trkpt>
      <trkpt lat="49.73145" lon="5.60757">
        <ele>390.92</ele>
        <time>2020-11-04T08:39:00.000Z</time>
      </trkpt>
      <trkpt lat="49.73146" lon="5.60731">
        <ele>390.28</ele>
        <time>2020-11-04T08:39:02.000Z</time>
      </trkpt>
      <trkpt lat="49.73145" lon="5.60707">
        <ele>389.75</ele>
        <time>2020-11-04T08:39:04.000Z</time>
      </trkpt>
      <trkpt lat="49.73144" lon="5.60683">
        <ele>388.94</ele>
        <time>2020-11-04T08:39:06.000Z</time>
      </trkpt>
      <trkpt lat="49.73141" lon="5.60661">
        <ele>388.21</ele>
        <time>2020-11-04T08:39:08.000Z</time>
      </trkpt>
      <trkpt lat="49.7314" lon="5.60642">
        <ele>387.64</ele>
        <time>2020-11-04T08:39:10.000Z</time>
      </trkpt>
      <trkpt lat="49.73138" lon="5.60622">
        <ele>387.13</ele>
        <time>2020-11-04T08:39:12.000Z</time>
      </trkpt>
      <trkpt lat="49.73134" lon="5.60603">
        <ele>386.63</ele>
        <time>2020-11-04T08:39:14.000Z</time>
      </trkpt>
      <trkpt lat="49.73129" lon="5.60583">
        <ele>385.97</ele>
        <time>2020-11-04T08:39:16.000Z</time>
      </trkpt>
      <trkpt lat="49.73124" lon="5.60562">
        <ele>385.41</ele>
        <time>2020-11-04T08:39:18.000Z</time>
      </trkpt>
      <trkpt lat="49.73119" lon="5.6054">
        <ele>384.78</ele>
        <time>2020-11-04T08:39:20.000Z</time>
      </trkpt>
      <trkpt lat="49.73113" lon="5.60516">
        <ele>383.93</ele>
        <time>2020-11-04T08:39:22.000Z</time>
      </trkpt>
      <trkpt lat="49.73107" lon="5.60494">
        <ele>383.08</ele>
        <time>2020-11-04T08:39:24.000Z</time>
      </trkpt>
      <trkpt lat="49.73102" lon="5.60472">
        <ele>382.21</ele>
        <time>2020-11-04T08:39:26.000Z</time>
      </trkpt>
      <trkpt lat="49.73098" lon="5.60453">
        <ele>381.52</ele>
        <time>2020-11-04T08:39:28.000Z</time>
      </trkpt>
      <trkpt lat="49.73091" lon="5.60434">
        <ele>380.83</ele>
        <time>2020-11-04T08:39:30.000Z</time>
      </trkpt>
      <trkpt lat="49.73089" lon="5.60413">
        <ele>380.33</ele>
        <time>2020-11-04T08:39:32.000Z</time>
      </trkpt>
      <trkpt lat="49.73087" lon="5.60393">
        <ele>380.07</ele>
        <time>2020-11-04T08:39:34.000Z</time>
      </trkpt>
      <trkpt lat="49.73085" lon="5.60373">
        <ele>379.75</ele>
        <time>2020-11-04T08:39:36.000Z</time>
      </trkpt>
      <trkpt lat="49.73089" lon="5.60356">
        <ele>379.58</ele>
        <time>2020-11-04T08:39:38.000Z</time>
      </trkpt>
      <trkpt lat="49.73099" lon="5.6035">
        <ele>379.31</ele>
        <time>2020-11-04T08:39:40.000Z</time>
      </trkpt>
      <trkpt lat="49.73111" lon="5.60351">
        <ele>379.23</ele>
        <time>2020-11-04T08:39:42.000Z</time>
      </trkpt>
      <trkpt lat="49.73125" lon="5.60351">
        <ele>379.36</ele>
        <time>2020-11-04T08:39:44.000Z</time>
      </trkpt>
      <trkpt lat="49.7314" lon="5.60352">
        <ele>379.42</ele>
        <time>2020-11-04T08:39:46.000Z</time>
      </trkpt>
      <trkpt lat="49.73155" lon="5.6035">
        <ele>379.52</ele>
        <time>2020-11-04T08:39:48.000Z</time>
      </trkpt>
      <trkpt lat="49.73167" lon="5.60343">
        <ele>379.59</ele>
        <time>2020-11-04T08:39:50.000Z</time>
      </trkpt>
      <trkpt lat="49.73176" lon="5.60329">
        <ele>379.67</ele>
        <time>2020-11-04T08:39:52.000Z</time>
      </trkpt>
      <trkpt lat="49.73184" lon="5.60316">
        <ele>379.64</ele>
        <time>2020-11-04T08:39:54.000Z</time>
      </trkpt>
      <trkpt lat="49.7319" lon="5.60306">
        <ele>379.46</ele>
        <time>2020-11-04T08:39:56.000Z</time>
      </trkpt>
      <trkpt lat="49.73197" lon="5.60295">
        <ele>379.38</ele>
        <time>2020-11-04T08:39:58.000Z</time>
      </trkpt>
      <trkpt lat="49.73203" lon="5.60284">
        <ele>379.27</ele>
        <time>2020-11-04T08:40:00.000Z</time>
      </trkpt>
      <trkpt lat="49.73209" lon="5.60273">
        <ele>379.06</ele>
        <time>2020-11-04T08:40:02.000Z</time>
      </trkpt>
      <trkpt lat="49.73217" lon="5.60264">
        <ele>378.98</ele>
        <time>2020-11-04T08:40:04.000Z</time>
      </trkpt>
      <trkpt lat="49.73225" lon="5.60256">
        <ele>378.96</ele>
        <time>2020-11-04T08:40:06.000Z</time>
      </trkpt>
      <trkpt lat="49.73233" lon="5.60246">
        <ele>379.08</ele>
        <time>2020-11-04T08:40:08.000Z</time>
      </trkpt>
      <trkpt lat="49.73244" lon="5.60243">
        <ele>378.87</ele>
        <time>2020-11-04T08:40:12.000Z</time>
      </trkpt>
      <trkpt lat="49.73254" lon="5.60235">
        <ele>378.8</ele>
        <time>2020-11-04T08:40:15.000Z</time>
      </trkpt>
      <trkpt lat="49.73265" lon="5.60225">
        <ele>379.11</ele>
        <time>2020-11-04T08:40:18.000Z</time>
      </trkpt>
      <trkpt lat="49.73273" lon="5.60218">
        <ele>379.39</ele>
        <time>2020-11-04T08:40:20.000Z</time>
      </trkpt>
      <trkpt lat="49.7328" lon="5.60208">
        <ele>379.88</ele>
        <time>2020-11-04T08:40:22.000Z</time>
      </trkpt>
      <trkpt lat="49.73286" lon="5.60192">
        <ele>380.5</ele>
        <time>2020-11-04T08:40:25.000Z</time>
      </trkpt>
      <trkpt lat="49.7329" lon="5.60173">
        <ele>380.52</ele>
        <time>2020-11-04T08:40:28.000Z</time>
      </trkpt>
      <trkpt lat="49.73292" lon="5.60159">
        <ele>380.48</ele>
        <time>2020-11-04T08:40:30.000Z</time>
      </trkpt>
      <trkpt lat="49.73294" lon="5.60145">
        <ele>380.35</ele>
        <time>2020-11-04T08:40:32.000Z</time>
      </trkpt>
      <trkpt lat="49.73297" lon="5.60129">
        <ele>380.4</ele>
        <time>2020-11-04T08:40:34.000Z</time>
      </trkpt>
      <trkpt lat="49.733" lon="5.60109">
        <ele>380.97</ele>
        <time>2020-11-04T08:40:37.000Z</time>
      </trkpt>
      <trkpt lat="49.733" lon="5.60095">
        <ele>381.14</ele>
        <time>2020-11-04T08:40:39.000Z</time>
      </trkpt>
      <trkpt lat="49.733" lon="5.6008">
        <ele>380.97</ele>
        <time>2020-11-04T08:40:41.000Z</time>
      </trkpt>
      <trkpt lat="49.733" lon="5.60061">
        <ele>380.2</ele>
        <time>2020-11-04T08:40:44.000Z</time>
      </trkpt>
      <trkpt lat="49.73299" lon="5.60042">
        <ele>379.99</ele>
        <time>2020-11-04T08:40:47.000Z</time>
      </trkpt>
      <trkpt lat="49.73302" lon="5.60025">
        <ele>380.49</ele>
        <time>2020-11-04T08:40:51.000Z</time>
      </trkpt>
      <trkpt lat="49.73306" lon="5.60012">
        <ele>381.09</ele>
        <time>2020-11-04T08:40:54.000Z</time>
      </trkpt>
      <trkpt lat="49.73318" lon="5.60004">
        <ele>381.74</ele>
        <time>2020-11-04T08:40:58.000Z</time>
      </trkpt>
      <trkpt lat="49.73326" lon="5.6">
        <ele>381.73</ele>
        <time>2020-11-04T08:41:01.000Z</time>
      </trkpt>
      <trkpt lat="49.73336" lon="5.59997">
        <ele>381.56</ele>
        <time>2020-11-04T08:41:05.000Z</time>
      </trkpt>
      <trkpt lat="49.73349" lon="5.59992">
        <ele>380.65</ele>
        <time>2020-11-04T08:41:08.496Z</time>
      </trkpt>
      <trkpt lat="49.7336" lon="5.59994">
        <ele>380.27</ele>
        <time>2020-11-04T08:41:11.499Z</time>
      </trkpt>
      <trkpt lat="49.7337" lon="5.59991">
        <ele>380.23</ele>
        <time>2020-11-04T08:41:15.475Z</time>
      </trkpt>
      <trkpt lat="49.7338" lon="5.5999">
        <ele>380.68</ele>
        <time>2020-11-04T08:41:19.482Z</time>
      </trkpt>
      <trkpt lat="49.73391" lon="5.59989">
        <ele>381.5</ele>
        <time>2020-11-04T08:41:23.483Z</time>
      </trkpt>
      <trkpt lat="49.734" lon="5.59988">
        <ele>382.31</ele>
        <time>2020-11-04T08:41:27.105Z</time>
      </trkpt>
      <trkpt lat="49.7341" lon="5.59987">
        <ele>383.02</ele>
        <time>2020-11-04T08:41:30.496Z</time>
      </trkpt>
      <trkpt lat="49.73419" lon="5.59987">
        <ele>384</ele>
        <time>2020-11-04T08:41:34.159Z</time>
      </trkpt>
      <trkpt lat="49.73428" lon="5.59984">
        <ele>384.99</ele>
        <time>2020-11-04T08:41:37.482Z</time>
      </trkpt>
      <trkpt lat="49.73438" lon="5.59977">
        <ele>385.2</ele>
        <time>2020-11-04T08:41:40.482Z</time>
      </trkpt>
      <trkpt lat="49.73447" lon="5.59975">
        <ele>385.49</ele>
        <time>2020-11-04T08:41:43.489Z</time>
      </trkpt>
      <trkpt lat="49.73458" lon="5.59969">
        <ele>385.88</ele>
        <time>2020-11-04T08:41:47.493Z</time>
      </trkpt>
      <trkpt lat="49.7347" lon="5.59964">
        <ele>386.25</ele>
        <time>2020-11-04T08:41:51.498Z</time>
      </trkpt>
      <trkpt lat="49.73479" lon="5.59958">
        <ele>386.55</ele>
        <time>2020-11-04T08:41:54.515Z</time>
      </trkpt>
      <trkpt lat="49.7349" lon="5.59953">
        <ele>386.98</ele>
        <time>2020-11-04T08:41:58.505Z</time>
      </trkpt>
      <trkpt lat="49.73501" lon="5.59945">
        <ele>387.19</ele>
        <time>2020-11-04T08:42:02.487Z</time>
      </trkpt>
      <trkpt lat="49.73509" lon="5.5994">
        <ele>386.94</ele>
        <time>2020-11-04T08:42:05.873Z</time>
      </trkpt>
      <trkpt lat="49.73519" lon="5.59933">
        <ele>386.55</ele>
        <time>2020-11-04T08:42:09.462Z</time>
      </trkpt>
      <trkpt lat="49.7353" lon="5.59929">
        <ele>386.49</ele>
        <time>2020-11-04T08:42:13.468Z</time>
      </trkpt>
      <trkpt lat="49.73539" lon="5.59929">
        <ele>387.07</ele>
        <time>2020-11-04T08:42:17.480Z</time>
      </trkpt>
      <trkpt lat="49.73547" lon="5.59926">
        <ele>388.28</ele>
        <time>2020-11-04T08:42:21.523Z</time>
      </trkpt>
      <trkpt lat="49.73557" lon="5.59923">
        <ele>389.08</ele>
        <time>2020-11-04T08:42:25.153Z</time>
      </trkpt>
      <trkpt lat="49.73563" lon="5.59916">
        <ele>386.5</ele>
        <time>2020-11-04T08:42:29.502Z</time>
      </trkpt>
      <trkpt lat="49.7356" lon="5.59921">
        <ele>383.32</ele>
        <time>2020-11-04T08:42:34.000Z</time>
      </trkpt>
      <trkpt lat="49.73561" lon="5.59921">
        <ele>381.23</ele>
        <time>2020-11-04T08:42:38.522Z</time>
      </trkpt>
      <trkpt lat="49.73563" lon="5.59911">
        <ele>379.39</ele>
        <time>2020-11-04T08:42:43.000Z</time>
      </trkpt>
      <trkpt lat="49.73563" lon="5.59915">
        <ele>378.39</ele>
        <time>2020-11-04T08:42:48.214Z</time>
      </trkpt>
      <trkpt lat="49.73562" lon="5.59915">
        <ele>377.83</ele>
        <time>2020-11-04T08:42:53.019Z</time>
      </trkpt>
      <trkpt lat="49.73563" lon="5.59918">
        <ele>376.84</ele>
        <time>2020-11-04T08:42:57.020Z</time>
      </trkpt>
      <trkpt lat="49.7357" lon="5.5991">
        <ele>376.58</ele>
        <time>2020-11-04T08:43:01.321Z</time>
      </trkpt>
      <trkpt lat="49.73564" lon="5.59907">
        <ele>378.28</ele>
        <time>2020-11-04T08:43:06.000Z</time>
      </trkpt>
      <trkpt lat="49.73563" lon="5.59908">
        <ele>380.38</ele>
        <time>2020-11-04T08:43:11.487Z</time>
      </trkpt>
      <trkpt lat="49.73563" lon="5.59923">
        <ele>381.39</ele>
        <time>2020-11-04T08:43:16.000Z</time>
      </trkpt>
      <trkpt lat="49.73563" lon="5.59926">
        <ele>381.9</ele>
        <time>2020-11-04T08:43:21.000Z</time>
      </trkpt>
      <trkpt lat="49.73564" lon="5.59927">
        <ele>382.35</ele>
        <time>2020-11-04T08:43:26.000Z</time>
      </trkpt>
      <trkpt lat="49.73563" lon="5.59927">
        <ele>382.58</ele>
        <time>2020-11-04T08:43:30.288Z</time>
      </trkpt>
      <trkpt lat="49.73563" lon="5.59927">
        <ele>382.73</ele>
        <time>2020-11-04T08:43:34.709Z</time>
      </trkpt>
      <trkpt lat="49.73563" lon="5.59929">
        <ele>383.1</ele>
        <time>2020-11-04T08:43:39.070Z</time>
      </trkpt>
      <trkpt lat="49.73564" lon="5.59937">
        <ele>383.12</ele>
        <time>2020-11-04T08:43:43.467Z</time>
      </trkpt>
      <trkpt lat="49.73553" lon="5.5994">
        <ele>381.62</ele>
        <time>2020-11-04T08:43:47.366Z</time>
      </trkpt>
      <trkpt lat="49.73555" lon="5.59941">
        <ele>380.85</ele>
        <time>2020-11-04T08:43:52.000Z</time>
      </trkpt>
      <trkpt lat="49.73555" lon="5.59944">
        <ele>380.31</ele>
        <time>2020-11-04T08:43:57.000Z</time>
      </trkpt>
      <trkpt lat="49.73555" lon="5.59944">
        <ele>379.97</ele>
        <time>2020-11-04T08:44:01.648Z</time>
      </trkpt>
      <trkpt lat="49.73555" lon="5.59943">
        <ele>379.82</ele>
        <time>2020-11-04T08:44:05.902Z</time>
      </trkpt>
      <trkpt lat="49.73556" lon="5.59934">
        <ele>380.39</ele>
        <time>2020-11-04T08:44:10.000Z</time>
      </trkpt>
      <trkpt lat="49.73564" lon="5.59939">
        <ele>381.47</ele>
        <time>2020-11-04T08:44:14.270Z</time>
      </trkpt>
      <trkpt lat="49.73572" lon="5.59932">
        <ele>385.22</ele>
        <time>2020-11-04T08:44:19.091Z</time>
      </trkpt>
      <trkpt lat="49.73579" lon="5.5993">
        <ele>389.96</ele>
        <time>2020-11-04T08:44:23.287Z</time>
      </trkpt>
      <trkpt lat="49.73583" lon="5.59916">
        <ele>391.91</ele>
        <time>2020-11-04T08:44:25.000Z</time>
      </trkpt>
      <trkpt lat="49.73592" lon="5.59903">
        <ele>394.37</ele>
        <time>2020-11-04T08:44:28.484Z</time>
      </trkpt>
      <trkpt lat="49.73601" lon="5.59895">
        <ele>396.25</ele>
        <time>2020-11-04T08:44:31.991Z</time>
      </trkpt>
      <trkpt lat="49.73611" lon="5.59883">
        <ele>398.8</ele>
        <time>2020-11-04T08:44:36.518Z</time>
      </trkpt>
      <trkpt lat="49.73618" lon="5.59873">
        <ele>400.43</ele>
        <time>2020-11-04T08:44:40.522Z</time>
      </trkpt>
      <trkpt lat="49.73624" lon="5.59861">
        <ele>401.74</ele>
        <time>2020-11-04T08:44:44.564Z</time>
      </trkpt>
      <trkpt lat="49.7363" lon="5.59846">
        <ele>402.78</ele>
        <time>2020-11-04T08:44:48.471Z</time>
      </trkpt>
      <trkpt lat="49.73637" lon="5.59836">
        <ele>401.9</ele>
        <time>2020-11-04T08:44:50.947Z</time>
      </trkpt>
      <trkpt lat="49.73642" lon="5.59824">
        <ele>400.96</ele>
        <time>2020-11-04T08:44:53.529Z</time>
      </trkpt>
      <trkpt lat="49.73648" lon="5.59805">
        <ele>400.47</ele>
        <time>2020-11-04T08:44:57.000Z</time>
      </trkpt>
      <trkpt lat="49.73653" lon="5.59789">
        <ele>400.28</ele>
        <time>2020-11-04T08:45:00.188Z</time>
      </trkpt>
      <trkpt lat="49.73656" lon="5.59776">
        <ele>400.4</ele>
        <time>2020-11-04T08:45:02.330Z</time>
      </trkpt>
      <trkpt lat="49.73659" lon="5.5976">
        <ele>400.72</ele>
        <time>2020-11-04T08:45:06.000Z</time>
      </trkpt>
      <trkpt lat="49.73663" lon="5.59744">
        <ele>401.13</ele>
        <time>2020-11-04T08:45:09.845Z</time>
      </trkpt>
      <trkpt lat="49.73667" lon="5.59728">
        <ele>401.86</ele>
        <time>2020-11-04T08:45:14.000Z</time>
      </trkpt>
      <trkpt lat="49.73672" lon="5.59714">
        <ele>402.59</ele>
        <time>2020-11-04T08:45:17.085Z</time>
      </trkpt>
      <trkpt lat="49.73678" lon="5.597">
        <ele>403.83</ele>
        <time>2020-11-04T08:45:20.245Z</time>
      </trkpt>
      <trkpt lat="49.73682" lon="5.59685">
        <ele>405.47</ele>
        <time>2020-11-04T08:45:24.000Z</time>
      </trkpt>
      <trkpt lat="49.73686" lon="5.5967">
        <ele>406.76</ele>
        <time>2020-11-04T08:45:28.000Z</time>
      </trkpt>
      <trkpt lat="49.73689" lon="5.59655">
        <ele>407.83</ele>
        <time>2020-11-04T08:45:32.000Z</time>
      </trkpt>
      <trkpt lat="49.73692" lon="5.59634">
        <ele>408.04</ele>
        <time>2020-11-04T08:45:35.494Z</time>
      </trkpt>
      <trkpt lat="49.73695" lon="5.59617">
        <ele>408.41</ele>
        <time>2020-11-04T08:45:38.302Z</time>
      </trkpt>
      <trkpt lat="49.73696" lon="5.59601">
        <ele>408.54</ele>
        <time>2020-11-04T08:45:41.503Z</time>
      </trkpt>
      <trkpt lat="49.73698" lon="5.59585">
        <ele>408.22</ele>
        <time>2020-11-04T08:45:44.476Z</time>
      </trkpt>
      <trkpt lat="49.73703" lon="5.5957">
        <ele>408.83</ele>
        <time>2020-11-04T08:45:48.490Z</time>
      </trkpt>
      <trkpt lat="49.73706" lon="5.59557">
        <ele>409.79</ele>
        <time>2020-11-04T08:45:53.471Z</time>
      </trkpt>
      <trkpt lat="49.73708" lon="5.59548">
        <ele>410.59</ele>
        <time>2020-11-04T08:45:57.504Z</time>
      </trkpt>
      <trkpt lat="49.73712" lon="5.59536">
        <ele>410.91</ele>
        <time>2020-11-04T08:46:01.496Z</time>
      </trkpt>
      <trkpt lat="49.73715" lon="5.59523">
        <ele>412.52</ele>
        <time>2020-11-04T08:46:05.509Z</time>
      </trkpt>
      <trkpt lat="49.73718" lon="5.59507">
        <ele>413.82</ele>
        <time>2020-11-04T08:46:09.490Z</time>
      </trkpt>
      <trkpt lat="49.73721" lon="5.59491">
        <ele>415.26</ele>
        <time>2020-11-04T08:46:13.471Z</time>
      </trkpt>
      <trkpt lat="49.73724" lon="5.59478">
        <ele>416.92</ele>
        <time>2020-11-04T08:46:16.476Z</time>
      </trkpt>
      <trkpt lat="49.73734" lon="5.59475">
        <ele>419.39</ele>
        <time>2020-11-04T08:46:20.477Z</time>
      </trkpt>
      <trkpt lat="49.73744" lon="5.59469">
        <ele>423.34</ele>
        <time>2020-11-04T08:46:25.478Z</time>
      </trkpt>
      <trkpt lat="49.73754" lon="5.59461">
        <ele>425.62</ele>
        <time>2020-11-04T08:46:29.486Z</time>
      </trkpt>
      <trkpt lat="49.73765" lon="5.59455">
        <ele>425.32</ele>
        <time>2020-11-04T08:46:32.466Z</time>
      </trkpt>
      <trkpt lat="49.73772" lon="5.59443">
        <ele>423.73</ele>
        <time>2020-11-04T08:46:34.026Z</time>
      </trkpt>
      <trkpt lat="49.73774" lon="5.59426">
        <ele>420.79</ele>
        <time>2020-11-04T08:46:36.269Z</time>
      </trkpt>
      <trkpt lat="49.73775" lon="5.59411">
        <ele>418.2</ele>
        <time>2020-11-04T08:46:38.000Z</time>
      </trkpt>
      <trkpt lat="49.73777" lon="5.59392">
        <ele>417.28</ele>
        <time>2020-11-04T08:46:40.000Z</time>
      </trkpt>
      <trkpt lat="49.7378" lon="5.59376">
        <ele>416</ele>
        <time>2020-11-04T08:46:44.033Z</time>
      </trkpt>
      <trkpt lat="49.73782" lon="5.59361">
        <ele>415.82</ele>
        <time>2020-11-04T08:46:46.353Z</time>
      </trkpt>
      <trkpt lat="49.73782" lon="5.59345">
        <ele>415.89</ele>
        <time>2020-11-04T08:46:49.484Z</time>
      </trkpt>
      <trkpt lat="49.73781" lon="5.59326">
        <ele>415.62</ele>
        <time>2020-11-04T08:46:52.340Z</time>
      </trkpt>
      <trkpt lat="49.73781" lon="5.5931">
        <ele>415.26</ele>
        <time>2020-11-04T08:46:56.160Z</time>
      </trkpt>
      <trkpt lat="49.73779" lon="5.59296">
        <ele>414.19</ele>
        <time>2020-11-04T08:46:59.852Z</time>
      </trkpt>
      <trkpt lat="49.73775" lon="5.59281">
        <ele>412.95</ele>
        <time>2020-11-04T08:47:03.232Z</time>
      </trkpt>
      <trkpt lat="49.73768" lon="5.59271">
        <ele>412.24</ele>
        <time>2020-11-04T08:47:05.554Z</time>
      </trkpt>
      <trkpt lat="49.7376" lon="5.59264">
        <ele>412.33</ele>
        <time>2020-11-04T08:47:08.483Z</time>
      </trkpt>
      <trkpt lat="49.73751" lon="5.5926">
        <ele>412.06</ele>
        <time>2020-11-04T08:47:10.018Z</time>
      </trkpt>
      <trkpt lat="49.73737" lon="5.59254">
        <ele>411.37</ele>
        <time>2020-11-04T08:47:12.467Z</time>
      </trkpt>
      <trkpt lat="49.73724" lon="5.59248">
        <ele>410.81</ele>
        <time>2020-11-04T08:47:14.462Z</time>
      </trkpt>
      <trkpt lat="49.7371" lon="5.5924">
        <ele>410.02</ele>
        <time>2020-11-04T08:47:16.000Z</time>
      </trkpt>
      <trkpt lat="49.73698" lon="5.59235">
        <ele>409.58</ele>
        <time>2020-11-04T08:47:18.503Z</time>
      </trkpt>
      <trkpt lat="49.73687" lon="5.59231">
        <ele>409.43</ele>
        <time>2020-11-04T08:47:21.000Z</time>
      </trkpt>
      <trkpt lat="49.73677" lon="5.59224">
        <ele>409.68</ele>
        <time>2020-11-04T08:47:23.539Z</time>
      </trkpt>
      <trkpt lat="49.73668" lon="5.59216">
        <ele>409.84</ele>
        <time>2020-11-04T08:47:25.469Z</time>
      </trkpt>
      <trkpt lat="49.73679" lon="5.59202">
        <ele>409.6</ele>
        <time>2020-11-04T08:47:28.000Z</time>
      </trkpt>
      <trkpt lat="49.73686" lon="5.59186">
        <ele>409.03</ele>
        <time>2020-11-04T08:47:30.474Z</time>
      </trkpt>
      <trkpt lat="49.73696" lon="5.59175">
        <ele>407.71</ele>
        <time>2020-11-04T08:47:34.138Z</time>
      </trkpt>
      <trkpt lat="49.73702" lon="5.59163">
        <ele>406.98</ele>
        <time>2020-11-04T08:47:36.112Z</time>
      </trkpt>
      <trkpt lat="49.73706" lon="5.59149">
        <ele>406.55</ele>
        <time>2020-11-04T08:47:38.484Z</time>
      </trkpt>
      <trkpt lat="49.73712" lon="5.59133">
        <ele>406.05</ele>
        <time>2020-11-04T08:47:41.497Z</time>
      </trkpt>
      <trkpt lat="49.7372" lon="5.59117">
        <ele>406.13</ele>
        <time>2020-11-04T08:47:44.465Z</time>
      </trkpt>
      <trkpt lat="49.73725" lon="5.59101">
        <ele>406.96</ele>
        <time>2020-11-04T08:47:47.496Z</time>
      </trkpt>
      <trkpt lat="49.73734" lon="5.59091">
        <ele>407.89</ele>
        <time>2020-11-04T08:47:50.501Z</time>
      </trkpt>
      <trkpt lat="49.73743" lon="5.59085">
        <ele>408.59</ele>
        <time>2020-11-04T08:47:52.513Z</time>
      </trkpt>
      <trkpt lat="49.73757" lon="5.59081">
        <ele>409.64</ele>
        <time>2020-11-04T08:47:55.500Z</time>
      </trkpt>
      <trkpt lat="49.73768" lon="5.59079">
        <ele>410.94</ele>
        <time>2020-11-04T08:47:58.496Z</time>
      </trkpt>
      <trkpt lat="49.73778" lon="5.59076">
        <ele>411.83</ele>
        <time>2020-11-04T08:48:01.500Z</time>
      </trkpt>
      <trkpt lat="49.73788" lon="5.59065">
        <ele>412.84</ele>
        <time>2020-11-04T08:48:04.986Z</time>
      </trkpt>
      <trkpt lat="49.73798" lon="5.59058">
        <ele>413.53</ele>
        <time>2020-11-04T08:48:07.000Z</time>
      </trkpt>
      <trkpt lat="49.73808" lon="5.59049">
        <ele>413.29</ele>
        <time>2020-11-04T08:48:09.000Z</time>
      </trkpt>
      <trkpt lat="49.73817" lon="5.59029">
        <ele>412.45</ele>
        <time>2020-11-04T08:48:11.000Z</time>
      </trkpt>
      <trkpt lat="49.73825" lon="5.59014">
        <ele>411.54</ele>
        <time>2020-11-04T08:48:13.000Z</time>
      </trkpt>
      <trkpt lat="49.73833" lon="5.59004">
        <ele>411.33</ele>
        <time>2020-11-04T08:48:15.000Z</time>
      </trkpt>
      <trkpt lat="49.73843" lon="5.58993">
        <ele>411.27</ele>
        <time>2020-11-04T08:48:17.515Z</time>
      </trkpt>
      <trkpt lat="49.73852" lon="5.58984">
        <ele>411.78</ele>
        <time>2020-11-04T08:48:20.498Z</time>
      </trkpt>
      <trkpt lat="49.73857" lon="5.58972">
        <ele>412.19</ele>
        <time>2020-11-04T08:48:22.512Z</time>
      </trkpt>
      <trkpt lat="49.73867" lon="5.58959">
        <ele>412.85</ele>
        <time>2020-11-04T08:48:25.500Z</time>
      </trkpt>
      <trkpt lat="49.73876" lon="5.5895">
        <ele>413.82</ele>
        <time>2020-11-04T08:48:28.500Z</time>
      </trkpt>
      <trkpt lat="49.73885" lon="5.58941">
        <ele>415.06</ele>
        <time>2020-11-04T08:48:31.485Z</time>
      </trkpt>
      <trkpt lat="49.73894" lon="5.58933">
        <ele>416.55</ele>
        <time>2020-11-04T08:48:34.498Z</time>
      </trkpt>
      <trkpt lat="49.73902" lon="5.5892">
        <ele>417.92</ele>
        <time>2020-11-04T08:48:37.506Z</time>
      </trkpt>
      <trkpt lat="49.73911" lon="5.58913">
        <ele>418.35</ele>
        <time>2020-11-04T08:48:39.510Z</time>
      </trkpt>
      <trkpt lat="49.73921" lon="5.58907">
        <ele>418.88</ele>
        <time>2020-11-04T08:48:42.501Z</time>
      </trkpt>
      <trkpt lat="49.73932" lon="5.58903">
        <ele>419.15</ele>
        <time>2020-11-04T08:48:45.500Z</time>
      </trkpt>
      <trkpt lat="49.73941" lon="5.58892">
        <ele>419.2</ele>
        <time>2020-11-04T08:48:48.221Z</time>
      </trkpt>
      <trkpt lat="49.7395" lon="5.58886">
        <ele>419.07</ele>
        <time>2020-11-04T08:48:50.490Z</time>
      </trkpt>
      <trkpt lat="49.7396" lon="5.58879">
        <ele>419.35</ele>
        <time>2020-11-04T08:48:53.474Z</time>
      </trkpt>
      <trkpt lat="49.7397" lon="5.58871">
        <ele>419.37</ele>
        <time>2020-11-04T08:48:56.479Z</time>
      </trkpt>
      <trkpt lat="49.73981" lon="5.58859">
        <ele>418.84</ele>
        <time>2020-11-04T08:48:59.488Z</time>
      </trkpt>
      <trkpt lat="49.73992" lon="5.58851">
        <ele>418.38</ele>
        <time>2020-11-04T08:49:02.513Z</time>
      </trkpt>
      <trkpt lat="49.74005" lon="5.58846">
        <ele>418.06</ele>
        <time>2020-11-04T08:49:07.508Z</time>
      </trkpt>
      <trkpt lat="49.74013" lon="5.58839">
        <ele>418.18</ele>
        <time>2020-11-04T08:49:09.534Z</time>
      </trkpt>
      <trkpt lat="49.74021" lon="5.5883">
        <ele>418.3</ele>
        <time>2020-11-04T08:49:11.544Z</time>
      </trkpt>
      <trkpt lat="49.74028" lon="5.58819">
        <ele>418.71</ele>
        <time>2020-11-04T08:49:14.490Z</time>
      </trkpt>
      <trkpt lat="49.74038" lon="5.58812">
        <ele>418.54</ele>
        <time>2020-11-04T08:49:17.498Z</time>
      </trkpt>
      <trkpt lat="49.74048" lon="5.58802">
        <ele>417.79</ele>
        <time>2020-11-04T08:49:20.483Z</time>
      </trkpt>
      <trkpt lat="49.74058" lon="5.58791">
        <ele>417.13</ele>
        <time>2020-11-04T08:49:23.473Z</time>
      </trkpt>
      <trkpt lat="49.74064" lon="5.58779">
        <ele>417.68</ele>
        <time>2020-11-04T08:49:26.478Z</time>
      </trkpt>
      <trkpt lat="49.74072" lon="5.58768">
        <ele>419.27</ele>
        <time>2020-11-04T08:49:29.510Z</time>
      </trkpt>
      <trkpt lat="49.74081" lon="5.58753">
        <ele>420.67</ele>
        <time>2020-11-04T08:49:32.487Z</time>
      </trkpt>
      <trkpt lat="49.74088" lon="5.58742">
        <ele>422.26</ele>
        <time>2020-11-04T08:49:35.000Z</time>
      </trkpt>
      <trkpt lat="49.74097" lon="5.58725">
        <ele>424.02</ele>
        <time>2020-11-04T08:49:38.493Z</time>
      </trkpt>
      <trkpt lat="49.74104" lon="5.58714">
        <ele>424.43</ele>
        <time>2020-11-04T08:49:40.489Z</time>
      </trkpt>
      <trkpt lat="49.74113" lon="5.58701">
        <ele>424.3</ele>
        <time>2020-11-04T08:49:43.515Z</time>
      </trkpt>
      <trkpt lat="49.74117" lon="5.58683">
        <ele>423.52</ele>
        <time>2020-11-04T08:49:45.484Z</time>
      </trkpt>
      <trkpt lat="49.74124" lon="5.58668">
        <ele>422.24</ele>
        <time>2020-11-04T08:49:47.000Z</time>
      </trkpt>
      <trkpt lat="49.74132" lon="5.58652">
        <ele>421.2</ele>
        <time>2020-11-04T08:49:49.000Z</time>
      </trkpt>
      <trkpt lat="49.74141" lon="5.58637">
        <ele>420.44</ele>
        <time>2020-11-04T08:49:51.000Z</time>
      </trkpt>
      <trkpt lat="49.7415" lon="5.58621">
        <ele>419.86</ele>
        <time>2020-11-04T08:49:53.000Z</time>
      </trkpt>
      <trkpt lat="49.74159" lon="5.58602">
        <ele>419.11</ele>
        <time>2020-11-04T08:49:55.000Z</time>
      </trkpt>
      <trkpt lat="49.74168" lon="5.58588">
        <ele>418.42</ele>
        <time>2020-11-04T08:49:57.000Z</time>
      </trkpt>
      <trkpt lat="49.74175" lon="5.58577">
        <ele>418.06</ele>
        <time>2020-11-04T08:49:59.000Z</time>
      </trkpt>
      <trkpt lat="49.74182" lon="5.58566">
        <ele>417.93</ele>
        <time>2020-11-04T08:50:01.000Z</time>
      </trkpt>
      <trkpt lat="49.74191" lon="5.58547">
        <ele>417.92</ele>
        <time>2020-11-04T08:50:04.000Z</time>
      </trkpt>
      <trkpt lat="49.74198" lon="5.58532">
        <ele>417.74</ele>
        <time>2020-11-04T08:50:06.000Z</time>
      </trkpt>
      <trkpt lat="49.74205" lon="5.58522">
        <ele>417.71</ele>
        <time>2020-11-04T08:50:10.120Z</time>
      </trkpt>
      <trkpt lat="49.74211" lon="5.58508">
        <ele>417.82</ele>
        <time>2020-11-04T08:50:12.491Z</time>
      </trkpt>
      <trkpt lat="49.74218" lon="5.58499">
        <ele>418.37</ele>
        <time>2020-11-04T08:50:15.502Z</time>
      </trkpt>
      <trkpt lat="49.74227" lon="5.5849">
        <ele>420.55</ele>
        <time>2020-11-04T08:50:20.504Z</time>
      </trkpt>
      <trkpt lat="49.74234" lon="5.58476">
        <ele>421.93</ele>
        <time>2020-11-04T08:50:23.512Z</time>
      </trkpt>
      <trkpt lat="49.7424" lon="5.58461">
        <ele>422.67</ele>
        <time>2020-11-04T08:50:26.532Z</time>
      </trkpt>
      <trkpt lat="49.74246" lon="5.58449">
        <ele>422.4</ele>
        <time>2020-11-04T08:50:29.554Z</time>
      </trkpt>
      <trkpt lat="49.74253" lon="5.58436">
        <ele>421.88</ele>
        <time>2020-11-04T08:50:32.502Z</time>
      </trkpt>
      <trkpt lat="49.74259" lon="5.58422">
        <ele>421.7</ele>
        <time>2020-11-04T08:50:35.096Z</time>
      </trkpt>
      <trkpt lat="49.74267" lon="5.58411">
        <ele>421.79</ele>
        <time>2020-11-04T08:50:38.501Z</time>
      </trkpt>
      <trkpt lat="49.74277" lon="5.58404">
        <ele>422.05</ele>
        <time>2020-11-04T08:50:41.499Z</time>
      </trkpt>
      <trkpt lat="49.74283" lon="5.58389">
        <ele>422.54</ele>
        <time>2020-11-04T08:50:44.496Z</time>
      </trkpt>
      <trkpt lat="49.74289" lon="5.58374">
        <ele>422.99</ele>
        <time>2020-11-04T08:50:47.513Z</time>
      </trkpt>
      <trkpt lat="49.74295" lon="5.58358">
        <ele>423.28</ele>
        <time>2020-11-04T08:50:50.511Z</time>
      </trkpt>
      <trkpt lat="49.74303" lon="5.58346">
        <ele>423.3</ele>
        <time>2020-11-04T08:50:53.509Z</time>
      </trkpt>
      <trkpt lat="49.74311" lon="5.58335">
        <ele>423.56</ele>
        <time>2020-11-04T08:50:56.484Z</time>
      </trkpt>
      <trkpt lat="49.74318" lon="5.5832">
        <ele>423.52</ele>
        <time>2020-11-04T08:50:59.497Z</time>
      </trkpt>
      <trkpt lat="49.74328" lon="5.58311">
        <ele>423.09</ele>
        <time>2020-11-04T08:51:02.501Z</time>
      </trkpt>
      <trkpt lat="49.7434" lon="5.58315">
        <ele>422.49</ele>
        <time>2020-11-04T08:51:05.500Z</time>
      </trkpt>
      <trkpt lat="49.74349" lon="5.58324">
        <ele>421.49</ele>
        <time>2020-11-04T08:51:09.471Z</time>
      </trkpt>
      <trkpt lat="49.74358" lon="5.58333">
        <ele>422.16</ele>
        <time>2020-11-04T08:51:13.473Z</time>
      </trkpt>
      <trkpt lat="49.74368" lon="5.58338">
        <ele>424.04</ele>
        <time>2020-11-04T08:51:17.513Z</time>
      </trkpt>
      <trkpt lat="49.74377" lon="5.58346">
        <ele>425.57</ele>
        <time>2020-11-04T08:51:20.508Z</time>
      </trkpt>
      <trkpt lat="49.74385" lon="5.58354">
        <ele>427.2</ele>
        <time>2020-11-04T08:51:23.505Z</time>
      </trkpt>
      <trkpt lat="49.74392" lon="5.58369">
        <ele>428.12</ele>
        <time>2020-11-04T08:51:26.474Z</time>
      </trkpt>
      <trkpt lat="49.74402" lon="5.5838">
        <ele>429.27</ele>
        <time>2020-11-04T08:51:30.485Z</time>
      </trkpt>
      <trkpt lat="49.74412" lon="5.58385">
        <ele>429.88</ele>
        <time>2020-11-04T08:51:33.491Z</time>
      </trkpt>
      <trkpt lat="49.74421" lon="5.58388">
        <ele>430.49</ele>
        <time>2020-11-04T08:51:36.738Z</time>
      </trkpt>
      <trkpt lat="49.7443" lon="5.58398">
        <ele>431.72</ele>
        <time>2020-11-04T08:51:40.485Z</time>
      </trkpt>
      <trkpt lat="49.74436" lon="5.58411">
        <ele>432.83</ele>
        <time>2020-11-04T08:51:43.509Z</time>
      </trkpt>
      <trkpt lat="49.74444" lon="5.58425">
        <ele>433.28</ele>
        <time>2020-11-04T08:51:46.500Z</time>
      </trkpt>
      <trkpt lat="49.74453" lon="5.58436">
        <ele>433.9</ele>
        <time>2020-11-04T08:51:49.514Z</time>
      </trkpt>
      <trkpt lat="49.74464" lon="5.58438">
        <ele>435.95</ele>
        <time>2020-11-04T08:51:54.499Z</time>
      </trkpt>
      <trkpt lat="49.74469" lon="5.58448">
        <ele>438.09</ele>
        <time>2020-11-04T08:51:58.502Z</time>
      </trkpt>
      <trkpt lat="49.74471" lon="5.58463">
        <ele>438.76</ele>
        <time>2020-11-04T08:52:02.485Z</time>
      </trkpt>
      <trkpt lat="49.74478" lon="5.58473">
        <ele>436.51</ele>
        <time>2020-11-04T08:52:06.777Z</time>
      </trkpt>
      <trkpt lat="49.74485" lon="5.58481">
        <ele>437.5</ele>
        <time>2020-11-04T08:52:09.524Z</time>
      </trkpt>
      <trkpt lat="49.7449" lon="5.58495">
        <ele>441.8</ele>
        <time>2020-11-04T08:52:13.509Z</time>
      </trkpt>
      <trkpt lat="49.74493" lon="5.58509">
        <ele>448.32</ele>
        <time>2020-11-04T08:52:16.506Z</time>
      </trkpt>
      <trkpt lat="49.74492" lon="5.58526">
        <ele>455.48</ele>
        <time>2020-11-04T08:52:20.500Z</time>
      </trkpt>
      <trkpt lat="49.74497" lon="5.5854">
        <ele>455.1</ele>
        <time>2020-11-04T08:52:23.490Z</time>
      </trkpt>
      <trkpt lat="49.745" lon="5.58555">
        <ele>453.15</ele>
        <time>2020-11-04T08:52:26.509Z</time>
      </trkpt>
      <trkpt lat="49.745" lon="5.58572">
        <ele>451.67</ele>
        <time>2020-11-04T08:52:29.512Z</time>
      </trkpt>
      <trkpt lat="49.74506" lon="5.58585">
        <ele>450.31</ele>
        <time>2020-11-04T08:52:33.499Z</time>
      </trkpt>
      <trkpt lat="49.74513" lon="5.586">
        <ele>445.75</ele>
        <time>2020-11-04T08:52:36.000Z</time>
      </trkpt>
      <trkpt lat="49.74519" lon="5.58617">
        <ele>442.96</ele>
        <time>2020-11-04T08:52:38.471Z</time>
      </trkpt>
      <trkpt lat="49.74522" lon="5.58635">
        <ele>441.09</ele>
        <time>2020-11-04T08:52:40.477Z</time>
      </trkpt>
      <trkpt lat="49.74523" lon="5.58649">
        <ele>440.05</ele>
        <time>2020-11-04T08:52:42.492Z</time>
      </trkpt>
      <trkpt lat="49.74531" lon="5.58664">
        <ele>439.46</ele>
        <time>2020-11-04T08:52:45.496Z</time>
      </trkpt>
      <trkpt lat="49.74537" lon="5.5868">
        <ele>440.15</ele>
        <time>2020-11-04T08:52:48.457Z</time>
      </trkpt>
      <trkpt lat="49.74541" lon="5.58698">
        <ele>440.5</ele>
        <time>2020-11-04T08:52:51.490Z</time>
      </trkpt>
      <trkpt lat="49.74543" lon="5.58713">
        <ele>440.66</ele>
        <time>2020-11-04T08:52:53.500Z</time>
      </trkpt>
      <trkpt lat="49.74546" lon="5.58726">
        <ele>439.97</ele>
        <time>2020-11-04T08:52:55.482Z</time>
      </trkpt>
      <trkpt lat="49.74555" lon="5.58728">
        <ele>438.62</ele>
        <time>2020-11-04T08:52:57.110Z</time>
      </trkpt>
      <trkpt lat="49.74565" lon="5.58732">
        <ele>437.08</ele>
        <time>2020-11-04T08:52:59.499Z</time>
      </trkpt>
      <trkpt lat="49.74573" lon="5.58741">
        <ele>435.81</ele>
        <time>2020-11-04T08:53:01.518Z</time>
      </trkpt>
      <trkpt lat="49.74575" lon="5.58758">
        <ele>434.47</ele>
        <time>2020-11-04T08:53:04.516Z</time>
      </trkpt>
      <trkpt lat="49.74581" lon="5.58769">
        <ele>434.24</ele>
        <time>2020-11-04T08:53:06.754Z</time>
      </trkpt>
      <trkpt lat="49.74583" lon="5.58783">
        <ele>434.05</ele>
        <time>2020-11-04T08:53:09.482Z</time>
      </trkpt>
      <trkpt lat="49.7458" lon="5.58798">
        <ele>433.59</ele>
        <time>2020-11-04T08:53:12.494Z</time>
      </trkpt>
      <trkpt lat="49.74579" lon="5.58811">
        <ele>433.34</ele>
        <time>2020-11-04T08:53:16.510Z</time>
      </trkpt>
      <trkpt lat="49.74587" lon="5.58822">
        <ele>434</ele>
        <time>2020-11-04T08:53:20.472Z</time>
      </trkpt>
      <trkpt lat="49.74594" lon="5.58833">
        <ele>435.73</ele>
        <time>2020-11-04T08:53:24.485Z</time>
      </trkpt>
      <trkpt lat="49.74602" lon="5.58843">
        <ele>437.46</ele>
        <time>2020-11-04T08:53:28.518Z</time>
      </trkpt>
      <trkpt lat="49.74608" lon="5.58853">
        <ele>439.82</ele>
        <time>2020-11-04T08:53:31.504Z</time>
      </trkpt>
      <trkpt lat="49.74615" lon="5.58864">
        <ele>440.98</ele>
        <time>2020-11-04T08:53:34.492Z</time>
      </trkpt>
      <trkpt lat="49.74622" lon="5.58877">
        <ele>440.92</ele>
        <time>2020-11-04T08:53:36.000Z</time>
      </trkpt>
      <trkpt lat="49.74629" lon="5.58886">
        <ele>441.71</ele>
        <time>2020-11-04T08:53:38.000Z</time>
      </trkpt>
      <trkpt lat="49.74638" lon="5.58894">
        <ele>443.01</ele>
        <time>2020-11-04T08:53:40.638Z</time>
      </trkpt>
      <trkpt lat="49.74647" lon="5.58903">
        <ele>443.97</ele>
        <time>2020-11-04T08:53:43.712Z</time>
      </trkpt>
      <trkpt lat="49.74652" lon="5.58917">
        <ele>444.53</ele>
        <time>2020-11-04T08:53:46.598Z</time>
      </trkpt>
      <trkpt lat="49.74657" lon="5.58931">
        <ele>444.21</ele>
        <time>2020-11-04T08:53:49.478Z</time>
      </trkpt>
      <trkpt lat="49.74663" lon="5.58945">
        <ele>443.78</ele>
        <time>2020-11-04T08:53:52.504Z</time>
      </trkpt>
      <trkpt lat="49.74671" lon="5.58956">
        <ele>443.56</ele>
        <time>2020-11-04T08:53:55.526Z</time>
      </trkpt>
      <trkpt lat="49.7468" lon="5.58967">
        <ele>443.48</ele>
        <time>2020-11-04T08:53:58.509Z</time>
      </trkpt>
      <trkpt lat="49.74685" lon="5.58984">
        <ele>443.3</ele>
        <time>2020-11-04T08:54:01.519Z</time>
      </trkpt>
      <trkpt lat="49.74689" lon="5.58998">
        <ele>442.98</ele>
        <time>2020-11-04T08:54:04.531Z</time>
      </trkpt>
      <trkpt lat="49.74693" lon="5.59011">
        <ele>442.83</ele>
        <time>2020-11-04T08:54:07.730Z</time>
      </trkpt>
      <trkpt lat="49.74694" lon="5.59029">
        <ele>442.36</ele>
        <time>2020-11-04T08:54:10.502Z</time>
      </trkpt>
      <trkpt lat="49.74695" lon="5.59045">
        <ele>440.99</ele>
        <time>2020-11-04T08:54:13.505Z</time>
      </trkpt>
      <trkpt lat="49.74695" lon="5.59063">
        <ele>439.39</ele>
        <time>2020-11-04T08:54:17.497Z</time>
      </trkpt>
      <trkpt lat="49.74693" lon="5.59076">
        <ele>437.86</ele>
        <time>2020-11-04T08:54:22.540Z</time>
      </trkpt>
      <trkpt lat="49.74691" lon="5.5909">
        <ele>437.95</ele>
        <time>2020-11-04T08:54:27.540Z</time>
      </trkpt>
      <trkpt lat="49.74683" lon="5.59099">
        <ele>437.27</ele>
        <time>2020-11-04T08:54:31.492Z</time>
      </trkpt>
      <trkpt lat="49.7468" lon="5.59114">
        <ele>436.02</ele>
        <time>2020-11-04T08:54:35.478Z</time>
      </trkpt>
      <trkpt lat="49.74674" lon="5.59126">
        <ele>435.44</ele>
        <time>2020-11-04T08:54:38.298Z</time>
      </trkpt>
      <trkpt lat="49.74669" lon="5.59138">
        <ele>436.03</ele>
        <time>2020-11-04T08:54:41.500Z</time>
      </trkpt>
      <trkpt lat="49.74672" lon="5.59154">
        <ele>436.78</ele>
        <time>2020-11-04T08:54:43.487Z</time>
      </trkpt>
      <trkpt lat="49.74677" lon="5.5917">
        <ele>437.46</ele>
        <time>2020-11-04T08:54:46.476Z</time>
      </trkpt>
      <trkpt lat="49.74679" lon="5.59188">
        <ele>437.84</ele>
        <time>2020-11-04T08:54:49.490Z</time>
      </trkpt>
      <trkpt lat="49.74678" lon="5.59202">
        <ele>438.15</ele>
        <time>2020-11-04T08:54:51.472Z</time>
      </trkpt>
      <trkpt lat="49.74669" lon="5.5921">
        <ele>438.96</ele>
        <time>2020-11-04T08:54:55.473Z</time>
      </trkpt>
      <trkpt lat="49.74664" lon="5.59226">
        <ele>439.87</ele>
        <time>2020-11-04T08:54:58.511Z</time>
      </trkpt>
      <trkpt lat="49.74656" lon="5.59238">
        <ele>440.17</ele>
        <time>2020-11-04T08:55:02.400Z</time>
      </trkpt>
      <trkpt lat="49.74654" lon="5.59256">
        <ele>440.29</ele>
        <time>2020-11-04T08:55:04.474Z</time>
      </trkpt>
      <trkpt lat="49.74649" lon="5.59268">
        <ele>440.41</ele>
        <time>2020-11-04T08:55:06.491Z</time>
      </trkpt>
      <trkpt lat="49.74647" lon="5.59285">
        <ele>440.25</ele>
        <time>2020-11-04T08:55:09.475Z</time>
      </trkpt>
      <trkpt lat="49.74641" lon="5.59298">
        <ele>439.56</ele>
        <time>2020-11-04T08:55:11.509Z</time>
      </trkpt>
      <trkpt lat="49.74635" lon="5.59309">
        <ele>438.89</ele>
        <time>2020-11-04T08:55:13.511Z</time>
      </trkpt>
      <trkpt lat="49.74631" lon="5.59331">
        <ele>438.34</ele>
        <time>2020-11-04T08:55:16.497Z</time>
      </trkpt>
      <trkpt lat="49.74622" lon="5.59344">
        <ele>436.14</ele>
        <time>2020-11-04T08:55:19.503Z</time>
      </trkpt>
      <trkpt lat="49.74614" lon="5.59354">
        <ele>434.91</ele>
        <time>2020-11-04T08:55:21.502Z</time>
      </trkpt>
      <trkpt lat="49.74608" lon="5.59364">
        <ele>433.99</ele>
        <time>2020-11-04T08:55:23.502Z</time>
      </trkpt>
      <trkpt lat="49.74598" lon="5.59377">
        <ele>432.91</ele>
        <time>2020-11-04T08:55:26.000Z</time>
      </trkpt>
      <trkpt lat="49.74589" lon="5.59385">
        <ele>432.1</ele>
        <time>2020-11-04T08:55:28.533Z</time>
      </trkpt>
      <trkpt lat="49.74579" lon="5.59394">
        <ele>431.88</ele>
        <time>2020-11-04T08:55:30.000Z</time>
      </trkpt>
      <trkpt lat="49.74568" lon="5.59402">
        <ele>431.88</ele>
        <time>2020-11-04T08:55:32.000Z</time>
      </trkpt>
      <trkpt lat="49.74558" lon="5.59415">
        <ele>432.06</ele>
        <time>2020-11-04T08:55:34.000Z</time>
      </trkpt>
      <trkpt lat="49.74549" lon="5.59428">
        <ele>431.96</ele>
        <time>2020-11-04T08:55:36.571Z</time>
      </trkpt>
      <trkpt lat="49.74543" lon="5.59438">
        <ele>431</ele>
        <time>2020-11-04T08:55:39.498Z</time>
      </trkpt>
      <trkpt lat="49.74538" lon="5.59452">
        <ele>430.77</ele>
        <time>2020-11-04T08:55:41.000Z</time>
      </trkpt>
      <trkpt lat="49.7453" lon="5.59461">
        <ele>430.95</ele>
        <time>2020-11-04T08:55:44.058Z</time>
      </trkpt>
      <trkpt lat="49.74523" lon="5.59473">
        <ele>431.39</ele>
        <time>2020-11-04T08:55:45.632Z</time>
      </trkpt>
      <trkpt lat="49.74516" lon="5.59481">
        <ele>431.8</ele>
        <time>2020-11-04T08:55:47.470Z</time>
      </trkpt>
      <trkpt lat="49.7451" lon="5.59502">
        <ele>432</ele>
        <time>2020-11-04T08:55:50.000Z</time>
      </trkpt>
      <trkpt lat="49.745" lon="5.59525">
        <ele>430.84</ele>
        <time>2020-11-04T08:55:53.000Z</time>
      </trkpt>
      <trkpt lat="49.74493" lon="5.59541">
        <ele>429.07</ele>
        <time>2020-11-04T08:55:55.485Z</time>
      </trkpt>
      <trkpt lat="49.74484" lon="5.59544">
        <ele>428.22</ele>
        <time>2020-11-04T08:55:58.480Z</time>
      </trkpt>
      <trkpt lat="49.74473" lon="5.59552">
        <ele>428.05</ele>
        <time>2020-11-04T08:56:00.000Z</time>
      </trkpt>
      <trkpt lat="49.74464" lon="5.59568">
        <ele>427.89</ele>
        <time>2020-11-04T08:56:02.000Z</time>
      </trkpt>
      <trkpt lat="49.74457" lon="5.59582">
        <ele>427.69</ele>
        <time>2020-11-04T08:56:04.000Z</time>
      </trkpt>
      <trkpt lat="49.74449" lon="5.59595">
        <ele>427.51</ele>
        <time>2020-11-04T08:56:06.524Z</time>
      </trkpt>
      <trkpt lat="49.7444" lon="5.59604">
        <ele>427.54</ele>
        <time>2020-11-04T08:56:09.493Z</time>
      </trkpt>
      <trkpt lat="49.74428" lon="5.59614">
        <ele>427.6</ele>
        <time>2020-11-04T08:56:12.000Z</time>
      </trkpt>
      <trkpt lat="49.7442" lon="5.59622">
        <ele>427.31</ele>
        <time>2020-11-04T08:56:14.000Z</time>
      </trkpt>
      <trkpt lat="49.74413" lon="5.59636">
        <ele>426.32</ele>
        <time>2020-11-04T08:56:17.019Z</time>
      </trkpt>
      <trkpt lat="49.74412" lon="5.59651">
        <ele>424.45</ele>
        <time>2020-11-04T08:56:20.000Z</time>
      </trkpt>
      <trkpt lat="49.74407" lon="5.59665">
        <ele>423.98</ele>
        <time>2020-11-04T08:56:24.318Z</time>
      </trkpt>
      <trkpt lat="49.74398" lon="5.59669">
        <ele>424.41</ele>
        <time>2020-11-04T08:56:28.355Z</time>
      </trkpt>
      <trkpt lat="49.74391" lon="5.59664">
        <ele>423.77</ele>
        <time>2020-11-04T08:56:33.257Z</time>
      </trkpt>
      <trkpt lat="49.74382" lon="5.59672">
        <ele>423.67</ele>
        <time>2020-11-04T08:56:38.037Z</time>
      </trkpt>
      <trkpt lat="49.74379" lon="5.59684">
        <ele>423.15</ele>
        <time>2020-11-04T08:56:42.310Z</time>
      </trkpt>
      <trkpt lat="49.74374" lon="5.59695">
        <ele>423.38</ele>
        <time>2020-11-04T08:56:46.952Z</time>
      </trkpt>
      <trkpt lat="49.74369" lon="5.59703">
        <ele>424.32</ele>
        <time>2020-11-04T08:56:51.031Z</time>
      </trkpt>
      <trkpt lat="49.74362" lon="5.59717">
        <ele>423.75</ele>
        <time>2020-11-04T08:56:55.240Z</time>
      </trkpt>
      <trkpt lat="49.74355" lon="5.59726">
        <ele>423.25</ele>
        <time>2020-11-04T08:56:59.094Z</time>
      </trkpt>
      <trkpt lat="49.74349" lon="5.59739">
        <ele>423.14</ele>
        <time>2020-11-04T08:57:03.848Z</time>
      </trkpt>
      <trkpt lat="49.74342" lon="5.59751">
        <ele>422.21</ele>
        <time>2020-11-04T08:57:07.775Z</time>
      </trkpt>
      <trkpt lat="49.74334" lon="5.5976">
        <ele>422.04</ele>
        <time>2020-11-04T08:57:12.003Z</time>
      </trkpt>
      <trkpt lat="49.74327" lon="5.59771">
        <ele>422.32</ele>
        <time>2020-11-04T08:57:15.000Z</time>
      </trkpt>
      <trkpt lat="49.7432" lon="5.59781">
        <ele>422.28</ele>
        <time>2020-11-04T08:57:18.440Z</time>
      </trkpt>
      <trkpt lat="49.74311" lon="5.59794">
        <ele>422.94</ele>
        <time>2020-11-04T08:57:22.251Z</time>
      </trkpt>
      <trkpt lat="49.74304" lon="5.59805">
        <ele>423.36</ele>
        <time>2020-11-04T08:57:25.996Z</time>
      </trkpt>
      <trkpt lat="49.74299" lon="5.59819">
        <ele>423.23</ele>
        <time>2020-11-04T08:57:29.900Z</time>
      </trkpt>
      <trkpt lat="49.74295" lon="5.59833">
        <ele>422.58</ele>
        <time>2020-11-04T08:57:33.000Z</time>
      </trkpt>
      <trkpt lat="49.74292" lon="5.59849">
        <ele>421.49</ele>
        <time>2020-11-04T08:57:37.000Z</time>
      </trkpt>
      <trkpt lat="49.74289" lon="5.59862">
        <ele>418.99</ele>
        <time>2020-11-04T08:57:40.000Z</time>
      </trkpt>
      <trkpt lat="49.74284" lon="5.59878">
        <ele>417.43</ele>
        <time>2020-11-04T08:57:44.000Z</time>
      </trkpt>
      <trkpt lat="49.74287" lon="5.59878">
        <ele>416.19</ele>
        <time>2020-11-04T08:57:48.395Z</time>
      </trkpt>
      <trkpt lat="49.74288" lon="5.59881">
        <ele>415.9</ele>
        <time>2020-11-04T08:57:53.000Z</time>
      </trkpt>
      <trkpt lat="49.74288" lon="5.59886">
        <ele>416</ele>
        <time>2020-11-04T08:57:58.000Z</time>
      </trkpt>
      <trkpt lat="49.74288" lon="5.59889">
        <ele>416.09</ele>
        <time>2020-11-04T08:58:03.000Z</time>
      </trkpt>
      <trkpt lat="49.74288" lon="5.59893">
        <ele>416.04</ele>
        <time>2020-11-04T08:58:08.000Z</time>
      </trkpt>
      <trkpt lat="49.74288" lon="5.59893">
        <ele>416.02</ele>
        <time>2020-11-04T08:58:13.000Z</time>
      </trkpt>
      <trkpt lat="49.74288" lon="5.59893">
        <ele>416.03</ele>
        <time>2020-11-04T08:58:18.000Z</time>
      </trkpt>
      <trkpt lat="49.74287" lon="5.59897">
        <ele>417.39</ele>
        <time>2020-11-04T08:58:23.000Z</time>
      </trkpt>
      <trkpt lat="49.74285" lon="5.59911">
        <ele>419.55</ele>
        <time>2020-11-04T08:58:26.915Z</time>
      </trkpt>
      <trkpt lat="49.74282" lon="5.59927">
        <ele>421.33</ele>
        <time>2020-11-04T08:58:30.214Z</time>
      </trkpt>
      <trkpt lat="49.74278" lon="5.59941">
        <ele>422.65</ele>
        <time>2020-11-04T08:58:33.037Z</time>
      </trkpt>
      <trkpt lat="49.74268" lon="5.59953">
        <ele>423.88</ele>
        <time>2020-11-04T08:58:37.258Z</time>
      </trkpt>
      <trkpt lat="49.74263" lon="5.59967">
        <ele>423.48</ele>
        <time>2020-11-04T08:58:39.635Z</time>
      </trkpt>
      <trkpt lat="49.74256" lon="5.59979">
        <ele>422.72</ele>
        <time>2020-11-04T08:58:42.018Z</time>
      </trkpt>
      <trkpt lat="49.74248" lon="5.59983">
        <ele>424.24</ele>
        <time>2020-11-04T08:58:47.000Z</time>
      </trkpt>
      <trkpt lat="49.7424" lon="5.59988">
        <ele>424.48</ele>
        <time>2020-11-04T08:58:50.000Z</time>
      </trkpt>
      <trkpt lat="49.7423" lon="5.59993">
        <ele>424.7</ele>
        <time>2020-11-04T08:58:52.000Z</time>
      </trkpt>
      <trkpt lat="49.74221" lon="5.60002">
        <ele>424.48</ele>
        <time>2020-11-04T08:58:54.000Z</time>
      </trkpt>
      <trkpt lat="49.74213" lon="5.60011">
        <ele>423.3</ele>
        <time>2020-11-04T08:58:57.000Z</time>
      </trkpt>
      <trkpt lat="49.74204" lon="5.60021">
        <ele>422.26</ele>
        <time>2020-11-04T08:59:00.000Z</time>
      </trkpt>
      <trkpt lat="49.74195" lon="5.60031">
        <ele>421.45</ele>
        <time>2020-11-04T08:59:03.000Z</time>
      </trkpt>
      <trkpt lat="49.74185" lon="5.60042">
        <ele>421.94</ele>
        <time>2020-11-04T08:59:07.000Z</time>
      </trkpt>
      <trkpt lat="49.74177" lon="5.60052">
        <ele>422.2</ele>
        <time>2020-11-04T08:59:10.000Z</time>
      </trkpt>
      <trkpt lat="49.7417" lon="5.60065">
        <ele>422.6</ele>
        <time>2020-11-04T08:59:13.000Z</time>
      </trkpt>
      <trkpt lat="49.74164" lon="5.60075">
        <ele>423.22</ele>
        <time>2020-11-04T08:59:16.000Z</time>
      </trkpt>
      <trkpt lat="49.74157" lon="5.60089">
        <ele>423.13</ele>
        <time>2020-11-04T08:59:19.000Z</time>
      </trkpt>
      <trkpt lat="49.74153" lon="5.60105">
        <ele>422.43</ele>
        <time>2020-11-04T08:59:22.000Z</time>
      </trkpt>
      <trkpt lat="49.74149" lon="5.60123">
        <ele>420.86</ele>
        <time>2020-11-04T08:59:25.000Z</time>
      </trkpt>
      <trkpt lat="49.74151" lon="5.60138">
        <ele>419.9</ele>
        <time>2020-11-04T08:59:28.000Z</time>
      </trkpt>
      <trkpt lat="49.74162" lon="5.60145">
        <ele>418.75</ele>
        <time>2020-11-04T08:59:31.000Z</time>
      </trkpt>
      <trkpt lat="49.74171" lon="5.60148">
        <ele>417.07</ele>
        <time>2020-11-04T08:59:34.000Z</time>
      </trkpt>
      <trkpt lat="49.7418" lon="5.60158">
        <ele>415.36</ele>
        <time>2020-11-04T08:59:38.000Z</time>
      </trkpt>
      <trkpt lat="49.7419" lon="5.60165">
        <ele>415</ele>
        <time>2020-11-04T08:59:42.000Z</time>
      </trkpt>
      <trkpt lat="49.74201" lon="5.60168">
        <ele>415.61</ele>
        <time>2020-11-04T08:59:46.505Z</time>
      </trkpt>
      <trkpt lat="49.74211" lon="5.60177">
        <ele>416.02</ele>
        <time>2020-11-04T08:59:49.506Z</time>
      </trkpt>
      <trkpt lat="49.7422" lon="5.60186">
        <ele>416.31</ele>
        <time>2020-11-04T08:59:52.501Z</time>
      </trkpt>
      <trkpt lat="49.74228" lon="5.60192">
        <ele>416.24</ele>
        <time>2020-11-04T08:59:55.502Z</time>
      </trkpt>
      <trkpt lat="49.74234" lon="5.60202">
        <ele>416.33</ele>
        <time>2020-11-04T08:59:58.505Z</time>
      </trkpt>
      <trkpt lat="49.74238" lon="5.60216">
        <ele>416.4</ele>
        <time>2020-11-04T09:00:01.528Z</time>
      </trkpt>
      <trkpt lat="49.74245" lon="5.60234">
        <ele>416.52</ele>
        <time>2020-11-04T09:00:06.494Z</time>
      </trkpt>
      <trkpt lat="49.74253" lon="5.60244">
        <ele>416.88</ele>
        <time>2020-11-04T09:00:09.349Z</time>
      </trkpt>
      <trkpt lat="49.74261" lon="5.60254">
        <ele>417.31</ele>
        <time>2020-11-04T09:00:12.527Z</time>
      </trkpt>
      <trkpt lat="49.74266" lon="5.60266">
        <ele>416.75</ele>
        <time>2020-11-04T09:00:16.000Z</time>
      </trkpt>
      <trkpt lat="49.74271" lon="5.6028">
        <ele>416.62</ele>
        <time>2020-11-04T09:00:19.504Z</time>
      </trkpt>
      <trkpt lat="49.74274" lon="5.60291">
        <ele>417.33</ele>
        <time>2020-11-04T09:00:23.523Z</time>
      </trkpt>
      <trkpt lat="49.74281" lon="5.60302">
        <ele>417.84</ele>
        <time>2020-11-04T09:00:26.502Z</time>
      </trkpt>
      <trkpt lat="49.7429" lon="5.6031">
        <ele>418.97</ele>
        <time>2020-11-04T09:00:30.493Z</time>
      </trkpt>
      <trkpt lat="49.74302" lon="5.60314">
        <ele>418.62</ele>
        <time>2020-11-04T09:00:34.516Z</time>
      </trkpt>
      <trkpt lat="49.74312" lon="5.60318">
        <ele>417.44</ele>
        <time>2020-11-04T09:00:39.532Z</time>
      </trkpt>
      <trkpt lat="49.7432" lon="5.60325">
        <ele>417.13</ele>
        <time>2020-11-04T09:00:42.554Z</time>
      </trkpt>
      <trkpt lat="49.74326" lon="5.60325">
        <ele>417.3</ele>
        <time>2020-11-04T09:00:46.898Z</time>
      </trkpt>
      <trkpt lat="49.74336" lon="5.60329">
        <ele>418.72</ele>
        <time>2020-11-04T09:00:51.493Z</time>
      </trkpt>
      <trkpt lat="49.74336" lon="5.60339">
        <ele>421.99</ele>
        <time>2020-11-04T09:00:55.516Z</time>
      </trkpt>
      <trkpt lat="49.74339" lon="5.6034">
        <ele>426.78</ele>
        <time>2020-11-04T09:00:59.746Z</time>
      </trkpt>
      <trkpt lat="49.74345" lon="5.60346">
        <ele>430.36</ele>
        <time>2020-11-04T09:01:03.780Z</time>
      </trkpt>
      <trkpt lat="49.74352" lon="5.60351">
        <ele>433.12</ele>
        <time>2020-11-04T09:01:08.492Z</time>
      </trkpt>
      <trkpt lat="49.74358" lon="5.60357">
        <ele>436.29</ele>
        <time>2020-11-04T09:01:12.519Z</time>
      </trkpt>
      <trkpt lat="49.74363" lon="5.60367">
        <ele>439.95</ele>
        <time>2020-11-04T09:01:17.520Z</time>
      </trkpt>
      <trkpt lat="49.74371" lon="5.60374">
        <ele>441.81</ele>
        <time>2020-11-04T09:01:21.792Z</time>
      </trkpt>
      <trkpt lat="49.74377" lon="5.60386">
        <ele>442.01</ele>
        <time>2020-11-04T09:01:24.494Z</time>
      </trkpt>
      <trkpt lat="49.74385" lon="5.60393">
        <ele>440.87</ele>
        <time>2020-11-04T09:01:26.000Z</time>
      </trkpt>
      <trkpt lat="49.74396" lon="5.604">
        <ele>438.91</ele>
        <time>2020-11-04T09:01:29.535Z</time>
      </trkpt>
      <trkpt lat="49.74407" lon="5.60402">
        <ele>436.89</ele>
        <time>2020-11-04T09:01:32.504Z</time>
      </trkpt>
      <trkpt lat="49.74418" lon="5.60399">
        <ele>434.75</ele>
        <time>2020-11-04T09:01:35.505Z</time>
      </trkpt>
      <trkpt lat="49.74424" lon="5.60414">
        <ele>433</ele>
        <time>2020-11-04T09:01:38.539Z</time>
      </trkpt>
      <trkpt lat="49.74424" lon="5.60429">
        <ele>431.01</ele>
        <time>2020-11-04T09:01:41.489Z</time>
      </trkpt>
      <trkpt lat="49.74423" lon="5.60445">
        <ele>430</ele>
        <time>2020-11-04T09:01:45.269Z</time>
      </trkpt>
      <trkpt lat="49.74421" lon="5.60462">
        <ele>430.62</ele>
        <time>2020-11-04T09:01:50.000Z</time>
      </trkpt>
      <trkpt lat="49.74418" lon="5.60477">
        <ele>432.43</ele>
        <time>2020-11-04T09:01:54.000Z</time>
      </trkpt>
      <trkpt lat="49.74417" lon="5.60492">
        <ele>433.98</ele>
        <time>2020-11-04T09:01:57.000Z</time>
      </trkpt>
      <trkpt lat="49.74415" lon="5.60509">
        <ele>435.09</ele>
        <time>2020-11-04T09:02:01.000Z</time>
      </trkpt>
      <trkpt lat="49.74413" lon="5.60525">
        <ele>434.81</ele>
        <time>2020-11-04T09:02:05.000Z</time>
      </trkpt>
      <trkpt lat="49.74408" lon="5.6054">
        <ele>433.55</ele>
        <time>2020-11-04T09:02:09.000Z</time>
      </trkpt>
      <trkpt lat="49.74411" lon="5.60554">
        <ele>432.26</ele>
        <time>2020-11-04T09:02:12.000Z</time>
      </trkpt>
      <trkpt lat="49.74416" lon="5.60567">
        <ele>431.12</ele>
        <time>2020-11-04T09:02:15.000Z</time>
      </trkpt>
      <trkpt lat="49.74422" lon="5.60581">
        <ele>430.5</ele>
        <time>2020-11-04T09:02:19.000Z</time>
      </trkpt>
      <trkpt lat="49.74432" lon="5.60589">
        <ele>431.12</ele>
        <time>2020-11-04T09:02:23.000Z</time>
      </trkpt>
      <trkpt lat="49.74441" lon="5.60598">
        <ele>432.03</ele>
        <time>2020-11-04T09:02:26.000Z</time>
      </trkpt>
      <trkpt lat="49.74449" lon="5.60605">
        <ele>433.09</ele>
        <time>2020-11-04T09:02:29.000Z</time>
      </trkpt>
      <trkpt lat="49.74457" lon="5.60611">
        <ele>433.41</ele>
        <time>2020-11-04T09:02:31.000Z</time>
      </trkpt>
      <trkpt lat="49.74466" lon="5.60619">
        <ele>433.92</ele>
        <time>2020-11-04T09:02:33.000Z</time>
      </trkpt>
      <trkpt lat="49.74474" lon="5.60627">
        <ele>435.84</ele>
        <time>2020-11-04T09:02:35.000Z</time>
      </trkpt>
      <trkpt lat="49.74482" lon="5.60639">
        <ele>443.47</ele>
        <time>2020-11-04T09:02:38.000Z</time>
      </trkpt>
      <trkpt lat="49.74491" lon="5.60649">
        <ele>453.46</ele>
        <time>2020-11-04T09:02:41.000Z</time>
      </trkpt>
      <trkpt lat="49.74501" lon="5.6066">
        <ele>458.82</ele>
        <time>2020-11-04T09:02:44.000Z</time>
      </trkpt>
      <trkpt lat="49.74511" lon="5.60673">
        <ele>462.06</ele>
        <time>2020-11-04T09:02:47.000Z</time>
      </trkpt>
      <trkpt lat="49.74518" lon="5.60683">
        <ele>462.56</ele>
        <time>2020-11-04T09:02:49.000Z</time>
      </trkpt>
      <trkpt lat="49.74526" lon="5.60694">
        <ele>461.73</ele>
        <time>2020-11-04T09:02:51.000Z</time>
      </trkpt>
      <trkpt lat="49.74532" lon="5.60705">
        <ele>459.05</ele>
        <time>2020-11-04T09:02:53.000Z</time>
      </trkpt>
      <trkpt lat="49.74541" lon="5.60723">
        <ele>455.94</ele>
        <time>2020-11-04T09:02:55.000Z</time>
      </trkpt>
      <trkpt lat="49.7455" lon="5.60741">
        <ele>453.49</ele>
        <time>2020-11-04T09:02:57.000Z</time>
      </trkpt>
      <trkpt lat="49.7456" lon="5.60755">
        <ele>450.51</ele>
        <time>2020-11-04T09:02:58.000Z</time>
      </trkpt>
      <trkpt lat="49.74568" lon="5.60766">
        <ele>447.89</ele>
        <time>2020-11-04T09:02:59.000Z</time>
      </trkpt>
      <trkpt lat="49.74579" lon="5.60784">
        <ele>443.16</ele>
        <time>2020-11-04T09:03:01.000Z</time>
      </trkpt>
      <trkpt lat="49.74588" lon="5.608">
        <ele>439.45</ele>
        <time>2020-11-04T09:03:03.000Z</time>
      </trkpt>
      <trkpt lat="49.74597" lon="5.60817">
        <ele>436.2</ele>
        <time>2020-11-04T09:03:05.000Z</time>
      </trkpt>
      <trkpt lat="49.74604" lon="5.60834">
        <ele>433.58</ele>
        <time>2020-11-04T09:03:07.000Z</time>
      </trkpt>
      <trkpt lat="49.7461" lon="5.60853">
        <ele>431.48</ele>
        <time>2020-11-04T09:03:09.000Z</time>
      </trkpt>
      <trkpt lat="49.74617" lon="5.60872">
        <ele>429.94</ele>
        <time>2020-11-04T09:03:11.000Z</time>
      </trkpt>
      <trkpt lat="49.74623" lon="5.60893">
        <ele>428.36</ele>
        <time>2020-11-04T09:03:13.000Z</time>
      </trkpt>
      <trkpt lat="49.74628" lon="5.60913">
        <ele>427.29</ele>
        <time>2020-11-04T09:03:15.000Z</time>
      </trkpt>
      <trkpt lat="49.74632" lon="5.60931">
        <ele>426.35</ele>
        <time>2020-11-04T09:03:17.000Z</time>
      </trkpt>
      <trkpt lat="49.74636" lon="5.60948">
        <ele>425.67</ele>
        <time>2020-11-04T09:03:19.000Z</time>
      </trkpt>
      <trkpt lat="49.74641" lon="5.60963">
        <ele>424.93</ele>
        <time>2020-11-04T09:03:21.000Z</time>
      </trkpt>
      <trkpt lat="49.74645" lon="5.60978">
        <ele>423.97</ele>
        <time>2020-11-04T09:03:23.000Z</time>
      </trkpt>
      <trkpt lat="49.74649" lon="5.60991">
        <ele>423.25</ele>
        <time>2020-11-04T09:03:25.000Z</time>
      </trkpt>
      <trkpt lat="49.74653" lon="5.61005">
        <ele>422.76</ele>
        <time>2020-11-04T09:03:27.000Z</time>
      </trkpt>
      <trkpt lat="49.74657" lon="5.61024">
        <ele>422.5</ele>
        <time>2020-11-04T09:03:30.000Z</time>
      </trkpt>
      <trkpt lat="49.74653" lon="5.61039">
        <ele>422.61</ele>
        <time>2020-11-04T09:03:33.000Z</time>
      </trkpt>
      <trkpt lat="49.74652" lon="5.61055">
        <ele>422.78</ele>
        <time>2020-11-04T09:03:35.000Z</time>
      </trkpt>
      <trkpt lat="49.7466" lon="5.61068">
        <ele>422.68</ele>
        <time>2020-11-04T09:03:39.000Z</time>
      </trkpt>
      <trkpt lat="49.74671" lon="5.61067">
        <ele>421.81</ele>
        <time>2020-11-04T09:03:42.000Z</time>
      </trkpt>
      <trkpt lat="49.7468" lon="5.61068">
        <ele>420.9</ele>
        <time>2020-11-04T09:03:44.000Z</time>
      </trkpt>
      <trkpt lat="49.74689" lon="5.61076">
        <ele>419.98</ele>
        <time>2020-11-04T09:03:46.000Z</time>
      </trkpt>
      <trkpt lat="49.74698" lon="5.61092">
        <ele>418.99</ele>
        <time>2020-11-04T09:03:48.000Z</time>
      </trkpt>
      <trkpt lat="49.74705" lon="5.61106">
        <ele>417.8</ele>
        <time>2020-11-04T09:03:50.000Z</time>
      </trkpt>
      <trkpt lat="49.74703" lon="5.61123">
        <ele>416.86</ele>
        <time>2020-11-04T09:03:52.548Z</time>
      </trkpt>
      <trkpt lat="49.74707" lon="5.6114">
        <ele>416.28</ele>
        <time>2020-11-04T09:03:54.000Z</time>
      </trkpt>
      <trkpt lat="49.74713" lon="5.6116">
        <ele>415.54</ele>
        <time>2020-11-04T09:03:56.000Z</time>
      </trkpt>
      <trkpt lat="49.74718" lon="5.61182">
        <ele>415.07</ele>
        <time>2020-11-04T09:03:58.000Z</time>
      </trkpt>
      <trkpt lat="49.74722" lon="5.61205">
        <ele>415.52</ele>
        <time>2020-11-04T09:04:00.000Z</time>
      </trkpt>
      <trkpt lat="49.74728" lon="5.61229">
        <ele>415.84</ele>
        <time>2020-11-04T09:04:02.000Z</time>
      </trkpt>
      <trkpt lat="49.74733" lon="5.61255">
        <ele>415.94</ele>
        <time>2020-11-04T09:04:04.000Z</time>
      </trkpt>
      <trkpt lat="49.74736" lon="5.61274">
        <ele>415.56</ele>
        <time>2020-11-04T09:04:06.000Z</time>
      </trkpt>
      <trkpt lat="49.7474" lon="5.61301">
        <ele>415.21</ele>
        <time>2020-11-04T09:04:08.000Z</time>
      </trkpt>
      <trkpt lat="49.74743" lon="5.61315">
        <ele>414.7</ele>
        <time>2020-11-04T09:04:09.000Z</time>
      </trkpt>
      <trkpt lat="49.74745" lon="5.61329">
        <ele>414.3</ele>
        <time>2020-11-04T09:04:10.000Z</time>
      </trkpt>
      <trkpt lat="49.74748" lon="5.61343">
        <ele>413.92</ele>
        <time>2020-11-04T09:04:11.000Z</time>
      </trkpt>
      <trkpt lat="49.7475" lon="5.61356">
        <ele>413.58</ele>
        <time>2020-11-04T09:04:12.000Z</time>
      </trkpt>
      <trkpt lat="49.74751" lon="5.6137">
        <ele>413.36</ele>
        <time>2020-11-04T09:04:13.000Z</time>
      </trkpt>
      <trkpt lat="49.74753" lon="5.61385">
        <ele>413.14</ele>
        <time>2020-11-04T09:04:14.000Z</time>
      </trkpt>
      <trkpt lat="49.74755" lon="5.614">
        <ele>412.9</ele>
        <time>2020-11-04T09:04:15.000Z</time>
      </trkpt>
      <trkpt lat="49.74757" lon="5.61415">
        <ele>412.55</ele>
        <time>2020-11-04T09:04:16.000Z</time>
      </trkpt>
      <trkpt lat="49.7476" lon="5.6143">
        <ele>412.09</ele>
        <time>2020-11-04T09:04:17.000Z</time>
      </trkpt>
      <trkpt lat="49.74763" lon="5.61445">
        <ele>411.4</ele>
        <time>2020-11-04T09:04:18.000Z</time>
      </trkpt>
      <trkpt lat="49.74767" lon="5.6146">
        <ele>410.62</ele>
        <time>2020-11-04T09:04:19.000Z</time>
      </trkpt>
      <trkpt lat="49.74772" lon="5.61473">
        <ele>409.87</ele>
        <time>2020-11-04T09:04:20.000Z</time>
      </trkpt>
      <trkpt lat="49.74779" lon="5.61483">
        <ele>408.8</ele>
        <time>2020-11-04T09:04:21.000Z</time>
      </trkpt>
      <trkpt lat="49.74787" lon="5.61491">
        <ele>407.58</ele>
        <time>2020-11-04T09:04:22.000Z</time>
      </trkpt>
      <trkpt lat="49.74802" lon="5.615">
        <ele>405.41</ele>
        <time>2020-11-04T09:04:24.000Z</time>
      </trkpt>
      <trkpt lat="49.74817" lon="5.61505">
        <ele>403.11</ele>
        <time>2020-11-04T09:04:26.000Z</time>
      </trkpt>
      <trkpt lat="49.7483" lon="5.61509">
        <ele>400.94</ele>
        <time>2020-11-04T09:04:28.000Z</time>
      </trkpt>
      <trkpt lat="49.74842" lon="5.6151">
        <ele>398.88</ele>
        <time>2020-11-04T09:04:30.000Z</time>
      </trkpt>
      <trkpt lat="49.74853" lon="5.61513">
        <ele>397.3</ele>
        <time>2020-11-04T09:04:32.000Z</time>
      </trkpt>
      <trkpt lat="49.74866" lon="5.61515">
        <ele>395.89</ele>
        <time>2020-11-04T09:04:34.000Z</time>
      </trkpt>
      <trkpt lat="49.74878" lon="5.61515">
        <ele>394.52</ele>
        <time>2020-11-04T09:04:36.000Z</time>
      </trkpt>
      <trkpt lat="49.7489" lon="5.61517">
        <ele>393.47</ele>
        <time>2020-11-04T09:04:38.000Z</time>
      </trkpt>
      <trkpt lat="49.74902" lon="5.61517">
        <ele>392.33</ele>
        <time>2020-11-04T09:04:40.000Z</time>
      </trkpt>
      <trkpt lat="49.74913" lon="5.61518">
        <ele>391.52</ele>
        <time>2020-11-04T09:04:42.000Z</time>
      </trkpt>
      <trkpt lat="49.74925" lon="5.61518">
        <ele>391.01</ele>
        <time>2020-11-04T09:04:44.000Z</time>
      </trkpt>
      <trkpt lat="49.74936" lon="5.61517">
        <ele>390.72</ele>
        <time>2020-11-04T09:04:46.000Z</time>
      </trkpt>
      <trkpt lat="49.74945" lon="5.61515">
        <ele>391.06</ele>
        <time>2020-11-04T09:04:48.000Z</time>
      </trkpt>
      <trkpt lat="49.74957" lon="5.61514">
        <ele>391.07</ele>
        <time>2020-11-04T09:04:50.000Z</time>
      </trkpt>
      <trkpt lat="49.74968" lon="5.61507">
        <ele>391.21</ele>
        <time>2020-11-04T09:04:52.000Z</time>
      </trkpt>
      <trkpt lat="49.74977" lon="5.61502">
        <ele>391.45</ele>
        <time>2020-11-04T09:04:54.000Z</time>
      </trkpt>
      <trkpt lat="49.74988" lon="5.6149">
        <ele>391.43</ele>
        <time>2020-11-04T09:04:56.000Z</time>
      </trkpt>
      <trkpt lat="49.74998" lon="5.61481">
        <ele>391.36</ele>
        <time>2020-11-04T09:04:58.000Z</time>
      </trkpt>
      <trkpt lat="49.75006" lon="5.61473">
        <ele>391.18</ele>
        <time>2020-11-04T09:05:00.000Z</time>
      </trkpt>
      <trkpt lat="49.75016" lon="5.61459">
        <ele>390.48</ele>
        <time>2020-11-04T09:05:03.000Z</time>
      </trkpt>
      <trkpt lat="49.75023" lon="5.61448">
        <ele>389.67</ele>
        <time>2020-11-04T09:05:06.000Z</time>
      </trkpt>
      <trkpt lat="49.75031" lon="5.61436">
        <ele>388.35</ele>
        <time>2020-11-04T09:05:08.555Z</time>
      </trkpt>
      <trkpt lat="49.75038" lon="5.61422">
        <ele>386.5</ele>
        <time>2020-11-04T09:05:13.000Z</time>
      </trkpt>
      <trkpt lat="49.75046" lon="5.61413">
        <ele>386.05</ele>
        <time>2020-11-04T09:05:15.000Z</time>
      </trkpt>
      <trkpt lat="49.75055" lon="5.61403">
        <ele>386.02</ele>
        <time>2020-11-04T09:05:17.000Z</time>
      </trkpt>
      <trkpt lat="49.75063" lon="5.61393">
        <ele>386.02</ele>
        <time>2020-11-04T09:05:19.000Z</time>
      </trkpt>
      <trkpt lat="49.7507" lon="5.6138">
        <ele>386.05</ele>
        <time>2020-11-04T09:05:21.000Z</time>
      </trkpt>
      <trkpt lat="49.75077" lon="5.61366">
        <ele>386.07</ele>
        <time>2020-11-04T09:05:23.000Z</time>
      </trkpt>
      <trkpt lat="49.75084" lon="5.61355">
        <ele>386.16</ele>
        <time>2020-11-04T09:05:25.000Z</time>
      </trkpt>
      <trkpt lat="49.7509" lon="5.61344">
        <ele>386.33</ele>
        <time>2020-11-04T09:05:28.000Z</time>
      </trkpt>
      <trkpt lat="49.75098" lon="5.61338">
        <ele>386.58</ele>
        <time>2020-11-04T09:05:30.563Z</time>
      </trkpt>
      <trkpt lat="49.75111" lon="5.61328">
        <ele>386.95</ele>
        <time>2020-11-04T09:05:34.000Z</time>
      </trkpt>
      <trkpt lat="49.75118" lon="5.61315">
        <ele>387.01</ele>
        <time>2020-11-04T09:05:36.917Z</time>
      </trkpt>
      <trkpt lat="49.75128" lon="5.61304">
        <ele>387.18</ele>
        <time>2020-11-04T09:05:39.489Z</time>
      </trkpt>
      <trkpt lat="49.75139" lon="5.61295">
        <ele>387.32</ele>
        <time>2020-11-04T09:05:42.000Z</time>
      </trkpt>
      <trkpt lat="49.75147" lon="5.61289">
        <ele>387.39</ele>
        <time>2020-11-04T09:05:44.135Z</time>
      </trkpt>
      <trkpt lat="49.7516" lon="5.61277">
        <ele>387.49</ele>
        <time>2020-11-04T09:05:47.529Z</time>
      </trkpt>
      <trkpt lat="49.7517" lon="5.61271">
        <ele>387.93</ele>
        <time>2020-11-04T09:05:50.231Z</time>
      </trkpt>
      <trkpt lat="49.75176" lon="5.6127">
        <ele>390.49</ele>
        <time>2020-11-04T09:05:54.577Z</time>
      </trkpt>
      <trkpt lat="49.75187" lon="5.6126">
        <ele>393.02</ele>
        <time>2020-11-04T09:05:58.505Z</time>
      </trkpt>
      <trkpt lat="49.75197" lon="5.61253">
        <ele>394.35</ele>
        <time>2020-11-04T09:06:00.893Z</time>
      </trkpt>
      <trkpt lat="49.75206" lon="5.61247">
        <ele>394.83</ele>
        <time>2020-11-04T09:06:03.000Z</time>
      </trkpt>
      <trkpt lat="49.75216" lon="5.61238">
        <ele>395.17</ele>
        <time>2020-11-04T09:06:06.189Z</time>
      </trkpt>
      <trkpt lat="49.75226" lon="5.61233">
        <ele>395.51</ele>
        <time>2020-11-04T09:06:08.693Z</time>
      </trkpt>
      <trkpt lat="49.75235" lon="5.61221">
        <ele>395.98</ele>
        <time>2020-11-04T09:06:11.257Z</time>
      </trkpt>
      <trkpt lat="49.75244" lon="5.61209">
        <ele>396.27</ele>
        <time>2020-11-04T09:06:14.498Z</time>
      </trkpt>
      <trkpt lat="49.75254" lon="5.61197">
        <ele>396.12</ele>
        <time>2020-11-04T09:06:16.483Z</time>
      </trkpt>
      <trkpt lat="49.75261" lon="5.61188">
        <ele>395.8</ele>
        <time>2020-11-04T09:06:18.556Z</time>
      </trkpt>
      <trkpt lat="49.75271" lon="5.61178">
        <ele>395.66</ele>
        <time>2020-11-04T09:06:21.537Z</time>
      </trkpt>
      <trkpt lat="49.7528" lon="5.61163">
        <ele>395.42</ele>
        <time>2020-11-04T09:06:24.537Z</time>
      </trkpt>
      <trkpt lat="49.7529" lon="5.61149">
        <ele>395.19</ele>
        <time>2020-11-04T09:06:27.499Z</time>
      </trkpt>
      <trkpt lat="49.75298" lon="5.61133">
        <ele>395.07</ele>
        <time>2020-11-04T09:06:30.551Z</time>
      </trkpt>
      <trkpt lat="49.75307" lon="5.61119">
        <ele>394.9</ele>
        <time>2020-11-04T09:06:33.541Z</time>
      </trkpt>
      <trkpt lat="49.75316" lon="5.61103">
        <ele>394.6</ele>
        <time>2020-11-04T09:06:36.554Z</time>
      </trkpt>
      <trkpt lat="49.75324" lon="5.61089">
        <ele>394.31</ele>
        <time>2020-11-04T09:06:39.521Z</time>
      </trkpt>
      <trkpt lat="49.7533" lon="5.61078">
        <ele>394.09</ele>
        <time>2020-11-04T09:06:41.518Z</time>
      </trkpt>
      <trkpt lat="49.75341" lon="5.61065">
        <ele>393.52</ele>
        <time>2020-11-04T09:06:45.479Z</time>
      </trkpt>
      <trkpt lat="49.75349" lon="5.61055">
        <ele>393.35</ele>
        <time>2020-11-04T09:06:47.493Z</time>
      </trkpt>
      <trkpt lat="49.75359" lon="5.61043">
        <ele>393.23</ele>
        <time>2020-11-04T09:06:50.502Z</time>
      </trkpt>
      <trkpt lat="49.75371" lon="5.61038">
        <ele>393.39</ele>
        <time>2020-11-04T09:06:53.475Z</time>
      </trkpt>
      <trkpt lat="49.75384" lon="5.61036">
        <ele>393.38</ele>
        <time>2020-11-04T09:06:56.417Z</time>
      </trkpt>
      <trkpt lat="49.75393" lon="5.61036">
        <ele>393.17</ele>
        <time>2020-11-04T09:06:58.492Z</time>
      </trkpt>
      <trkpt lat="49.75405" lon="5.6104">
        <ele>392.89</ele>
        <time>2020-11-04T09:07:01.528Z</time>
      </trkpt>
      <trkpt lat="49.75416" lon="5.61046">
        <ele>392.99</ele>
        <time>2020-11-04T09:07:05.496Z</time>
      </trkpt>
      <trkpt lat="49.75428" lon="5.61044">
        <ele>393.03</ele>
        <time>2020-11-04T09:07:08.544Z</time>
      </trkpt>
      <trkpt lat="49.75435" lon="5.61028">
        <ele>393.35</ele>
        <time>2020-11-04T09:07:12.482Z</time>
      </trkpt>
      <trkpt lat="49.75436" lon="5.61007">
        <ele>393.73</ele>
        <time>2020-11-04T09:07:15.512Z</time>
      </trkpt>
      <trkpt lat="49.75433" lon="5.60991">
        <ele>393.95</ele>
        <time>2020-11-04T09:07:17.524Z</time>
      </trkpt>
      <trkpt lat="49.75431" lon="5.60976">
        <ele>393.9</ele>
        <time>2020-11-04T09:07:19.515Z</time>
      </trkpt>
      <trkpt lat="49.75427" lon="5.60959">
        <ele>393.58</ele>
        <time>2020-11-04T09:07:22.523Z</time>
      </trkpt>
      <trkpt lat="49.75428" lon="5.60944">
        <ele>393.53</ele>
        <time>2020-11-04T09:07:27.516Z</time>
      </trkpt>
      <trkpt lat="49.7543" lon="5.6093">
        <ele>394.6</ele>
        <time>2020-11-04T09:07:31.539Z</time>
      </trkpt>
      <trkpt lat="49.75433" lon="5.60922">
        <ele>395.84</ele>
        <time>2020-11-04T09:07:36.506Z</time>
      </trkpt>
      <trkpt lat="49.75439" lon="5.60906">
        <ele>395.97</ele>
        <time>2020-11-04T09:07:39.510Z</time>
      </trkpt>
      <trkpt lat="49.75442" lon="5.60889">
        <ele>395.77</ele>
        <time>2020-11-04T09:07:42.503Z</time>
      </trkpt>
      <trkpt lat="49.75446" lon="5.60881">
        <ele>393.99</ele>
        <time>2020-11-04T09:07:46.507Z</time>
      </trkpt>
      <trkpt lat="49.75447" lon="5.60869">
        <ele>392.38</ele>
        <time>2020-11-04T09:07:50.508Z</time>
      </trkpt>
      <trkpt lat="49.75451" lon="5.60854">
        <ele>391.2</ele>
        <time>2020-11-04T09:07:55.491Z</time>
      </trkpt>
      <trkpt lat="49.75452" lon="5.60846">
        <ele>390.59</ele>
        <time>2020-11-04T09:07:59.516Z</time>
      </trkpt>
      <trkpt lat="49.75456" lon="5.60834">
        <ele>389.28</ele>
        <time>2020-11-04T09:08:03.528Z</time>
      </trkpt>
      <trkpt lat="49.7546" lon="5.60823">
        <ele>388.45</ele>
        <time>2020-11-04T09:08:08.516Z</time>
      </trkpt>
      <trkpt lat="49.7546" lon="5.60809">
        <ele>388.14</ele>
        <time>2020-11-04T09:08:12.506Z</time>
      </trkpt>
      <trkpt lat="49.7546" lon="5.60794">
        <ele>389.25</ele>
        <time>2020-11-04T09:08:15.514Z</time>
      </trkpt>
      <trkpt lat="49.75461" lon="5.60779">
        <ele>390.18</ele>
        <time>2020-11-04T09:08:18.505Z</time>
      </trkpt>
      <trkpt lat="49.75462" lon="5.60766">
        <ele>391.08</ele>
        <time>2020-11-04T09:08:22.509Z</time>
      </trkpt>
      <trkpt lat="49.7546" lon="5.60754">
        <ele>392.7</ele>
        <time>2020-11-04T09:08:26.541Z</time>
      </trkpt>
      <trkpt lat="49.75463" lon="5.6074">
        <ele>394.42</ele>
        <time>2020-11-04T09:08:30.534Z</time>
      </trkpt>
      <trkpt lat="49.75462" lon="5.60725">
        <ele>396.46</ele>
        <time>2020-11-04T09:08:35.143Z</time>
      </trkpt>
      <trkpt lat="49.7546" lon="5.60721">
        <ele>397.91</ele>
        <time>2020-11-04T09:08:39.197Z</time>
      </trkpt>
      <trkpt lat="49.7546" lon="5.60718">
        <ele>400.8</ele>
        <time>2020-11-04T09:08:43.414Z</time>
      </trkpt>
      <trkpt lat="49.75458" lon="5.60712">
        <ele>404.07</ele>
        <time>2020-11-04T09:08:48.077Z</time>
      </trkpt>
      <trkpt lat="49.75453" lon="5.607">
        <ele>406.25</ele>
        <time>2020-11-04T09:08:51.753Z</time>
      </trkpt>
      <trkpt lat="49.75449" lon="5.60694">
        <ele>407.82</ele>
        <time>2020-11-04T09:08:56.055Z</time>
      </trkpt>
      <trkpt lat="49.75446" lon="5.60694">
        <ele>409.45</ele>
        <time>2020-11-04T09:09:00.478Z</time>
      </trkpt>
      <trkpt lat="49.75448" lon="5.60691">
        <ele>412.44</ele>
        <time>2020-11-04T09:09:04.690Z</time>
      </trkpt>
      <trkpt lat="49.7544" lon="5.60681">
        <ele>414.98</ele>
        <time>2020-11-04T09:09:09.482Z</time>
      </trkpt>
      <trkpt lat="49.75432" lon="5.60671">
        <ele>416.06</ele>
        <time>2020-11-04T09:09:13.473Z</time>
      </trkpt>
      <trkpt lat="49.75435" lon="5.60658">
        <ele>417.03</ele>
        <time>2020-11-04T09:09:17.413Z</time>
      </trkpt>
      <trkpt lat="49.7544" lon="5.60644">
        <ele>417.64</ele>
        <time>2020-11-04T09:09:22.031Z</time>
      </trkpt>
      <trkpt lat="49.75444" lon="5.60632">
        <ele>418.38</ele>
        <time>2020-11-04T09:09:27.218Z</time>
      </trkpt>
      <trkpt lat="49.75444" lon="5.60616">
        <ele>419.12</ele>
        <time>2020-11-04T09:09:31.497Z</time>
      </trkpt>
      <trkpt lat="49.75443" lon="5.60599">
        <ele>418.62</ele>
        <time>2020-11-04T09:09:35.503Z</time>
      </trkpt>
      <trkpt lat="49.75437" lon="5.60585">
        <ele>419.35</ele>
        <time>2020-11-04T09:09:40.517Z</time>
      </trkpt>
      <trkpt lat="49.75435" lon="5.6057">
        <ele>419</ele>
        <time>2020-11-04T09:09:45.554Z</time>
      </trkpt>
      <trkpt lat="49.75437" lon="5.60556">
        <ele>416.47</ele>
        <time>2020-11-04T09:09:50.499Z</time>
      </trkpt>
      <trkpt lat="49.75436" lon="5.60539">
        <ele>414.45</ele>
        <time>2020-11-04T09:09:54.526Z</time>
      </trkpt>
      <trkpt lat="49.75432" lon="5.60527">
        <ele>411.92</ele>
        <time>2020-11-04T09:09:58.555Z</time>
      </trkpt>
      <trkpt lat="49.75427" lon="5.60512">
        <ele>410.35</ele>
        <time>2020-11-04T09:10:03.506Z</time>
      </trkpt>
      <trkpt lat="49.75429" lon="5.60501">
        <ele>412.16</ele>
        <time>2020-11-04T09:10:08.531Z</time>
      </trkpt>
      <trkpt lat="49.75433" lon="5.60496">
        <ele>415.48</ele>
        <time>2020-11-04T09:10:12.544Z</time>
      </trkpt>
      <trkpt lat="49.75432" lon="5.6049">
        <ele>419.67</ele>
        <time>2020-11-04T09:10:17.015Z</time>
      </trkpt>
      <trkpt lat="49.75434" lon="5.60483">
        <ele>422.96</ele>
        <time>2020-11-04T09:10:21.500Z</time>
      </trkpt>
      <trkpt lat="49.75435" lon="5.60475">
        <ele>425.58</ele>
        <time>2020-11-04T09:10:25.739Z</time>
      </trkpt>
      <trkpt lat="49.75435" lon="5.60467">
        <ele>426.52</ele>
        <time>2020-11-04T09:10:30.482Z</time>
      </trkpt>
      <trkpt lat="49.75434" lon="5.60458">
        <ele>426.56</ele>
        <time>2020-11-04T09:10:34.639Z</time>
      </trkpt>
      <trkpt lat="49.75435" lon="5.60441">
        <ele>426.14</ele>
        <time>2020-11-04T09:10:39.531Z</time>
      </trkpt>
      <trkpt lat="49.75432" lon="5.60427">
        <ele>425.6</ele>
        <time>2020-11-04T09:10:43.522Z</time>
      </trkpt>
      <trkpt lat="49.75427" lon="5.60419">
        <ele>425.78</ele>
        <time>2020-11-04T09:10:48.312Z</time>
      </trkpt>
      <trkpt lat="49.7543" lon="5.60407">
        <ele>427.8</ele>
        <time>2020-11-04T09:10:52.506Z</time>
      </trkpt>
      <trkpt lat="49.75424" lon="5.60399">
        <ele>429.95</ele>
        <time>2020-11-04T09:10:57.506Z</time>
      </trkpt>
      <trkpt lat="49.75421" lon="5.60392">
        <ele>432.17</ele>
        <time>2020-11-04T09:11:01.521Z</time>
      </trkpt>
      <trkpt lat="49.75417" lon="5.60382">
        <ele>435.61</ele>
        <time>2020-11-04T09:11:06.487Z</time>
      </trkpt>
      <trkpt lat="49.75412" lon="5.60375">
        <ele>438.68</ele>
        <time>2020-11-04T09:11:10.506Z</time>
      </trkpt>
      <trkpt lat="49.75405" lon="5.60365">
        <ele>442.99</ele>
        <time>2020-11-04T09:11:15.496Z</time>
      </trkpt>
      <trkpt lat="49.75402" lon="5.60354">
        <ele>445.76</ele>
        <time>2020-11-04T09:11:19.521Z</time>
      </trkpt>
      <trkpt lat="49.75393" lon="5.60344">
        <ele>445.99</ele>
        <time>2020-11-04T09:11:23.553Z</time>
      </trkpt>
      <trkpt lat="49.75389" lon="5.6033">
        <ele>444.03</ele>
        <time>2020-11-04T09:11:27.521Z</time>
      </trkpt>
      <trkpt lat="49.75392" lon="5.6032">
        <ele>441.75</ele>
        <time>2020-11-04T09:11:31.535Z</time>
      </trkpt>
      <trkpt lat="49.75395" lon="5.60311">
        <ele>441.51</ele>
        <time>2020-11-04T09:11:36.533Z</time>
      </trkpt>
      <trkpt lat="49.75395" lon="5.60304">
        <ele>441.48</ele>
        <time>2020-11-04T09:11:40.538Z</time>
      </trkpt>
      <trkpt lat="49.75394" lon="5.60296">
        <ele>441.28</ele>
        <time>2020-11-04T09:11:45.547Z</time>
      </trkpt>
      <trkpt lat="49.75398" lon="5.60283">
        <ele>443.21</ele>
        <time>2020-11-04T09:11:49.515Z</time>
      </trkpt>
      <trkpt lat="49.75404" lon="5.60271">
        <ele>444.1</ele>
        <time>2020-11-04T09:11:52.515Z</time>
      </trkpt>
      <trkpt lat="49.7541" lon="5.6026">
        <ele>445.01</ele>
        <time>2020-11-04T09:11:56.234Z</time>
      </trkpt>
      <trkpt lat="49.7541" lon="5.60266">
        <ele>446.73</ele>
        <time>2020-11-04T09:12:01.000Z</time>
      </trkpt>
      <trkpt lat="49.75408" lon="5.60264">
        <ele>448.11</ele>
        <time>2020-11-04T09:12:05.296Z</time>
      </trkpt>
      <trkpt lat="49.75407" lon="5.60266">
        <ele>449.52</ele>
        <time>2020-11-04T09:12:10.000Z</time>
      </trkpt>
      <trkpt lat="49.75407" lon="5.60268">
        <ele>450.26</ele>
        <time>2020-11-04T09:12:15.000Z</time>
      </trkpt>
      <trkpt lat="49.75407" lon="5.60269">
        <ele>450.62</ele>
        <time>2020-11-04T09:12:20.000Z</time>
      </trkpt>
      <trkpt lat="49.75407" lon="5.60269">
        <ele>450.89</ele>
        <time>2020-11-04T09:12:25.000Z</time>
      </trkpt>
      <trkpt lat="49.75407" lon="5.60271">
        <ele>451.06</ele>
        <time>2020-11-04T09:12:30.000Z</time>
      </trkpt>
      <trkpt lat="49.75407" lon="5.60271">
        <ele>451.16</ele>
        <time>2020-11-04T09:12:35.000Z</time>
      </trkpt>
      <trkpt lat="49.75407" lon="5.60272">
        <ele>451.23</ele>
        <time>2020-11-04T09:12:40.000Z</time>
      </trkpt>
      <trkpt lat="49.75405" lon="5.60273">
        <ele>450.68</ele>
        <time>2020-11-04T09:12:45.000Z</time>
      </trkpt>
      <trkpt lat="49.75404" lon="5.60273">
        <ele>450.06</ele>
        <time>2020-11-04T09:12:50.000Z</time>
      </trkpt>
      <trkpt lat="49.75403" lon="5.60273">
        <ele>449.73</ele>
        <time>2020-11-04T09:12:55.000Z</time>
      </trkpt>
      <trkpt lat="49.75403" lon="5.60274">
        <ele>449.22</ele>
        <time>2020-11-04T09:12:59.307Z</time>
      </trkpt>
      <trkpt lat="49.75402" lon="5.60276">
        <ele>448.55</ele>
        <time>2020-11-04T09:13:03.888Z</time>
      </trkpt>
      <trkpt lat="49.75401" lon="5.60278">
        <ele>447.46</ele>
        <time>2020-11-04T09:13:08.000Z</time>
      </trkpt>
      <trkpt lat="49.75404" lon="5.60283">
        <ele>447.9</ele>
        <time>2020-11-04T09:13:13.000Z</time>
      </trkpt>
      <trkpt lat="49.75405" lon="5.60281">
        <ele>448.33</ele>
        <time>2020-11-04T09:13:18.000Z</time>
      </trkpt>
      <trkpt lat="49.75405" lon="5.60281">
        <ele>448.61</ele>
        <time>2020-11-04T09:13:23.000Z</time>
      </trkpt>
      <trkpt lat="49.75405" lon="5.60281">
        <ele>448.9</ele>
        <time>2020-11-04T09:13:28.000Z</time>
      </trkpt>
      <trkpt lat="49.75405" lon="5.60282">
        <ele>449.01</ele>
        <time>2020-11-04T09:13:33.000Z</time>
      </trkpt>
      <trkpt lat="49.75405" lon="5.60282">
        <ele>449.12</ele>
        <time>2020-11-04T09:13:38.000Z</time>
      </trkpt>
      <trkpt lat="49.75404" lon="5.60283">
        <ele>449.35</ele>
        <time>2020-11-04T09:13:43.000Z</time>
      </trkpt>
      <trkpt lat="49.75404" lon="5.60283">
        <ele>449.48</ele>
        <time>2020-11-04T09:13:48.000Z</time>
      </trkpt>
      <trkpt lat="49.75404" lon="5.60283">
        <ele>449.83</ele>
        <time>2020-11-04T09:13:53.000Z</time>
      </trkpt>
      <trkpt lat="49.75404" lon="5.60283">
        <ele>449.99</ele>
        <time>2020-11-04T09:13:58.000Z</time>
      </trkpt>
      <trkpt lat="49.75404" lon="5.60284">
        <ele>450.11</ele>
        <time>2020-11-04T09:14:03.000Z</time>
      </trkpt>
      <trkpt lat="49.75404" lon="5.60285">
        <ele>450.44</ele>
        <time>2020-11-04T09:14:08.000Z</time>
      </trkpt>
      <trkpt lat="49.75404" lon="5.60285">
        <ele>450.69</ele>
        <time>2020-11-04T09:14:13.000Z</time>
      </trkpt>
      <trkpt lat="49.75404" lon="5.60285">
        <ele>450.85</ele>
        <time>2020-11-04T09:14:18.000Z</time>
      </trkpt>
      <trkpt lat="49.75404" lon="5.60285">
        <ele>450.96</ele>
        <time>2020-11-04T09:14:23.000Z</time>
      </trkpt>
      <trkpt lat="49.75404" lon="5.60285">
        <ele>451.04</ele>
        <time>2020-11-04T09:14:28.000Z</time>
      </trkpt>
      <trkpt lat="49.75404" lon="5.60285">
        <ele>451.08</ele>
        <time>2020-11-04T09:14:33.000Z</time>
      </trkpt>
      <trkpt lat="49.75404" lon="5.60285">
        <ele>451.12</ele>
        <time>2020-11-04T09:14:38.000Z</time>
      </trkpt>
      <trkpt lat="49.75403" lon="5.60286">
        <ele>450.83</ele>
        <time>2020-11-04T09:14:43.000Z</time>
      </trkpt>
      <trkpt lat="49.75405" lon="5.60289">
        <ele>450.62</ele>
        <time>2020-11-04T09:14:48.000Z</time>
      </trkpt>
      <trkpt lat="49.75404" lon="5.6029">
        <ele>450.65</ele>
        <time>2020-11-04T09:14:53.000Z</time>
      </trkpt>
      <trkpt lat="49.75404" lon="5.6029">
        <ele>450.66</ele>
        <time>2020-11-04T09:14:58.000Z</time>
      </trkpt>
      <trkpt lat="49.75404" lon="5.6029">
        <ele>450.66</ele>
        <time>2020-11-04T09:15:02.490Z</time>
      </trkpt>
      <trkpt lat="49.75404" lon="5.6029">
        <ele>450.91</ele>
        <time>2020-11-04T09:15:07.000Z</time>
      </trkpt>
      <trkpt lat="49.75404" lon="5.60291">
        <ele>451.09</ele>
        <time>2020-11-04T09:15:12.000Z</time>
      </trkpt>
      <trkpt lat="49.75404" lon="5.60292">
        <ele>451.47</ele>
        <time>2020-11-04T09:15:17.510Z</time>
      </trkpt>
      <trkpt lat="49.75412" lon="5.60288">
        <ele>453.37</ele>
        <time>2020-11-04T09:15:21.516Z</time>
      </trkpt>
      <trkpt lat="49.75417" lon="5.60286">
        <ele>455.86</ele>
        <time>2020-11-04T09:15:26.431Z</time>
      </trkpt>
      <trkpt lat="49.75421" lon="5.60282">
        <ele>456.68</ele>
        <time>2020-11-04T09:15:30.834Z</time>
      </trkpt>
      <trkpt lat="49.75425" lon="5.60275">
        <ele>457.23</ele>
        <time>2020-11-04T09:15:34.900Z</time>
      </trkpt>
      <trkpt lat="49.75435" lon="5.60263">
        <ele>458.32</ele>
        <time>2020-11-04T09:15:39.253Z</time>
      </trkpt>
      <trkpt lat="49.75443" lon="5.60253">
        <ele>458.69</ele>
        <time>2020-11-04T09:15:41.511Z</time>
      </trkpt>
      <trkpt lat="49.75451" lon="5.6024">
        <ele>458.92</ele>
        <time>2020-11-04T09:15:44.479Z</time>
      </trkpt>
      <trkpt lat="49.75458" lon="5.60228">
        <ele>459.1</ele>
        <time>2020-11-04T09:15:47.494Z</time>
      </trkpt>
      <trkpt lat="49.75462" lon="5.60211">
        <ele>457.42</ele>
        <time>2020-11-04T09:15:51.153Z</time>
      </trkpt>
      <trkpt lat="49.75468" lon="5.60198">
        <ele>456.33</ele>
        <time>2020-11-04T09:15:53.512Z</time>
      </trkpt>
      <trkpt lat="49.75471" lon="5.6018">
        <ele>455.73</ele>
        <time>2020-11-04T09:15:56.497Z</time>
      </trkpt>
      <trkpt lat="49.75474" lon="5.60166">
        <ele>455.68</ele>
        <time>2020-11-04T09:15:58.777Z</time>
      </trkpt>
      <trkpt lat="49.75479" lon="5.6015">
        <ele>455.87</ele>
        <time>2020-11-04T09:16:02.507Z</time>
      </trkpt>
      <trkpt lat="49.75488" lon="5.60145">
        <ele>455.6</ele>
        <time>2020-11-04T09:16:05.508Z</time>
      </trkpt>
      <trkpt lat="49.75499" lon="5.60149">
        <ele>455.7</ele>
        <time>2020-11-04T09:16:08.522Z</time>
      </trkpt>
      <trkpt lat="49.75493" lon="5.60164">
        <ele>456.06</ele>
        <time>2020-11-04T09:16:11.000Z</time>
      </trkpt>
      <trkpt lat="49.75485" lon="5.6017">
        <ele>457.18</ele>
        <time>2020-11-04T09:16:14.000Z</time>
      </trkpt>
      <trkpt lat="49.75484" lon="5.6017">
        <ele>458.22</ele>
        <time>2020-11-04T09:16:18.481Z</time>
      </trkpt>
      <trkpt lat="49.75485" lon="5.60169">
        <ele>459.14</ele>
        <time>2020-11-04T09:16:23.000Z</time>
      </trkpt>
      <trkpt lat="49.75485" lon="5.60169">
        <ele>459.57</ele>
        <time>2020-11-04T09:16:28.000Z</time>
      </trkpt>
      <trkpt lat="49.75487" lon="5.60168">
        <ele>459.87</ele>
        <time>2020-11-04T09:16:33.000Z</time>
      </trkpt>
      <trkpt lat="49.75487" lon="5.60168">
        <ele>460.05</ele>
        <time>2020-11-04T09:16:38.000Z</time>
      </trkpt>
      <trkpt lat="49.75489" lon="5.60168">
        <ele>459.97</ele>
        <time>2020-11-04T09:16:43.000Z</time>
      </trkpt>
      <trkpt lat="49.75496" lon="5.60173">
        <ele>459.11</ele>
        <time>2020-11-04T09:16:47.482Z</time>
      </trkpt>
      <trkpt lat="49.75505" lon="5.60179">
        <ele>458.34</ele>
        <time>2020-11-04T09:16:51.270Z</time>
      </trkpt>
      <trkpt lat="49.75513" lon="5.60183">
        <ele>457.81</ele>
        <time>2020-11-04T09:16:54.540Z</time>
      </trkpt>
      <trkpt lat="49.75523" lon="5.60184">
        <ele>457.66</ele>
        <time>2020-11-04T09:16:57.509Z</time>
      </trkpt>
      <trkpt lat="49.75536" lon="5.60181">
        <ele>457.58</ele>
        <time>2020-11-04T09:17:00.501Z</time>
      </trkpt>
      <trkpt lat="49.75548" lon="5.60181">
        <ele>457.58</ele>
        <time>2020-11-04T09:17:03.514Z</time>
      </trkpt>
      <trkpt lat="49.75559" lon="5.60175">
        <ele>457.21</ele>
        <time>2020-11-04T09:17:06.544Z</time>
      </trkpt>
      <trkpt lat="49.75568" lon="5.60163">
        <ele>456.72</ele>
        <time>2020-11-04T09:17:09.521Z</time>
      </trkpt>
      <trkpt lat="49.75577" lon="5.60157">
        <ele>456.39</ele>
        <time>2020-11-04T09:17:12.516Z</time>
      </trkpt>
      <trkpt lat="49.75588" lon="5.60153">
        <ele>455.66</ele>
        <time>2020-11-04T09:17:16.171Z</time>
      </trkpt>
      <trkpt lat="49.75601" lon="5.60147">
        <ele>455.21</ele>
        <time>2020-11-04T09:17:19.504Z</time>
      </trkpt>
      <trkpt lat="49.75612" lon="5.60144">
        <ele>454.63</ele>
        <time>2020-11-04T09:17:22.505Z</time>
      </trkpt>
      <trkpt lat="49.75624" lon="5.60141">
        <ele>454.09</ele>
        <time>2020-11-04T09:17:26.501Z</time>
      </trkpt>
      <trkpt lat="49.75633" lon="5.60136">
        <ele>453.99</ele>
        <time>2020-11-04T09:17:29.533Z</time>
      </trkpt>
      <trkpt lat="49.75643" lon="5.60134">
        <ele>454.56</ele>
        <time>2020-11-04T09:17:33.528Z</time>
      </trkpt>
      <trkpt lat="49.75648" lon="5.60131">
        <ele>456.66</ele>
        <time>2020-11-04T09:17:37.553Z</time>
      </trkpt>
      <trkpt lat="49.7565" lon="5.6013">
        <ele>459.84</ele>
        <time>2020-11-04T09:17:42.522Z</time>
      </trkpt>
      <trkpt lat="49.75658" lon="5.60128">
        <ele>462.5</ele>
        <time>2020-11-04T09:17:47.520Z</time>
      </trkpt>
      <trkpt lat="49.75666" lon="5.60127">
        <ele>464.58</ele>
        <time>2020-11-04T09:17:52.512Z</time>
      </trkpt>
      <trkpt lat="49.75673" lon="5.60121">
        <ele>464.97</ele>
        <time>2020-11-04T09:17:56.556Z</time>
      </trkpt>
      <trkpt lat="49.75679" lon="5.60115">
        <ele>465.81</ele>
        <time>2020-11-04T09:18:01.000Z</time>
      </trkpt>
      <trkpt lat="49.75685" lon="5.60103">
        <ele>463.86</ele>
        <time>2020-11-04T09:18:04.519Z</time>
      </trkpt>
      <trkpt lat="49.75697" lon="5.60088">
        <ele>463.4</ele>
        <time>2020-11-04T09:18:06.527Z</time>
      </trkpt>
      <trkpt lat="49.75707" lon="5.6008">
        <ele>463.21</ele>
        <time>2020-11-04T09:18:07.501Z</time>
      </trkpt>
      <trkpt lat="49.75715" lon="5.60073">
        <ele>463.09</ele>
        <time>2020-11-04T09:18:08.561Z</time>
      </trkpt>
      <trkpt lat="49.75727" lon="5.60061">
        <ele>463.18</ele>
        <time>2020-11-04T09:18:09.877Z</time>
      </trkpt>
      <trkpt lat="49.75734" lon="5.6005">
        <ele>463.25</ele>
        <time>2020-11-04T09:18:11.483Z</time>
      </trkpt>
      <trkpt lat="49.75745" lon="5.60045">
        <ele>463.75</ele>
        <time>2020-11-04T09:18:13.491Z</time>
      </trkpt>
      <trkpt lat="49.75759" lon="5.60037">
        <ele>464.31</ele>
        <time>2020-11-04T09:18:16.488Z</time>
      </trkpt>
      <trkpt lat="49.75768" lon="5.60025">
        <ele>464.18</ele>
        <time>2020-11-04T09:18:18.000Z</time>
      </trkpt>
      <trkpt lat="49.75777" lon="5.60015">
        <ele>463.83</ele>
        <time>2020-11-04T09:18:20.000Z</time>
      </trkpt>
      <trkpt lat="49.75786" lon="5.60002">
        <ele>463.53</ele>
        <time>2020-11-04T09:18:22.510Z</time>
      </trkpt>
      <trkpt lat="49.758" lon="5.59996">
        <ele>463.23</ele>
        <time>2020-11-04T09:18:25.516Z</time>
      </trkpt>
      <trkpt lat="49.7581" lon="5.59992">
        <ele>463.36</ele>
        <time>2020-11-04T09:18:27.500Z</time>
      </trkpt>
      <trkpt lat="49.75819" lon="5.59974">
        <ele>463.12</ele>
        <time>2020-11-04T09:18:30.528Z</time>
      </trkpt>
      <trkpt lat="49.75831" lon="5.59967">
        <ele>462.08</ele>
        <time>2020-11-04T09:18:33.518Z</time>
      </trkpt>
      <trkpt lat="49.75843" lon="5.59959">
        <ele>461.02</ele>
        <time>2020-11-04T09:18:36.522Z</time>
      </trkpt>
      <trkpt lat="49.75856" lon="5.59956">
        <ele>459.96</ele>
        <time>2020-11-04T09:18:39.000Z</time>
      </trkpt>
      <trkpt lat="49.75868" lon="5.59956">
        <ele>459.63</ele>
        <time>2020-11-04T09:18:41.509Z</time>
      </trkpt>
      <trkpt lat="49.7588" lon="5.59957">
        <ele>459.32</ele>
        <time>2020-11-04T09:18:46.116Z</time>
      </trkpt>
      <trkpt lat="49.7589" lon="5.5995">
        <ele>459.52</ele>
        <time>2020-11-04T09:18:49.197Z</time>
      </trkpt>
      <trkpt lat="49.75901" lon="5.59943">
        <ele>459.44</ele>
        <time>2020-11-04T09:18:52.483Z</time>
      </trkpt>
      <trkpt lat="49.75908" lon="5.59932">
        <ele>459.73</ele>
        <time>2020-11-04T09:18:55.172Z</time>
      </trkpt>
      <trkpt lat="49.75915" lon="5.59919">
        <ele>459.85</ele>
        <time>2020-11-04T09:18:58.485Z</time>
      </trkpt>
      <trkpt lat="49.75923" lon="5.59915">
        <ele>460.01</ele>
        <time>2020-11-04T09:19:00.490Z</time>
      </trkpt>
      <trkpt lat="49.75932" lon="5.59911">
        <ele>460.25</ele>
        <time>2020-11-04T09:19:04.492Z</time>
      </trkpt>
      <trkpt lat="49.75942" lon="5.5991">
        <ele>459.83</ele>
        <time>2020-11-04T09:19:08.505Z</time>
      </trkpt>
      <trkpt lat="49.75954" lon="5.59907">
        <ele>460.05</ele>
        <time>2020-11-04T09:19:13.480Z</time>
      </trkpt>
      <trkpt lat="49.75961" lon="5.59909">
        <ele>461.17</ele>
        <time>2020-11-04T09:19:18.000Z</time>
      </trkpt>
      <trkpt lat="49.75971" lon="5.59903">
        <ele>463.97</ele>
        <time>2020-11-04T09:19:23.000Z</time>
      </trkpt>
      <trkpt lat="49.75982" lon="5.59896">
        <ele>465.73</ele>
        <time>2020-11-04T09:19:27.000Z</time>
      </trkpt>
      <trkpt lat="49.75991" lon="5.59887">
        <ele>466.37</ele>
        <time>2020-11-04T09:19:29.000Z</time>
      </trkpt>
      <trkpt lat="49.75999" lon="5.59878">
        <ele>466.75</ele>
        <time>2020-11-04T09:19:31.000Z</time>
      </trkpt>
      <trkpt lat="49.76009" lon="5.59866">
        <ele>467.28</ele>
        <time>2020-11-04T09:19:34.000Z</time>
      </trkpt>
      <trkpt lat="49.76019" lon="5.59861">
        <ele>467.64</ele>
        <time>2020-11-04T09:19:37.000Z</time>
      </trkpt>
      <trkpt lat="49.7603" lon="5.59861">
        <ele>467.64</ele>
        <time>2020-11-04T09:19:40.000Z</time>
      </trkpt>
      <trkpt lat="49.76042" lon="5.5986">
        <ele>467.28</ele>
        <time>2020-11-04T09:19:44.000Z</time>
      </trkpt>
      <trkpt lat="49.76052" lon="5.5986">
        <ele>467.05</ele>
        <time>2020-11-04T09:19:47.545Z</time>
      </trkpt>
      <trkpt lat="49.76064" lon="5.59856">
        <ele>467.24</ele>
        <time>2020-11-04T09:19:50.522Z</time>
      </trkpt>
      <trkpt lat="49.76073" lon="5.59857">
        <ele>467.63</ele>
        <time>2020-11-04T09:19:53.525Z</time>
      </trkpt>
      <trkpt lat="49.76079" lon="5.59871">
        <ele>467.78</ele>
        <time>2020-11-04T09:19:56.522Z</time>
      </trkpt>
      <trkpt lat="49.76087" lon="5.59885">
        <ele>467.51</ele>
        <time>2020-11-04T09:19:59.504Z</time>
      </trkpt>
      <trkpt lat="49.76099" lon="5.5989">
        <ele>467.04</ele>
        <time>2020-11-04T09:20:02.518Z</time>
      </trkpt>
      <trkpt lat="49.76106" lon="5.59899">
        <ele>466.12</ele>
        <time>2020-11-04T09:20:05.514Z</time>
      </trkpt>
      <trkpt lat="49.76115" lon="5.5989">
        <ele>465.35</ele>
        <time>2020-11-04T09:20:08.487Z</time>
      </trkpt>
      <trkpt lat="49.76123" lon="5.59901">
        <ele>465.41</ele>
        <time>2020-11-04T09:20:12.500Z</time>
      </trkpt>
      <trkpt lat="49.7613" lon="5.59907">
        <ele>465.14</ele>
        <time>2020-11-04T09:20:16.505Z</time>
      </trkpt>
      <trkpt lat="49.76138" lon="5.59915">
        <ele>465.14</ele>
        <time>2020-11-04T09:20:19.516Z</time>
      </trkpt>
      <trkpt lat="49.76147" lon="5.59922">
        <ele>464.75</ele>
        <time>2020-11-04T09:20:22.523Z</time>
      </trkpt>
      <trkpt lat="49.76157" lon="5.59923">
        <ele>464.88</ele>
        <time>2020-11-04T09:20:26.508Z</time>
      </trkpt>
      <trkpt lat="49.76164" lon="5.59929">
        <ele>465.01</ele>
        <time>2020-11-04T09:20:30.526Z</time>
      </trkpt>
      <trkpt lat="49.76172" lon="5.59942">
        <ele>465.57</ele>
        <time>2020-11-04T09:20:34.514Z</time>
      </trkpt>
      <trkpt lat="49.76182" lon="5.59951">
        <ele>466.23</ele>
        <time>2020-11-04T09:20:38.529Z</time>
      </trkpt>
      <trkpt lat="49.76191" lon="5.59959">
        <ele>467.28</ele>
        <time>2020-11-04T09:20:42.487Z</time>
      </trkpt>
      <trkpt lat="49.76201" lon="5.59966">
        <ele>468.87</ele>
        <time>2020-11-04T09:20:46.522Z</time>
      </trkpt>
      <trkpt lat="49.7621" lon="5.59976">
        <ele>469.67</ele>
        <time>2020-11-04T09:20:50.304Z</time>
      </trkpt>
      <trkpt lat="49.76216" lon="5.59984">
        <ele>470.72</ele>
        <time>2020-11-04T09:20:54.488Z</time>
      </trkpt>
      <trkpt lat="49.76224" lon="5.59993">
        <ele>471.85</ele>
        <time>2020-11-04T09:20:58.527Z</time>
      </trkpt>
      <trkpt lat="49.76231" lon="5.60002">
        <ele>472.63</ele>
        <time>2020-11-04T09:21:01.535Z</time>
      </trkpt>
      <trkpt lat="49.76236" lon="5.60009">
        <ele>474.02</ele>
        <time>2020-11-04T09:21:05.559Z</time>
      </trkpt>
      <trkpt lat="49.76244" lon="5.60018">
        <ele>476.38</ele>
        <time>2020-11-04T09:21:10.082Z</time>
      </trkpt>
      <trkpt lat="49.76252" lon="5.60025">
        <ele>477.48</ele>
        <time>2020-11-04T09:21:12.512Z</time>
      </trkpt>
      <trkpt lat="49.76261" lon="5.60034">
        <ele>477.82</ele>
        <time>2020-11-04T09:21:14.703Z</time>
      </trkpt>
      <trkpt lat="49.76271" lon="5.60041">
        <ele>477.48</ele>
        <time>2020-11-04T09:21:17.523Z</time>
      </trkpt>
      <trkpt lat="49.76281" lon="5.60049">
        <ele>476.93</ele>
        <time>2020-11-04T09:21:20.499Z</time>
      </trkpt>
      <trkpt lat="49.76292" lon="5.60041">
        <ele>476.34</ele>
        <time>2020-11-04T09:21:23.475Z</time>
      </trkpt>
      <trkpt lat="49.76297" lon="5.60028">
        <ele>475.7</ele>
        <time>2020-11-04T09:21:25.518Z</time>
      </trkpt>
      <trkpt lat="49.76299" lon="5.60014">
        <ele>474.8</ele>
        <time>2020-11-04T09:21:27.501Z</time>
      </trkpt>
      <trkpt lat="49.76293" lon="5.60002">
        <ele>474.09</ele>
        <time>2020-11-04T09:21:29.525Z</time>
      </trkpt>
      <trkpt lat="49.76284" lon="5.59993">
        <ele>472.67</ele>
        <time>2020-11-04T09:21:32.513Z</time>
      </trkpt>
      <trkpt lat="49.76281" lon="5.59978">
        <ele>471.81</ele>
        <time>2020-11-04T09:21:35.508Z</time>
      </trkpt>
      <trkpt lat="49.7628" lon="5.59963">
        <ele>470.23</ele>
        <time>2020-11-04T09:21:38.511Z</time>
      </trkpt>
      <trkpt lat="49.76282" lon="5.59948">
        <ele>468.37</ele>
        <time>2020-11-04T09:21:41.548Z</time>
      </trkpt>
      <trkpt lat="49.76286" lon="5.59935">
        <ele>466.52</ele>
        <time>2020-11-04T09:21:44.689Z</time>
      </trkpt>
      <trkpt lat="49.76289" lon="5.5992">
        <ele>467.48</ele>
        <time>2020-11-04T09:21:48.627Z</time>
      </trkpt>
      <trkpt lat="49.76292" lon="5.59902">
        <ele>467.84</ele>
        <time>2020-11-04T09:21:52.203Z</time>
      </trkpt>
      <trkpt lat="49.76297" lon="5.59887">
        <ele>466.18</ele>
        <time>2020-11-04T09:21:56.378Z</time>
      </trkpt>
      <trkpt lat="49.76304" lon="5.59876">
        <ele>466.02</ele>
        <time>2020-11-04T09:21:59.502Z</time>
      </trkpt>
      <trkpt lat="49.7631" lon="5.59863">
        <ele>466.93</ele>
        <time>2020-11-04T09:22:02.798Z</time>
      </trkpt>
      <trkpt lat="49.76311" lon="5.59845">
        <ele>469.15</ele>
        <time>2020-11-04T09:22:06.504Z</time>
      </trkpt>
      <trkpt lat="49.76314" lon="5.59831">
        <ele>472.86</ele>
        <time>2020-11-04T09:22:09.999Z</time>
      </trkpt>
      <trkpt lat="49.76315" lon="5.59817">
        <ele>475.68</ele>
        <time>2020-11-04T09:22:13.409Z</time>
      </trkpt>
      <trkpt lat="49.76313" lon="5.59802">
        <ele>477.07</ele>
        <time>2020-11-04T09:22:16.804Z</time>
      </trkpt>
      <trkpt lat="49.76315" lon="5.59784">
        <ele>478.42</ele>
        <time>2020-11-04T09:22:20.505Z</time>
      </trkpt>
      <trkpt lat="49.76311" lon="5.59765">
        <ele>478.01</ele>
        <time>2020-11-04T09:22:24.509Z</time>
      </trkpt>
      <trkpt lat="49.76304" lon="5.59753">
        <ele>477.79</ele>
        <time>2020-11-04T09:22:28.517Z</time>
      </trkpt>
      <trkpt lat="49.76306" lon="5.59737">
        <ele>476.63</ele>
        <time>2020-11-04T09:22:31.498Z</time>
      </trkpt>
      <trkpt lat="49.76317" lon="5.59732">
        <ele>477.06</ele>
        <time>2020-11-04T09:22:34.078Z</time>
      </trkpt>
      <trkpt lat="49.76327" lon="5.59728">
        <ele>477.8</ele>
        <time>2020-11-04T09:22:36.525Z</time>
      </trkpt>
      <trkpt lat="49.76336" lon="5.59721">
        <ele>477.44</ele>
        <time>2020-11-04T09:22:41.506Z</time>
      </trkpt>
      <trkpt lat="49.76345" lon="5.59721">
        <ele>477.9</ele>
        <time>2020-11-04T09:22:45.529Z</time>
      </trkpt>
      <trkpt lat="49.76354" lon="5.5972">
        <ele>478.73</ele>
        <time>2020-11-04T09:22:49.723Z</time>
      </trkpt>
      <trkpt lat="49.76366" lon="5.59702">
        <ele>478.82</ele>
        <time>2020-11-04T09:22:53.000Z</time>
      </trkpt>
      <trkpt lat="49.76375" lon="5.59691">
        <ele>478.23</ele>
        <time>2020-11-04T09:22:55.000Z</time>
      </trkpt>
      <trkpt lat="49.76384" lon="5.59682">
        <ele>477.68</ele>
        <time>2020-11-04T09:22:57.000Z</time>
      </trkpt>
      <trkpt lat="49.76394" lon="5.59673">
        <ele>477.44</ele>
        <time>2020-11-04T09:22:59.529Z</time>
      </trkpt>
      <trkpt lat="49.76406" lon="5.59668">
        <ele>476.87</ele>
        <time>2020-11-04T09:23:02.000Z</time>
      </trkpt>
      <trkpt lat="49.76416" lon="5.59665">
        <ele>476.38</ele>
        <time>2020-11-04T09:23:04.000Z</time>
      </trkpt>
      <trkpt lat="49.76426" lon="5.59657">
        <ele>475.86</ele>
        <time>2020-11-04T09:23:06.508Z</time>
      </trkpt>
      <trkpt lat="49.76436" lon="5.59645">
        <ele>475.04</ele>
        <time>2020-11-04T09:23:09.000Z</time>
      </trkpt>
      <trkpt lat="49.76447" lon="5.59638">
        <ele>474.81</ele>
        <time>2020-11-04T09:23:11.502Z</time>
      </trkpt>
      <trkpt lat="49.76459" lon="5.59629">
        <ele>475.21</ele>
        <time>2020-11-04T09:23:15.521Z</time>
      </trkpt>
      <trkpt lat="49.76468" lon="5.59624">
        <ele>475.41</ele>
        <time>2020-11-04T09:23:17.298Z</time>
      </trkpt>
      <trkpt lat="49.76476" lon="5.59602">
        <ele>474.56</ele>
        <time>2020-11-04T09:23:20.000Z</time>
      </trkpt>
      <trkpt lat="49.76482" lon="5.59588">
        <ele>473.98</ele>
        <time>2020-11-04T09:23:22.404Z</time>
      </trkpt>
      <trkpt lat="49.76492" lon="5.59571">
        <ele>473.78</ele>
        <time>2020-11-04T09:23:24.000Z</time>
      </trkpt>
      <trkpt lat="49.76501" lon="5.59561">
        <ele>473.13</ele>
        <time>2020-11-04T09:23:27.000Z</time>
      </trkpt>
      <trkpt lat="49.76504" lon="5.59546">
        <ele>473.03</ele>
        <time>2020-11-04T09:23:30.540Z</time>
      </trkpt>
      <trkpt lat="49.76513" lon="5.59552">
        <ele>473.83</ele>
        <time>2020-11-04T09:23:33.043Z</time>
      </trkpt>
      <trkpt lat="49.76525" lon="5.59539">
        <ele>474.2</ele>
        <time>2020-11-04T09:23:36.500Z</time>
      </trkpt>
      <trkpt lat="49.76532" lon="5.5953">
        <ele>473.72</ele>
        <time>2020-11-04T09:23:38.512Z</time>
      </trkpt>
      <trkpt lat="49.7654" lon="5.59515">
        <ele>472.39</ele>
        <time>2020-11-04T09:23:41.524Z</time>
      </trkpt>
      <trkpt lat="49.76547" lon="5.59501">
        <ele>471.92</ele>
        <time>2020-11-04T09:23:43.509Z</time>
      </trkpt>
      <trkpt lat="49.7655" lon="5.59488">
        <ele>471.62</ele>
        <time>2020-11-04T09:23:45.488Z</time>
      </trkpt>
      <trkpt lat="49.76556" lon="5.59473">
        <ele>471.85</ele>
        <time>2020-11-04T09:23:48.518Z</time>
      </trkpt>
      <trkpt lat="49.76561" lon="5.59456">
        <ele>472.13</ele>
        <time>2020-11-04T09:23:50.525Z</time>
      </trkpt>
      <trkpt lat="49.76565" lon="5.59441">
        <ele>472.38</ele>
        <time>2020-11-04T09:23:52.515Z</time>
      </trkpt>
      <trkpt lat="49.76571" lon="5.59429">
        <ele>472.49</ele>
        <time>2020-11-04T09:23:53.669Z</time>
      </trkpt>
      <trkpt lat="49.76581" lon="5.59418">
        <ele>472.49</ele>
        <time>2020-11-04T09:23:58.415Z</time>
      </trkpt>
      <trkpt lat="49.76592" lon="5.59412">
        <ele>472.24</ele>
        <time>2020-11-04T09:24:01.504Z</time>
      </trkpt>
      <trkpt lat="49.76601" lon="5.59399">
        <ele>471.39</ele>
        <time>2020-11-04T09:24:04.524Z</time>
      </trkpt>
      <trkpt lat="49.76607" lon="5.59388">
        <ele>470.93</ele>
        <time>2020-11-04T09:24:06.507Z</time>
      </trkpt>
      <trkpt lat="49.76614" lon="5.59377">
        <ele>470.13</ele>
        <time>2020-11-04T09:24:08.506Z</time>
      </trkpt>
      <trkpt lat="49.7662" lon="5.59365">
        <ele>468.91</ele>
        <time>2020-11-04T09:24:10.516Z</time>
      </trkpt>
      <trkpt lat="49.76625" lon="5.59343">
        <ele>467.65</ele>
        <time>2020-11-04T09:24:13.505Z</time>
      </trkpt>
      <trkpt lat="49.76626" lon="5.59314">
        <ele>466.48</ele>
        <time>2020-11-04T09:24:15.000Z</time>
      </trkpt>
      <trkpt lat="49.76631" lon="5.59299">
        <ele>465.43</ele>
        <time>2020-11-04T09:24:17.582Z</time>
      </trkpt>
      <trkpt lat="49.76635" lon="5.59283">
        <ele>464.15</ele>
        <time>2020-11-04T09:24:19.509Z</time>
      </trkpt>
      <trkpt lat="49.76638" lon="5.59264">
        <ele>462.55</ele>
        <time>2020-11-04T09:24:23.498Z</time>
      </trkpt>
      <trkpt lat="49.76645" lon="5.59246">
        <ele>462.18</ele>
        <time>2020-11-04T09:24:25.582Z</time>
      </trkpt>
      <trkpt lat="49.76651" lon="5.59226">
        <ele>461.62</ele>
        <time>2020-11-04T09:24:27.000Z</time>
      </trkpt>
      <trkpt lat="49.76661" lon="5.59205">
        <ele>460.41</ele>
        <time>2020-11-04T09:24:29.000Z</time>
      </trkpt>
      <trkpt lat="49.7667" lon="5.59188">
        <ele>459.36</ele>
        <time>2020-11-04T09:24:31.000Z</time>
      </trkpt>
      <trkpt lat="49.7668" lon="5.59175">
        <ele>458.49</ele>
        <time>2020-11-04T09:24:33.000Z</time>
      </trkpt>
      <trkpt lat="49.7669" lon="5.59163">
        <ele>457.75</ele>
        <time>2020-11-04T09:24:35.000Z</time>
      </trkpt>
      <trkpt lat="49.76702" lon="5.59146">
        <ele>457.08</ele>
        <time>2020-11-04T09:24:37.000Z</time>
      </trkpt>
      <trkpt lat="49.76715" lon="5.59132">
        <ele>456.81</ele>
        <time>2020-11-04T09:24:39.000Z</time>
      </trkpt>
      <trkpt lat="49.7673" lon="5.59117">
        <ele>456.51</ele>
        <time>2020-11-04T09:24:41.000Z</time>
      </trkpt>
      <trkpt lat="49.7674" lon="5.59107">
        <ele>456.16</ele>
        <time>2020-11-04T09:24:44.000Z</time>
      </trkpt>
      <trkpt lat="49.76746" lon="5.59092">
        <ele>455.43</ele>
        <time>2020-11-04T09:24:47.000Z</time>
      </trkpt>
      <trkpt lat="49.76748" lon="5.59079">
        <ele>454.74</ele>
        <time>2020-11-04T09:24:51.293Z</time>
      </trkpt>
      <trkpt lat="49.76758" lon="5.59073">
        <ele>455</ele>
        <time>2020-11-04T09:24:54.196Z</time>
      </trkpt>
      <trkpt lat="49.76768" lon="5.59073">
        <ele>455.16</ele>
        <time>2020-11-04T09:24:56.213Z</time>
      </trkpt>
      <trkpt lat="49.76777" lon="5.59074">
        <ele>454.84</ele>
        <time>2020-11-04T09:24:59.000Z</time>
      </trkpt>
      <trkpt lat="49.76785" lon="5.59068">
        <ele>453.77</ele>
        <time>2020-11-04T09:25:04.000Z</time>
      </trkpt>
      <trkpt lat="49.76793" lon="5.59054">
        <ele>453.39</ele>
        <time>2020-11-04T09:25:07.000Z</time>
      </trkpt>
      <trkpt lat="49.76803" lon="5.59046">
        <ele>453.08</ele>
        <time>2020-11-04T09:25:11.000Z</time>
      </trkpt>
      <trkpt lat="49.76809" lon="5.59034">
        <ele>452.55</ele>
        <time>2020-11-04T09:25:15.000Z</time>
      </trkpt>
      <trkpt lat="49.76813" lon="5.59021">
        <ele>452.39</ele>
        <time>2020-11-04T09:25:19.899Z</time>
      </trkpt>
      <trkpt lat="49.76817" lon="5.59006">
        <ele>451.49</ele>
        <time>2020-11-04T09:25:24.057Z</time>
      </trkpt>
      <trkpt lat="49.76821" lon="5.58991">
        <ele>450.92</ele>
        <time>2020-11-04T09:25:28.990Z</time>
      </trkpt>
      <trkpt lat="49.76822" lon="5.58973">
        <ele>451.53</ele>
        <time>2020-11-04T09:25:32.523Z</time>
      </trkpt>
      <trkpt lat="49.76827" lon="5.5896">
        <ele>452.22</ele>
        <time>2020-11-04T09:25:36.513Z</time>
      </trkpt>
      <trkpt lat="49.7683" lon="5.58949">
        <ele>452.33</ele>
        <time>2020-11-04T09:25:40.545Z</time>
      </trkpt>
      <trkpt lat="49.76832" lon="5.58934">
        <ele>452.89</ele>
        <time>2020-11-04T09:25:43.707Z</time>
      </trkpt>
      <trkpt lat="49.76835" lon="5.58918">
        <ele>453.27</ele>
        <time>2020-11-04T09:25:47.505Z</time>
      </trkpt>
      <trkpt lat="49.76838" lon="5.58903">
        <ele>453.42</ele>
        <time>2020-11-04T09:25:50.518Z</time>
      </trkpt>
      <trkpt lat="49.76843" lon="5.58888">
        <ele>453.82</ele>
        <time>2020-11-04T09:25:53.518Z</time>
      </trkpt>
      <trkpt lat="49.76845" lon="5.58873">
        <ele>454.32</ele>
        <time>2020-11-04T09:25:56.516Z</time>
      </trkpt>
      <trkpt lat="49.76845" lon="5.58861">
        <ele>455.35</ele>
        <time>2020-11-04T09:26:00.519Z</time>
      </trkpt>
      <trkpt lat="49.76847" lon="5.58844">
        <ele>457.03</ele>
        <time>2020-11-04T09:26:04.861Z</time>
      </trkpt>
      <trkpt lat="49.7685" lon="5.58829">
        <ele>458.58</ele>
        <time>2020-11-04T09:26:08.286Z</time>
      </trkpt>
      <trkpt lat="49.76855" lon="5.58816">
        <ele>460.4</ele>
        <time>2020-11-04T09:26:12.511Z</time>
      </trkpt>
      <trkpt lat="49.76861" lon="5.58803">
        <ele>461.55</ele>
        <time>2020-11-04T09:26:17.509Z</time>
      </trkpt>
      <trkpt lat="49.76868" lon="5.58789">
        <ele>460.17</ele>
        <time>2020-11-04T09:26:22.510Z</time>
      </trkpt>
      <trkpt lat="49.7687" lon="5.58777">
        <ele>459.77</ele>
        <time>2020-11-04T09:26:26.511Z</time>
      </trkpt>
      <trkpt lat="49.76872" lon="5.58763">
        <ele>459.46</ele>
        <time>2020-11-04T09:26:31.507Z</time>
      </trkpt>
      <trkpt lat="49.76874" lon="5.58748">
        <ele>459.79</ele>
        <time>2020-11-04T09:26:35.458Z</time>
      </trkpt>
      <trkpt lat="49.76872" lon="5.58732">
        <ele>461.07</ele>
        <time>2020-11-04T09:26:40.413Z</time>
      </trkpt>
      <trkpt lat="49.76871" lon="5.58718">
        <ele>461.48</ele>
        <time>2020-11-04T09:26:44.074Z</time>
      </trkpt>
      <trkpt lat="49.76877" lon="5.58706">
        <ele>461.61</ele>
        <time>2020-11-04T09:26:48.592Z</time>
      </trkpt>
      <trkpt lat="49.76883" lon="5.58697">
        <ele>461.83</ele>
        <time>2020-11-04T09:26:52.779Z</time>
      </trkpt>
      <trkpt lat="49.76889" lon="5.58683">
        <ele>463.01</ele>
        <time>2020-11-04T09:26:57.528Z</time>
      </trkpt>
      <trkpt lat="49.76894" lon="5.58667">
        <ele>465.29</ele>
        <time>2020-11-04T09:27:01.524Z</time>
      </trkpt>
      <trkpt lat="49.76896" lon="5.58653">
        <ele>466.48</ele>
        <time>2020-11-04T09:27:04.509Z</time>
      </trkpt>
      <trkpt lat="49.76897" lon="5.58638">
        <ele>468.06</ele>
        <time>2020-11-04T09:27:08.512Z</time>
      </trkpt>
      <trkpt lat="49.76899" lon="5.58623">
        <ele>469</ele>
        <time>2020-11-04T09:27:13.515Z</time>
      </trkpt>
      <trkpt lat="49.76902" lon="5.58607">
        <ele>470.31</ele>
        <time>2020-11-04T09:27:18.503Z</time>
      </trkpt>
      <trkpt lat="49.76907" lon="5.58598">
        <ele>472.49</ele>
        <time>2020-11-04T09:27:22.890Z</time>
      </trkpt>
      <trkpt lat="49.76914" lon="5.58591">
        <ele>475.88</ele>
        <time>2020-11-04T09:27:27.494Z</time>
      </trkpt>
      <trkpt lat="49.76916" lon="5.58577">
        <ele>478.26</ele>
        <time>2020-11-04T09:27:32.522Z</time>
      </trkpt>
      <trkpt lat="49.76916" lon="5.58565">
        <ele>481.03</ele>
        <time>2020-11-04T09:27:36.559Z</time>
      </trkpt>
      <trkpt lat="49.76918" lon="5.58547">
        <ele>482.67</ele>
        <time>2020-11-04T09:27:40.517Z</time>
      </trkpt>
      <trkpt lat="49.76923" lon="5.58531">
        <ele>480.52</ele>
        <time>2020-11-04T09:27:41.831Z</time>
      </trkpt>
      <trkpt lat="49.76929" lon="5.58519">
        <ele>478.65</ele>
        <time>2020-11-04T09:27:43.000Z</time>
      </trkpt>
      <trkpt lat="49.76937" lon="5.58502">
        <ele>476.63</ele>
        <time>2020-11-04T09:27:44.676Z</time>
      </trkpt>
      <trkpt lat="49.76942" lon="5.58489">
        <ele>475.7</ele>
        <time>2020-11-04T09:27:46.047Z</time>
      </trkpt>
      <trkpt lat="49.76947" lon="5.58473">
        <ele>474.79</ele>
        <time>2020-11-04T09:27:47.875Z</time>
      </trkpt>
      <trkpt lat="49.76953" lon="5.58455">
        <ele>473.98</ele>
        <time>2020-11-04T09:27:50.357Z</time>
      </trkpt>
      <trkpt lat="49.76963" lon="5.58444">
        <ele>471.94</ele>
        <time>2020-11-04T09:27:53.273Z</time>
      </trkpt>
      <trkpt lat="49.76967" lon="5.58431">
        <ele>469.69</ele>
        <time>2020-11-04T09:27:55.895Z</time>
      </trkpt>
      <trkpt lat="49.7697" lon="5.58416">
        <ele>467.79</ele>
        <time>2020-11-04T09:27:59.504Z</time>
      </trkpt>
      <trkpt lat="49.76977" lon="5.58414">
        <ele>467.79</ele>
        <time>2020-11-04T09:28:03.514Z</time>
      </trkpt>
      <trkpt lat="49.76978" lon="5.58426">
        <ele>466.72</ele>
        <time>2020-11-04T09:28:07.519Z</time>
      </trkpt>
      <trkpt lat="49.76978" lon="5.58437">
        <ele>465.77</ele>
        <time>2020-11-04T09:28:12.532Z</time>
      </trkpt>
      <trkpt lat="49.76983" lon="5.58439">
        <ele>465.13</ele>
        <time>2020-11-04T09:28:17.518Z</time>
      </trkpt>
      <trkpt lat="49.76984" lon="5.58445">
        <ele>465.63</ele>
        <time>2020-11-04T09:28:21.519Z</time>
      </trkpt>
      <trkpt lat="49.76988" lon="5.58456">
        <ele>466.75</ele>
        <time>2020-11-04T09:28:25.973Z</time>
      </trkpt>
      <trkpt lat="49.76994" lon="5.58469">
        <ele>468.77</ele>
        <time>2020-11-04T09:28:30.511Z</time>
      </trkpt>
      <trkpt lat="49.77001" lon="5.58479">
        <ele>469.96</ele>
        <time>2020-11-04T09:28:34.531Z</time>
      </trkpt>
      <trkpt lat="49.77008" lon="5.58488">
        <ele>470.08</ele>
        <time>2020-11-04T09:28:38.526Z</time>
      </trkpt>
      <trkpt lat="49.77016" lon="5.58498">
        <ele>470.09</ele>
        <time>2020-11-04T09:28:42.519Z</time>
      </trkpt>
      <trkpt lat="49.77022" lon="5.58508">
        <ele>471.53</ele>
        <time>2020-11-04T09:28:46.524Z</time>
      </trkpt>
      <trkpt lat="49.7703" lon="5.58515">
        <ele>473.4</ele>
        <time>2020-11-04T09:28:50.110Z</time>
      </trkpt>
      <trkpt lat="49.77037" lon="5.58527">
        <ele>475.33</ele>
        <time>2020-11-04T09:28:54.949Z</time>
      </trkpt>
      <trkpt lat="49.77043" lon="5.58537">
        <ele>475.91</ele>
        <time>2020-11-04T09:28:58.532Z</time>
      </trkpt>
      <trkpt lat="49.77052" lon="5.58551">
        <ele>475.92</ele>
        <time>2020-11-04T09:29:02.545Z</time>
      </trkpt>
      <trkpt lat="49.77059" lon="5.58561">
        <ele>475.52</ele>
        <time>2020-11-04T09:29:05.512Z</time>
      </trkpt>
      <trkpt lat="49.7707" lon="5.5857">
        <ele>475.24</ele>
        <time>2020-11-04T09:29:09.527Z</time>
      </trkpt>
      <trkpt lat="49.77079" lon="5.58579">
        <ele>475.62</ele>
        <time>2020-11-04T09:29:13.516Z</time>
      </trkpt>
      <trkpt lat="49.77088" lon="5.58587">
        <ele>476.13</ele>
        <time>2020-11-04T09:29:17.531Z</time>
      </trkpt>
      <trkpt lat="49.77102" lon="5.58586">
        <ele>473.98</ele>
        <time>2020-11-04T09:29:23.531Z</time>
      </trkpt>
      <trkpt lat="49.77097" lon="5.58571">
        <ele>469.04</ele>
        <time>2020-11-04T09:29:27.000Z</time>
      </trkpt>
      <trkpt lat="49.77096" lon="5.58575">
        <ele>464.98</ele>
        <time>2020-11-04T09:29:32.000Z</time>
      </trkpt>
      <trkpt lat="49.77097" lon="5.58576">
        <ele>462.26</ele>
        <time>2020-11-04T09:29:37.000Z</time>
      </trkpt>
      <trkpt lat="49.77098" lon="5.58577">
        <ele>461.01</ele>
        <time>2020-11-04T09:29:42.000Z</time>
      </trkpt>
      <trkpt lat="49.77098" lon="5.58577">
        <ele>460.36</ele>
        <time>2020-11-04T09:29:47.000Z</time>
      </trkpt>
      <trkpt lat="49.77098" lon="5.58577">
        <ele>460.22</ele>
        <time>2020-11-04T09:29:52.000Z</time>
      </trkpt>
      <trkpt lat="49.77099" lon="5.58579">
        <ele>459.93</ele>
        <time>2020-11-04T09:29:57.000Z</time>
      </trkpt>
      <trkpt lat="49.77099" lon="5.58579">
        <ele>459.71</ele>
        <time>2020-11-04T09:30:02.000Z</time>
      </trkpt>
      <trkpt lat="49.771" lon="5.58578">
        <ele>460.07</ele>
        <time>2020-11-04T09:30:07.000Z</time>
      </trkpt>
      <trkpt lat="49.77101" lon="5.58578">
        <ele>460.83</ele>
        <time>2020-11-04T09:30:12.000Z</time>
      </trkpt>
      <trkpt lat="49.77102" lon="5.58578">
        <ele>461.24</ele>
        <time>2020-11-04T09:30:17.000Z</time>
      </trkpt>
      <trkpt lat="49.77102" lon="5.58578">
        <ele>461.47</ele>
        <time>2020-11-04T09:30:22.000Z</time>
      </trkpt>
      <trkpt lat="49.77102" lon="5.58579">
        <ele>461.64</ele>
        <time>2020-11-04T09:30:27.000Z</time>
      </trkpt>
      <trkpt lat="49.77103" lon="5.5858">
        <ele>461.67</ele>
        <time>2020-11-04T09:30:32.000Z</time>
      </trkpt>
      <trkpt lat="49.77103" lon="5.5858">
        <ele>461.56</ele>
        <time>2020-11-04T09:30:37.000Z</time>
      </trkpt>
      <trkpt lat="49.77103" lon="5.58579">
        <ele>461.42</ele>
        <time>2020-11-04T09:30:42.000Z</time>
      </trkpt>
      <trkpt lat="49.77103" lon="5.58579">
        <ele>461.29</ele>
        <time>2020-11-04T09:30:47.000Z</time>
      </trkpt>
      <trkpt lat="49.77103" lon="5.58579">
        <ele>461.23</ele>
        <time>2020-11-04T09:30:52.000Z</time>
      </trkpt>
      <trkpt lat="49.77104" lon="5.58579">
        <ele>461.22</ele>
        <time>2020-11-04T09:30:57.000Z</time>
      </trkpt>
      <trkpt lat="49.77104" lon="5.5858">
        <ele>461.28</ele>
        <time>2020-11-04T09:31:02.000Z</time>
      </trkpt>
      <trkpt lat="49.77104" lon="5.58579">
        <ele>461.28</ele>
        <time>2020-11-04T09:31:07.000Z</time>
      </trkpt>
      <trkpt lat="49.77105" lon="5.58579">
        <ele>461.21</ele>
        <time>2020-11-04T09:31:12.000Z</time>
      </trkpt>
      <trkpt lat="49.77105" lon="5.5858">
        <ele>461.08</ele>
        <time>2020-11-04T09:31:17.000Z</time>
      </trkpt>
      <trkpt lat="49.77105" lon="5.5858">
        <ele>461.02</ele>
        <time>2020-11-04T09:31:22.000Z</time>
      </trkpt>
      <trkpt lat="49.77105" lon="5.5858">
        <ele>460.98</ele>
        <time>2020-11-04T09:31:27.000Z</time>
      </trkpt>
      <trkpt lat="49.77106" lon="5.5858">
        <ele>461.58</ele>
        <time>2020-11-04T09:31:32.000Z</time>
      </trkpt>
      <trkpt lat="49.77106" lon="5.5858">
        <ele>462.2</ele>
        <time>2020-11-04T09:31:37.000Z</time>
      </trkpt>
      <trkpt lat="49.77105" lon="5.58581">
        <ele>462.54</ele>
        <time>2020-11-04T09:31:42.000Z</time>
      </trkpt>
      <trkpt lat="49.77105" lon="5.58581">
        <ele>462.72</ele>
        <time>2020-11-04T09:31:47.000Z</time>
      </trkpt>
      <trkpt lat="49.77106" lon="5.58582">
        <ele>462.45</ele>
        <time>2020-11-04T09:31:52.000Z</time>
      </trkpt>
      <trkpt lat="49.77106" lon="5.58582">
        <ele>462.02</ele>
        <time>2020-11-04T09:31:57.000Z</time>
      </trkpt>
      <trkpt lat="49.77106" lon="5.58582">
        <ele>461.8</ele>
        <time>2020-11-04T09:32:02.000Z</time>
      </trkpt>
      <trkpt lat="49.77106" lon="5.58582">
        <ele>461.69</ele>
        <time>2020-11-04T09:32:07.000Z</time>
      </trkpt>
      <trkpt lat="49.77106" lon="5.58582">
        <ele>461.63</ele>
        <time>2020-11-04T09:32:12.000Z</time>
      </trkpt>
      <trkpt lat="49.77105" lon="5.58584">
        <ele>462</ele>
        <time>2020-11-04T09:32:17.000Z</time>
      </trkpt>
      <trkpt lat="49.77104" lon="5.58581">
        <ele>461.37</ele>
        <time>2020-11-04T09:32:21.464Z</time>
      </trkpt>
      <trkpt lat="49.77103" lon="5.58578">
        <ele>459.88</ele>
        <time>2020-11-04T09:32:26.000Z</time>
      </trkpt>
      <trkpt lat="49.77103" lon="5.58577">
        <ele>458.98</ele>
        <time>2020-11-04T09:32:31.000Z</time>
      </trkpt>
      <trkpt lat="49.77103" lon="5.58577">
        <ele>458.47</ele>
        <time>2020-11-04T09:32:36.000Z</time>
      </trkpt>
      <trkpt lat="49.77103" lon="5.58577">
        <ele>458.02</ele>
        <time>2020-11-04T09:32:41.000Z</time>
      </trkpt>
      <trkpt lat="49.77102" lon="5.58578">
        <ele>457.67</ele>
        <time>2020-11-04T09:32:46.000Z</time>
      </trkpt>
      <trkpt lat="49.77102" lon="5.58578">
        <ele>457.46</ele>
        <time>2020-11-04T09:32:51.000Z</time>
      </trkpt>
      <trkpt lat="49.77102" lon="5.58578">
        <ele>457.44</ele>
        <time>2020-11-04T09:32:56.000Z</time>
      </trkpt>
      <trkpt lat="49.77102" lon="5.58579">
        <ele>457.66</ele>
        <time>2020-11-04T09:33:01.000Z</time>
      </trkpt>
      <trkpt lat="49.77102" lon="5.58579">
        <ele>457.82</ele>
        <time>2020-11-04T09:33:06.000Z</time>
      </trkpt>
      <trkpt lat="49.77101" lon="5.58579">
        <ele>457.92</ele>
        <time>2020-11-04T09:33:11.000Z</time>
      </trkpt>
      <trkpt lat="49.77101" lon="5.58591">
        <ele>460.63</ele>
        <time>2020-11-04T09:33:16.000Z</time>
      </trkpt>
      <trkpt lat="49.77106" lon="5.586">
        <ele>462.14</ele>
        <time>2020-11-04T09:33:20.009Z</time>
      </trkpt>
      <trkpt lat="49.77107" lon="5.58611">
        <ele>463.96</ele>
        <time>2020-11-04T09:33:25.000Z</time>
      </trkpt>
      <trkpt lat="49.77114" lon="5.58624">
        <ele>464.87</ele>
        <time>2020-11-04T09:33:29.500Z</time>
      </trkpt>
      <trkpt lat="49.7712" lon="5.58638">
        <ele>465.75</ele>
        <time>2020-11-04T09:33:33.498Z</time>
      </trkpt>
      <trkpt lat="49.77123" lon="5.5865">
        <ele>466.74</ele>
        <time>2020-11-04T09:33:37.517Z</time>
      </trkpt>
      <trkpt lat="49.77126" lon="5.58666">
        <ele>467.84</ele>
        <time>2020-11-04T09:33:42.506Z</time>
      </trkpt>
      <trkpt lat="49.77132" lon="5.58681">
        <ele>468.82</ele>
        <time>2020-11-04T09:33:46.510Z</time>
      </trkpt>
      <trkpt lat="49.77139" lon="5.58692">
        <ele>469.34</ele>
        <time>2020-11-04T09:33:50.513Z</time>
      </trkpt>
      <trkpt lat="49.77147" lon="5.58703">
        <ele>469.82</ele>
        <time>2020-11-04T09:33:55.134Z</time>
      </trkpt>
      <trkpt lat="49.77156" lon="5.58715">
        <ele>470.35</ele>
        <time>2020-11-04T09:33:59.000Z</time>
      </trkpt>
      <trkpt lat="49.77162" lon="5.58725">
        <ele>471.56</ele>
        <time>2020-11-04T09:34:01.968Z</time>
      </trkpt>
      <trkpt lat="49.77172" lon="5.58735">
        <ele>474.14</ele>
        <time>2020-11-04T09:34:06.098Z</time>
      </trkpt>
      <trkpt lat="49.77179" lon="5.58747">
        <ele>475.71</ele>
        <time>2020-11-04T09:34:10.036Z</time>
      </trkpt>
      <trkpt lat="49.77186" lon="5.58762">
        <ele>477.92</ele>
        <time>2020-11-04T09:34:15.333Z</time>
      </trkpt>
      <trkpt lat="49.77194" lon="5.58776">
        <ele>478.17</ele>
        <time>2020-11-04T09:34:19.172Z</time>
      </trkpt>
      <trkpt lat="49.77201" lon="5.58789">
        <ele>478.42</ele>
        <time>2020-11-04T09:34:23.056Z</time>
      </trkpt>
      <trkpt lat="49.77206" lon="5.58802">
        <ele>478.98</ele>
        <time>2020-11-04T09:34:26.951Z</time>
      </trkpt>
      <trkpt lat="49.77212" lon="5.58814">
        <ele>479.4</ele>
        <time>2020-11-04T09:34:30.000Z</time>
      </trkpt>
      <trkpt lat="49.77218" lon="5.58825">
        <ele>478.94</ele>
        <time>2020-11-04T09:34:32.792Z</time>
      </trkpt>
      <trkpt lat="49.77224" lon="5.58839">
        <ele>478.63</ele>
        <time>2020-11-04T09:34:35.796Z</time>
      </trkpt>
      <trkpt lat="49.7723" lon="5.58852">
        <ele>478.29</ele>
        <time>2020-11-04T09:34:38.727Z</time>
      </trkpt>
      <trkpt lat="49.77235" lon="5.58869">
        <ele>478.66</ele>
        <time>2020-11-04T09:34:42.076Z</time>
      </trkpt>
      <trkpt lat="49.77241" lon="5.58881">
        <ele>481.1</ele>
        <time>2020-11-04T09:34:45.069Z</time>
      </trkpt>
      <trkpt lat="49.77253" lon="5.58896">
        <ele>482.26</ele>
        <time>2020-11-04T09:34:48.129Z</time>
      </trkpt>
      <trkpt lat="49.77263" lon="5.58907">
        <ele>482.6</ele>
        <time>2020-11-04T09:34:50.691Z</time>
      </trkpt>
      <trkpt lat="49.77274" lon="5.58916">
        <ele>482.9</ele>
        <time>2020-11-04T09:34:52.875Z</time>
      </trkpt>
      <trkpt lat="49.77282" lon="5.58924">
        <ele>482.78</ele>
        <time>2020-11-04T09:34:55.971Z</time>
      </trkpt>
      <trkpt lat="49.77291" lon="5.58935">
        <ele>482.23</ele>
        <time>2020-11-04T09:35:00.190Z</time>
      </trkpt>
      <trkpt lat="49.77299" lon="5.58943">
        <ele>481.67</ele>
        <time>2020-11-04T09:35:03.513Z</time>
      </trkpt>
      <trkpt lat="49.77307" lon="5.58951">
        <ele>481.26</ele>
        <time>2020-11-04T09:35:05.540Z</time>
      </trkpt>
      <trkpt lat="49.77343" lon="5.58976">
        <ele>479.78</ele>
        <time>2020-11-04T09:35:07.000Z</time>
      </trkpt>
      <trkpt lat="49.77352" lon="5.58983">
        <ele>478.79</ele>
        <time>2020-11-04T09:35:08.000Z</time>
      </trkpt>
      <trkpt lat="49.77364" lon="5.58996">
        <ele>476.68</ele>
        <time>2020-11-04T09:35:10.000Z</time>
      </trkpt>
      <trkpt lat="49.77376" lon="5.58998">
        <ele>472.94</ele>
        <time>2020-11-04T09:35:14.519Z</time>
      </trkpt>
      <trkpt lat="49.77385" lon="5.58994">
        <ele>471.5</ele>
        <time>2020-11-04T09:35:18.527Z</time>
      </trkpt>
      <trkpt lat="49.77386" lon="5.58996">
        <ele>469.36</ele>
        <time>2020-11-04T09:35:23.000Z</time>
      </trkpt>
      <trkpt lat="49.77387" lon="5.58996">
        <ele>468.25</ele>
        <time>2020-11-04T09:35:27.383Z</time>
      </trkpt>
      <trkpt lat="49.77393" lon="5.5899">
        <ele>467.19</ele>
        <time>2020-11-04T09:35:31.958Z</time>
      </trkpt>
      <trkpt lat="49.77402" lon="5.58982">
        <ele>464.46</ele>
        <time>2020-11-04T09:35:36.497Z</time>
      </trkpt>
      <trkpt lat="49.77412" lon="5.58974">
        <ele>463.16</ele>
        <time>2020-11-04T09:35:39.513Z</time>
      </trkpt>
      <trkpt lat="49.7742" lon="5.58963">
        <ele>462.2</ele>
        <time>2020-11-04T09:35:41.525Z</time>
      </trkpt>
      <trkpt lat="49.77428" lon="5.58947">
        <ele>461.55</ele>
        <time>2020-11-04T09:35:43.000Z</time>
      </trkpt>
      <trkpt lat="49.77436" lon="5.58935">
        <ele>460.79</ele>
        <time>2020-11-04T09:35:45.000Z</time>
      </trkpt>
      <trkpt lat="49.77446" lon="5.58919">
        <ele>459.95</ele>
        <time>2020-11-04T09:35:47.000Z</time>
      </trkpt>
      <trkpt lat="49.77453" lon="5.58907">
        <ele>459.27</ele>
        <time>2020-11-04T09:35:49.000Z</time>
      </trkpt>
      <trkpt lat="49.7746" lon="5.58892">
        <ele>458.95</ele>
        <time>2020-11-04T09:35:51.000Z</time>
      </trkpt>
      <trkpt lat="49.77465" lon="5.58882">
        <ele>459.13</ele>
        <time>2020-11-04T09:35:55.514Z</time>
      </trkpt>
      <trkpt lat="49.77469" lon="5.58865">
        <ele>459.58</ele>
        <time>2020-11-04T09:35:57.637Z</time>
      </trkpt>
      <trkpt lat="49.77471" lon="5.58851">
        <ele>459.82</ele>
        <time>2020-11-04T09:35:59.506Z</time>
      </trkpt>
      <trkpt lat="49.77475" lon="5.58831">
        <ele>460.32</ele>
        <time>2020-11-04T09:36:02.515Z</time>
      </trkpt>
      <trkpt lat="49.77476" lon="5.58815">
        <ele>460.63</ele>
        <time>2020-11-04T09:36:05.508Z</time>
      </trkpt>
      <trkpt lat="49.7748" lon="5.58797">
        <ele>461.14</ele>
        <time>2020-11-04T09:36:08.506Z</time>
      </trkpt>
      <trkpt lat="49.77484" lon="5.58781">
        <ele>460.89</ele>
        <time>2020-11-04T09:36:11.509Z</time>
      </trkpt>
      <trkpt lat="49.77485" lon="5.58769">
        <ele>461.69</ele>
        <time>2020-11-04T09:36:16.152Z</time>
      </trkpt>
      <trkpt lat="49.77486" lon="5.58752">
        <ele>460.68</ele>
        <time>2020-11-04T09:36:20.991Z</time>
      </trkpt>
      <trkpt lat="49.77487" lon="5.58741">
        <ele>459.75</ele>
        <time>2020-11-04T09:36:25.030Z</time>
      </trkpt>
      <trkpt lat="49.77489" lon="5.58733">
        <ele>458.19</ele>
        <time>2020-11-04T09:36:29.511Z</time>
      </trkpt>
      <trkpt lat="49.77489" lon="5.58717">
        <ele>457.82</ele>
        <time>2020-11-04T09:36:32.854Z</time>
      </trkpt>
      <trkpt lat="49.77494" lon="5.587">
        <ele>458.99</ele>
        <time>2020-11-04T09:36:36.518Z</time>
      </trkpt>
      <trkpt lat="49.775" lon="5.58686">
        <ele>460.83</ele>
        <time>2020-11-04T09:36:40.517Z</time>
      </trkpt>
      <trkpt lat="49.77502" lon="5.58678">
        <ele>462.56</ele>
        <time>2020-11-04T09:36:45.484Z</time>
      </trkpt>
      <trkpt lat="49.77505" lon="5.58665">
        <ele>463.63</ele>
        <time>2020-11-04T09:36:49.547Z</time>
      </trkpt>
      <trkpt lat="49.77505" lon="5.58649">
        <ele>464.21</ele>
        <time>2020-11-04T09:36:54.000Z</time>
      </trkpt>
      <trkpt lat="49.77506" lon="5.58636">
        <ele>465.07</ele>
        <time>2020-11-04T09:36:58.504Z</time>
      </trkpt>
      <trkpt lat="49.77508" lon="5.58626">
        <ele>465.46</ele>
        <time>2020-11-04T09:37:02.520Z</time>
      </trkpt>
      <trkpt lat="49.77511" lon="5.58609">
        <ele>465.02</ele>
        <time>2020-11-04T09:37:07.532Z</time>
      </trkpt>
      <trkpt lat="49.77517" lon="5.58594">
        <ele>463.9</ele>
        <time>2020-11-04T09:37:12.498Z</time>
      </trkpt>
      <trkpt lat="49.77519" lon="5.58578">
        <ele>462.71</ele>
        <time>2020-11-04T09:37:16.057Z</time>
      </trkpt>
      <trkpt lat="49.77519" lon="5.58564">
        <ele>462</ele>
        <time>2020-11-04T09:37:20.355Z</time>
      </trkpt>
      <trkpt lat="49.77521" lon="5.58547">
        <ele>461.88</ele>
        <time>2020-11-04T09:37:24.137Z</time>
      </trkpt>
      <trkpt lat="49.77521" lon="5.58531">
        <ele>461.96</ele>
        <time>2020-11-04T09:37:28.495Z</time>
      </trkpt>
      <trkpt lat="49.77522" lon="5.58521">
        <ele>461.86</ele>
        <time>2020-11-04T09:37:32.521Z</time>
      </trkpt>
      <trkpt lat="49.77522" lon="5.58506">
        <ele>461.51</ele>
        <time>2020-11-04T09:37:37.577Z</time>
      </trkpt>
      <trkpt lat="49.7753" lon="5.58497">
        <ele>461.03</ele>
        <time>2020-11-04T09:37:42.514Z</time>
      </trkpt>
      <trkpt lat="49.77536" lon="5.5849">
        <ele>461.31</ele>
        <time>2020-11-04T09:37:46.968Z</time>
      </trkpt>
      <trkpt lat="49.77541" lon="5.58479">
        <ele>463.52</ele>
        <time>2020-11-04T09:37:50.829Z</time>
      </trkpt>
      <trkpt lat="49.77546" lon="5.58465">
        <ele>464.93</ele>
        <time>2020-11-04T09:37:54.285Z</time>
      </trkpt>
      <trkpt lat="49.77548" lon="5.58454">
        <ele>466.67</ele>
        <time>2020-11-04T09:37:58.496Z</time>
      </trkpt>
      <trkpt lat="49.77544" lon="5.58441">
        <ele>468.22</ele>
        <time>2020-11-04T09:38:03.532Z</time>
      </trkpt>
      <trkpt lat="49.7754" lon="5.58426">
        <ele>468.4</ele>
        <time>2020-11-04T09:38:08.502Z</time>
      </trkpt>
      <trkpt lat="49.77532" lon="5.58413">
        <ele>467.72</ele>
        <time>2020-11-04T09:38:12.505Z</time>
      </trkpt>
      <trkpt lat="49.7753" lon="5.58406">
        <ele>467</ele>
        <time>2020-11-04T09:38:16.513Z</time>
      </trkpt>
      <trkpt lat="49.77527" lon="5.58397">
        <ele>467.82</ele>
        <time>2020-11-04T09:38:21.519Z</time>
      </trkpt>
      <trkpt lat="49.77526" lon="5.58385">
        <ele>468.28</ele>
        <time>2020-11-04T09:38:26.536Z</time>
      </trkpt>
      <trkpt lat="49.77527" lon="5.5837">
        <ele>467.8</ele>
        <time>2020-11-04T09:38:29.506Z</time>
      </trkpt>
      <trkpt lat="49.7752" lon="5.58361">
        <ele>468.14</ele>
        <time>2020-11-04T09:38:33.511Z</time>
      </trkpt>
      <trkpt lat="49.77513" lon="5.58366">
        <ele>469.33</ele>
        <time>2020-11-04T09:38:37.514Z</time>
      </trkpt>
      <trkpt lat="49.77504" lon="5.58369">
        <ele>470.94</ele>
        <time>2020-11-04T09:38:42.515Z</time>
      </trkpt>
      <trkpt lat="49.77498" lon="5.58362">
        <ele>472.2</ele>
        <time>2020-11-04T09:38:46.517Z</time>
      </trkpt>
      <trkpt lat="49.77493" lon="5.58354">
        <ele>472.96</ele>
        <time>2020-11-04T09:38:50.520Z</time>
      </trkpt>
      <trkpt lat="49.77488" lon="5.58342">
        <ele>474.61</ele>
        <time>2020-11-04T09:38:55.314Z</time>
      </trkpt>
      <trkpt lat="49.77484" lon="5.58331">
        <ele>474.99</ele>
        <time>2020-11-04T09:38:59.500Z</time>
      </trkpt>
      <trkpt lat="49.77479" lon="5.58321">
        <ele>475.64</ele>
        <time>2020-11-04T09:39:04.495Z</time>
      </trkpt>
      <trkpt lat="49.7747" lon="5.58312">
        <ele>477.09</ele>
        <time>2020-11-04T09:39:08.498Z</time>
      </trkpt>
      <trkpt lat="49.77464" lon="5.58302">
        <ele>477.38</ele>
        <time>2020-11-04T09:39:12.502Z</time>
      </trkpt>
      <trkpt lat="49.77458" lon="5.58289">
        <ele>477.52</ele>
        <time>2020-11-04T09:39:15.494Z</time>
      </trkpt>
      <trkpt lat="49.77457" lon="5.58275">
        <ele>477.6</ele>
        <time>2020-11-04T09:39:19.516Z</time>
      </trkpt>
      <trkpt lat="49.77457" lon="5.58261">
        <ele>477.18</ele>
        <time>2020-11-04T09:39:22.514Z</time>
      </trkpt>
      <trkpt lat="49.77454" lon="5.58245">
        <ele>476.57</ele>
        <time>2020-11-04T09:39:26.511Z</time>
      </trkpt>
      <trkpt lat="49.77447" lon="5.58233">
        <ele>475.45</ele>
        <time>2020-11-04T09:39:30.526Z</time>
      </trkpt>
      <trkpt lat="49.77443" lon="5.58226">
        <ele>473.57</ele>
        <time>2020-11-04T09:39:35.513Z</time>
      </trkpt>
      <trkpt lat="49.77441" lon="5.58217">
        <ele>471.08</ele>
        <time>2020-11-04T09:39:39.518Z</time>
      </trkpt>
      <trkpt lat="49.77442" lon="5.58202">
        <ele>468.48</ele>
        <time>2020-11-04T09:39:43.520Z</time>
      </trkpt>
      <trkpt lat="49.7744" lon="5.58183">
        <ele>466.71</ele>
        <time>2020-11-04T09:39:46.520Z</time>
      </trkpt>
      <trkpt lat="49.77437" lon="5.58162">
        <ele>465.75</ele>
        <time>2020-11-04T09:39:48.524Z</time>
      </trkpt>
      <trkpt lat="49.77435" lon="5.58143">
        <ele>464.78</ele>
        <time>2020-11-04T09:39:50.531Z</time>
      </trkpt>
      <trkpt lat="49.7743" lon="5.58131">
        <ele>462.26</ele>
        <time>2020-11-04T09:39:54.290Z</time>
      </trkpt>
      <trkpt lat="49.77422" lon="5.58134">
        <ele>457.84</ele>
        <time>2020-11-04T09:39:59.264Z</time>
      </trkpt>
      <trkpt lat="49.77416" lon="5.58124">
        <ele>452.7</ele>
        <time>2020-11-04T09:40:03.786Z</time>
      </trkpt>
      <trkpt lat="49.77415" lon="5.58106">
        <ele>447.8</ele>
        <time>2020-11-04T09:40:06.208Z</time>
      </trkpt>
      <trkpt lat="49.77411" lon="5.58086">
        <ele>448.38</ele>
        <time>2020-11-04T09:40:07.749Z</time>
      </trkpt>
      <trkpt lat="49.77403" lon="5.58057">
        <ele>451.08</ele>
        <time>2020-11-04T09:40:09.000Z</time>
      </trkpt>
      <trkpt lat="49.77396" lon="5.58035">
        <ele>453.17</ele>
        <time>2020-11-04T09:40:10.482Z</time>
      </trkpt>
      <trkpt lat="49.7739" lon="5.58017">
        <ele>454.06</ele>
        <time>2020-11-04T09:40:11.495Z</time>
      </trkpt>
      <trkpt lat="49.77386" lon="5.58003">
        <ele>454.88</ele>
        <time>2020-11-04T09:40:12.493Z</time>
      </trkpt>
      <trkpt lat="49.77381" lon="5.57981">
        <ele>456.45</ele>
        <time>2020-11-04T09:40:14.549Z</time>
      </trkpt>
      <trkpt lat="49.77379" lon="5.57965">
        <ele>457.83</ele>
        <time>2020-11-04T09:40:16.533Z</time>
      </trkpt>
      <trkpt lat="49.77371" lon="5.57955">
        <ele>459.4</ele>
        <time>2020-11-04T09:40:19.485Z</time>
      </trkpt>
      <trkpt lat="49.77365" lon="5.5794">
        <ele>460.33</ele>
        <time>2020-11-04T09:40:22.536Z</time>
      </trkpt>
      <trkpt lat="49.77356" lon="5.57928">
        <ele>460.58</ele>
        <time>2020-11-04T09:40:24.489Z</time>
      </trkpt>
      <trkpt lat="49.77338" lon="5.57915">
        <ele>460.95</ele>
        <time>2020-11-04T09:40:27.000Z</time>
      </trkpt>
      <trkpt lat="49.7733" lon="5.57901">
        <ele>461.33</ele>
        <time>2020-11-04T09:40:29.000Z</time>
      </trkpt>
      <trkpt lat="49.77323" lon="5.57885">
        <ele>461.63</ele>
        <time>2020-11-04T09:40:31.000Z</time>
      </trkpt>
      <trkpt lat="49.77313" lon="5.57872">
        <ele>461.61</ele>
        <time>2020-11-04T09:40:33.000Z</time>
      </trkpt>
      <trkpt lat="49.77303" lon="5.57859">
        <ele>461.58</ele>
        <time>2020-11-04T09:40:35.000Z</time>
      </trkpt>
      <trkpt lat="49.77294" lon="5.57846">
        <ele>461.58</ele>
        <time>2020-11-04T09:40:37.000Z</time>
      </trkpt>
      <trkpt lat="49.77287" lon="5.57834">
        <ele>461.41</ele>
        <time>2020-11-04T09:40:39.000Z</time>
      </trkpt>
      <trkpt lat="49.7728" lon="5.5782">
        <ele>460.83</ele>
        <time>2020-11-04T09:40:41.000Z</time>
      </trkpt>
      <trkpt lat="49.7727" lon="5.57811">
        <ele>460.22</ele>
        <time>2020-11-04T09:40:43.000Z</time>
      </trkpt>
      <trkpt lat="49.77261" lon="5.57799">
        <ele>459.82</ele>
        <time>2020-11-04T09:40:46.000Z</time>
      </trkpt>
      <trkpt lat="49.77254" lon="5.5778">
        <ele>458.63</ele>
        <time>2020-11-04T09:40:49.000Z</time>
      </trkpt>
      <trkpt lat="49.77248" lon="5.57759">
        <ele>457.47</ele>
        <time>2020-11-04T09:40:51.000Z</time>
      </trkpt>
      <trkpt lat="49.77243" lon="5.57741">
        <ele>456.14</ele>
        <time>2020-11-04T09:40:53.000Z</time>
      </trkpt>
      <trkpt lat="49.77237" lon="5.57726">
        <ele>454.9</ele>
        <time>2020-11-04T09:40:55.000Z</time>
      </trkpt>
      <trkpt lat="49.7723" lon="5.57713">
        <ele>453.65</ele>
        <time>2020-11-04T09:40:57.000Z</time>
      </trkpt>
      <trkpt lat="49.77217" lon="5.57702">
        <ele>452.32</ele>
        <time>2020-11-04T09:40:59.000Z</time>
      </trkpt>
      <trkpt lat="49.77207" lon="5.57694">
        <ele>451.04</ele>
        <time>2020-11-04T09:41:01.000Z</time>
      </trkpt>
      <trkpt lat="49.77199" lon="5.57682">
        <ele>450.12</ele>
        <time>2020-11-04T09:41:03.000Z</time>
      </trkpt>
      <trkpt lat="49.77193" lon="5.57669">
        <ele>449.36</ele>
        <time>2020-11-04T09:41:05.000Z</time>
      </trkpt>
      <trkpt lat="49.77191" lon="5.5765">
        <ele>448.19</ele>
        <time>2020-11-04T09:41:08.521Z</time>
      </trkpt>
      <trkpt lat="49.77185" lon="5.5764">
        <ele>447.35</ele>
        <time>2020-11-04T09:41:10.354Z</time>
      </trkpt>
      <trkpt lat="49.77175" lon="5.57629">
        <ele>446.13</ele>
        <time>2020-11-04T09:41:13.000Z</time>
      </trkpt>
      <trkpt lat="49.77167" lon="5.5762">
        <ele>444.92</ele>
        <time>2020-11-04T09:41:17.000Z</time>
      </trkpt>
      <trkpt lat="49.77165" lon="5.57611">
        <ele>444.38</ele>
        <time>2020-11-04T09:41:22.028Z</time>
      </trkpt>
      <trkpt lat="49.77164" lon="5.57604">
        <ele>443.87</ele>
        <time>2020-11-04T09:41:27.000Z</time>
      </trkpt>
      <trkpt lat="49.77165" lon="5.57605">
        <ele>442.96</ele>
        <time>2020-11-04T09:41:32.000Z</time>
      </trkpt>
      <trkpt lat="49.77164" lon="5.57606">
        <ele>442</ele>
        <time>2020-11-04T09:41:37.000Z</time>
      </trkpt>
      <trkpt lat="49.77164" lon="5.57607">
        <ele>441.2</ele>
        <time>2020-11-04T09:41:42.000Z</time>
      </trkpt>
      <trkpt lat="49.77164" lon="5.57605">
        <ele>440.52</ele>
        <time>2020-11-04T09:41:47.000Z</time>
      </trkpt>
      <trkpt lat="49.77164" lon="5.57603">
        <ele>440.05</ele>
        <time>2020-11-04T09:41:52.000Z</time>
      </trkpt>
      <trkpt lat="49.77164" lon="5.57603">
        <ele>440.61</ele>
        <time>2020-11-04T09:41:57.000Z</time>
      </trkpt>
      <trkpt lat="49.77164" lon="5.57602">
        <ele>442.05</ele>
        <time>2020-11-04T09:42:02.000Z</time>
      </trkpt>
      <trkpt lat="49.77164" lon="5.57604">
        <ele>443.68</ele>
        <time>2020-11-04T09:42:07.000Z</time>
      </trkpt>
      <trkpt lat="49.77164" lon="5.57606">
        <ele>445.13</ele>
        <time>2020-11-04T09:42:12.000Z</time>
      </trkpt>
      <trkpt lat="49.77164" lon="5.57606">
        <ele>445.88</ele>
        <time>2020-11-04T09:42:17.000Z</time>
      </trkpt>
      <trkpt lat="49.77164" lon="5.57606">
        <ele>446.33</ele>
        <time>2020-11-04T09:42:22.000Z</time>
      </trkpt>
      <trkpt lat="49.77162" lon="5.57606">
        <ele>445.8</ele>
        <time>2020-11-04T09:42:27.000Z</time>
      </trkpt>
      <trkpt lat="49.77158" lon="5.57608">
        <ele>443.83</ele>
        <time>2020-11-04T09:42:32.000Z</time>
      </trkpt>
      <trkpt lat="49.77152" lon="5.57623">
        <ele>443.51</ele>
        <time>2020-11-04T09:42:36.525Z</time>
      </trkpt>
      <trkpt lat="49.77145" lon="5.57639">
        <ele>443.27</ele>
        <time>2020-11-04T09:42:39.511Z</time>
      </trkpt>
      <trkpt lat="49.77134" lon="5.57648">
        <ele>443.47</ele>
        <time>2020-11-04T09:42:42.538Z</time>
      </trkpt>
      <trkpt lat="49.77124" lon="5.57658">
        <ele>444.2</ele>
        <time>2020-11-04T09:42:46.514Z</time>
      </trkpt>
      <trkpt lat="49.77112" lon="5.57664">
        <ele>444.85</ele>
        <time>2020-11-04T09:42:50.522Z</time>
      </trkpt>
      <trkpt lat="49.77105" lon="5.57672">
        <ele>445.26</ele>
        <time>2020-11-04T09:42:54.000Z</time>
      </trkpt>
      <trkpt lat="49.77096" lon="5.57681">
        <ele>446.44</ele>
        <time>2020-11-04T09:42:57.000Z</time>
      </trkpt>
      <trkpt lat="49.77083" lon="5.57694">
        <ele>448.13</ele>
        <time>2020-11-04T09:43:01.528Z</time>
      </trkpt>
      <trkpt lat="49.77074" lon="5.57706">
        <ele>449.86</ele>
        <time>2020-11-04T09:43:04.492Z</time>
      </trkpt>
      <trkpt lat="49.77067" lon="5.57717">
        <ele>450.74</ele>
        <time>2020-11-04T09:43:06.487Z</time>
      </trkpt>
      <trkpt lat="49.77063" lon="5.5773">
        <ele>451.41</ele>
        <time>2020-11-04T09:43:08.530Z</time>
      </trkpt>
      <trkpt lat="49.77052" lon="5.57743">
        <ele>451.97</ele>
        <time>2020-11-04T09:43:11.467Z</time>
      </trkpt>
      <trkpt lat="49.77044" lon="5.57752">
        <ele>451.93</ele>
        <time>2020-11-04T09:43:13.512Z</time>
      </trkpt>
      <trkpt lat="49.77034" lon="5.57767">
        <ele>451.53</ele>
        <time>2020-11-04T09:43:16.505Z</time>
      </trkpt>
      <trkpt lat="49.77025" lon="5.57778">
        <ele>451.12</ele>
        <time>2020-11-04T09:43:19.810Z</time>
      </trkpt>
      <trkpt lat="49.77018" lon="5.57787">
        <ele>451.11</ele>
        <time>2020-11-04T09:43:22.070Z</time>
      </trkpt>
      <trkpt lat="49.77006" lon="5.57802">
        <ele>451.95</ele>
        <time>2020-11-04T09:43:25.508Z</time>
      </trkpt>
      <trkpt lat="49.76999" lon="5.57813">
        <ele>452.23</ele>
        <time>2020-11-04T09:43:27.502Z</time>
      </trkpt>
      <trkpt lat="49.76991" lon="5.57822">
        <ele>452.36</ele>
        <time>2020-11-04T09:43:29.506Z</time>
      </trkpt>
      <trkpt lat="49.76981" lon="5.57832">
        <ele>452.32</ele>
        <time>2020-11-04T09:43:32.560Z</time>
      </trkpt>
      <trkpt lat="49.76975" lon="5.57848">
        <ele>452.52</ele>
        <time>2020-11-04T09:43:36.502Z</time>
      </trkpt>
      <trkpt lat="49.76966" lon="5.57856">
        <ele>452.82</ele>
        <time>2020-11-04T09:43:38.000Z</time>
      </trkpt>
      <trkpt lat="49.76959" lon="5.57866">
        <ele>453.17</ele>
        <time>2020-11-04T09:43:40.000Z</time>
      </trkpt>
      <trkpt lat="49.76952" lon="5.57878">
        <ele>453.32</ele>
        <time>2020-11-04T09:43:42.000Z</time>
      </trkpt>
      <trkpt lat="49.76944" lon="5.57888">
        <ele>453.56</ele>
        <time>2020-11-04T09:43:44.000Z</time>
      </trkpt>
      <trkpt lat="49.76935" lon="5.57895">
        <ele>453.78</ele>
        <time>2020-11-04T09:43:46.000Z</time>
      </trkpt>
      <trkpt lat="49.76926" lon="5.57906">
        <ele>453.96</ele>
        <time>2020-11-04T09:43:48.000Z</time>
      </trkpt>
      <trkpt lat="49.7692" lon="5.57918">
        <ele>453.53</ele>
        <time>2020-11-04T09:43:50.000Z</time>
      </trkpt>
      <trkpt lat="49.76912" lon="5.57929">
        <ele>453.04</ele>
        <time>2020-11-04T09:43:52.000Z</time>
      </trkpt>
      <trkpt lat="49.76904" lon="5.57941">
        <ele>452.34</ele>
        <time>2020-11-04T09:43:54.000Z</time>
      </trkpt>
      <trkpt lat="49.76898" lon="5.57953">
        <ele>452.02</ele>
        <time>2020-11-04T09:43:56.000Z</time>
      </trkpt>
      <trkpt lat="49.76887" lon="5.57963">
        <ele>451.85</ele>
        <time>2020-11-04T09:43:59.000Z</time>
      </trkpt>
      <trkpt lat="49.76879" lon="5.57973">
        <ele>451.72</ele>
        <time>2020-11-04T09:44:02.042Z</time>
      </trkpt>
      <trkpt lat="49.7687" lon="5.57984">
        <ele>451.74</ele>
        <time>2020-11-04T09:44:04.500Z</time>
      </trkpt>
      <trkpt lat="49.76865" lon="5.57999">
        <ele>451.97</ele>
        <time>2020-11-04T09:44:06.920Z</time>
      </trkpt>
      <trkpt lat="49.76853" lon="5.58019">
        <ele>452.17</ele>
        <time>2020-11-04T09:44:10.000Z</time>
      </trkpt>
      <trkpt lat="49.76845" lon="5.58025">
        <ele>452.73</ele>
        <time>2020-11-04T09:44:14.000Z</time>
      </trkpt>
      <trkpt lat="49.76844" lon="5.58027">
        <ele>452.68</ele>
        <time>2020-11-04T09:44:19.512Z</time>
      </trkpt>
      <trkpt lat="49.7685" lon="5.58021">
        <ele>449.15</ele>
        <time>2020-11-04T09:44:23.527Z</time>
      </trkpt>
      <trkpt lat="49.76849" lon="5.58003">
        <ele>447.27</ele>
        <time>2020-11-04T09:44:27.528Z</time>
      </trkpt>
      <trkpt lat="49.76846" lon="5.57984">
        <ele>446.04</ele>
        <time>2020-11-04T09:44:31.521Z</time>
      </trkpt>
      <trkpt lat="49.76853" lon="5.5797">
        <ele>445.55</ele>
        <time>2020-11-04T09:44:34.000Z</time>
      </trkpt>
      <trkpt lat="49.76856" lon="5.57952">
        <ele>445.46</ele>
        <time>2020-11-04T09:44:36.000Z</time>
      </trkpt>
      <trkpt lat="49.7686" lon="5.57932">
        <ele>446.14</ele>
        <time>2020-11-04T09:44:38.000Z</time>
      </trkpt>
      <trkpt lat="49.76863" lon="5.5791">
        <ele>446.82</ele>
        <time>2020-11-04T09:44:40.000Z</time>
      </trkpt>
      <trkpt lat="49.76866" lon="5.57887">
        <ele>447.18</ele>
        <time>2020-11-04T09:44:42.000Z</time>
      </trkpt>
      <trkpt lat="49.76866" lon="5.57864">
        <ele>447.28</ele>
        <time>2020-11-04T09:44:44.000Z</time>
      </trkpt>
      <trkpt lat="49.76868" lon="5.5784">
        <ele>447.42</ele>
        <time>2020-11-04T09:44:46.000Z</time>
      </trkpt>
      <trkpt lat="49.76867" lon="5.57818">
        <ele>447.41</ele>
        <time>2020-11-04T09:44:48.000Z</time>
      </trkpt>
      <trkpt lat="49.76864" lon="5.57795">
        <ele>447.2</ele>
        <time>2020-11-04T09:44:50.000Z</time>
      </trkpt>
      <trkpt lat="49.76858" lon="5.57773">
        <ele>446.66</ele>
        <time>2020-11-04T09:44:52.000Z</time>
      </trkpt>
      <trkpt lat="49.7685" lon="5.57753">
        <ele>446.03</ele>
        <time>2020-11-04T09:44:54.000Z</time>
      </trkpt>
      <trkpt lat="49.7684" lon="5.57735">
        <ele>445.27</ele>
        <time>2020-11-04T09:44:56.000Z</time>
      </trkpt>
      <trkpt lat="49.76831" lon="5.5772">
        <ele>444.46</ele>
        <time>2020-11-04T09:44:58.000Z</time>
      </trkpt>
      <trkpt lat="49.76822" lon="5.57706">
        <ele>443.73</ele>
        <time>2020-11-04T09:45:00.000Z</time>
      </trkpt>
      <trkpt lat="49.76813" lon="5.57693">
        <ele>443.14</ele>
        <time>2020-11-04T09:45:02.000Z</time>
      </trkpt>
      <trkpt lat="49.76805" lon="5.57679">
        <ele>442.35</ele>
        <time>2020-11-04T09:45:04.000Z</time>
      </trkpt>
      <trkpt lat="49.76793" lon="5.57666">
        <ele>441.26</ele>
        <time>2020-11-04T09:45:06.000Z</time>
      </trkpt>
      <trkpt lat="49.76783" lon="5.57653">
        <ele>440.23</ele>
        <time>2020-11-04T09:45:08.000Z</time>
      </trkpt>
      <trkpt lat="49.76774" lon="5.57639">
        <ele>439.02</ele>
        <time>2020-11-04T09:45:10.000Z</time>
      </trkpt>
      <trkpt lat="49.76765" lon="5.57625">
        <ele>437.99</ele>
        <time>2020-11-04T09:45:12.000Z</time>
      </trkpt>
      <trkpt lat="49.76755" lon="5.57611">
        <ele>437.27</ele>
        <time>2020-11-04T09:45:14.000Z</time>
      </trkpt>
      <trkpt lat="49.76745" lon="5.57599">
        <ele>436.8</ele>
        <time>2020-11-04T09:45:16.000Z</time>
      </trkpt>
      <trkpt lat="49.76734" lon="5.57587">
        <ele>436.37</ele>
        <time>2020-11-04T09:45:18.000Z</time>
      </trkpt>
      <trkpt lat="49.76724" lon="5.57574">
        <ele>436.07</ele>
        <time>2020-11-04T09:45:20.000Z</time>
      </trkpt>
      <trkpt lat="49.76714" lon="5.57564">
        <ele>435.95</ele>
        <time>2020-11-04T09:45:22.000Z</time>
      </trkpt>
      <trkpt lat="49.76705" lon="5.57556">
        <ele>435.67</ele>
        <time>2020-11-04T09:45:24.000Z</time>
      </trkpt>
      <trkpt lat="49.76695" lon="5.57545">
        <ele>435.61</ele>
        <time>2020-11-04T09:45:26.000Z</time>
      </trkpt>
      <trkpt lat="49.76687" lon="5.57535">
        <ele>435.48</ele>
        <time>2020-11-04T09:45:28.000Z</time>
      </trkpt>
      <trkpt lat="49.76678" lon="5.57526">
        <ele>435.15</ele>
        <time>2020-11-04T09:45:30.000Z</time>
      </trkpt>
      <trkpt lat="49.76673" lon="5.57513">
        <ele>434.86</ele>
        <time>2020-11-04T09:45:32.000Z</time>
      </trkpt>
      <trkpt lat="49.76669" lon="5.57497">
        <ele>434.51</ele>
        <time>2020-11-04T09:45:34.000Z</time>
      </trkpt>
      <trkpt lat="49.76665" lon="5.57481">
        <ele>434.03</ele>
        <time>2020-11-04T09:45:36.000Z</time>
      </trkpt>
      <trkpt lat="49.76662" lon="5.57464">
        <ele>433.56</ele>
        <time>2020-11-04T09:45:38.000Z</time>
      </trkpt>
      <trkpt lat="49.76661" lon="5.57448">
        <ele>432.91</ele>
        <time>2020-11-04T09:45:40.000Z</time>
      </trkpt>
      <trkpt lat="49.7666" lon="5.57431">
        <ele>431.98</ele>
        <time>2020-11-04T09:45:43.000Z</time>
      </trkpt>
      <trkpt lat="49.7666" lon="5.57415">
        <ele>430.73</ele>
        <time>2020-11-04T09:45:46.000Z</time>
      </trkpt>
      <trkpt lat="49.76661" lon="5.57399">
        <ele>429.98</ele>
        <time>2020-11-04T09:45:49.000Z</time>
      </trkpt>
      <trkpt lat="49.7666" lon="5.57383">
        <ele>429.22</ele>
        <time>2020-11-04T09:45:53.000Z</time>
      </trkpt>
      <trkpt lat="49.76661" lon="5.57367">
        <ele>428.95</ele>
        <time>2020-11-04T09:45:57.101Z</time>
      </trkpt>
      <trkpt lat="49.7666" lon="5.57352">
        <ele>428.58</ele>
        <time>2020-11-04T09:46:01.517Z</time>
      </trkpt>
      <trkpt lat="49.76658" lon="5.57338">
        <ele>428.73</ele>
        <time>2020-11-04T09:46:05.519Z</time>
      </trkpt>
      <trkpt lat="49.76654" lon="5.57325">
        <ele>428.66</ele>
        <time>2020-11-04T09:46:08.523Z</time>
      </trkpt>
      <trkpt lat="49.76656" lon="5.57322">
        <ele>428.42</ele>
        <time>2020-11-04T09:46:13.000Z</time>
      </trkpt>
      <trkpt lat="49.76657" lon="5.57326">
        <ele>428.21</ele>
        <time>2020-11-04T09:46:17.612Z</time>
      </trkpt>
      <trkpt lat="49.76658" lon="5.57325">
        <ele>428.15</ele>
        <time>2020-11-04T09:46:22.000Z</time>
      </trkpt>
      <trkpt lat="49.76659" lon="5.57323">
        <ele>428.09</ele>
        <time>2020-11-04T09:46:27.000Z</time>
      </trkpt>
      <trkpt lat="49.76659" lon="5.57323">
        <ele>428.19</ele>
        <time>2020-11-04T09:46:32.000Z</time>
      </trkpt>
      <trkpt lat="49.76659" lon="5.57323">
        <ele>428.27</ele>
        <time>2020-11-04T09:46:37.000Z</time>
      </trkpt>
      <trkpt lat="49.76659" lon="5.57323">
        <ele>428.31</ele>
        <time>2020-11-04T09:46:42.000Z</time>
      </trkpt>
      <trkpt lat="49.76659" lon="5.57323">
        <ele>428.32</ele>
        <time>2020-11-04T09:46:47.000Z</time>
      </trkpt>
      <trkpt lat="49.76659" lon="5.57323">
        <ele>428.33</ele>
        <time>2020-11-04T09:46:52.000Z</time>
      </trkpt>
      <trkpt lat="49.7666" lon="5.57323">
        <ele>427.99</ele>
        <time>2020-11-04T09:46:57.000Z</time>
      </trkpt>
      <trkpt lat="49.76659" lon="5.57323">
        <ele>428.06</ele>
        <time>2020-11-04T09:47:02.000Z</time>
      </trkpt>
      <trkpt lat="49.76659" lon="5.57323">
        <ele>428.29</ele>
        <time>2020-11-04T09:47:07.000Z</time>
      </trkpt>
      <trkpt lat="49.76659" lon="5.57323">
        <ele>428.38</ele>
        <time>2020-11-04T09:47:12.000Z</time>
      </trkpt>
      <trkpt lat="49.76659" lon="5.57323">
        <ele>428.43</ele>
        <time>2020-11-04T09:47:17.000Z</time>
      </trkpt>
      <trkpt lat="49.76659" lon="5.57323">
        <ele>428.45</ele>
        <time>2020-11-04T09:47:22.000Z</time>
      </trkpt>
      <trkpt lat="49.76659" lon="5.57323">
        <ele>428.46</ele>
        <time>2020-11-04T09:47:27.000Z</time>
      </trkpt>
      <trkpt lat="49.76659" lon="5.57324">
        <ele>428.42</ele>
        <time>2020-11-04T09:47:32.000Z</time>
      </trkpt>
      <trkpt lat="49.76659" lon="5.57324">
        <ele>428.51</ele>
        <time>2020-11-04T09:47:37.000Z</time>
      </trkpt>
      <trkpt lat="49.76659" lon="5.57323">
        <ele>428.69</ele>
        <time>2020-11-04T09:47:42.000Z</time>
      </trkpt>
      <trkpt lat="49.7666" lon="5.57324">
        <ele>428.92</ele>
        <time>2020-11-04T09:47:47.000Z</time>
      </trkpt>
      <trkpt lat="49.7666" lon="5.57325">
        <ele>429.57</ele>
        <time>2020-11-04T09:47:52.000Z</time>
      </trkpt>
      <trkpt lat="49.76661" lon="5.57325">
        <ele>430.33</ele>
        <time>2020-11-04T09:47:57.000Z</time>
      </trkpt>
      <trkpt lat="49.76661" lon="5.57325">
        <ele>430.56</ele>
        <time>2020-11-04T09:48:02.000Z</time>
      </trkpt>
      <trkpt lat="49.76661" lon="5.57325">
        <ele>430.7</ele>
        <time>2020-11-04T09:48:07.000Z</time>
      </trkpt>
      <trkpt lat="49.76661" lon="5.57319">
        <ele>430.95</ele>
        <time>2020-11-04T09:48:12.000Z</time>
      </trkpt>
      <trkpt lat="49.76659" lon="5.57307">
        <ele>431.31</ele>
        <time>2020-11-04T09:48:17.000Z</time>
      </trkpt>
      <trkpt lat="49.76659" lon="5.57291">
        <ele>431.48</ele>
        <time>2020-11-04T09:48:21.000Z</time>
      </trkpt>
      <trkpt lat="49.76661" lon="5.57276">
        <ele>431.96</ele>
        <time>2020-11-04T09:48:25.000Z</time>
      </trkpt>
      <trkpt lat="49.76664" lon="5.57259">
        <ele>432.69</ele>
        <time>2020-11-04T09:48:29.000Z</time>
      </trkpt>
      <trkpt lat="49.76665" lon="5.57245">
        <ele>433.45</ele>
        <time>2020-11-04T09:48:32.000Z</time>
      </trkpt>
      <trkpt lat="49.76662" lon="5.57228">
        <ele>433.99</ele>
        <time>2020-11-04T09:48:36.000Z</time>
      </trkpt>
      <trkpt lat="49.7666" lon="5.57213">
        <ele>434.82</ele>
        <time>2020-11-04T09:48:40.000Z</time>
      </trkpt>
      <trkpt lat="49.7666" lon="5.57198">
        <ele>436.8</ele>
        <time>2020-11-04T09:48:44.000Z</time>
      </trkpt>
      <trkpt lat="49.76663" lon="5.57183">
        <ele>438.6</ele>
        <time>2020-11-04T09:48:48.000Z</time>
      </trkpt>
      <trkpt lat="49.76663" lon="5.57167">
        <ele>439.58</ele>
        <time>2020-11-04T09:48:51.000Z</time>
      </trkpt>
      <trkpt lat="49.76658" lon="5.57153">
        <ele>440.54</ele>
        <time>2020-11-04T09:48:54.000Z</time>
      </trkpt>
      <trkpt lat="49.76653" lon="5.57138">
        <ele>441.66</ele>
        <time>2020-11-04T09:48:57.517Z</time>
      </trkpt>
      <trkpt lat="49.76653" lon="5.57124">
        <ele>442.78</ele>
        <time>2020-11-04T09:49:00.523Z</time>
      </trkpt>
      <trkpt lat="49.76648" lon="5.57106">
        <ele>443.9</ele>
        <time>2020-11-04T09:49:04.516Z</time>
      </trkpt>
      <trkpt lat="49.76646" lon="5.57088">
        <ele>444.18</ele>
        <time>2020-11-04T09:49:07.531Z</time>
      </trkpt>
      <trkpt lat="49.76643" lon="5.57073">
        <ele>444.28</ele>
        <time>2020-11-04T09:49:11.366Z</time>
      </trkpt>
      <trkpt lat="49.76644" lon="5.57059">
        <ele>443.68</ele>
        <time>2020-11-04T09:49:14.138Z</time>
      </trkpt>
      <trkpt lat="49.76645" lon="5.57045">
        <ele>443.33</ele>
        <time>2020-11-04T09:49:17.299Z</time>
      </trkpt>
      <trkpt lat="49.76645" lon="5.57027">
        <ele>444.25</ele>
        <time>2020-11-04T09:49:21.066Z</time>
      </trkpt>
      <trkpt lat="49.76647" lon="5.57011">
        <ele>444.42</ele>
        <time>2020-11-04T09:49:24.000Z</time>
      </trkpt>
      <trkpt lat="49.76644" lon="5.57007">
        <ele>445.01</ele>
        <time>2020-11-04T09:49:28.382Z</time>
      </trkpt>
      <trkpt lat="49.76641" lon="5.56991">
        <ele>445.97</ele>
        <time>2020-11-04T09:49:33.299Z</time>
      </trkpt>
      <trkpt lat="49.76644" lon="5.56975">
        <ele>446.78</ele>
        <time>2020-11-04T09:49:35.937Z</time>
      </trkpt>
      <trkpt lat="49.76647" lon="5.56958">
        <ele>447.81</ele>
        <time>2020-11-04T09:49:40.000Z</time>
      </trkpt>
      <trkpt lat="49.76648" lon="5.56945">
        <ele>447.91</ele>
        <time>2020-11-04T09:49:43.799Z</time>
      </trkpt>
      <trkpt lat="49.76648" lon="5.56929">
        <ele>449.02</ele>
        <time>2020-11-04T09:49:48.000Z</time>
      </trkpt>
      <trkpt lat="49.76644" lon="5.56915">
        <ele>449.77</ele>
        <time>2020-11-04T09:49:51.422Z</time>
      </trkpt>
      <trkpt lat="49.76639" lon="5.56901">
        <ele>449.8</ele>
        <time>2020-11-04T09:49:55.235Z</time>
      </trkpt>
      <trkpt lat="49.76634" lon="5.56889">
        <ele>448.88</ele>
        <time>2020-11-04T09:49:58.163Z</time>
      </trkpt>
      <trkpt lat="49.76631" lon="5.56876">
        <ele>447.15</ele>
        <time>2020-11-04T09:50:01.984Z</time>
      </trkpt>
      <trkpt lat="49.76636" lon="5.56859">
        <ele>444.74</ele>
        <time>2020-11-04T09:50:06.000Z</time>
      </trkpt>
      <trkpt lat="49.76638" lon="5.56846">
        <ele>444.59</ele>
        <time>2020-11-04T09:50:09.000Z</time>
      </trkpt>
      <trkpt lat="49.76636" lon="5.56839">
        <ele>445.38</ele>
        <time>2020-11-04T09:50:13.283Z</time>
      </trkpt>
      <trkpt lat="49.76633" lon="5.56829">
        <ele>449.02</ele>
        <time>2020-11-04T09:50:18.142Z</time>
      </trkpt>
      <trkpt lat="49.76631" lon="5.56815">
        <ele>451.6</ele>
        <time>2020-11-04T09:50:22.880Z</time>
      </trkpt>
      <trkpt lat="49.76632" lon="5.56798">
        <ele>454.22</ele>
        <time>2020-11-04T09:50:27.374Z</time>
      </trkpt>
      <trkpt lat="49.76629" lon="5.56784">
        <ele>455.26</ele>
        <time>2020-11-04T09:50:31.000Z</time>
      </trkpt>
      <trkpt lat="49.76623" lon="5.56773">
        <ele>455.49</ele>
        <time>2020-11-04T09:50:35.000Z</time>
      </trkpt>
      <trkpt lat="49.76622" lon="5.56758">
        <ele>455.47</ele>
        <time>2020-11-04T09:50:39.996Z</time>
      </trkpt>
      <trkpt lat="49.7662" lon="5.56739">
        <ele>455.11</ele>
        <time>2020-11-04T09:50:45.284Z</time>
      </trkpt>
      <trkpt lat="49.76612" lon="5.5673">
        <ele>455.3</ele>
        <time>2020-11-04T09:50:49.885Z</time>
      </trkpt>
      <trkpt lat="49.76604" lon="5.56724">
        <ele>455.77</ele>
        <time>2020-11-04T09:50:54.101Z</time>
      </trkpt>
      <trkpt lat="49.766" lon="5.56716">
        <ele>455.32</ele>
        <time>2020-11-04T09:50:58.121Z</time>
      </trkpt>
      <trkpt lat="49.76597" lon="5.56706">
        <ele>454.62</ele>
        <time>2020-11-04T09:51:02.319Z</time>
      </trkpt>
      <trkpt lat="49.76597" lon="5.56692">
        <ele>454.01</ele>
        <time>2020-11-04T09:51:06.000Z</time>
      </trkpt>
      <trkpt lat="49.766" lon="5.56676">
        <ele>453.85</ele>
        <time>2020-11-04T09:51:10.000Z</time>
      </trkpt>
      <trkpt lat="49.76597" lon="5.5666">
        <ele>453.64</ele>
        <time>2020-11-04T09:51:14.416Z</time>
      </trkpt>
      <trkpt lat="49.76592" lon="5.56647">
        <ele>452.66</ele>
        <time>2020-11-04T09:51:19.021Z</time>
      </trkpt>
      <trkpt lat="49.76595" lon="5.56632">
        <ele>452.6</ele>
        <time>2020-11-04T09:51:24.000Z</time>
      </trkpt>
      <trkpt lat="49.76596" lon="5.56642">
        <ele>452.54</ele>
        <time>2020-11-04T09:51:29.000Z</time>
      </trkpt>
      <trkpt lat="49.76595" lon="5.56647">
        <ele>453.54</ele>
        <time>2020-11-04T09:51:34.000Z</time>
      </trkpt>
      <trkpt lat="49.76594" lon="5.56649">
        <ele>454.73</ele>
        <time>2020-11-04T09:51:38.340Z</time>
      </trkpt>
      <trkpt lat="49.76593" lon="5.56651">
        <ele>456.48</ele>
        <time>2020-11-04T09:51:42.736Z</time>
      </trkpt>
      <trkpt lat="49.76594" lon="5.56655">
        <ele>457.18</ele>
        <time>2020-11-04T09:51:47.000Z</time>
      </trkpt>
      <trkpt lat="49.76593" lon="5.56658">
        <ele>457.44</ele>
        <time>2020-11-04T09:51:52.524Z</time>
      </trkpt>
      <trkpt lat="49.76594" lon="5.5666">
        <ele>458.05</ele>
        <time>2020-11-04T09:51:57.000Z</time>
      </trkpt>
      <trkpt lat="49.76593" lon="5.56661">
        <ele>458.25</ele>
        <time>2020-11-04T09:52:02.000Z</time>
      </trkpt>
      <trkpt lat="49.76593" lon="5.56664">
        <ele>459.05</ele>
        <time>2020-11-04T09:52:07.000Z</time>
      </trkpt>
      <trkpt lat="49.76593" lon="5.56665">
        <ele>459.47</ele>
        <time>2020-11-04T09:52:12.000Z</time>
      </trkpt>
      <trkpt lat="49.76593" lon="5.56664">
        <ele>459.66</ele>
        <time>2020-11-04T09:52:17.000Z</time>
      </trkpt>
      <trkpt lat="49.76596" lon="5.56663">
        <ele>460.14</ele>
        <time>2020-11-04T09:52:22.000Z</time>
      </trkpt>
      <trkpt lat="49.76595" lon="5.56666">
        <ele>460.75</ele>
        <time>2020-11-04T09:52:26.514Z</time>
      </trkpt>
      <trkpt lat="49.76604" lon="5.56664">
        <ele>461.08</ele>
        <time>2020-11-04T09:52:30.483Z</time>
      </trkpt>
      <trkpt lat="49.76613" lon="5.5667">
        <ele>462.47</ele>
        <time>2020-11-04T09:52:34.527Z</time>
      </trkpt>
      <trkpt lat="49.76617" lon="5.56661">
        <ele>463.98</ele>
        <time>2020-11-04T09:52:39.525Z</time>
      </trkpt>
      <trkpt lat="49.76618" lon="5.56646">
        <ele>463.15</ele>
        <time>2020-11-04T09:52:43.519Z</time>
      </trkpt>
      <trkpt lat="49.76623" lon="5.56631">
        <ele>463.85</ele>
        <time>2020-11-04T09:52:48.039Z</time>
      </trkpt>
      <trkpt lat="49.76627" lon="5.5662">
        <ele>465.44</ele>
        <time>2020-11-04T09:52:52.604Z</time>
      </trkpt>
      <trkpt lat="49.76631" lon="5.56614">
        <ele>464.97</ele>
        <time>2020-11-04T09:52:56.919Z</time>
      </trkpt>
      <trkpt lat="49.76635" lon="5.56608">
        <ele>465.13</ele>
        <time>2020-11-04T09:53:01.175Z</time>
      </trkpt>
      <trkpt lat="49.7664" lon="5.56605">
        <ele>467.22</ele>
        <time>2020-11-04T09:53:05.236Z</time>
      </trkpt>
      <trkpt lat="49.76646" lon="5.56602">
        <ele>468.42</ele>
        <time>2020-11-04T09:53:09.956Z</time>
      </trkpt>
      <trkpt lat="49.76655" lon="5.56597">
        <ele>468.11</ele>
        <time>2020-11-04T09:53:13.743Z</time>
      </trkpt>
      <trkpt lat="49.76662" lon="5.5659">
        <ele>468.49</ele>
        <time>2020-11-04T09:53:17.762Z</time>
      </trkpt>
      <trkpt lat="49.76669" lon="5.56586">
        <ele>469.74</ele>
        <time>2020-11-04T09:53:22.000Z</time>
      </trkpt>
      <trkpt lat="49.76677" lon="5.56583">
        <ele>471.44</ele>
        <time>2020-11-04T09:53:27.000Z</time>
      </trkpt>
      <trkpt lat="49.76685" lon="5.5658">
        <ele>472.63</ele>
        <time>2020-11-04T09:53:31.437Z</time>
      </trkpt>
      <trkpt lat="49.76696" lon="5.56576">
        <ele>472.54</ele>
        <time>2020-11-04T09:53:36.139Z</time>
      </trkpt>
      <trkpt lat="49.76706" lon="5.56575">
        <ele>475.49</ele>
        <time>2020-11-04T09:53:40.374Z</time>
      </trkpt>
      <trkpt lat="49.76715" lon="5.56568">
        <ele>477.42</ele>
        <time>2020-11-04T09:53:43.000Z</time>
      </trkpt>
      <trkpt lat="49.76724" lon="5.56566">
        <ele>480.36</ele>
        <time>2020-11-04T09:53:47.000Z</time>
      </trkpt>
      <trkpt lat="49.76733" lon="5.56562">
        <ele>480.98</ele>
        <time>2020-11-04T09:53:50.000Z</time>
      </trkpt>
      <trkpt lat="49.76743" lon="5.56561">
        <ele>481.7</ele>
        <time>2020-11-04T09:53:53.000Z</time>
      </trkpt>
      <trkpt lat="49.76752" lon="5.5656">
        <ele>481.23</ele>
        <time>2020-11-04T09:53:56.000Z</time>
      </trkpt>
      <trkpt lat="49.7676" lon="5.56549">
        <ele>480.8</ele>
        <time>2020-11-04T09:54:00.000Z</time>
      </trkpt>
      <trkpt lat="49.76771" lon="5.56542">
        <ele>480.36</ele>
        <time>2020-11-04T09:54:05.000Z</time>
      </trkpt>
      <trkpt lat="49.76776" lon="5.56536">
        <ele>479.56</ele>
        <time>2020-11-04T09:54:10.000Z</time>
      </trkpt>
      <trkpt lat="49.7678" lon="5.56538">
        <ele>479.14</ele>
        <time>2020-11-04T09:54:14.541Z</time>
      </trkpt>
      <trkpt lat="49.76785" lon="5.56546">
        <ele>479.22</ele>
        <time>2020-11-04T09:54:19.520Z</time>
      </trkpt>
      <trkpt lat="49.76795" lon="5.56548">
        <ele>478.01</ele>
        <time>2020-11-04T09:54:24.508Z</time>
      </trkpt>
      <trkpt lat="49.76804" lon="5.56552">
        <ele>477.79</ele>
        <time>2020-11-04T09:54:29.507Z</time>
      </trkpt>
      <trkpt lat="49.76809" lon="5.56558">
        <ele>478.51</ele>
        <time>2020-11-04T09:54:33.521Z</time>
      </trkpt>
      <trkpt lat="49.76813" lon="5.56567">
        <ele>480.3</ele>
        <time>2020-11-04T09:54:38.075Z</time>
      </trkpt>
      <trkpt lat="49.76818" lon="5.56574">
        <ele>482.43</ele>
        <time>2020-11-04T09:54:42.462Z</time>
      </trkpt>
      <trkpt lat="49.76828" lon="5.56583">
        <ele>482.75</ele>
        <time>2020-11-04T09:54:45.604Z</time>
      </trkpt>
      <trkpt lat="49.76836" lon="5.56592">
        <ele>481.39</ele>
        <time>2020-11-04T09:54:47.546Z</time>
      </trkpt>
      <trkpt lat="49.76845" lon="5.56602">
        <ele>479.45</ele>
        <time>2020-11-04T09:54:50.557Z</time>
      </trkpt>
      <trkpt lat="49.76854" lon="5.56607">
        <ele>477.37</ele>
        <time>2020-11-04T09:54:52.528Z</time>
      </trkpt>
      <trkpt lat="49.76864" lon="5.56614">
        <ele>474.83</ele>
        <time>2020-11-04T09:54:55.523Z</time>
      </trkpt>
      <trkpt lat="49.76871" lon="5.56623">
        <ele>473.07</ele>
        <time>2020-11-04T09:54:58.547Z</time>
      </trkpt>
      <trkpt lat="49.76881" lon="5.5663">
        <ele>470.27</ele>
        <time>2020-11-04T09:55:01.513Z</time>
      </trkpt>
      <trkpt lat="49.7689" lon="5.56638">
        <ele>469.23</ele>
        <time>2020-11-04T09:55:03.515Z</time>
      </trkpt>
      <trkpt lat="49.76899" lon="5.56649">
        <ele>468.34</ele>
        <time>2020-11-04T09:55:05.527Z</time>
      </trkpt>
      <trkpt lat="49.76907" lon="5.56655">
        <ele>467.78</ele>
        <time>2020-11-04T09:55:07.524Z</time>
      </trkpt>
      <trkpt lat="49.76917" lon="5.56657">
        <ele>467.51</ele>
        <time>2020-11-04T09:55:09.709Z</time>
      </trkpt>
      <trkpt lat="49.76924" lon="5.56669">
        <ele>466.62</ele>
        <time>2020-11-04T09:55:12.000Z</time>
      </trkpt>
      <trkpt lat="49.76932" lon="5.56675">
        <ele>466.24</ele>
        <time>2020-11-04T09:55:14.000Z</time>
      </trkpt>
      <trkpt lat="49.76945" lon="5.56685">
        <ele>466.14</ele>
        <time>2020-11-04T09:55:17.000Z</time>
      </trkpt>
      <trkpt lat="49.76955" lon="5.56697">
        <ele>466.48</ele>
        <time>2020-11-04T09:55:19.000Z</time>
      </trkpt>
      <trkpt lat="49.76964" lon="5.56711">
        <ele>466.84</ele>
        <time>2020-11-04T09:55:21.000Z</time>
      </trkpt>
      <trkpt lat="49.76973" lon="5.56727">
        <ele>466.83</ele>
        <time>2020-11-04T09:55:23.000Z</time>
      </trkpt>
      <trkpt lat="49.76985" lon="5.56743">
        <ele>466.77</ele>
        <time>2020-11-04T09:55:25.000Z</time>
      </trkpt>
      <trkpt lat="49.76996" lon="5.56761">
        <ele>466.46</ele>
        <time>2020-11-04T09:55:27.000Z</time>
      </trkpt>
      <trkpt lat="49.77009" lon="5.56778">
        <ele>465.92</ele>
        <time>2020-11-04T09:55:29.000Z</time>
      </trkpt>
      <trkpt lat="49.77019" lon="5.56796">
        <ele>465.16</ele>
        <time>2020-11-04T09:55:31.000Z</time>
      </trkpt>
      <trkpt lat="49.7703" lon="5.56811">
        <ele>464.59</ele>
        <time>2020-11-04T09:55:33.000Z</time>
      </trkpt>
      <trkpt lat="49.7704" lon="5.56825">
        <ele>464.01</ele>
        <time>2020-11-04T09:55:35.000Z</time>
      </trkpt>
      <trkpt lat="49.77051" lon="5.5684">
        <ele>463.32</ele>
        <time>2020-11-04T09:55:37.000Z</time>
      </trkpt>
      <trkpt lat="49.77065" lon="5.5685">
        <ele>462.19</ele>
        <time>2020-11-04T09:55:39.000Z</time>
      </trkpt>
      <trkpt lat="49.77076" lon="5.56857">
        <ele>460.84</ele>
        <time>2020-11-04T09:55:41.000Z</time>
      </trkpt>
      <trkpt lat="49.77081" lon="5.56868">
        <ele>459.89</ele>
        <time>2020-11-04T09:55:43.000Z</time>
      </trkpt>
      <trkpt lat="49.77092" lon="5.56881">
        <ele>458.47</ele>
        <time>2020-11-04T09:55:45.000Z</time>
      </trkpt>
      <trkpt lat="49.77101" lon="5.5689">
        <ele>457.43</ele>
        <time>2020-11-04T09:55:47.000Z</time>
      </trkpt>
      <trkpt lat="49.77109" lon="5.56899">
        <ele>456.41</ele>
        <time>2020-11-04T09:55:50.233Z</time>
      </trkpt>
      <trkpt lat="49.77116" lon="5.56908">
        <ele>455.39</ele>
        <time>2020-11-04T09:55:54.175Z</time>
      </trkpt>
      <trkpt lat="49.77126" lon="5.56915">
        <ele>454.71</ele>
        <time>2020-11-04T09:55:57.515Z</time>
      </trkpt>
      <trkpt lat="49.77135" lon="5.56918">
        <ele>454.69</ele>
        <time>2020-11-04T09:56:01.525Z</time>
      </trkpt>
      <trkpt lat="49.77144" lon="5.56924">
        <ele>456.03</ele>
        <time>2020-11-04T09:56:06.530Z</time>
      </trkpt>
      <trkpt lat="49.77152" lon="5.56914">
        <ele>457.62</ele>
        <time>2020-11-04T09:56:10.532Z</time>
      </trkpt>
      <trkpt lat="49.77159" lon="5.56906">
        <ele>458.33</ele>
        <time>2020-11-04T09:56:14.568Z</time>
      </trkpt>
      <trkpt lat="49.77169" lon="5.56898">
        <ele>458.38</ele>
        <time>2020-11-04T09:56:19.525Z</time>
      </trkpt>
      <trkpt lat="49.77178" lon="5.56893">
        <ele>458.68</ele>
        <time>2020-11-04T09:56:23.037Z</time>
      </trkpt>
      <trkpt lat="49.77186" lon="5.56886">
        <ele>459.09</ele>
        <time>2020-11-04T09:56:27.000Z</time>
      </trkpt>
      <trkpt lat="49.77195" lon="5.56883">
        <ele>460.18</ele>
        <time>2020-11-04T09:56:30.686Z</time>
      </trkpt>
      <trkpt lat="49.77206" lon="5.56882">
        <ele>461.74</ele>
        <time>2020-11-04T09:56:34.495Z</time>
      </trkpt>
      <trkpt lat="49.77215" lon="5.56887">
        <ele>462.47</ele>
        <time>2020-11-04T09:56:37.513Z</time>
      </trkpt>
      <trkpt lat="49.77224" lon="5.5689">
        <ele>463.31</ele>
        <time>2020-11-04T09:56:40.502Z</time>
      </trkpt>
      <trkpt lat="49.77233" lon="5.56902">
        <ele>464</ele>
        <time>2020-11-04T09:56:43.528Z</time>
      </trkpt>
      <trkpt lat="49.77242" lon="5.56914">
        <ele>463.64</ele>
        <time>2020-11-04T09:56:46.505Z</time>
      </trkpt>
      <trkpt lat="49.77252" lon="5.56917">
        <ele>462.68</ele>
        <time>2020-11-04T09:56:48.537Z</time>
      </trkpt>
      <trkpt lat="49.77263" lon="5.56925">
        <ele>461.36</ele>
        <time>2020-11-04T09:56:51.542Z</time>
      </trkpt>
      <trkpt lat="49.77274" lon="5.56932">
        <ele>460.75</ele>
        <time>2020-11-04T09:56:55.038Z</time>
      </trkpt>
      <trkpt lat="49.77284" lon="5.56935">
        <ele>460.56</ele>
        <time>2020-11-04T09:56:58.000Z</time>
      </trkpt>
      <trkpt lat="49.7729" lon="5.56945">
        <ele>460.37</ele>
        <time>2020-11-04T09:57:00.000Z</time>
      </trkpt>
      <trkpt lat="49.77299" lon="5.56953">
        <ele>459.78</ele>
        <time>2020-11-04T09:57:02.000Z</time>
      </trkpt>
      <trkpt lat="49.7731" lon="5.56964">
        <ele>459.02</ele>
        <time>2020-11-04T09:57:05.000Z</time>
      </trkpt>
      <trkpt lat="49.77318" lon="5.56969">
        <ele>458.85</ele>
        <time>2020-11-04T09:57:07.000Z</time>
      </trkpt>
      <trkpt lat="49.77327" lon="5.56975">
        <ele>458.77</ele>
        <time>2020-11-04T09:57:09.000Z</time>
      </trkpt>
      <trkpt lat="49.77335" lon="5.56982">
        <ele>458.88</ele>
        <time>2020-11-04T09:57:11.000Z</time>
      </trkpt>
      <trkpt lat="49.77345" lon="5.56993">
        <ele>459.19</ele>
        <time>2020-11-04T09:57:14.000Z</time>
      </trkpt>
      <trkpt lat="49.77353" lon="5.57004">
        <ele>460.49</ele>
        <time>2020-11-04T09:57:19.000Z</time>
      </trkpt>
      <trkpt lat="49.77362" lon="5.57013">
        <ele>461.18</ele>
        <time>2020-11-04T09:57:22.000Z</time>
      </trkpt>
      <trkpt lat="49.77372" lon="5.57021">
        <ele>461.84</ele>
        <time>2020-11-04T09:57:25.000Z</time>
      </trkpt>
      <trkpt lat="49.77381" lon="5.57029">
        <ele>462.15</ele>
        <time>2020-11-04T09:57:27.231Z</time>
      </trkpt>
      <trkpt lat="49.77391" lon="5.57036">
        <ele>462.52</ele>
        <time>2020-11-04T09:57:29.511Z</time>
      </trkpt>
      <trkpt lat="49.77399" lon="5.57044">
        <ele>463.07</ele>
        <time>2020-11-04T09:57:31.524Z</time>
      </trkpt>
      <trkpt lat="49.77409" lon="5.57054">
        <ele>461.43</ele>
        <time>2020-11-04T09:57:33.538Z</time>
      </trkpt>
      <trkpt lat="49.77417" lon="5.57061">
        <ele>459.76</ele>
        <time>2020-11-04T09:57:35.053Z</time>
      </trkpt>
      <trkpt lat="49.77428" lon="5.57069">
        <ele>457.66</ele>
        <time>2020-11-04T09:57:37.526Z</time>
      </trkpt>
      <trkpt lat="49.77441" lon="5.57077">
        <ele>456.12</ele>
        <time>2020-11-04T09:57:40.535Z</time>
      </trkpt>
      <trkpt lat="49.77451" lon="5.57083">
        <ele>455.44</ele>
        <time>2020-11-04T09:57:42.540Z</time>
      </trkpt>
      <trkpt lat="49.77459" lon="5.57092">
        <ele>454.61</ele>
        <time>2020-11-04T09:57:45.146Z</time>
      </trkpt>
      <trkpt lat="49.77469" lon="5.57096">
        <ele>452.68</ele>
        <time>2020-11-04T09:57:50.194Z</time>
      </trkpt>
      <trkpt lat="49.77478" lon="5.57101">
        <ele>450.32</ele>
        <time>2020-11-04T09:57:53.978Z</time>
      </trkpt>
      <trkpt lat="49.77486" lon="5.57105">
        <ele>448.63</ele>
        <time>2020-11-04T09:57:58.372Z</time>
      </trkpt>
      <trkpt lat="49.77495" lon="5.57115">
        <ele>447.87</ele>
        <time>2020-11-04T09:58:02.959Z</time>
      </trkpt>
      <trkpt lat="49.77505" lon="5.5712">
        <ele>447.37</ele>
        <time>2020-11-04T09:58:06.235Z</time>
      </trkpt>
      <trkpt lat="49.77515" lon="5.57118">
        <ele>445.79</ele>
        <time>2020-11-04T09:58:10.000Z</time>
      </trkpt>
      <trkpt lat="49.77524" lon="5.5711">
        <ele>444.72</ele>
        <time>2020-11-04T09:58:13.376Z</time>
      </trkpt>
      <trkpt lat="49.77533" lon="5.57106">
        <ele>443.87</ele>
        <time>2020-11-04T09:58:16.000Z</time>
      </trkpt>
      <trkpt lat="49.7754" lon="5.57121">
        <ele>442.82</ele>
        <time>2020-11-04T09:58:19.053Z</time>
      </trkpt>
      <trkpt lat="49.77539" lon="5.57139">
        <ele>441.94</ele>
        <time>2020-11-04T09:58:21.991Z</time>
      </trkpt>
      <trkpt lat="49.77538" lon="5.57153">
        <ele>441.37</ele>
        <time>2020-11-04T09:58:25.089Z</time>
      </trkpt>
      <trkpt lat="49.77547" lon="5.5716">
        <ele>441.81</ele>
        <time>2020-11-04T09:58:29.396Z</time>
      </trkpt>
      <trkpt lat="49.77557" lon="5.57158">
        <ele>441.58</ele>
        <time>2020-11-04T09:58:32.772Z</time>
      </trkpt>
      <trkpt lat="49.77566" lon="5.57159">
        <ele>442.79</ele>
        <time>2020-11-04T09:58:36.791Z</time>
      </trkpt>
      <trkpt lat="49.77575" lon="5.57161">
        <ele>442.36</ele>
        <time>2020-11-04T09:58:40.832Z</time>
      </trkpt>
      <trkpt lat="49.77585" lon="5.57165">
        <ele>442.29</ele>
        <time>2020-11-04T09:58:45.532Z</time>
      </trkpt>
      <trkpt lat="49.77594" lon="5.57169">
        <ele>442.34</ele>
        <time>2020-11-04T09:58:49.515Z</time>
      </trkpt>
      <trkpt lat="49.77603" lon="5.57172">
        <ele>442.09</ele>
        <time>2020-11-04T09:58:53.505Z</time>
      </trkpt>
      <trkpt lat="49.77613" lon="5.57176">
        <ele>441.58</ele>
        <time>2020-11-04T09:58:57.507Z</time>
      </trkpt>
      <trkpt lat="49.77624" lon="5.57175">
        <ele>441.67</ele>
        <time>2020-11-04T09:59:01.518Z</time>
      </trkpt>
      <trkpt lat="49.77635" lon="5.57179">
        <ele>442.55</ele>
        <time>2020-11-04T09:59:05.542Z</time>
      </trkpt>
      <trkpt lat="49.77643" lon="5.5718">
        <ele>443.12</ele>
        <time>2020-11-04T09:59:10.000Z</time>
      </trkpt>
      <trkpt lat="49.7765" lon="5.57182">
        <ele>442.71</ele>
        <time>2020-11-04T09:59:14.176Z</time>
      </trkpt>
      <trkpt lat="49.7766" lon="5.57185">
        <ele>443.5</ele>
        <time>2020-11-04T09:59:18.114Z</time>
      </trkpt>
      <trkpt lat="49.77667" lon="5.57188">
        <ele>446</ele>
        <time>2020-11-04T09:59:22.489Z</time>
      </trkpt>
      <trkpt lat="49.77674" lon="5.57192">
        <ele>446.87</ele>
        <time>2020-11-04T09:59:26.511Z</time>
      </trkpt>
      <trkpt lat="49.7768" lon="5.57189">
        <ele>445.83</ele>
        <time>2020-11-04T09:59:30.526Z</time>
      </trkpt>
      <trkpt lat="49.77681" lon="5.57174">
        <ele>444.73</ele>
        <time>2020-11-04T09:59:34.000Z</time>
      </trkpt>
      <trkpt lat="49.77682" lon="5.57155">
        <ele>443.55</ele>
        <time>2020-11-04T09:59:37.495Z</time>
      </trkpt>
      <trkpt lat="49.77682" lon="5.57136">
        <ele>442.78</ele>
        <time>2020-11-04T09:59:40.503Z</time>
      </trkpt>
      <trkpt lat="49.77683" lon="5.57121">
        <ele>442.23</ele>
        <time>2020-11-04T09:59:43.368Z</time>
      </trkpt>
      <trkpt lat="49.77689" lon="5.5711">
        <ele>442.3</ele>
        <time>2020-11-04T09:59:47.534Z</time>
      </trkpt>
      <trkpt lat="49.77694" lon="5.57108">
        <ele>444.53</ele>
        <time>2020-11-04T09:59:52.519Z</time>
      </trkpt>
      <trkpt lat="49.77698" lon="5.57108">
        <ele>447.95</ele>
        <time>2020-11-04T09:59:56.573Z</time>
      </trkpt>
      <trkpt lat="49.77706" lon="5.57106">
        <ele>450.73</ele>
        <time>2020-11-04T10:00:00.871Z</time>
      </trkpt>
      <trkpt lat="49.77716" lon="5.57103">
        <ele>452.46</ele>
        <time>2020-11-04T10:00:05.472Z</time>
      </trkpt>
      <trkpt lat="49.77723" lon="5.57099">
        <ele>453.26</ele>
        <time>2020-11-04T10:00:09.546Z</time>
      </trkpt>
      <trkpt lat="49.77731" lon="5.57096">
        <ele>453.06</ele>
        <time>2020-11-04T10:00:14.533Z</time>
      </trkpt>
      <trkpt lat="49.77743" lon="5.5709">
        <ele>452.47</ele>
        <time>2020-11-04T10:00:17.536Z</time>
      </trkpt>
      <trkpt lat="49.77754" lon="5.57084">
        <ele>451.68</ele>
        <time>2020-11-04T10:00:20.528Z</time>
      </trkpt>
      <trkpt lat="49.77764" lon="5.57083">
        <ele>451</ele>
        <time>2020-11-04T10:00:23.521Z</time>
      </trkpt>
      <trkpt lat="49.77773" lon="5.57077">
        <ele>450.26</ele>
        <time>2020-11-04T10:00:26.273Z</time>
      </trkpt>
      <trkpt lat="49.77783" lon="5.57073">
        <ele>449.6</ele>
        <time>2020-11-04T10:00:29.847Z</time>
      </trkpt>
      <trkpt lat="49.77792" lon="5.57068">
        <ele>448.38</ele>
        <time>2020-11-04T10:00:33.189Z</time>
      </trkpt>
      <trkpt lat="49.77803" lon="5.57061">
        <ele>446.76</ele>
        <time>2020-11-04T10:00:38.349Z</time>
      </trkpt>
      <trkpt lat="49.77812" lon="5.57056">
        <ele>445.45</ele>
        <time>2020-11-04T10:00:42.000Z</time>
      </trkpt>
      <trkpt lat="49.77821" lon="5.57054">
        <ele>444.31</ele>
        <time>2020-11-04T10:00:45.000Z</time>
      </trkpt>
      <trkpt lat="49.77832" lon="5.57053">
        <ele>443.4</ele>
        <time>2020-11-04T10:00:48.000Z</time>
      </trkpt>
      <trkpt lat="49.77842" lon="5.57051">
        <ele>442.66</ele>
        <time>2020-11-04T10:00:51.000Z</time>
      </trkpt>
      <trkpt lat="49.77852" lon="5.57049">
        <ele>442.26</ele>
        <time>2020-11-04T10:00:53.536Z</time>
      </trkpt>
      <trkpt lat="49.77865" lon="5.57045">
        <ele>441.8</ele>
        <time>2020-11-04T10:00:56.581Z</time>
      </trkpt>
      <trkpt lat="49.77875" lon="5.57048">
        <ele>441.29</ele>
        <time>2020-11-04T10:00:59.531Z</time>
      </trkpt>
      <trkpt lat="49.77888" lon="5.57047">
        <ele>440.76</ele>
        <time>2020-11-04T10:01:03.388Z</time>
      </trkpt>
      <trkpt lat="49.77898" lon="5.57047">
        <ele>440.33</ele>
        <time>2020-11-04T10:01:05.986Z</time>
      </trkpt>
      <trkpt lat="49.77907" lon="5.57047">
        <ele>440.11</ele>
        <time>2020-11-04T10:01:08.487Z</time>
      </trkpt>
      <trkpt lat="49.77918" lon="5.57049">
        <ele>440.06</ele>
        <time>2020-11-04T10:01:10.500Z</time>
      </trkpt>
      <trkpt lat="49.77931" lon="5.57049">
        <ele>440.04</ele>
        <time>2020-11-04T10:01:13.522Z</time>
      </trkpt>
      <trkpt lat="49.77945" lon="5.57052">
        <ele>440.17</ele>
        <time>2020-11-04T10:01:16.577Z</time>
      </trkpt>
      <trkpt lat="49.77957" lon="5.57058">
        <ele>440.28</ele>
        <time>2020-11-04T10:01:19.509Z</time>
      </trkpt>
      <trkpt lat="49.77963" lon="5.57068">
        <ele>440.34</ele>
        <time>2020-11-04T10:01:21.473Z</time>
      </trkpt>
      <trkpt lat="49.7797" lon="5.57085">
        <ele>440.58</ele>
        <time>2020-11-04T10:01:24.523Z</time>
      </trkpt>
      <trkpt lat="49.77977" lon="5.57097">
        <ele>440.71</ele>
        <time>2020-11-04T10:01:27.545Z</time>
      </trkpt>
      <trkpt lat="49.77986" lon="5.57109">
        <ele>441.09</ele>
        <time>2020-11-04T10:01:30.557Z</time>
      </trkpt>
      <trkpt lat="49.77994" lon="5.57121">
        <ele>441.65</ele>
        <time>2020-11-04T10:01:33.555Z</time>
      </trkpt>
      <trkpt lat="49.78003" lon="5.57132">
        <ele>442.17</ele>
        <time>2020-11-04T10:01:38.523Z</time>
      </trkpt>
      <trkpt lat="49.78009" lon="5.57138">
        <ele>441.15</ele>
        <time>2020-11-04T10:01:43.511Z</time>
      </trkpt>
      <trkpt lat="49.78016" lon="5.57152">
        <ele>441.31</ele>
        <time>2020-11-04T10:01:47.498Z</time>
      </trkpt>
      <trkpt lat="49.78022" lon="5.57164">
        <ele>441.96</ele>
        <time>2020-11-04T10:01:50.504Z</time>
      </trkpt>
      <trkpt lat="49.78028" lon="5.57181">
        <ele>442.58</ele>
        <time>2020-11-04T10:01:53.528Z</time>
      </trkpt>
      <trkpt lat="49.78034" lon="5.57194">
        <ele>443.09</ele>
        <time>2020-11-04T10:01:56.514Z</time>
      </trkpt>
      <trkpt lat="49.78041" lon="5.5721">
        <ele>443.48</ele>
        <time>2020-11-04T10:01:59.531Z</time>
      </trkpt>
      <trkpt lat="49.78045" lon="5.57228">
        <ele>443.76</ele>
        <time>2020-11-04T10:02:02.534Z</time>
      </trkpt>
      <trkpt lat="49.7805" lon="5.57245">
        <ele>444.1</ele>
        <time>2020-11-04T10:02:05.548Z</time>
      </trkpt>
      <trkpt lat="49.78054" lon="5.57258">
        <ele>444.46</ele>
        <time>2020-11-04T10:02:08.546Z</time>
      </trkpt>
      <trkpt lat="49.78059" lon="5.57273">
        <ele>444.6</ele>
        <time>2020-11-04T10:02:11.546Z</time>
      </trkpt>
      <trkpt lat="49.78062" lon="5.57285">
        <ele>444.8</ele>
        <time>2020-11-04T10:02:13.523Z</time>
      </trkpt>
      <trkpt lat="49.78067" lon="5.57304">
        <ele>445.18</ele>
        <time>2020-11-04T10:02:16.532Z</time>
      </trkpt>
      <trkpt lat="49.78073" lon="5.57321">
        <ele>445.37</ele>
        <time>2020-11-04T10:02:19.505Z</time>
      </trkpt>
      <trkpt lat="49.78078" lon="5.57335">
        <ele>445.56</ele>
        <time>2020-11-04T10:02:22.504Z</time>
      </trkpt>
      <trkpt lat="49.78085" lon="5.57349">
        <ele>445.68</ele>
        <time>2020-11-04T10:02:25.494Z</time>
      </trkpt>
      <trkpt lat="49.7809" lon="5.57363">
        <ele>445.79</ele>
        <time>2020-11-04T10:02:28.512Z</time>
      </trkpt>
      <trkpt lat="49.78096" lon="5.57379">
        <ele>445.71</ele>
        <time>2020-11-04T10:02:31.538Z</time>
      </trkpt>
      <trkpt lat="49.78101" lon="5.57392">
        <ele>445.46</ele>
        <time>2020-11-04T10:02:34.232Z</time>
      </trkpt>
      <trkpt lat="49.78105" lon="5.57405">
        <ele>445.07</ele>
        <time>2020-11-04T10:02:37.232Z</time>
      </trkpt>
      <trkpt lat="49.78109" lon="5.57418">
        <ele>444.79</ele>
        <time>2020-11-04T10:02:39.535Z</time>
      </trkpt>
      <trkpt lat="49.78113" lon="5.57431">
        <ele>444.49</ele>
        <time>2020-11-04T10:02:41.526Z</time>
      </trkpt>
      <trkpt lat="49.78115" lon="5.57451">
        <ele>444.15</ele>
        <time>2020-11-04T10:02:44.540Z</time>
      </trkpt>
      <trkpt lat="49.78117" lon="5.5747">
        <ele>443.77</ele>
        <time>2020-11-04T10:02:48.000Z</time>
      </trkpt>
      <trkpt lat="49.7812" lon="5.57486">
        <ele>443.6</ele>
        <time>2020-11-04T10:02:50.737Z</time>
      </trkpt>
      <trkpt lat="49.78125" lon="5.57499">
        <ele>443.47</ele>
        <time>2020-11-04T10:02:53.295Z</time>
      </trkpt>
      <trkpt lat="49.78133" lon="5.57516">
        <ele>443.27</ele>
        <time>2020-11-04T10:02:56.338Z</time>
      </trkpt>
      <trkpt lat="49.78139" lon="5.57527">
        <ele>443.13</ele>
        <time>2020-11-04T10:02:58.916Z</time>
      </trkpt>
      <trkpt lat="49.78145" lon="5.57541">
        <ele>442.84</ele>
        <time>2020-11-04T10:03:01.213Z</time>
      </trkpt>
      <trkpt lat="49.78151" lon="5.57552">
        <ele>442.55</ele>
        <time>2020-11-04T10:03:03.272Z</time>
      </trkpt>
      <trkpt lat="49.78159" lon="5.57563">
        <ele>441.92</ele>
        <time>2020-11-04T10:03:06.000Z</time>
      </trkpt>
      <trkpt lat="49.78167" lon="5.57577">
        <ele>441.17</ele>
        <time>2020-11-04T10:03:09.134Z</time>
      </trkpt>
      <trkpt lat="49.78173" lon="5.57592">
        <ele>440.3</ele>
        <time>2020-11-04T10:03:11.854Z</time>
      </trkpt>
      <trkpt lat="49.7818" lon="5.57601">
        <ele>439.59</ele>
        <time>2020-11-04T10:03:14.372Z</time>
      </trkpt>
      <trkpt lat="49.78191" lon="5.57611">
        <ele>438.21</ele>
        <time>2020-11-04T10:03:17.065Z</time>
      </trkpt>
      <trkpt lat="49.78198" lon="5.57624">
        <ele>437.16</ele>
        <time>2020-11-04T10:03:20.259Z</time>
      </trkpt>
      <trkpt lat="49.78203" lon="5.57635">
        <ele>437.34</ele>
        <time>2020-11-04T10:03:22.932Z</time>
      </trkpt>
      <trkpt lat="49.78208" lon="5.57656">
        <ele>438.81</ele>
        <time>2020-11-04T10:03:26.000Z</time>
      </trkpt>
      <trkpt lat="49.78215" lon="5.5767">
        <ele>438.67</ele>
        <time>2020-11-04T10:03:28.000Z</time>
      </trkpt>
      <trkpt lat="49.78221" lon="5.57683">
        <ele>438.52</ele>
        <time>2020-11-04T10:03:30.000Z</time>
      </trkpt>
      <trkpt lat="49.78229" lon="5.57696">
        <ele>438.4</ele>
        <time>2020-11-04T10:03:32.000Z</time>
      </trkpt>
      <trkpt lat="49.78234" lon="5.5771">
        <ele>438.26</ele>
        <time>2020-11-04T10:03:34.000Z</time>
      </trkpt>
      <trkpt lat="49.7824" lon="5.57723">
        <ele>438.08</ele>
        <time>2020-11-04T10:03:36.000Z</time>
      </trkpt>
      <trkpt lat="49.78245" lon="5.57739">
        <ele>438.08</ele>
        <time>2020-11-04T10:03:38.807Z</time>
      </trkpt>
      <trkpt lat="49.7825" lon="5.57754">
        <ele>438.49</ele>
        <time>2020-11-04T10:03:42.047Z</time>
      </trkpt>
      <trkpt lat="49.78248" lon="5.57771">
        <ele>438.48</ele>
        <time>2020-11-04T10:03:44.973Z</time>
      </trkpt>
      <trkpt lat="49.78247" lon="5.57785">
        <ele>438.97</ele>
        <time>2020-11-04T10:03:47.523Z</time>
      </trkpt>
      <trkpt lat="49.78247" lon="5.57799">
        <ele>439.52</ele>
        <time>2020-11-04T10:03:50.543Z</time>
      </trkpt>
      <trkpt lat="49.78248" lon="5.57812">
        <ele>440.7</ele>
        <time>2020-11-04T10:03:54.569Z</time>
      </trkpt>
      <trkpt lat="49.78255" lon="5.57827">
        <ele>441.66</ele>
        <time>2020-11-04T10:03:58.539Z</time>
      </trkpt>
      <trkpt lat="49.78261" lon="5.57841">
        <ele>442.49</ele>
        <time>2020-11-04T10:04:02.536Z</time>
      </trkpt>
      <trkpt lat="49.78265" lon="5.57856">
        <ele>442.82</ele>
        <time>2020-11-04T10:04:05.547Z</time>
      </trkpt>
      <trkpt lat="49.7827" lon="5.5787">
        <ele>443.45</ele>
        <time>2020-11-04T10:04:09.528Z</time>
      </trkpt>
      <trkpt lat="49.78276" lon="5.57882">
        <ele>443.74</ele>
        <time>2020-11-04T10:04:12.524Z</time>
      </trkpt>
      <trkpt lat="49.78282" lon="5.57894">
        <ele>443.91</ele>
        <time>2020-11-04T10:04:15.527Z</time>
      </trkpt>
      <trkpt lat="49.78289" lon="5.57904">
        <ele>444.26</ele>
        <time>2020-11-04T10:04:19.544Z</time>
      </trkpt>
      <trkpt lat="49.78296" lon="5.57914">
        <ele>444.44</ele>
        <time>2020-11-04T10:04:22.533Z</time>
      </trkpt>
      <trkpt lat="49.78303" lon="5.57927">
        <ele>444.76</ele>
        <time>2020-11-04T10:04:26.585Z</time>
      </trkpt>
      <trkpt lat="49.78308" lon="5.57944">
        <ele>444.87</ele>
        <time>2020-11-04T10:04:30.526Z</time>
      </trkpt>
      <trkpt lat="49.78311" lon="5.57962">
        <ele>445.19</ele>
        <time>2020-11-04T10:04:34.520Z</time>
      </trkpt>
      <trkpt lat="49.7831" lon="5.5797">
        <ele>446.24</ele>
        <time>2020-11-04T10:04:39.000Z</time>
      </trkpt>
      <trkpt lat="49.78311" lon="5.57987">
        <ele>446.49</ele>
        <time>2020-11-04T10:04:43.000Z</time>
      </trkpt>
      <trkpt lat="49.78311" lon="5.58001">
        <ele>446.97</ele>
        <time>2020-11-04T10:04:47.000Z</time>
      </trkpt>
      <trkpt lat="49.78311" lon="5.58017">
        <ele>446.58</ele>
        <time>2020-11-04T10:04:51.000Z</time>
      </trkpt>
      <trkpt lat="49.7831" lon="5.58033">
        <ele>446.32</ele>
        <time>2020-11-04T10:04:55.000Z</time>
      </trkpt>
      <trkpt lat="49.78309" lon="5.58047">
        <ele>446.79</ele>
        <time>2020-11-04T10:04:59.000Z</time>
      </trkpt>
      <trkpt lat="49.78303" lon="5.58062">
        <ele>448.41</ele>
        <time>2020-11-04T10:05:03.000Z</time>
      </trkpt>
      <trkpt lat="49.78301" lon="5.5808">
        <ele>448.58</ele>
        <time>2020-11-04T10:05:06.000Z</time>
      </trkpt>
      <trkpt lat="49.78298" lon="5.58093">
        <ele>448.65</ele>
        <time>2020-11-04T10:05:09.000Z</time>
      </trkpt>
      <trkpt lat="49.78293" lon="5.58108">
        <ele>449.01</ele>
        <time>2020-11-04T10:05:12.000Z</time>
      </trkpt>
      <trkpt lat="49.78288" lon="5.58125">
        <ele>449.02</ele>
        <time>2020-11-04T10:05:16.000Z</time>
      </trkpt>
      <trkpt lat="49.78287" lon="5.58139">
        <ele>448.94</ele>
        <time>2020-11-04T10:05:18.000Z</time>
      </trkpt>
      <trkpt lat="49.78285" lon="5.58157">
        <ele>448.25</ele>
        <time>2020-11-04T10:05:21.000Z</time>
      </trkpt>
      <trkpt lat="49.78283" lon="5.58176">
        <ele>447.61</ele>
        <time>2020-11-04T10:05:24.000Z</time>
      </trkpt>
      <trkpt lat="49.7828" lon="5.5819">
        <ele>447.41</ele>
        <time>2020-11-04T10:05:26.000Z</time>
      </trkpt>
      <trkpt lat="49.78276" lon="5.58208">
        <ele>447.57</ele>
        <time>2020-11-04T10:05:29.000Z</time>
      </trkpt>
      <trkpt lat="49.78273" lon="5.58222">
        <ele>447.87</ele>
        <time>2020-11-04T10:05:31.000Z</time>
      </trkpt>
      <trkpt lat="49.78268" lon="5.58234">
        <ele>447.96</ele>
        <time>2020-11-04T10:05:33.000Z</time>
      </trkpt>
      <trkpt lat="49.78265" lon="5.58255">
        <ele>448.19</ele>
        <time>2020-11-04T10:05:36.000Z</time>
      </trkpt>
      <trkpt lat="49.78262" lon="5.58273">
        <ele>448.37</ele>
        <time>2020-11-04T10:05:39.533Z</time>
      </trkpt>
      <trkpt lat="49.7826" lon="5.58287">
        <ele>448.68</ele>
        <time>2020-11-04T10:05:41.549Z</time>
      </trkpt>
      <trkpt lat="49.7826" lon="5.58307">
        <ele>449.03</ele>
        <time>2020-11-04T10:05:44.516Z</time>
      </trkpt>
      <trkpt lat="49.78263" lon="5.58323">
        <ele>449</ele>
        <time>2020-11-04T10:05:46.541Z</time>
      </trkpt>
      <trkpt lat="49.78267" lon="5.5834">
        <ele>448.88</ele>
        <time>2020-11-04T10:05:48.549Z</time>
      </trkpt>
      <trkpt lat="49.7827" lon="5.58361">
        <ele>448.46</ele>
        <time>2020-11-04T10:05:51.532Z</time>
      </trkpt>
      <trkpt lat="49.78272" lon="5.58377">
        <ele>448.2</ele>
        <time>2020-11-04T10:05:54.541Z</time>
      </trkpt>
      <trkpt lat="49.78277" lon="5.58394">
        <ele>448.01</ele>
        <time>2020-11-04T10:05:57.546Z</time>
      </trkpt>
      <trkpt lat="49.78282" lon="5.58411">
        <ele>448.66</ele>
        <time>2020-11-04T10:06:00.533Z</time>
      </trkpt>
      <trkpt lat="49.78288" lon="5.58427">
        <ele>449.8</ele>
        <time>2020-11-04T10:06:03.537Z</time>
      </trkpt>
      <trkpt lat="49.78294" lon="5.58439">
        <ele>451.05</ele>
        <time>2020-11-04T10:06:06.544Z</time>
      </trkpt>
      <trkpt lat="49.78298" lon="5.58457">
        <ele>451.68</ele>
        <time>2020-11-04T10:06:11.510Z</time>
      </trkpt>
      <trkpt lat="49.78307" lon="5.58471">
        <ele>452</ele>
        <time>2020-11-04T10:06:14.503Z</time>
      </trkpt>
      <trkpt lat="49.78312" lon="5.58483">
        <ele>452.34</ele>
        <time>2020-11-04T10:06:16.520Z</time>
      </trkpt>
      <trkpt lat="49.78315" lon="5.58502">
        <ele>453.27</ele>
        <time>2020-11-04T10:06:19.573Z</time>
      </trkpt>
      <trkpt lat="49.78317" lon="5.58516">
        <ele>454.48</ele>
        <time>2020-11-04T10:06:22.522Z</time>
      </trkpt>
      <trkpt lat="49.78321" lon="5.58531">
        <ele>455.81</ele>
        <time>2020-11-04T10:06:25.516Z</time>
      </trkpt>
      <trkpt lat="49.78324" lon="5.58547">
        <ele>456.6</ele>
        <time>2020-11-04T10:06:28.527Z</time>
      </trkpt>
      <trkpt lat="49.78328" lon="5.58563">
        <ele>456.72</ele>
        <time>2020-11-04T10:06:31.585Z</time>
      </trkpt>
      <trkpt lat="49.78332" lon="5.5858">
        <ele>456.96</ele>
        <time>2020-11-04T10:06:33.586Z</time>
      </trkpt>
      <trkpt lat="49.78338" lon="5.58596">
        <ele>456.61</ele>
        <time>2020-11-04T10:06:35.549Z</time>
      </trkpt>
      <trkpt lat="49.78347" lon="5.586">
        <ele>456.18</ele>
        <time>2020-11-04T10:06:37.964Z</time>
      </trkpt>
      <trkpt lat="49.78354" lon="5.58608">
        <ele>455.52</ele>
        <time>2020-11-04T10:06:40.525Z</time>
      </trkpt>
      <trkpt lat="49.7836" lon="5.5862">
        <ele>454.89</ele>
        <time>2020-11-04T10:06:42.540Z</time>
      </trkpt>
      <trkpt lat="49.78365" lon="5.58637">
        <ele>453.67</ele>
        <time>2020-11-04T10:06:45.533Z</time>
      </trkpt>
      <trkpt lat="49.78375" lon="5.58652">
        <ele>452.21</ele>
        <time>2020-11-04T10:06:48.532Z</time>
      </trkpt>
      <trkpt lat="49.78383" lon="5.58663">
        <ele>451.41</ele>
        <time>2020-11-04T10:06:50.536Z</time>
      </trkpt>
      <trkpt lat="49.78391" lon="5.58672">
        <ele>450.36</ele>
        <time>2020-11-04T10:06:52.563Z</time>
      </trkpt>
      <trkpt lat="49.78402" lon="5.58685">
        <ele>448.92</ele>
        <time>2020-11-04T10:06:55.560Z</time>
      </trkpt>
      <trkpt lat="49.7841" lon="5.58698">
        <ele>447.36</ele>
        <time>2020-11-04T10:06:58.551Z</time>
      </trkpt>
      <trkpt lat="49.78419" lon="5.5871">
        <ele>446.13</ele>
        <time>2020-11-04T10:07:01.541Z</time>
      </trkpt>
      <trkpt lat="49.78426" lon="5.58725">
        <ele>444.68</ele>
        <time>2020-11-04T10:07:04.525Z</time>
      </trkpt>
      <trkpt lat="49.78465" lon="5.58765">
        <ele>442.85</ele>
        <time>2020-11-04T10:07:06.000Z</time>
      </trkpt>
      <trkpt lat="49.78476" lon="5.58773">
        <ele>441.66</ele>
        <time>2020-11-04T10:07:07.000Z</time>
      </trkpt>
      <trkpt lat="49.78485" lon="5.58781">
        <ele>440.4</ele>
        <time>2020-11-04T10:07:08.000Z</time>
      </trkpt>
      <trkpt lat="49.78495" lon="5.58798">
        <ele>438.33</ele>
        <time>2020-11-04T10:07:10.000Z</time>
      </trkpt>
      <trkpt lat="49.785" lon="5.58818">
        <ele>436.56</ele>
        <time>2020-11-04T10:07:12.000Z</time>
      </trkpt>
      <trkpt lat="49.78501" lon="5.58834">
        <ele>435.06</ele>
        <time>2020-11-04T10:07:14.000Z</time>
      </trkpt>
      <trkpt lat="49.78498" lon="5.58849">
        <ele>434.29</ele>
        <time>2020-11-04T10:07:16.000Z</time>
      </trkpt>
      <trkpt lat="49.7849" lon="5.58861">
        <ele>434.21</ele>
        <time>2020-11-04T10:07:19.000Z</time>
      </trkpt>
      <trkpt lat="49.78482" lon="5.58873">
        <ele>434.52</ele>
        <time>2020-11-04T10:07:22.000Z</time>
      </trkpt>
      <trkpt lat="49.78474" lon="5.58881">
        <ele>434.52</ele>
        <time>2020-11-04T10:07:24.662Z</time>
      </trkpt>
      <trkpt lat="49.78467" lon="5.58894">
        <ele>434.37</ele>
        <time>2020-11-04T10:07:28.302Z</time>
      </trkpt>
      <trkpt lat="49.78462" lon="5.58911">
        <ele>434.84</ele>
        <time>2020-11-04T10:07:31.522Z</time>
      </trkpt>
      <trkpt lat="49.78463" lon="5.58927">
        <ele>435.04</ele>
        <time>2020-11-04T10:07:34.000Z</time>
      </trkpt>
      <trkpt lat="49.78466" lon="5.58943">
        <ele>435.19</ele>
        <time>2020-11-04T10:07:37.342Z</time>
      </trkpt>
      <trkpt lat="49.78472" lon="5.58957">
        <ele>434.99</ele>
        <time>2020-11-04T10:07:39.440Z</time>
      </trkpt>
      <trkpt lat="49.78475" lon="5.58971">
        <ele>434.93</ele>
        <time>2020-11-04T10:07:41.560Z</time>
      </trkpt>
      <trkpt lat="49.7848" lon="5.58983">
        <ele>434.98</ele>
        <time>2020-11-04T10:07:43.511Z</time>
      </trkpt>
      <trkpt lat="49.78485" lon="5.58997">
        <ele>435.24</ele>
        <time>2020-11-04T10:07:46.000Z</time>
      </trkpt>
      <trkpt lat="49.78491" lon="5.59009">
        <ele>435.87</ele>
        <time>2020-11-04T10:07:49.162Z</time>
      </trkpt>
      <trkpt lat="49.78497" lon="5.59022">
        <ele>436.66</ele>
        <time>2020-11-04T10:07:52.000Z</time>
      </trkpt>
      <trkpt lat="49.78501" lon="5.59035">
        <ele>437.16</ele>
        <time>2020-11-04T10:07:55.059Z</time>
      </trkpt>
      <trkpt lat="49.78508" lon="5.59048">
        <ele>437.49</ele>
        <time>2020-11-04T10:07:58.063Z</time>
      </trkpt>
      <trkpt lat="49.78514" lon="5.59062">
        <ele>437.66</ele>
        <time>2020-11-04T10:08:01.045Z</time>
      </trkpt>
      <trkpt lat="49.78519" lon="5.59077">
        <ele>437.91</ele>
        <time>2020-11-04T10:08:03.988Z</time>
      </trkpt>
      <trkpt lat="49.78524" lon="5.59093">
        <ele>438.08</ele>
        <time>2020-11-04T10:08:07.000Z</time>
      </trkpt>
      <trkpt lat="49.7853" lon="5.59108">
        <ele>438.35</ele>
        <time>2020-11-04T10:08:09.941Z</time>
      </trkpt>
      <trkpt lat="49.78534" lon="5.59122">
        <ele>438.68</ele>
        <time>2020-11-04T10:08:12.934Z</time>
      </trkpt>
      <trkpt lat="49.78539" lon="5.59135">
        <ele>438.78</ele>
        <time>2020-11-04T10:08:16.287Z</time>
      </trkpt>
      <trkpt lat="49.78544" lon="5.59151">
        <ele>438.76</ele>
        <time>2020-11-04T10:08:19.930Z</time>
      </trkpt>
      <trkpt lat="49.78547" lon="5.59164">
        <ele>439.65</ele>
        <time>2020-11-04T10:08:24.362Z</time>
      </trkpt>
      <trkpt lat="49.78546" lon="5.59169">
        <ele>442.55</ele>
        <time>2020-11-04T10:08:28.936Z</time>
      </trkpt>
      <trkpt lat="49.78547" lon="5.59177">
        <ele>447.93</ele>
        <time>2020-11-04T10:08:33.000Z</time>
      </trkpt>
      <trkpt lat="49.78552" lon="5.59185">
        <ele>451.8</ele>
        <time>2020-11-04T10:08:37.170Z</time>
      </trkpt>
      <trkpt lat="49.78557" lon="5.59197">
        <ele>457.14</ele>
        <time>2020-11-04T10:08:40.930Z</time>
      </trkpt>
      <trkpt lat="49.78563" lon="5.59211">
        <ele>457.86</ele>
        <time>2020-11-04T10:08:43.947Z</time>
      </trkpt>
      <trkpt lat="49.78569" lon="5.59224">
        <ele>457.77</ele>
        <time>2020-11-04T10:08:46.347Z</time>
      </trkpt>
      <trkpt lat="49.78572" lon="5.59238">
        <ele>457.37</ele>
        <time>2020-11-04T10:08:48.553Z</time>
      </trkpt>
      <trkpt lat="49.78577" lon="5.59252">
        <ele>456.16</ele>
        <time>2020-11-04T10:08:51.466Z</time>
      </trkpt>
      <trkpt lat="49.78583" lon="5.59268">
        <ele>456.14</ele>
        <time>2020-11-04T10:08:55.534Z</time>
      </trkpt>
      <trkpt lat="49.78586" lon="5.59281">
        <ele>456.89</ele>
        <time>2020-11-04T10:08:58.544Z</time>
      </trkpt>
      <trkpt lat="49.78593" lon="5.59294">
        <ele>455.15</ele>
        <time>2020-11-04T10:09:01.562Z</time>
      </trkpt>
      <trkpt lat="49.786" lon="5.59306">
        <ele>452.69</ele>
        <time>2020-11-04T10:09:04.533Z</time>
      </trkpt>
      <trkpt lat="49.78606" lon="5.59317">
        <ele>449.94</ele>
        <time>2020-11-04T10:09:07.619Z</time>
      </trkpt>
      <trkpt lat="49.78607" lon="5.59332">
        <ele>448.86</ele>
        <time>2020-11-04T10:09:11.499Z</time>
      </trkpt>
      <trkpt lat="49.78613" lon="5.59345">
        <ele>448.08</ele>
        <time>2020-11-04T10:09:15.519Z</time>
      </trkpt>
      <trkpt lat="49.78614" lon="5.59357">
        <ele>449</ele>
        <time>2020-11-04T10:09:19.547Z</time>
      </trkpt>
      <trkpt lat="49.7862" lon="5.59369">
        <ele>450.13</ele>
        <time>2020-11-04T10:09:23.558Z</time>
      </trkpt>
      <trkpt lat="49.78624" lon="5.59382">
        <ele>449.85</ele>
        <time>2020-11-04T10:09:27.571Z</time>
      </trkpt>
      <trkpt lat="49.7863" lon="5.59393">
        <ele>449.54</ele>
        <time>2020-11-04T10:09:31.540Z</time>
      </trkpt>
      <trkpt lat="49.78632" lon="5.5941">
        <ele>449.49</ele>
        <time>2020-11-04T10:09:36.529Z</time>
      </trkpt>
      <trkpt lat="49.78634" lon="5.59428">
        <ele>450.58</ele>
        <time>2020-11-04T10:09:40.547Z</time>
      </trkpt>
      <trkpt lat="49.78638" lon="5.59442">
        <ele>451.4</ele>
        <time>2020-11-04T10:09:43.571Z</time>
      </trkpt>
      <trkpt lat="49.78648" lon="5.59448">
        <ele>450.81</ele>
        <time>2020-11-04T10:09:46.542Z</time>
      </trkpt>
      <trkpt lat="49.78658" lon="5.59437">
        <ele>449.63</ele>
        <time>2020-11-04T10:09:49.536Z</time>
      </trkpt>
      <trkpt lat="49.78666" lon="5.59425">
        <ele>448.75</ele>
        <time>2020-11-04T10:09:52.523Z</time>
      </trkpt>
      <trkpt lat="49.78674" lon="5.59409">
        <ele>447.93</ele>
        <time>2020-11-04T10:09:55.567Z</time>
      </trkpt>
      <trkpt lat="49.78679" lon="5.59395">
        <ele>447.43</ele>
        <time>2020-11-04T10:09:57.518Z</time>
      </trkpt>
      <trkpt lat="49.78684" lon="5.59382">
        <ele>446.85</ele>
        <time>2020-11-04T10:09:59.847Z</time>
      </trkpt>
      <trkpt lat="49.7869" lon="5.59368">
        <ele>446.61</ele>
        <time>2020-11-04T10:10:02.529Z</time>
      </trkpt>
      <trkpt lat="49.78695" lon="5.59357">
        <ele>446.62</ele>
        <time>2020-11-04T10:10:04.535Z</time>
      </trkpt>
      <trkpt lat="49.78701" lon="5.59341">
        <ele>446.78</ele>
        <time>2020-11-04T10:10:07.549Z</time>
      </trkpt>
      <trkpt lat="49.78706" lon="5.59323">
        <ele>447.81</ele>
        <time>2020-11-04T10:10:12.000Z</time>
      </trkpt>
      <trkpt lat="49.7871" lon="5.59309">
        <ele>448.6</ele>
        <time>2020-11-04T10:10:15.000Z</time>
      </trkpt>
      <trkpt lat="49.78716" lon="5.59294">
        <ele>449.77</ele>
        <time>2020-11-04T10:10:18.000Z</time>
      </trkpt>
      <trkpt lat="49.78721" lon="5.59278">
        <ele>451.06</ele>
        <time>2020-11-04T10:10:21.000Z</time>
      </trkpt>
      <trkpt lat="49.78725" lon="5.59264">
        <ele>452.55</ele>
        <time>2020-11-04T10:10:24.000Z</time>
      </trkpt>
      <trkpt lat="49.7873" lon="5.59252">
        <ele>456.38</ele>
        <time>2020-11-04T10:10:29.000Z</time>
      </trkpt>
      <trkpt lat="49.78735" lon="5.5924">
        <ele>461.53</ele>
        <time>2020-11-04T10:10:34.000Z</time>
      </trkpt>
      <trkpt lat="49.7874" lon="5.59225">
        <ele>464.73</ele>
        <time>2020-11-04T10:10:37.000Z</time>
      </trkpt>
      <trkpt lat="49.78744" lon="5.59208">
        <ele>467.41</ele>
        <time>2020-11-04T10:10:40.101Z</time>
      </trkpt>
      <trkpt lat="49.78748" lon="5.59191">
        <ele>470.38</ele>
        <time>2020-11-04T10:10:42.925Z</time>
      </trkpt>
      <trkpt lat="49.78752" lon="5.59174">
        <ele>472</ele>
        <time>2020-11-04T10:10:45.119Z</time>
      </trkpt>
      <trkpt lat="49.78757" lon="5.59161">
        <ele>473.29</ele>
        <time>2020-11-04T10:10:47.145Z</time>
      </trkpt>
      <trkpt lat="49.78764" lon="5.59141">
        <ele>474.67</ele>
        <time>2020-11-04T10:10:50.574Z</time>
      </trkpt>
      <trkpt lat="49.78771" lon="5.59126">
        <ele>475.2</ele>
        <time>2020-11-04T10:10:52.535Z</time>
      </trkpt>
      <trkpt lat="49.78778" lon="5.59112">
        <ele>475.71</ele>
        <time>2020-11-04T10:10:54.577Z</time>
      </trkpt>
      <trkpt lat="49.78784" lon="5.591">
        <ele>476.13</ele>
        <time>2020-11-04T10:10:56.526Z</time>
      </trkpt>
      <trkpt lat="49.78789" lon="5.59087">
        <ele>476.34</ele>
        <time>2020-11-04T10:10:58.552Z</time>
      </trkpt>
      <trkpt lat="49.78794" lon="5.59069">
        <ele>476.24</ele>
        <time>2020-11-04T10:11:01.521Z</time>
      </trkpt>
      <trkpt lat="49.78795" lon="5.5905">
        <ele>472.9</ele>
        <time>2020-11-04T10:11:05.548Z</time>
      </trkpt>
      <trkpt lat="49.78797" lon="5.59035">
        <ele>471.44</ele>
        <time>2020-11-04T10:11:07.515Z</time>
      </trkpt>
      <trkpt lat="49.78804" lon="5.59015">
        <ele>469.6</ele>
        <time>2020-11-04T10:11:10.000Z</time>
      </trkpt>
      <trkpt lat="49.7881" lon="5.58998">
        <ele>468.65</ele>
        <time>2020-11-04T10:11:12.000Z</time>
      </trkpt>
      <trkpt lat="49.78816" lon="5.5898">
        <ele>467.72</ele>
        <time>2020-11-04T10:11:14.000Z</time>
      </trkpt>
      <trkpt lat="49.78822" lon="5.58965">
        <ele>467.09</ele>
        <time>2020-11-04T10:11:16.000Z</time>
      </trkpt>
      <trkpt lat="49.78829" lon="5.58953">
        <ele>466.71</ele>
        <time>2020-11-04T10:11:18.000Z</time>
      </trkpt>
      <trkpt lat="49.78835" lon="5.58942">
        <ele>466.45</ele>
        <time>2020-11-04T10:11:20.000Z</time>
      </trkpt>
      <trkpt lat="49.7884" lon="5.58928">
        <ele>466.41</ele>
        <time>2020-11-04T10:11:22.000Z</time>
      </trkpt>
      <trkpt lat="49.78844" lon="5.58915">
        <ele>466.5</ele>
        <time>2020-11-04T10:11:24.000Z</time>
      </trkpt>
      <trkpt lat="49.78848" lon="5.58902">
        <ele>466.6</ele>
        <time>2020-11-04T10:11:26.000Z</time>
      </trkpt>
      <trkpt lat="49.78853" lon="5.58889">
        <ele>466.92</ele>
        <time>2020-11-04T10:11:28.524Z</time>
      </trkpt>
      <trkpt lat="49.78856" lon="5.58875">
        <ele>467.29</ele>
        <time>2020-11-04T10:11:30.539Z</time>
      </trkpt>
      <trkpt lat="49.78857" lon="5.58856">
        <ele>466.6</ele>
        <time>2020-11-04T10:11:33.554Z</time>
      </trkpt>
      <trkpt lat="49.7886" lon="5.58838">
        <ele>465.35</ele>
        <time>2020-11-04T10:11:36.528Z</time>
      </trkpt>
      <trkpt lat="49.78861" lon="5.5882">
        <ele>464.42</ele>
        <time>2020-11-04T10:11:39.029Z</time>
      </trkpt>
      <trkpt lat="49.78863" lon="5.58806">
        <ele>463.97</ele>
        <time>2020-11-04T10:11:41.530Z</time>
      </trkpt>
      <trkpt lat="49.78869" lon="5.58788">
        <ele>463.48</ele>
        <time>2020-11-04T10:11:44.507Z</time>
      </trkpt>
      <trkpt lat="49.78875" lon="5.58772">
        <ele>463.79</ele>
        <time>2020-11-04T10:11:47.524Z</time>
      </trkpt>
      <trkpt lat="49.7888" lon="5.58758">
        <ele>464.29</ele>
        <time>2020-11-04T10:11:49.536Z</time>
      </trkpt>
      <trkpt lat="49.78887" lon="5.58741">
        <ele>465.18</ele>
        <time>2020-11-04T10:11:52.512Z</time>
      </trkpt>
      <trkpt lat="49.7889" lon="5.58728">
        <ele>465.8</ele>
        <time>2020-11-04T10:11:54.504Z</time>
      </trkpt>
      <trkpt lat="49.78895" lon="5.5871">
        <ele>466.77</ele>
        <time>2020-11-04T10:11:57.522Z</time>
      </trkpt>
      <trkpt lat="49.78899" lon="5.5869">
        <ele>467.16</ele>
        <time>2020-11-04T10:12:00.525Z</time>
      </trkpt>
      <trkpt lat="49.78901" lon="5.58677">
        <ele>467.06</ele>
        <time>2020-11-04T10:12:02.534Z</time>
      </trkpt>
      <trkpt lat="49.78904" lon="5.58656">
        <ele>466.85</ele>
        <time>2020-11-04T10:12:05.553Z</time>
      </trkpt>
      <trkpt lat="49.78906" lon="5.58641">
        <ele>466.65</ele>
        <time>2020-11-04T10:12:08.000Z</time>
      </trkpt>
      <trkpt lat="49.7891" lon="5.58621">
        <ele>466.56</ele>
        <time>2020-11-04T10:12:11.521Z</time>
      </trkpt>
      <trkpt lat="49.78912" lon="5.58603">
        <ele>466.62</ele>
        <time>2020-11-04T10:12:14.093Z</time>
      </trkpt>
      <trkpt lat="49.78916" lon="5.58579">
        <ele>466.89</ele>
        <time>2020-11-04T10:12:18.496Z</time>
      </trkpt>
      <trkpt lat="49.78917" lon="5.58565">
        <ele>467.07</ele>
        <time>2020-11-04T10:12:20.515Z</time>
      </trkpt>
      <trkpt lat="49.78915" lon="5.58553">
        <ele>466.47</ele>
        <time>2020-11-04T10:12:24.568Z</time>
      </trkpt>
      <trkpt lat="49.78919" lon="5.58562">
        <ele>465.56</ele>
        <time>2020-11-04T10:12:29.000Z</time>
      </trkpt>
      <trkpt lat="49.7892" lon="5.58564">
        <ele>464.11</ele>
        <time>2020-11-04T10:12:33.542Z</time>
      </trkpt>
      <trkpt lat="49.78922" lon="5.5857">
        <ele>462.13</ele>
        <time>2020-11-04T10:12:38.501Z</time>
      </trkpt>
      <trkpt lat="49.78927" lon="5.58579">
        <ele>460.92</ele>
        <time>2020-11-04T10:12:43.531Z</time>
      </trkpt>
      <trkpt lat="49.78936" lon="5.58586">
        <ele>460.36</ele>
        <time>2020-11-04T10:12:46.503Z</time>
      </trkpt>
      <trkpt lat="49.78945" lon="5.58594">
        <ele>459.78</ele>
        <time>2020-11-04T10:12:49.984Z</time>
      </trkpt>
      <trkpt lat="49.78954" lon="5.586">
        <ele>459.4</ele>
        <time>2020-11-04T10:12:52.911Z</time>
      </trkpt>
      <trkpt lat="49.78964" lon="5.58607">
        <ele>459.27</ele>
        <time>2020-11-04T10:12:57.009Z</time>
      </trkpt>
      <trkpt lat="49.78973" lon="5.58613">
        <ele>458.86</ele>
        <time>2020-11-04T10:13:00.231Z</time>
      </trkpt>
      <trkpt lat="49.78983" lon="5.5862">
        <ele>458.25</ele>
        <time>2020-11-04T10:13:03.811Z</time>
      </trkpt>
      <trkpt lat="49.78991" lon="5.58628">
        <ele>458.04</ele>
        <time>2020-11-04T10:13:07.156Z</time>
      </trkpt>
      <trkpt lat="49.79" lon="5.58634">
        <ele>457.78</ele>
        <time>2020-11-04T10:13:09.000Z</time>
      </trkpt>
      <trkpt lat="49.79011" lon="5.58643">
        <ele>457.27</ele>
        <time>2020-11-04T10:13:12.030Z</time>
      </trkpt>
      <trkpt lat="49.79019" lon="5.58648">
        <ele>456.93</ele>
        <time>2020-11-04T10:13:14.355Z</time>
      </trkpt>
      <trkpt lat="49.79028" lon="5.58653">
        <ele>456.55</ele>
        <time>2020-11-04T10:13:17.236Z</time>
      </trkpt>
      <trkpt lat="49.79027" lon="5.58654">
        <ele>456.57</ele>
        <time>2020-11-04T10:13:21.985Z</time>
      </trkpt>
      <trkpt lat="49.79026" lon="5.58658">
        <ele>456.91</ele>
        <time>2020-11-04T10:13:26.000Z</time>
      </trkpt>
      <trkpt lat="49.79025" lon="5.58657">
        <ele>456.88</ele>
        <time>2020-11-04T10:13:31.014Z</time>
      </trkpt>
      <trkpt lat="49.79025" lon="5.58656">
        <ele>456.47</ele>
        <time>2020-11-04T10:13:36.000Z</time>
      </trkpt>
      <trkpt lat="49.79025" lon="5.58652">
        <ele>455.95</ele>
        <time>2020-11-04T10:13:40.130Z</time>
      </trkpt>
      <trkpt lat="49.79025" lon="5.58652">
        <ele>455.64</ele>
        <time>2020-11-04T10:13:44.607Z</time>
      </trkpt>
      <trkpt lat="49.79025" lon="5.58654">
        <ele>455.63</ele>
        <time>2020-11-04T10:13:49.000Z</time>
      </trkpt>
      <trkpt lat="49.79026" lon="5.58653">
        <ele>455.3</ele>
        <time>2020-11-04T10:13:54.000Z</time>
      </trkpt>
      <trkpt lat="49.79026" lon="5.58653">
        <ele>454.89</ele>
        <time>2020-11-04T10:13:59.461Z</time>
      </trkpt>
      <trkpt lat="49.79025" lon="5.58655">
        <ele>455.32</ele>
        <time>2020-11-04T10:14:03.775Z</time>
      </trkpt>
      <trkpt lat="49.79024" lon="5.58654">
        <ele>455.43</ele>
        <time>2020-11-04T10:14:08.517Z</time>
      </trkpt>
      <trkpt lat="49.79027" lon="5.58652">
        <ele>454.65</ele>
        <time>2020-11-04T10:14:12.527Z</time>
      </trkpt>
      <trkpt lat="49.79028" lon="5.58652">
        <ele>454.22</ele>
        <time>2020-11-04T10:14:16.557Z</time>
      </trkpt>
      <trkpt lat="49.79028" lon="5.5865">
        <ele>453.63</ele>
        <time>2020-11-04T10:14:21.541Z</time>
      </trkpt>
      <trkpt lat="49.79029" lon="5.5865">
        <ele>452.81</ele>
        <time>2020-11-04T10:14:26.000Z</time>
      </trkpt>
      <trkpt lat="49.7903" lon="5.58648">
        <ele>452.46</ele>
        <time>2020-11-04T10:14:31.561Z</time>
      </trkpt>
      <trkpt lat="49.7903" lon="5.58649">
        <ele>452.41</ele>
        <time>2020-11-04T10:14:35.813Z</time>
      </trkpt>
      <trkpt lat="49.79029" lon="5.5865">
        <ele>451.94</ele>
        <time>2020-11-04T10:14:40.010Z</time>
      </trkpt>
      <trkpt lat="49.79029" lon="5.58652">
        <ele>450.98</ele>
        <time>2020-11-04T10:14:45.000Z</time>
      </trkpt>
      <trkpt lat="49.79029" lon="5.58653">
        <ele>450.22</ele>
        <time>2020-11-04T10:14:49.095Z</time>
      </trkpt>
      <trkpt lat="49.79028" lon="5.58655">
        <ele>450.16</ele>
        <time>2020-11-04T10:14:54.000Z</time>
      </trkpt>
      <trkpt lat="49.79028" lon="5.58656">
        <ele>450.37</ele>
        <time>2020-11-04T10:14:59.000Z</time>
      </trkpt>
      <trkpt lat="49.79028" lon="5.58657">
        <ele>450.74</ele>
        <time>2020-11-04T10:15:04.000Z</time>
      </trkpt>
      <trkpt lat="49.79028" lon="5.58658">
        <ele>451.08</ele>
        <time>2020-11-04T10:15:09.000Z</time>
      </trkpt>
      <trkpt lat="49.79027" lon="5.58659">
        <ele>451.83</ele>
        <time>2020-11-04T10:15:14.000Z</time>
      </trkpt>
      <trkpt lat="49.79027" lon="5.58658">
        <ele>452.7</ele>
        <time>2020-11-04T10:15:19.000Z</time>
      </trkpt>
      <trkpt lat="49.79027" lon="5.58658">
        <ele>453.21</ele>
        <time>2020-11-04T10:15:23.533Z</time>
      </trkpt>
      <trkpt lat="49.79026" lon="5.58658">
        <ele>453.8</ele>
        <time>2020-11-04T10:15:28.000Z</time>
      </trkpt>
      <trkpt lat="49.79026" lon="5.58658">
        <ele>454.4</ele>
        <time>2020-11-04T10:15:33.000Z</time>
      </trkpt>
      <trkpt lat="49.79026" lon="5.58658">
        <ele>454.95</ele>
        <time>2020-11-04T10:15:38.000Z</time>
      </trkpt>
      <trkpt lat="49.79026" lon="5.58659">
        <ele>454.87</ele>
        <time>2020-11-04T10:15:42.543Z</time>
      </trkpt>
      <trkpt lat="49.79026" lon="5.58657">
        <ele>454.19</ele>
        <time>2020-11-04T10:15:47.000Z</time>
      </trkpt>
      <trkpt lat="49.79025" lon="5.58657">
        <ele>453.43</ele>
        <time>2020-11-04T10:15:52.000Z</time>
      </trkpt>
      <trkpt lat="49.79025" lon="5.58657">
        <ele>452.35</ele>
        <time>2020-11-04T10:15:57.000Z</time>
      </trkpt>
      <trkpt lat="49.79024" lon="5.58657">
        <ele>451.91</ele>
        <time>2020-11-04T10:16:01.589Z</time>
      </trkpt>
      <trkpt lat="49.79024" lon="5.58657">
        <ele>451.6</ele>
        <time>2020-11-04T10:16:06.000Z</time>
      </trkpt>
      <trkpt lat="49.79024" lon="5.58656">
        <ele>451.35</ele>
        <time>2020-11-04T10:16:10.250Z</time>
      </trkpt>
      <trkpt lat="49.79024" lon="5.58656">
        <ele>451.37</ele>
        <time>2020-11-04T10:16:15.000Z</time>
      </trkpt>
      <trkpt lat="49.79023" lon="5.58656">
        <ele>451.13</ele>
        <time>2020-11-04T10:16:20.000Z</time>
      </trkpt>
      <trkpt lat="49.79023" lon="5.58654">
        <ele>451.31</ele>
        <time>2020-11-04T10:16:25.000Z</time>
      </trkpt>
      <trkpt lat="49.79021" lon="5.58651">
        <ele>451.55</ele>
        <time>2020-11-04T10:16:30.000Z</time>
      </trkpt>
      <trkpt lat="49.79022" lon="5.5865">
        <ele>451.58</ele>
        <time>2020-11-04T10:16:35.000Z</time>
      </trkpt>
      <trkpt lat="49.79021" lon="5.5865">
        <ele>451.89</ele>
        <time>2020-11-04T10:16:40.000Z</time>
      </trkpt>
      <trkpt lat="49.7902" lon="5.58654">
        <ele>452.59</ele>
        <time>2020-11-04T10:16:45.000Z</time>
      </trkpt>
      <trkpt lat="49.79019" lon="5.58663">
        <ele>453.07</ele>
        <time>2020-11-04T10:16:50.000Z</time>
      </trkpt>
      <trkpt lat="49.79014" lon="5.58678">
        <ele>453.52</ele>
        <time>2020-11-04T10:16:54.311Z</time>
      </trkpt>
      <trkpt lat="49.79011" lon="5.58696">
        <ele>453.45</ele>
        <time>2020-11-04T10:16:58.092Z</time>
      </trkpt>
      <trkpt lat="49.79008" lon="5.5871">
        <ele>453.04</ele>
        <time>2020-11-04T10:17:01.114Z</time>
      </trkpt>
      <trkpt lat="49.79004" lon="5.58728">
        <ele>452.57</ele>
        <time>2020-11-04T10:17:04.000Z</time>
      </trkpt>
      <trkpt lat="49.79" lon="5.58742">
        <ele>452.32</ele>
        <time>2020-11-04T10:17:06.970Z</time>
      </trkpt>
      <trkpt lat="49.78998" lon="5.5876">
        <ele>451.9</ele>
        <time>2020-11-04T10:17:10.000Z</time>
      </trkpt>
      <trkpt lat="49.78995" lon="5.58774">
        <ele>451.59</ele>
        <time>2020-11-04T10:17:13.000Z</time>
      </trkpt>
      <trkpt lat="49.78991" lon="5.58791">
        <ele>451.26</ele>
        <time>2020-11-04T10:17:16.158Z</time>
      </trkpt>
      <trkpt lat="49.78989" lon="5.58807">
        <ele>450.95</ele>
        <time>2020-11-04T10:17:18.993Z</time>
      </trkpt>
      <trkpt lat="49.78987" lon="5.58823">
        <ele>450.41</ele>
        <time>2020-11-04T10:17:21.000Z</time>
      </trkpt>
      <trkpt lat="49.78985" lon="5.58838">
        <ele>449.96</ele>
        <time>2020-11-04T10:17:23.000Z</time>
      </trkpt>
      <trkpt lat="49.78981" lon="5.58855">
        <ele>449.49</ele>
        <time>2020-11-04T10:17:25.000Z</time>
      </trkpt>
      <trkpt lat="49.78979" lon="5.58872">
        <ele>449.05</ele>
        <time>2020-11-04T10:17:27.000Z</time>
      </trkpt>
      <trkpt lat="49.78976" lon="5.58888">
        <ele>448.6</ele>
        <time>2020-11-04T10:17:29.000Z</time>
      </trkpt>
      <trkpt lat="49.78974" lon="5.58904">
        <ele>448.15</ele>
        <time>2020-11-04T10:17:31.000Z</time>
      </trkpt>
      <trkpt lat="49.78973" lon="5.58921">
        <ele>447.77</ele>
        <time>2020-11-04T10:17:33.000Z</time>
      </trkpt>
      <trkpt lat="49.78969" lon="5.58938">
        <ele>447.59</ele>
        <time>2020-11-04T10:17:35.000Z</time>
      </trkpt>
      <trkpt lat="49.78967" lon="5.58954">
        <ele>447.48</ele>
        <time>2020-11-04T10:17:37.000Z</time>
      </trkpt>
      <trkpt lat="49.78979" lon="5.58963">
        <ele>447.9</ele>
        <time>2020-11-04T10:17:40.000Z</time>
      </trkpt>
      <trkpt lat="49.7899" lon="5.58958">
        <ele>447.93</ele>
        <time>2020-11-04T10:17:43.000Z</time>
      </trkpt>
      <trkpt lat="49.79001" lon="5.58954">
        <ele>448.44</ele>
        <time>2020-11-04T10:17:46.387Z</time>
      </trkpt>
      <trkpt lat="49.79012" lon="5.58953">
        <ele>448.86</ele>
        <time>2020-11-04T10:17:49.202Z</time>
      </trkpt>
      <trkpt lat="49.79022" lon="5.58946">
        <ele>448.81</ele>
        <time>2020-11-04T10:17:51.225Z</time>
      </trkpt>
      <trkpt lat="49.79035" lon="5.58947">
        <ele>448.92</ele>
        <time>2020-11-04T10:17:54.000Z</time>
      </trkpt>
      <trkpt lat="49.79046" lon="5.58947">
        <ele>448.86</ele>
        <time>2020-11-04T10:17:56.000Z</time>
      </trkpt>
      <trkpt lat="49.79056" lon="5.58945">
        <ele>448.77</ele>
        <time>2020-11-04T10:17:58.000Z</time>
      </trkpt>
      <trkpt lat="49.79067" lon="5.58944">
        <ele>448.68</ele>
        <time>2020-11-04T10:18:00.000Z</time>
      </trkpt>
      <trkpt lat="49.79077" lon="5.58945">
        <ele>448.61</ele>
        <time>2020-11-04T10:18:02.000Z</time>
      </trkpt>
      <trkpt lat="49.79088" lon="5.58944">
        <ele>448.28</ele>
        <time>2020-11-04T10:18:04.000Z</time>
      </trkpt>
      <trkpt lat="49.79099" lon="5.5894">
        <ele>447.63</ele>
        <time>2020-11-04T10:18:06.000Z</time>
      </trkpt>
      <trkpt lat="49.79111" lon="5.58937">
        <ele>447.13</ele>
        <time>2020-11-04T10:18:08.000Z</time>
      </trkpt>
      <trkpt lat="49.79123" lon="5.58932">
        <ele>446.54</ele>
        <time>2020-11-04T10:18:10.000Z</time>
      </trkpt>
      <trkpt lat="49.79135" lon="5.58927">
        <ele>446.09</ele>
        <time>2020-11-04T10:18:12.000Z</time>
      </trkpt>
      <trkpt lat="49.79146" lon="5.58923">
        <ele>445.7</ele>
        <time>2020-11-04T10:18:14.000Z</time>
      </trkpt>
      <trkpt lat="49.79159" lon="5.58916">
        <ele>445.21</ele>
        <time>2020-11-04T10:18:16.000Z</time>
      </trkpt>
      <trkpt lat="49.7917" lon="5.58907">
        <ele>444.8</ele>
        <time>2020-11-04T10:18:18.000Z</time>
      </trkpt>
      <trkpt lat="49.7918" lon="5.58899">
        <ele>444.45</ele>
        <time>2020-11-04T10:18:20.000Z</time>
      </trkpt>
      <trkpt lat="49.79189" lon="5.5889">
        <ele>443.98</ele>
        <time>2020-11-04T10:18:22.000Z</time>
      </trkpt>
      <trkpt lat="49.79199" lon="5.58882">
        <ele>443.65</ele>
        <time>2020-11-04T10:18:24.000Z</time>
      </trkpt>
      <trkpt lat="49.79208" lon="5.58877">
        <ele>443.43</ele>
        <time>2020-11-04T10:18:26.000Z</time>
      </trkpt>
      <trkpt lat="49.79216" lon="5.58868">
        <ele>443.2</ele>
        <time>2020-11-04T10:18:28.000Z</time>
      </trkpt>
      <trkpt lat="49.79226" lon="5.58858">
        <ele>442.65</ele>
        <time>2020-11-04T10:18:31.000Z</time>
      </trkpt>
      <trkpt lat="49.79237" lon="5.58853">
        <ele>442.17</ele>
        <time>2020-11-04T10:18:33.535Z</time>
      </trkpt>
      <trkpt lat="49.79249" lon="5.58852">
        <ele>441.69</ele>
        <time>2020-11-04T10:18:37.000Z</time>
      </trkpt>
      <trkpt lat="49.79258" lon="5.58852">
        <ele>441.35</ele>
        <time>2020-11-04T10:18:40.000Z</time>
      </trkpt>
      <trkpt lat="49.79268" lon="5.58853">
        <ele>441.06</ele>
        <time>2020-11-04T10:18:43.000Z</time>
      </trkpt>
      <trkpt lat="49.79278" lon="5.58856">
        <ele>441.37</ele>
        <time>2020-11-04T10:18:46.000Z</time>
      </trkpt>
      <trkpt lat="49.79288" lon="5.58862">
        <ele>442.29</ele>
        <time>2020-11-04T10:18:49.000Z</time>
      </trkpt>
      <trkpt lat="49.79297" lon="5.58869">
        <ele>444.3</ele>
        <time>2020-11-04T10:18:52.000Z</time>
      </trkpt>
      <trkpt lat="49.79305" lon="5.58876">
        <ele>446.26</ele>
        <time>2020-11-04T10:18:55.000Z</time>
      </trkpt>
      <trkpt lat="49.79316" lon="5.5888">
        <ele>448.21</ele>
        <time>2020-11-04T10:18:59.000Z</time>
      </trkpt>
      <trkpt lat="49.79328" lon="5.58882">
        <ele>448.73</ele>
        <time>2020-11-04T10:19:03.000Z</time>
      </trkpt>
      <trkpt lat="49.79338" lon="5.58881">
        <ele>449.42</ele>
        <time>2020-11-04T10:19:07.000Z</time>
      </trkpt>
      <trkpt lat="49.79348" lon="5.58876">
        <ele>450.48</ele>
        <time>2020-11-04T10:19:11.000Z</time>
      </trkpt>
      <trkpt lat="49.79358" lon="5.58875">
        <ele>452.31</ele>
        <time>2020-11-04T10:19:14.000Z</time>
      </trkpt>
      <trkpt lat="49.79368" lon="5.58872">
        <ele>453.94</ele>
        <time>2020-11-04T10:19:17.000Z</time>
      </trkpt>
      <trkpt lat="49.79381" lon="5.58868">
        <ele>455.71</ele>
        <time>2020-11-04T10:19:20.523Z</time>
      </trkpt>
      <trkpt lat="49.79391" lon="5.58866">
        <ele>456.59</ele>
        <time>2020-11-04T10:19:22.547Z</time>
      </trkpt>
      <trkpt lat="49.79403" lon="5.5886">
        <ele>457.62</ele>
        <time>2020-11-04T10:19:25.519Z</time>
      </trkpt>
      <trkpt lat="49.79416" lon="5.58857">
        <ele>457.82</ele>
        <time>2020-11-04T10:19:28.516Z</time>
      </trkpt>
      <trkpt lat="49.79428" lon="5.58851">
        <ele>457.95</ele>
        <time>2020-11-04T10:19:31.511Z</time>
      </trkpt>
      <trkpt lat="49.79437" lon="5.58848">
        <ele>458.33</ele>
        <time>2020-11-04T10:19:34.524Z</time>
      </trkpt>
      <trkpt lat="49.79449" lon="5.58843">
        <ele>458.86</ele>
        <time>2020-11-04T10:19:37.571Z</time>
      </trkpt>
      <trkpt lat="49.7946" lon="5.58838">
        <ele>459.16</ele>
        <time>2020-11-04T10:19:40.544Z</time>
      </trkpt>
      <trkpt lat="49.79471" lon="5.58834">
        <ele>459.34</ele>
        <time>2020-11-04T10:19:43.519Z</time>
      </trkpt>
      <trkpt lat="49.79481" lon="5.5883">
        <ele>459.87</ele>
        <time>2020-11-04T10:19:46.544Z</time>
      </trkpt>
      <trkpt lat="49.79493" lon="5.58829">
        <ele>460.65</ele>
        <time>2020-11-04T10:19:50.535Z</time>
      </trkpt>
      <trkpt lat="49.79503" lon="5.58823">
        <ele>461.5</ele>
        <time>2020-11-04T10:19:53.554Z</time>
      </trkpt>
      <trkpt lat="49.79515" lon="5.58822">
        <ele>463.05</ele>
        <time>2020-11-04T10:19:57.534Z</time>
      </trkpt>
      <trkpt lat="49.79527" lon="5.5882">
        <ele>463.98</ele>
        <time>2020-11-04T10:20:00.543Z</time>
      </trkpt>
      <trkpt lat="49.79537" lon="5.58819">
        <ele>464.85</ele>
        <time>2020-11-04T10:20:03.548Z</time>
      </trkpt>
      <trkpt lat="49.79547" lon="5.58819">
        <ele>466.99</ele>
        <time>2020-11-04T10:20:07.516Z</time>
      </trkpt>
      <trkpt lat="49.79559" lon="5.58818">
        <ele>469.65</ele>
        <time>2020-11-04T10:20:11.525Z</time>
      </trkpt>
      <trkpt lat="49.79585" lon="5.588">
        <ele>469.02</ele>
        <time>2020-11-04T10:20:12.000Z</time>
      </trkpt>
      <trkpt lat="49.79599" lon="5.58792">
        <ele>467.48</ele>
        <time>2020-11-04T10:20:14.000Z</time>
      </trkpt>
      <trkpt lat="49.7961" lon="5.58786">
        <ele>465.51</ele>
        <time>2020-11-04T10:20:16.540Z</time>
      </trkpt>
      <trkpt lat="49.79621" lon="5.58779">
        <ele>463.83</ele>
        <time>2020-11-04T10:20:18.000Z</time>
      </trkpt>
      <trkpt lat="49.79629" lon="5.58771">
        <ele>461.58</ele>
        <time>2020-11-04T10:20:20.415Z</time>
      </trkpt>
      <trkpt lat="49.79641" lon="5.58762">
        <ele>459.25</ele>
        <time>2020-11-04T10:20:23.518Z</time>
      </trkpt>
      <trkpt lat="49.79652" lon="5.58756">
        <ele>458.38</ele>
        <time>2020-11-04T10:20:25.538Z</time>
      </trkpt>
      <trkpt lat="49.79662" lon="5.58753">
        <ele>457.71</ele>
        <time>2020-11-04T10:20:27.529Z</time>
      </trkpt>
      <trkpt lat="49.79671" lon="5.58748">
        <ele>457.31</ele>
        <time>2020-11-04T10:20:29.536Z</time>
      </trkpt>
      <trkpt lat="49.79681" lon="5.58746">
        <ele>457.12</ele>
        <time>2020-11-04T10:20:32.520Z</time>
      </trkpt>
      <trkpt lat="49.79692" lon="5.58743">
        <ele>457.01</ele>
        <time>2020-11-04T10:20:35.531Z</time>
      </trkpt>
      <trkpt lat="49.79702" lon="5.58741">
        <ele>456.91</ele>
        <time>2020-11-04T10:20:38.549Z</time>
      </trkpt>
      <trkpt lat="49.79714" lon="5.5874">
        <ele>456.82</ele>
        <time>2020-11-04T10:20:42.525Z</time>
      </trkpt>
      <trkpt lat="49.79723" lon="5.58739">
        <ele>456.72</ele>
        <time>2020-11-04T10:20:45.529Z</time>
      </trkpt>
      <trkpt lat="49.79733" lon="5.58733">
        <ele>456.96</ele>
        <time>2020-11-04T10:20:49.276Z</time>
      </trkpt>
      <trkpt lat="49.79742" lon="5.58727">
        <ele>457.14</ele>
        <time>2020-11-04T10:20:52.535Z</time>
      </trkpt>
      <trkpt lat="49.79753" lon="5.58719">
        <ele>457.55</ele>
        <time>2020-11-04T10:20:56.532Z</time>
      </trkpt>
      <trkpt lat="49.79761" lon="5.58712">
        <ele>458.05</ele>
        <time>2020-11-04T10:20:59.562Z</time>
      </trkpt>
      <trkpt lat="49.79769" lon="5.58705">
        <ele>458.6</ele>
        <time>2020-11-04T10:21:02.532Z</time>
      </trkpt>
      <trkpt lat="49.79779" lon="5.58695">
        <ele>458.8</ele>
        <time>2020-11-04T10:21:05.539Z</time>
      </trkpt>
      <trkpt lat="49.79787" lon="5.58686">
        <ele>458.66</ele>
        <time>2020-11-04T10:21:08.537Z</time>
      </trkpt>
      <trkpt lat="49.79795" lon="5.58675">
        <ele>458.97</ele>
        <time>2020-11-04T10:21:11.519Z</time>
      </trkpt>
      <trkpt lat="49.79806" lon="5.58676">
        <ele>460.33</ele>
        <time>2020-11-04T10:21:14.550Z</time>
      </trkpt>
      <trkpt lat="49.79818" lon="5.58683">
        <ele>462.9</ele>
        <time>2020-11-04T10:21:17.547Z</time>
      </trkpt>
      <trkpt lat="49.79828" lon="5.58681">
        <ele>466.18</ele>
        <time>2020-11-04T10:21:20.937Z</time>
      </trkpt>
      <trkpt lat="49.79846" lon="5.58674">
        <ele>468.66</ele>
        <time>2020-11-04T10:21:25.514Z</time>
      </trkpt>
      <trkpt lat="49.7986" lon="5.58669">
        <ele>469.52</ele>
        <time>2020-11-04T10:21:28.533Z</time>
      </trkpt>
      <trkpt lat="49.79868" lon="5.58663">
        <ele>470.17</ele>
        <time>2020-11-04T10:21:30.530Z</time>
      </trkpt>
      <trkpt lat="49.79878" lon="5.58657">
        <ele>470.74</ele>
        <time>2020-11-04T10:21:32.544Z</time>
      </trkpt>
      <trkpt lat="49.79887" lon="5.5865">
        <ele>470.99</ele>
        <time>2020-11-04T10:21:34.534Z</time>
      </trkpt>
      <trkpt lat="49.79897" lon="5.58646">
        <ele>470.83</ele>
        <time>2020-11-04T10:21:36.520Z</time>
      </trkpt>
      <trkpt lat="49.79904" lon="5.58638">
        <ele>470.16</ele>
        <time>2020-11-04T10:21:38.546Z</time>
      </trkpt>
      <trkpt lat="49.79914" lon="5.58632">
        <ele>469.36</ele>
        <time>2020-11-04T10:21:41.534Z</time>
      </trkpt>
      <trkpt lat="49.79924" lon="5.58626">
        <ele>469.87</ele>
        <time>2020-11-04T10:21:45.535Z</time>
      </trkpt>
      <trkpt lat="49.79933" lon="5.58622">
        <ele>470.62</ele>
        <time>2020-11-04T10:21:49.322Z</time>
      </trkpt>
      <trkpt lat="49.79941" lon="5.58612">
        <ele>470.36</ele>
        <time>2020-11-04T10:21:53.539Z</time>
      </trkpt>
      <trkpt lat="49.79951" lon="5.58608">
        <ele>469.88</ele>
        <time>2020-11-04T10:21:57.521Z</time>
      </trkpt>
      <trkpt lat="49.79961" lon="5.58601">
        <ele>469.55</ele>
        <time>2020-11-04T10:21:59.521Z</time>
      </trkpt>
      <trkpt lat="49.7997" lon="5.58595">
        <ele>468.48</ele>
        <time>2020-11-04T10:22:01.502Z</time>
      </trkpt>
      <trkpt lat="49.7998" lon="5.58596">
        <ele>462.63</ele>
        <time>2020-11-04T10:22:05.547Z</time>
      </trkpt>
      <trkpt lat="49.79992" lon="5.58589">
        <ele>460.18</ele>
        <time>2020-11-04T10:22:07.000Z</time>
      </trkpt>
      <trkpt lat="49.80004" lon="5.58583">
        <ele>458.55</ele>
        <time>2020-11-04T10:22:09.000Z</time>
      </trkpt>
      <trkpt lat="49.80017" lon="5.58575">
        <ele>457.13</ele>
        <time>2020-11-04T10:22:11.000Z</time>
      </trkpt>
      <trkpt lat="49.80028" lon="5.58571">
        <ele>455.93</ele>
        <time>2020-11-04T10:22:13.565Z</time>
      </trkpt>
      <trkpt lat="49.80063" lon="5.58546">
        <ele>456.3</ele>
        <time>2020-11-04T10:22:15.000Z</time>
      </trkpt>
      <trkpt lat="49.8008" lon="5.58533">
        <ele>456.95</ele>
        <time>2020-11-04T10:22:16.000Z</time>
      </trkpt>
      <trkpt lat="49.80092" lon="5.58526">
        <ele>457.7</ele>
        <time>2020-11-04T10:22:17.000Z</time>
      </trkpt>
      <trkpt lat="49.80101" lon="5.58522">
        <ele>458.24</ele>
        <time>2020-11-04T10:22:18.000Z</time>
      </trkpt>
      <trkpt lat="49.80117" lon="5.58516">
        <ele>458.79</ele>
        <time>2020-11-04T10:22:20.000Z</time>
      </trkpt>
      <trkpt lat="49.80131" lon="5.58512">
        <ele>458.99</ele>
        <time>2020-11-04T10:22:22.000Z</time>
      </trkpt>
      <trkpt lat="49.80144" lon="5.58509">
        <ele>459.1</ele>
        <time>2020-11-04T10:22:24.000Z</time>
      </trkpt>
      <trkpt lat="49.80156" lon="5.58506">
        <ele>459.24</ele>
        <time>2020-11-04T10:22:26.000Z</time>
      </trkpt>
      <trkpt lat="49.80168" lon="5.58502">
        <ele>459.38</ele>
        <time>2020-11-04T10:22:28.000Z</time>
      </trkpt>
      <trkpt lat="49.8018" lon="5.58498">
        <ele>459.26</ele>
        <time>2020-11-04T10:22:30.000Z</time>
      </trkpt>
      <trkpt lat="49.80192" lon="5.585">
        <ele>459.3</ele>
        <time>2020-11-04T10:22:33.000Z</time>
      </trkpt>
      <trkpt lat="49.80204" lon="5.58498">
        <ele>459.4</ele>
        <time>2020-11-04T10:22:35.000Z</time>
      </trkpt>
      <trkpt lat="49.80214" lon="5.58499">
        <ele>459.51</ele>
        <time>2020-11-04T10:22:37.000Z</time>
      </trkpt>
      <trkpt lat="49.80227" lon="5.58496">
        <ele>459.95</ele>
        <time>2020-11-04T10:22:40.543Z</time>
      </trkpt>
      <trkpt lat="49.80238" lon="5.58496">
        <ele>460.8</ele>
        <time>2020-11-04T10:22:42.881Z</time>
      </trkpt>
      <trkpt lat="49.8025" lon="5.58499">
        <ele>461.56</ele>
        <time>2020-11-04T10:22:45.508Z</time>
      </trkpt>
      <trkpt lat="49.80262" lon="5.58501">
        <ele>461.94</ele>
        <time>2020-11-04T10:22:48.515Z</time>
      </trkpt>
      <trkpt lat="49.80278" lon="5.58508">
        <ele>462.14</ele>
        <time>2020-11-04T10:22:52.700Z</time>
      </trkpt>
      <trkpt lat="49.80289" lon="5.58509">
        <ele>462.11</ele>
        <time>2020-11-04T10:22:55.540Z</time>
      </trkpt>
      <trkpt lat="49.80299" lon="5.58503">
        <ele>461.89</ele>
        <time>2020-11-04T10:22:56.000Z</time>
      </trkpt>
      <trkpt lat="49.80309" lon="5.58503">
        <ele>461.5</ele>
        <time>2020-11-04T10:22:58.544Z</time>
      </trkpt>
      <trkpt lat="49.8032" lon="5.58511">
        <ele>461.26</ele>
        <time>2020-11-04T10:23:02.537Z</time>
      </trkpt>
      <trkpt lat="49.8033" lon="5.5851">
        <ele>461.09</ele>
        <time>2020-11-04T10:23:04.535Z</time>
      </trkpt>
      <trkpt lat="49.8034" lon="5.58512">
        <ele>460.43</ele>
        <time>2020-11-04T10:23:06.535Z</time>
      </trkpt>
      <trkpt lat="49.8035" lon="5.58516">
        <ele>459.95</ele>
        <time>2020-11-04T10:23:08.544Z</time>
      </trkpt>
      <trkpt lat="49.80363" lon="5.58518">
        <ele>459.4</ele>
        <time>2020-11-04T10:23:10.528Z</time>
      </trkpt>
      <trkpt lat="49.80376" lon="5.58512">
        <ele>458.64</ele>
        <time>2020-11-04T10:23:12.000Z</time>
      </trkpt>
      <trkpt lat="49.80388" lon="5.58514">
        <ele>458.16</ele>
        <time>2020-11-04T10:23:14.000Z</time>
      </trkpt>
      <trkpt lat="49.80399" lon="5.58516">
        <ele>458</ele>
        <time>2020-11-04T10:23:16.000Z</time>
      </trkpt>
      <trkpt lat="49.80409" lon="5.58517">
        <ele>457.96</ele>
        <time>2020-11-04T10:23:18.000Z</time>
      </trkpt>
      <trkpt lat="49.80419" lon="5.58519">
        <ele>457.86</ele>
        <time>2020-11-04T10:23:20.000Z</time>
      </trkpt>
      <trkpt lat="49.80429" lon="5.5852">
        <ele>457.87</ele>
        <time>2020-11-04T10:23:22.000Z</time>
      </trkpt>
      <trkpt lat="49.80438" lon="5.58521">
        <ele>458.13</ele>
        <time>2020-11-04T10:23:24.000Z</time>
      </trkpt>
      <trkpt lat="49.80447" lon="5.58523">
        <ele>458.64</ele>
        <time>2020-11-04T10:23:26.000Z</time>
      </trkpt>
      <trkpt lat="49.80457" lon="5.58524">
        <ele>459.19</ele>
        <time>2020-11-04T10:23:28.000Z</time>
      </trkpt>
      <trkpt lat="49.80466" lon="5.58526">
        <ele>459.68</ele>
        <time>2020-11-04T10:23:30.000Z</time>
      </trkpt>
      <trkpt lat="49.80475" lon="5.58529">
        <ele>460.17</ele>
        <time>2020-11-04T10:23:32.000Z</time>
      </trkpt>
      <trkpt lat="49.80488" lon="5.58535">
        <ele>460.87</ele>
        <time>2020-11-04T10:23:35.000Z</time>
      </trkpt>
      <trkpt lat="49.805" lon="5.58542">
        <ele>461.53</ele>
        <time>2020-11-04T10:23:38.000Z</time>
      </trkpt>
      <trkpt lat="49.80509" lon="5.5855">
        <ele>461.97</ele>
        <time>2020-11-04T10:23:40.507Z</time>
      </trkpt>
      <trkpt lat="49.80518" lon="5.58556">
        <ele>462.35</ele>
        <time>2020-11-04T10:23:42.042Z</time>
      </trkpt>
      <trkpt lat="49.80529" lon="5.58565">
        <ele>463.17</ele>
        <time>2020-11-04T10:23:45.517Z</time>
      </trkpt>
      <trkpt lat="49.80543" lon="5.58559">
        <ele>463.24</ele>
        <time>2020-11-04T10:23:48.000Z</time>
      </trkpt>
      <trkpt lat="49.80554" lon="5.5855">
        <ele>463.08</ele>
        <time>2020-11-04T10:23:50.000Z</time>
      </trkpt>
      <trkpt lat="49.80564" lon="5.58538">
        <ele>462.76</ele>
        <time>2020-11-04T10:23:52.000Z</time>
      </trkpt>
      <trkpt lat="49.80572" lon="5.58529">
        <ele>462.35</ele>
        <time>2020-11-04T10:23:54.240Z</time>
      </trkpt>
      <trkpt lat="49.80582" lon="5.58529">
        <ele>461.75</ele>
        <time>2020-11-04T10:23:58.000Z</time>
      </trkpt>
      <trkpt lat="49.80581" lon="5.58546">
        <ele>461.29</ele>
        <time>2020-11-04T10:24:01.122Z</time>
      </trkpt>
      <trkpt lat="49.80585" lon="5.58565">
        <ele>460.9</ele>
        <time>2020-11-04T10:24:04.532Z</time>
      </trkpt>
      <trkpt lat="49.80588" lon="5.58579">
        <ele>460.68</ele>
        <time>2020-11-04T10:24:06.539Z</time>
      </trkpt>
      <trkpt lat="49.80591" lon="5.58597">
        <ele>460.31</ele>
        <time>2020-11-04T10:24:09.518Z</time>
      </trkpt>
      <trkpt lat="49.80594" lon="5.58611">
        <ele>460.03</ele>
        <time>2020-11-04T10:24:11.549Z</time>
      </trkpt>
      <trkpt lat="49.80601" lon="5.58627">
        <ele>459.64</ele>
        <time>2020-11-04T10:24:14.560Z</time>
      </trkpt>
      <trkpt lat="49.8061" lon="5.58644">
        <ele>459.38</ele>
        <time>2020-11-04T10:24:17.508Z</time>
      </trkpt>
      <trkpt lat="49.80614" lon="5.5866">
        <ele>459.3</ele>
        <time>2020-11-04T10:24:21.000Z</time>
      </trkpt>
      <trkpt lat="49.80618" lon="5.58673">
        <ele>459.33</ele>
        <time>2020-11-04T10:24:23.000Z</time>
      </trkpt>
      <trkpt lat="49.80622" lon="5.58687">
        <ele>459.41</ele>
        <time>2020-11-04T10:24:25.000Z</time>
      </trkpt>
      <trkpt lat="49.80627" lon="5.58699">
        <ele>459.51</ele>
        <time>2020-11-04T10:24:27.000Z</time>
      </trkpt>
      <trkpt lat="49.8063" lon="5.58712">
        <ele>459.64</ele>
        <time>2020-11-04T10:24:29.000Z</time>
      </trkpt>
      <trkpt lat="49.80637" lon="5.5873">
        <ele>459.68</ele>
        <time>2020-11-04T10:24:32.000Z</time>
      </trkpt>
      <trkpt lat="49.80641" lon="5.58743">
        <ele>459.68</ele>
        <time>2020-11-04T10:24:34.000Z</time>
      </trkpt>
      <trkpt lat="49.80646" lon="5.58756">
        <ele>459.72</ele>
        <time>2020-11-04T10:24:36.000Z</time>
      </trkpt>
      <trkpt lat="49.80652" lon="5.58769">
        <ele>459.78</ele>
        <time>2020-11-04T10:24:38.000Z</time>
      </trkpt>
      <trkpt lat="49.80658" lon="5.58783">
        <ele>459.79</ele>
        <time>2020-11-04T10:24:40.000Z</time>
      </trkpt>
      <trkpt lat="49.80665" lon="5.58795">
        <ele>459.75</ele>
        <time>2020-11-04T10:24:42.000Z</time>
      </trkpt>
      <trkpt lat="49.80671" lon="5.58807">
        <ele>459.7</ele>
        <time>2020-11-04T10:24:44.000Z</time>
      </trkpt>
      <trkpt lat="49.80677" lon="5.58819">
        <ele>459.6</ele>
        <time>2020-11-04T10:24:46.000Z</time>
      </trkpt>
      <trkpt lat="49.80684" lon="5.58831">
        <ele>459.5</ele>
        <time>2020-11-04T10:24:48.000Z</time>
      </trkpt>
      <trkpt lat="49.80692" lon="5.58843">
        <ele>459.46</ele>
        <time>2020-11-04T10:24:50.000Z</time>
      </trkpt>
      <trkpt lat="49.80699" lon="5.58854">
        <ele>459.34</ele>
        <time>2020-11-04T10:24:52.000Z</time>
      </trkpt>
      <trkpt lat="49.80706" lon="5.58864">
        <ele>459.28</ele>
        <time>2020-11-04T10:24:54.000Z</time>
      </trkpt>
      <trkpt lat="49.80714" lon="5.58874">
        <ele>459.24</ele>
        <time>2020-11-04T10:24:56.000Z</time>
      </trkpt>
      <trkpt lat="49.80722" lon="5.58884">
        <ele>459.37</ele>
        <time>2020-11-04T10:24:58.000Z</time>
      </trkpt>
      <trkpt lat="49.80731" lon="5.58893">
        <ele>459.58</ele>
        <time>2020-11-04T10:25:00.000Z</time>
      </trkpt>
      <trkpt lat="49.8074" lon="5.58901">
        <ele>459.79</ele>
        <time>2020-11-04T10:25:02.000Z</time>
      </trkpt>
      <trkpt lat="49.80749" lon="5.58909">
        <ele>460.03</ele>
        <time>2020-11-04T10:25:04.000Z</time>
      </trkpt>
      <trkpt lat="49.80758" lon="5.58916">
        <ele>460.15</ele>
        <time>2020-11-04T10:25:06.000Z</time>
      </trkpt>
      <trkpt lat="49.80768" lon="5.58922">
        <ele>460.3</ele>
        <time>2020-11-04T10:25:08.000Z</time>
      </trkpt>
      <trkpt lat="49.80777" lon="5.58927">
        <ele>460.47</ele>
        <time>2020-11-04T10:25:10.000Z</time>
      </trkpt>
      <trkpt lat="49.80786" lon="5.58933">
        <ele>460.85</ele>
        <time>2020-11-04T10:25:12.000Z</time>
      </trkpt>
      <trkpt lat="49.80795" lon="5.58938">
        <ele>461.21</ele>
        <time>2020-11-04T10:25:14.000Z</time>
      </trkpt>
      <trkpt lat="49.80803" lon="5.58942">
        <ele>461.51</ele>
        <time>2020-11-04T10:25:16.000Z</time>
      </trkpt>
      <trkpt lat="49.80814" lon="5.58949">
        <ele>462.15</ele>
        <time>2020-11-04T10:25:19.000Z</time>
      </trkpt>
      <trkpt lat="49.80825" lon="5.58952">
        <ele>463</ele>
        <time>2020-11-04T10:25:21.733Z</time>
      </trkpt>
      <trkpt lat="49.80835" lon="5.58961">
        <ele>463.86</ele>
        <time>2020-11-04T10:25:25.339Z</time>
      </trkpt>
      <trkpt lat="49.80846" lon="5.58976">
        <ele>464.21</ele>
        <time>2020-11-04T10:25:28.534Z</time>
      </trkpt>
      <trkpt lat="49.80848" lon="5.5899">
        <ele>464.22</ele>
        <time>2020-11-04T10:25:30.547Z</time>
      </trkpt>
      <trkpt lat="49.80846" lon="5.5901">
        <ele>464.44</ele>
        <time>2020-11-04T10:25:33.551Z</time>
      </trkpt>
      <trkpt lat="49.80844" lon="5.59028">
        <ele>464.71</ele>
        <time>2020-11-04T10:25:36.511Z</time>
      </trkpt>
      <trkpt lat="49.80845" lon="5.59042">
        <ele>464.82</ele>
        <time>2020-11-04T10:25:38.560Z</time>
      </trkpt>
      <trkpt lat="49.80847" lon="5.5906">
        <ele>465.15</ele>
        <time>2020-11-04T10:25:41.530Z</time>
      </trkpt>
      <trkpt lat="49.80849" lon="5.59076">
        <ele>465.38</ele>
        <time>2020-11-04T10:25:44.525Z</time>
      </trkpt>
      <trkpt lat="49.80851" lon="5.59093">
        <ele>465.6</ele>
        <time>2020-11-04T10:25:47.528Z</time>
      </trkpt>
      <trkpt lat="49.80853" lon="5.59109">
        <ele>465.5</ele>
        <time>2020-11-04T10:25:50.607Z</time>
      </trkpt>
      <trkpt lat="49.80855" lon="5.59125">
        <ele>465.6</ele>
        <time>2020-11-04T10:25:54.060Z</time>
      </trkpt>
      <trkpt lat="49.80857" lon="5.59141">
        <ele>465.26</ele>
        <time>2020-11-04T10:25:57.000Z</time>
      </trkpt>
      <trkpt lat="49.80858" lon="5.59159">
        <ele>465.66</ele>
        <time>2020-11-04T10:26:01.181Z</time>
      </trkpt>
      <trkpt lat="49.80858" lon="5.59176">
        <ele>466.25</ele>
        <time>2020-11-04T10:26:04.512Z</time>
      </trkpt>
      <trkpt lat="49.80854" lon="5.59193">
        <ele>467.63</ele>
        <time>2020-11-04T10:26:07.526Z</time>
      </trkpt>
      <trkpt lat="49.80849" lon="5.59205">
        <ele>469.19</ele>
        <time>2020-11-04T10:26:10.512Z</time>
      </trkpt>
      <trkpt lat="49.80847" lon="5.5922">
        <ele>471.55</ele>
        <time>2020-11-04T10:26:14.508Z</time>
      </trkpt>
      <trkpt lat="49.80845" lon="5.5924">
        <ele>473.66</ele>
        <time>2020-11-04T10:26:17.515Z</time>
      </trkpt>
      <trkpt lat="49.80845" lon="5.59255">
        <ele>475.06</ele>
        <time>2020-11-04T10:26:19.508Z</time>
      </trkpt>
      <trkpt lat="49.80845" lon="5.59272">
        <ele>477.11</ele>
        <time>2020-11-04T10:26:21.920Z</time>
      </trkpt>
      <trkpt lat="49.80846" lon="5.59291">
        <ele>478.68</ele>
        <time>2020-11-04T10:26:24.542Z</time>
      </trkpt>
      <trkpt lat="49.80846" lon="5.59309">
        <ele>478.35</ele>
        <time>2020-11-04T10:26:26.532Z</time>
      </trkpt>
      <trkpt lat="49.80848" lon="5.59328">
        <ele>477.98</ele>
        <time>2020-11-04T10:26:28.535Z</time>
      </trkpt>
      <trkpt lat="49.80851" lon="5.59343">
        <ele>477.58</ele>
        <time>2020-11-04T10:26:30.000Z</time>
      </trkpt>
      <trkpt lat="49.80851" lon="5.59361">
        <ele>477.07</ele>
        <time>2020-11-04T10:26:32.000Z</time>
      </trkpt>
      <trkpt lat="49.80852" lon="5.59377">
        <ele>476.62</ele>
        <time>2020-11-04T10:26:34.000Z</time>
      </trkpt>
      <trkpt lat="49.80852" lon="5.59398">
        <ele>476.26</ele>
        <time>2020-11-04T10:26:36.512Z</time>
      </trkpt>
      <trkpt lat="49.80853" lon="5.59413">
        <ele>476.51</ele>
        <time>2020-11-04T10:26:38.000Z</time>
      </trkpt>
      <trkpt lat="49.80854" lon="5.59432">
        <ele>476.67</ele>
        <time>2020-11-04T10:26:40.000Z</time>
      </trkpt>
      <trkpt lat="49.80854" lon="5.59451">
        <ele>476.52</ele>
        <time>2020-11-04T10:26:42.000Z</time>
      </trkpt>
      <trkpt lat="49.80854" lon="5.59465">
        <ele>476.22</ele>
        <time>2020-11-04T10:26:44.582Z</time>
      </trkpt>
      <trkpt lat="49.80856" lon="5.59482">
        <ele>475.79</ele>
        <time>2020-11-04T10:26:47.520Z</time>
      </trkpt>
      <trkpt lat="49.80855" lon="5.59498">
        <ele>476.43</ele>
        <time>2020-11-04T10:26:49.511Z</time>
      </trkpt>
      <trkpt lat="49.80855" lon="5.59517">
        <ele>477.88</ele>
        <time>2020-11-04T10:26:53.557Z</time>
      </trkpt>
      <trkpt lat="49.80858" lon="5.59535">
        <ele>479.02</ele>
        <time>2020-11-04T10:26:56.571Z</time>
      </trkpt>
      <trkpt lat="49.80858" lon="5.59549">
        <ele>478.79</ele>
        <time>2020-11-04T10:26:58.523Z</time>
      </trkpt>
      <trkpt lat="49.80857" lon="5.59569">
        <ele>477.12</ele>
        <time>2020-11-04T10:27:00.508Z</time>
      </trkpt>
      <trkpt lat="49.80857" lon="5.59588">
        <ele>474.96</ele>
        <time>2020-11-04T10:27:02.538Z</time>
      </trkpt>
      <trkpt lat="49.80854" lon="5.59601">
        <ele>473.24</ele>
        <time>2020-11-04T10:27:04.543Z</time>
      </trkpt>
      <trkpt lat="49.80846" lon="5.59616">
        <ele>471.85</ele>
        <time>2020-11-04T10:27:06.576Z</time>
      </trkpt>
      <trkpt lat="49.8084" lon="5.59627">
        <ele>470.75</ele>
        <time>2020-11-04T10:27:08.566Z</time>
      </trkpt>
      <trkpt lat="49.80833" lon="5.59637">
        <ele>469.5</ele>
        <time>2020-11-04T10:27:10.550Z</time>
      </trkpt>
      <trkpt lat="49.80825" lon="5.5965">
        <ele>468.25</ele>
        <time>2020-11-04T10:27:12.560Z</time>
      </trkpt>
      <trkpt lat="49.80815" lon="5.5966">
        <ele>467.05</ele>
        <time>2020-11-04T10:27:14.556Z</time>
      </trkpt>
      <trkpt lat="49.80806" lon="5.5967">
        <ele>466.06</ele>
        <time>2020-11-04T10:27:16.542Z</time>
      </trkpt>
      <trkpt lat="49.80798" lon="5.59679">
        <ele>465.76</ele>
        <time>2020-11-04T10:27:18.541Z</time>
      </trkpt>
      <trkpt lat="49.80791" lon="5.59689">
        <ele>466.17</ele>
        <time>2020-11-04T10:27:20.520Z</time>
      </trkpt>
      <trkpt lat="49.80779" lon="5.59701">
        <ele>467.41</ele>
        <time>2020-11-04T10:27:23.550Z</time>
      </trkpt>
      <trkpt lat="49.80769" lon="5.59713">
        <ele>467.79</ele>
        <time>2020-11-04T10:27:25.000Z</time>
      </trkpt>
      <trkpt lat="49.80758" lon="5.59724">
        <ele>467.71</ele>
        <time>2020-11-04T10:27:27.000Z</time>
      </trkpt>
      <trkpt lat="49.80747" lon="5.59733">
        <ele>468.2</ele>
        <time>2020-11-04T10:27:28.000Z</time>
      </trkpt>
      <trkpt lat="49.80736" lon="5.5974">
        <ele>468.53</ele>
        <time>2020-11-04T10:27:29.000Z</time>
      </trkpt>
      <trkpt lat="49.80727" lon="5.59747">
        <ele>468.91</ele>
        <time>2020-11-04T10:27:30.000Z</time>
      </trkpt>
      <trkpt lat="49.80719" lon="5.59756">
        <ele>469.16</ele>
        <time>2020-11-04T10:27:31.000Z</time>
      </trkpt>
      <trkpt lat="49.8071" lon="5.59766">
        <ele>469.33</ele>
        <time>2020-11-04T10:27:32.000Z</time>
      </trkpt>
      <trkpt lat="49.80699" lon="5.5978">
        <ele>469.47</ele>
        <time>2020-11-04T10:27:33.000Z</time>
      </trkpt>
      <trkpt lat="49.8069" lon="5.59794">
        <ele>469.22</ele>
        <time>2020-11-04T10:27:34.000Z</time>
      </trkpt>
      <trkpt lat="49.80685" lon="5.59808">
        <ele>468.94</ele>
        <time>2020-11-04T10:27:35.000Z</time>
      </trkpt>
      <trkpt lat="49.80675" lon="5.59828">
        <ele>468.54</ele>
        <time>2020-11-04T10:27:37.000Z</time>
      </trkpt>
      <trkpt lat="49.80664" lon="5.59851">
        <ele>467.58</ele>
        <time>2020-11-04T10:27:39.000Z</time>
      </trkpt>
      <trkpt lat="49.80659" lon="5.59871">
        <ele>466.99</ele>
        <time>2020-11-04T10:27:40.000Z</time>
      </trkpt>
      <trkpt lat="49.80654" lon="5.59885">
        <ele>466.36</ele>
        <time>2020-11-04T10:27:41.000Z</time>
      </trkpt>
      <trkpt lat="49.80645" lon="5.59909">
        <ele>465.54</ele>
        <time>2020-11-04T10:27:43.000Z</time>
      </trkpt>
      <trkpt lat="49.8064" lon="5.59932">
        <ele>464.82</ele>
        <time>2020-11-04T10:27:45.000Z</time>
      </trkpt>
      <trkpt lat="49.80638" lon="5.59956">
        <ele>464.06</ele>
        <time>2020-11-04T10:27:47.000Z</time>
      </trkpt>
      <trkpt lat="49.80636" lon="5.59978">
        <ele>463.27</ele>
        <time>2020-11-04T10:27:49.000Z</time>
      </trkpt>
      <trkpt lat="49.80633" lon="5.60003">
        <ele>462.29</ele>
        <time>2020-11-04T10:27:51.000Z</time>
      </trkpt>
      <trkpt lat="49.80629" lon="5.60023">
        <ele>461.51</ele>
        <time>2020-11-04T10:27:53.000Z</time>
      </trkpt>
      <trkpt lat="49.80625" lon="5.60041">
        <ele>460.89</ele>
        <time>2020-11-04T10:27:55.000Z</time>
      </trkpt>
      <trkpt lat="49.80624" lon="5.60058">
        <ele>460.18</ele>
        <time>2020-11-04T10:27:57.000Z</time>
      </trkpt>
      <trkpt lat="49.80622" lon="5.60074">
        <ele>459.14</ele>
        <time>2020-11-04T10:27:59.000Z</time>
      </trkpt>
      <trkpt lat="49.80616" lon="5.60089">
        <ele>457.16</ele>
        <time>2020-11-04T10:28:02.000Z</time>
      </trkpt>
      <trkpt lat="49.8061" lon="5.60103">
        <ele>456.09</ele>
        <time>2020-11-04T10:28:04.000Z</time>
      </trkpt>
      <trkpt lat="49.80603" lon="5.60115">
        <ele>455.25</ele>
        <time>2020-11-04T10:28:06.000Z</time>
      </trkpt>
      <trkpt lat="49.80597" lon="5.60127">
        <ele>454.59</ele>
        <time>2020-11-04T10:28:08.537Z</time>
      </trkpt>
      <trkpt lat="49.80589" lon="5.60143">
        <ele>453.95</ele>
        <time>2020-11-04T10:28:11.000Z</time>
      </trkpt>
      <trkpt lat="49.80585" lon="5.60158">
        <ele>453.45</ele>
        <time>2020-11-04T10:28:13.000Z</time>
      </trkpt>
      <trkpt lat="49.8058" lon="5.60172">
        <ele>453.01</ele>
        <time>2020-11-04T10:28:15.501Z</time>
      </trkpt>
      <trkpt lat="49.80577" lon="5.60185">
        <ele>452.67</ele>
        <time>2020-11-04T10:28:17.000Z</time>
      </trkpt>
      <trkpt lat="49.80576" lon="5.60202">
        <ele>452.18</ele>
        <time>2020-11-04T10:28:19.000Z</time>
      </trkpt>
      <trkpt lat="49.80575" lon="5.6022">
        <ele>451.75</ele>
        <time>2020-11-04T10:28:21.000Z</time>
      </trkpt>
      <trkpt lat="49.80573" lon="5.60239">
        <ele>451.27</ele>
        <time>2020-11-04T10:28:23.000Z</time>
      </trkpt>
      <trkpt lat="49.8057" lon="5.60256">
        <ele>450.77</ele>
        <time>2020-11-04T10:28:25.000Z</time>
      </trkpt>
      <trkpt lat="49.80566" lon="5.60272">
        <ele>450.4</ele>
        <time>2020-11-04T10:28:27.000Z</time>
      </trkpt>
      <trkpt lat="49.80562" lon="5.60286">
        <ele>450.42</ele>
        <time>2020-11-04T10:28:29.000Z</time>
      </trkpt>
      <trkpt lat="49.80559" lon="5.60303">
        <ele>450.72</ele>
        <time>2020-11-04T10:28:31.000Z</time>
      </trkpt>
      <trkpt lat="49.80555" lon="5.60324">
        <ele>450.77</ele>
        <time>2020-11-04T10:28:33.000Z</time>
      </trkpt>
      <trkpt lat="49.8055" lon="5.60338">
        <ele>450.78</ele>
        <time>2020-11-04T10:28:35.000Z</time>
      </trkpt>
      <trkpt lat="49.8055" lon="5.60355">
        <ele>450.6</ele>
        <time>2020-11-04T10:28:37.000Z</time>
      </trkpt>
      <trkpt lat="49.80552" lon="5.6037">
        <ele>450.23</ele>
        <time>2020-11-04T10:28:39.000Z</time>
      </trkpt>
      <trkpt lat="49.80553" lon="5.60386">
        <ele>450.02</ele>
        <time>2020-11-04T10:28:41.000Z</time>
      </trkpt>
      <trkpt lat="49.80555" lon="5.60403">
        <ele>449.95</ele>
        <time>2020-11-04T10:28:43.000Z</time>
      </trkpt>
      <trkpt lat="49.80557" lon="5.60419">
        <ele>449.84</ele>
        <time>2020-11-04T10:28:45.000Z</time>
      </trkpt>
      <trkpt lat="49.80559" lon="5.60436">
        <ele>449.68</ele>
        <time>2020-11-04T10:28:47.000Z</time>
      </trkpt>
      <trkpt lat="49.80563" lon="5.60453">
        <ele>449.54</ele>
        <time>2020-11-04T10:28:49.000Z</time>
      </trkpt>
      <trkpt lat="49.80566" lon="5.60468">
        <ele>449.81</ele>
        <time>2020-11-04T10:28:51.000Z</time>
      </trkpt>
      <trkpt lat="49.80573" lon="5.60488">
        <ele>450.11</ele>
        <time>2020-11-04T10:28:54.000Z</time>
      </trkpt>
      <trkpt lat="49.80578" lon="5.605">
        <ele>449.93</ele>
        <time>2020-11-04T10:28:55.000Z</time>
      </trkpt>
      <trkpt lat="49.80585" lon="5.6052">
        <ele>449.4</ele>
        <time>2020-11-04T10:28:57.000Z</time>
      </trkpt>
      <trkpt lat="49.80591" lon="5.6054">
        <ele>448.83</ele>
        <time>2020-11-04T10:29:00.000Z</time>
      </trkpt>
      <trkpt lat="49.80597" lon="5.60561">
        <ele>448.61</ele>
        <time>2020-11-04T10:29:02.000Z</time>
      </trkpt>
      <trkpt lat="49.80604" lon="5.60581">
        <ele>448.13</ele>
        <time>2020-11-04T10:29:04.000Z</time>
      </trkpt>
      <trkpt lat="49.8061" lon="5.606">
        <ele>447.7</ele>
        <time>2020-11-04T10:29:06.000Z</time>
      </trkpt>
      <trkpt lat="49.80612" lon="5.60616">
        <ele>447.52</ele>
        <time>2020-11-04T10:29:08.000Z</time>
      </trkpt>
      <trkpt lat="49.80615" lon="5.60631">
        <ele>446.83</ele>
        <time>2020-11-04T10:29:10.000Z</time>
      </trkpt>
      <trkpt lat="49.80618" lon="5.60646">
        <ele>445.67</ele>
        <time>2020-11-04T10:29:12.000Z</time>
      </trkpt>
      <trkpt lat="49.80622" lon="5.60661">
        <ele>443.48</ele>
        <time>2020-11-04T10:29:14.643Z</time>
      </trkpt>
      <trkpt lat="49.80625" lon="5.60681">
        <ele>441.44</ele>
        <time>2020-11-04T10:29:17.000Z</time>
      </trkpt>
      <trkpt lat="49.80625" lon="5.60697">
        <ele>440.2</ele>
        <time>2020-11-04T10:29:19.000Z</time>
      </trkpt>
      <trkpt lat="49.80624" lon="5.60714">
        <ele>439.4</ele>
        <time>2020-11-04T10:29:21.000Z</time>
      </trkpt>
      <trkpt lat="49.80623" lon="5.60729">
        <ele>439.09</ele>
        <time>2020-11-04T10:29:23.000Z</time>
      </trkpt>
      <trkpt lat="49.80621" lon="5.60746">
        <ele>438.89</ele>
        <time>2020-11-04T10:29:25.000Z</time>
      </trkpt>
      <trkpt lat="49.8062" lon="5.60764">
        <ele>438.5</ele>
        <time>2020-11-04T10:29:27.000Z</time>
      </trkpt>
      <trkpt lat="49.80618" lon="5.60782">
        <ele>438.75</ele>
        <time>2020-11-04T10:29:29.000Z</time>
      </trkpt>
      <trkpt lat="49.80613" lon="5.60804">
        <ele>438.45</ele>
        <time>2020-11-04T10:29:31.000Z</time>
      </trkpt>
      <trkpt lat="49.80608" lon="5.60825">
        <ele>438.06</ele>
        <time>2020-11-04T10:29:33.000Z</time>
      </trkpt>
      <trkpt lat="49.80602" lon="5.60843">
        <ele>437.44</ele>
        <time>2020-11-04T10:29:35.000Z</time>
      </trkpt>
      <trkpt lat="49.80596" lon="5.60859">
        <ele>436.84</ele>
        <time>2020-11-04T10:29:37.000Z</time>
      </trkpt>
      <trkpt lat="49.80588" lon="5.60873">
        <ele>436.61</ele>
        <time>2020-11-04T10:29:39.000Z</time>
      </trkpt>
      <trkpt lat="49.80579" lon="5.60885">
        <ele>436.88</ele>
        <time>2020-11-04T10:29:41.000Z</time>
      </trkpt>
      <trkpt lat="49.80574" lon="5.60897">
        <ele>436.76</ele>
        <time>2020-11-04T10:29:42.000Z</time>
      </trkpt>
      <trkpt lat="49.80565" lon="5.60916">
        <ele>436.56</ele>
        <time>2020-11-04T10:29:44.000Z</time>
      </trkpt>
      <trkpt lat="49.80555" lon="5.60933">
        <ele>436.45</ele>
        <time>2020-11-04T10:29:46.000Z</time>
      </trkpt>
      <trkpt lat="49.80542" lon="5.60949">
        <ele>436.01</ele>
        <time>2020-11-04T10:29:48.000Z</time>
      </trkpt>
      <trkpt lat="49.80535" lon="5.60967">
        <ele>435.31</ele>
        <time>2020-11-04T10:29:50.000Z</time>
      </trkpt>
      <trkpt lat="49.80537" lon="5.60983">
        <ele>434.34</ele>
        <time>2020-11-04T10:29:52.000Z</time>
      </trkpt>
      <trkpt lat="49.80545" lon="5.60996">
        <ele>432.77</ele>
        <time>2020-11-04T10:29:55.000Z</time>
      </trkpt>
      <trkpt lat="49.8055" lon="5.61008">
        <ele>431.27</ele>
        <time>2020-11-04T10:29:57.000Z</time>
      </trkpt>
      <trkpt lat="49.80556" lon="5.61021">
        <ele>429.96</ele>
        <time>2020-11-04T10:29:59.387Z</time>
      </trkpt>
      <trkpt lat="49.80567" lon="5.61039">
        <ele>429.5</ele>
        <time>2020-11-04T10:30:01.000Z</time>
      </trkpt>
      <trkpt lat="49.80573" lon="5.6105">
        <ele>429.38</ele>
        <time>2020-11-04T10:30:03.255Z</time>
      </trkpt>
      <trkpt lat="49.80575" lon="5.61061">
        <ele>430.66</ele>
        <time>2020-11-04T10:30:07.462Z</time>
      </trkpt>
      <trkpt lat="49.80567" lon="5.61063">
        <ele>431.86</ele>
        <time>2020-11-04T10:30:11.759Z</time>
      </trkpt>
      <trkpt lat="49.8056" lon="5.61063">
        <ele>431.82</ele>
        <time>2020-11-04T10:30:16.000Z</time>
      </trkpt>
      <trkpt lat="49.80563" lon="5.61062">
        <ele>429.75</ele>
        <time>2020-11-04T10:30:21.517Z</time>
      </trkpt>
      <trkpt lat="49.80569" lon="5.61061">
        <ele>427.08</ele>
        <time>2020-11-04T10:30:26.000Z</time>
      </trkpt>
      <trkpt lat="49.80572" lon="5.61061">
        <ele>425.32</ele>
        <time>2020-11-04T10:30:31.137Z</time>
      </trkpt>
      <trkpt lat="49.80575" lon="5.61061">
        <ele>426.6</ele>
        <time>2020-11-04T10:30:36.000Z</time>
      </trkpt>
      <trkpt lat="49.80579" lon="5.61063">
        <ele>428.43</ele>
        <time>2020-11-04T10:30:41.000Z</time>
      </trkpt>
      <trkpt lat="49.80583" lon="5.61064">
        <ele>430.87</ele>
        <time>2020-11-04T10:30:47.000Z</time>
      </trkpt>
      <trkpt lat="49.80584" lon="5.61067">
        <ele>433.39</ele>
        <time>2020-11-04T10:30:52.000Z</time>
      </trkpt>
      <trkpt lat="49.80585" lon="5.61066">
        <ele>435.17</ele>
        <time>2020-11-04T10:30:57.000Z</time>
      </trkpt>
      <trkpt lat="49.80584" lon="5.61063">
        <ele>436.48</ele>
        <time>2020-11-04T10:31:02.000Z</time>
      </trkpt>
      <trkpt lat="49.80586" lon="5.61064">
        <ele>438.36</ele>
        <time>2020-11-04T10:31:07.000Z</time>
      </trkpt>
      <trkpt lat="49.80586" lon="5.61064">
        <ele>439.7</ele>
        <time>2020-11-04T10:31:12.000Z</time>
      </trkpt>
      <trkpt lat="49.80588" lon="5.61064">
        <ele>439.54</ele>
        <time>2020-11-04T10:31:17.386Z</time>
      </trkpt>
      <trkpt lat="49.80587" lon="5.61063">
        <ele>438.43</ele>
        <time>2020-11-04T10:31:22.019Z</time>
      </trkpt>
      <trkpt lat="49.80586" lon="5.61065">
        <ele>438.11</ele>
        <time>2020-11-04T10:31:27.000Z</time>
      </trkpt>
      <trkpt lat="49.80585" lon="5.61066">
        <ele>437.9</ele>
        <time>2020-11-04T10:31:32.000Z</time>
      </trkpt>
      <trkpt lat="49.80584" lon="5.61066">
        <ele>437.81</ele>
        <time>2020-11-04T10:31:36.283Z</time>
      </trkpt>
      <trkpt lat="49.80583" lon="5.61066">
        <ele>437.29</ele>
        <time>2020-11-04T10:31:41.000Z</time>
      </trkpt>
      <trkpt lat="49.80585" lon="5.61063">
        <ele>437.2</ele>
        <time>2020-11-04T10:31:46.000Z</time>
      </trkpt>
      <trkpt lat="49.80585" lon="5.61064">
        <ele>437.34</ele>
        <time>2020-11-04T10:31:51.000Z</time>
      </trkpt>
      <trkpt lat="49.80585" lon="5.61064">
        <ele>438.54</ele>
        <time>2020-11-04T10:31:56.000Z</time>
      </trkpt>
      <trkpt lat="49.80587" lon="5.61067">
        <ele>438.29</ele>
        <time>2020-11-04T10:32:01.000Z</time>
      </trkpt>
      <trkpt lat="49.80586" lon="5.61068">
        <ele>437.71</ele>
        <time>2020-11-04T10:32:06.000Z</time>
      </trkpt>
      <trkpt lat="49.80586" lon="5.61068">
        <ele>438.93</ele>
        <time>2020-11-04T10:32:11.000Z</time>
      </trkpt>
      <trkpt lat="49.80585" lon="5.6107">
        <ele>439.78</ele>
        <time>2020-11-04T10:32:16.000Z</time>
      </trkpt>
      <trkpt lat="49.80581" lon="5.61067">
        <ele>439.08</ele>
        <time>2020-11-04T10:32:21.000Z</time>
      </trkpt>
      <trkpt lat="49.80578" lon="5.61066">
        <ele>437.96</ele>
        <time>2020-11-04T10:32:26.000Z</time>
      </trkpt>
      <trkpt lat="49.8058" lon="5.61065">
        <ele>437.09</ele>
        <time>2020-11-04T10:32:31.000Z</time>
      </trkpt>
      <trkpt lat="49.80582" lon="5.61063">
        <ele>436.6</ele>
        <time>2020-11-04T10:32:36.000Z</time>
      </trkpt>
      <trkpt lat="49.80586" lon="5.6106">
        <ele>435.82</ele>
        <time>2020-11-04T10:32:41.000Z</time>
      </trkpt>
      <trkpt lat="49.80584" lon="5.61059">
        <ele>434.96</ele>
        <time>2020-11-04T10:32:45.471Z</time>
      </trkpt>
      <trkpt lat="49.80583" lon="5.61058">
        <ele>434.72</ele>
        <time>2020-11-04T10:32:50.000Z</time>
      </trkpt>
      <trkpt lat="49.80582" lon="5.61057">
        <ele>435.3</ele>
        <time>2020-11-04T10:32:55.000Z</time>
      </trkpt>
      <trkpt lat="49.80582" lon="5.61056">
        <ele>435.82</ele>
        <time>2020-11-04T10:33:00.000Z</time>
      </trkpt>
      <trkpt lat="49.80582" lon="5.61056">
        <ele>436.12</ele>
        <time>2020-11-04T10:33:05.000Z</time>
      </trkpt>
      <trkpt lat="49.80582" lon="5.61056">
        <ele>436.31</ele>
        <time>2020-11-04T10:33:10.000Z</time>
      </trkpt>
      <trkpt lat="49.80582" lon="5.61056">
        <ele>436.42</ele>
        <time>2020-11-04T10:33:15.500Z</time>
      </trkpt>
      <trkpt lat="49.80582" lon="5.61057">
        <ele>436.63</ele>
        <time>2020-11-04T10:33:19.940Z</time>
      </trkpt>
      <trkpt lat="49.80581" lon="5.61058">
        <ele>436.19</ele>
        <time>2020-11-04T10:33:24.000Z</time>
      </trkpt>
      <trkpt lat="49.80581" lon="5.61059">
        <ele>434.74</ele>
        <time>2020-11-04T10:33:29.000Z</time>
      </trkpt>
      <trkpt lat="49.80581" lon="5.61059">
        <ele>433.13</ele>
        <time>2020-11-04T10:33:34.000Z</time>
      </trkpt>
      <trkpt lat="49.80581" lon="5.6106">
        <ele>432.21</ele>
        <time>2020-11-04T10:33:39.312Z</time>
      </trkpt>
      <trkpt lat="49.80584" lon="5.61059">
        <ele>431.44</ele>
        <time>2020-11-04T10:33:44.000Z</time>
      </trkpt>
      <trkpt lat="49.80589" lon="5.61056">
        <ele>431.12</ele>
        <time>2020-11-04T10:33:48.427Z</time>
      </trkpt>
      <trkpt lat="49.80591" lon="5.61053">
        <ele>431.39</ele>
        <time>2020-11-04T10:33:52.524Z</time>
      </trkpt>
      <trkpt lat="49.80591" lon="5.61054">
        <ele>432.5</ele>
        <time>2020-11-04T10:33:56.625Z</time>
      </trkpt>
      <trkpt lat="49.80591" lon="5.61056">
        <ele>433.54</ele>
        <time>2020-11-04T10:34:00.951Z</time>
      </trkpt>
      <trkpt lat="49.80591" lon="5.61056">
        <ele>434.32</ele>
        <time>2020-11-04T10:34:05.409Z</time>
      </trkpt>
      <trkpt lat="49.80594" lon="5.61053">
        <ele>435.06</ele>
        <time>2020-11-04T10:34:10.000Z</time>
      </trkpt>
      <trkpt lat="49.80594" lon="5.61054">
        <ele>436.67</ele>
        <time>2020-11-04T10:34:15.000Z</time>
      </trkpt>
      <trkpt lat="49.80595" lon="5.61054">
        <ele>437.12</ele>
        <time>2020-11-04T10:34:20.000Z</time>
      </trkpt>
      <trkpt lat="49.80595" lon="5.61054">
        <ele>437.18</ele>
        <time>2020-11-04T10:34:25.000Z</time>
      </trkpt>
      <trkpt lat="49.80596" lon="5.61054">
        <ele>437.13</ele>
        <time>2020-11-04T10:34:29.214Z</time>
      </trkpt>
      <trkpt lat="49.80599" lon="5.61052">
        <ele>437.73</ele>
        <time>2020-11-04T10:34:34.000Z</time>
      </trkpt>
      <trkpt lat="49.80604" lon="5.61051">
        <ele>438.5</ele>
        <time>2020-11-04T10:34:39.413Z</time>
      </trkpt>
      <trkpt lat="49.80608" lon="5.61047">
        <ele>438.39</ele>
        <time>2020-11-04T10:34:44.451Z</time>
      </trkpt>
      <trkpt lat="49.80609" lon="5.61045">
        <ele>438.05</ele>
        <time>2020-11-04T10:34:49.000Z</time>
      </trkpt>
      <trkpt lat="49.80609" lon="5.61044">
        <ele>438.23</ele>
        <time>2020-11-04T10:34:53.817Z</time>
      </trkpt>
      <trkpt lat="49.80603" lon="5.61043">
        <ele>437.74</ele>
        <time>2020-11-04T10:34:57.954Z</time>
      </trkpt>
      <trkpt lat="49.80597" lon="5.61046">
        <ele>437.04</ele>
        <time>2020-11-04T10:35:02.230Z</time>
      </trkpt>
      <trkpt lat="49.80593" lon="5.61047">
        <ele>435.2</ele>
        <time>2020-11-04T10:35:06.344Z</time>
      </trkpt>
      <trkpt lat="49.80588" lon="5.61049">
        <ele>435.82</ele>
        <time>2020-11-04T10:35:10.385Z</time>
      </trkpt>
      <trkpt lat="49.80582" lon="5.61047">
        <ele>436.85</ele>
        <time>2020-11-04T10:35:15.010Z</time>
      </trkpt>
      <trkpt lat="49.80578" lon="5.6105">
        <ele>435.55</ele>
        <time>2020-11-04T10:35:19.225Z</time>
      </trkpt>
      <trkpt lat="49.80575" lon="5.61057">
        <ele>433.39</ele>
        <time>2020-11-04T10:35:23.245Z</time>
      </trkpt>
      <trkpt lat="49.80574" lon="5.61057">
        <ele>430.84</ele>
        <time>2020-11-04T10:35:28.000Z</time>
      </trkpt>
      <trkpt lat="49.80575" lon="5.61051">
        <ele>430.95</ele>
        <time>2020-11-04T10:35:33.000Z</time>
      </trkpt>
      <trkpt lat="49.80575" lon="5.61051">
        <ele>431.03</ele>
        <time>2020-11-04T10:35:38.000Z</time>
      </trkpt>
      <trkpt lat="49.80576" lon="5.61051">
        <ele>432.22</ele>
        <time>2020-11-04T10:35:43.000Z</time>
      </trkpt>
      <trkpt lat="49.80575" lon="5.61055">
        <ele>433.64</ele>
        <time>2020-11-04T10:35:48.000Z</time>
      </trkpt>
      <trkpt lat="49.80576" lon="5.61056">
        <ele>434.24</ele>
        <time>2020-11-04T10:35:53.000Z</time>
      </trkpt>
      <trkpt lat="49.80576" lon="5.61059">
        <ele>433.8</ele>
        <time>2020-11-04T10:35:58.000Z</time>
      </trkpt>
      <trkpt lat="49.80577" lon="5.61059">
        <ele>433.35</ele>
        <time>2020-11-04T10:36:03.000Z</time>
      </trkpt>
      <trkpt lat="49.80575" lon="5.61063">
        <ele>433.39</ele>
        <time>2020-11-04T10:36:07.581Z</time>
      </trkpt>
      <trkpt lat="49.80569" lon="5.61069">
        <ele>432.95</ele>
        <time>2020-11-04T10:36:12.000Z</time>
      </trkpt>
      <trkpt lat="49.80565" lon="5.61071">
        <ele>432.4</ele>
        <time>2020-11-04T10:36:16.164Z</time>
      </trkpt>
      <trkpt lat="49.80559" lon="5.61072">
        <ele>432.24</ele>
        <time>2020-11-04T10:36:20.538Z</time>
      </trkpt>
      <trkpt lat="49.80555" lon="5.61081">
        <ele>433.3</ele>
        <time>2020-11-04T10:36:25.572Z</time>
      </trkpt>
      <trkpt lat="49.80554" lon="5.61092">
        <ele>434.47</ele>
        <time>2020-11-04T10:36:30.519Z</time>
      </trkpt>
      <trkpt lat="49.80553" lon="5.61111">
        <ele>435</ele>
        <time>2020-11-04T10:36:35.523Z</time>
      </trkpt>
      <trkpt lat="49.80555" lon="5.61127">
        <ele>434.72</ele>
        <time>2020-11-04T10:36:38.520Z</time>
      </trkpt>
      <trkpt lat="49.80563" lon="5.61137">
        <ele>433.62</ele>
        <time>2020-11-04T10:36:42.515Z</time>
      </trkpt>
      <trkpt lat="49.80564" lon="5.61148">
        <ele>432.85</ele>
        <time>2020-11-04T10:36:46.588Z</time>
      </trkpt>
      <trkpt lat="49.80574" lon="5.61147">
        <ele>431.4</ele>
        <time>2020-11-04T10:36:50.412Z</time>
      </trkpt>
      <trkpt lat="49.80581" lon="5.61144">
        <ele>428.31</ele>
        <time>2020-11-04T10:36:54.650Z</time>
      </trkpt>
      <trkpt lat="49.80585" lon="5.61137">
        <ele>427.27</ele>
        <time>2020-11-04T10:36:59.012Z</time>
      </trkpt>
      <trkpt lat="49.80591" lon="5.6113">
        <ele>427.7</ele>
        <time>2020-11-04T10:37:03.130Z</time>
      </trkpt>
      <trkpt lat="49.80597" lon="5.61121">
        <ele>428.78</ele>
        <time>2020-11-04T10:37:08.267Z</time>
      </trkpt>
      <trkpt lat="49.80601" lon="5.61115">
        <ele>427.85</ele>
        <time>2020-11-04T10:37:13.431Z</time>
      </trkpt>
      <trkpt lat="49.80602" lon="5.61114">
        <ele>427.53</ele>
        <time>2020-11-04T10:37:18.370Z</time>
      </trkpt>
      <trkpt lat="49.80601" lon="5.61115">
        <ele>427.5</ele>
        <time>2020-11-04T10:37:23.000Z</time>
      </trkpt>
      <trkpt lat="49.80601" lon="5.61115">
        <ele>427.49</ele>
        <time>2020-11-04T10:37:28.000Z</time>
      </trkpt>
      <trkpt lat="49.80602" lon="5.61115">
        <ele>427.48</ele>
        <time>2020-11-04T10:37:33.000Z</time>
      </trkpt>
      <trkpt lat="49.80599" lon="5.61113">
        <ele>428.07</ele>
        <time>2020-11-04T10:37:38.000Z</time>
      </trkpt>
      <trkpt lat="49.80599" lon="5.61114">
        <ele>428.7</ele>
        <time>2020-11-04T10:37:42.037Z</time>
      </trkpt>
      <trkpt lat="49.806" lon="5.61114">
        <ele>428.5</ele>
        <time>2020-11-04T10:37:46.155Z</time>
      </trkpt>
      <trkpt lat="49.806" lon="5.61116">
        <ele>428.21</ele>
        <time>2020-11-04T10:37:51.000Z</time>
      </trkpt>
      <trkpt lat="49.80601" lon="5.61114">
        <ele>428.25</ele>
        <time>2020-11-04T10:37:56.000Z</time>
      </trkpt>
      <trkpt lat="49.806" lon="5.61113">
        <ele>428.29</ele>
        <time>2020-11-04T10:38:01.000Z</time>
      </trkpt>
      <trkpt lat="49.806" lon="5.61114">
        <ele>428.32</ele>
        <time>2020-11-04T10:38:06.000Z</time>
      </trkpt>
      <trkpt lat="49.806" lon="5.61115">
        <ele>428.34</ele>
        <time>2020-11-04T10:38:11.000Z</time>
      </trkpt>
      <trkpt lat="49.80599" lon="5.61115">
        <ele>428.35</ele>
        <time>2020-11-04T10:38:16.000Z</time>
      </trkpt>
      <trkpt lat="49.80599" lon="5.61118">
        <ele>427.92</ele>
        <time>2020-11-04T10:38:21.000Z</time>
      </trkpt>
      <trkpt lat="49.80601" lon="5.61119">
        <ele>427.31</ele>
        <time>2020-11-04T10:38:25.413Z</time>
      </trkpt>
      <trkpt lat="49.80603" lon="5.61121">
        <ele>426.89</ele>
        <time>2020-11-04T10:38:29.457Z</time>
      </trkpt>
      <trkpt lat="49.80603" lon="5.61127">
        <ele>426.64</ele>
        <time>2020-11-04T10:38:33.529Z</time>
      </trkpt>
      <trkpt lat="49.80605" lon="5.6114">
        <ele>427.15</ele>
        <time>2020-11-04T10:38:37.560Z</time>
      </trkpt>
      <trkpt lat="49.80609" lon="5.61154">
        <ele>429.12</ele>
        <time>2020-11-04T10:38:41.373Z</time>
      </trkpt>
      <trkpt lat="49.80615" lon="5.61164">
        <ele>430.37</ele>
        <time>2020-11-04T10:38:46.000Z</time>
      </trkpt>
      <trkpt lat="49.80617" lon="5.61171">
        <ele>431.12</ele>
        <time>2020-11-04T10:38:51.000Z</time>
      </trkpt>
      <trkpt lat="49.80617" lon="5.61169">
        <ele>431.71</ele>
        <time>2020-11-04T10:38:56.000Z</time>
      </trkpt>
      <trkpt lat="49.80617" lon="5.61169">
        <ele>432.01</ele>
        <time>2020-11-04T10:39:01.000Z</time>
      </trkpt>
      <trkpt lat="49.80616" lon="5.6117">
        <ele>432.15</ele>
        <time>2020-11-04T10:39:06.000Z</time>
      </trkpt>
      <trkpt lat="49.80616" lon="5.61167">
        <ele>432.07</ele>
        <time>2020-11-04T10:39:11.102Z</time>
      </trkpt>
      <trkpt lat="49.80615" lon="5.61159">
        <ele>433.49</ele>
        <time>2020-11-04T10:39:16.211Z</time>
      </trkpt>
      <trkpt lat="49.80615" lon="5.61159">
        <ele>434.89</ele>
        <time>2020-11-04T10:39:21.000Z</time>
      </trkpt>
      <trkpt lat="49.80616" lon="5.6116">
        <ele>435.6</ele>
        <time>2020-11-04T10:39:26.000Z</time>
      </trkpt>
      <trkpt lat="49.80617" lon="5.61164">
        <ele>436</ele>
        <time>2020-11-04T10:39:31.000Z</time>
      </trkpt>
      <trkpt lat="49.80617" lon="5.61165">
        <ele>436.23</ele>
        <time>2020-11-04T10:39:36.000Z</time>
      </trkpt>
      <trkpt lat="49.80617" lon="5.61167">
        <ele>436.49</ele>
        <time>2020-11-04T10:39:41.000Z</time>
      </trkpt>
      <trkpt lat="49.80617" lon="5.61166">
        <ele>436.31</ele>
        <time>2020-11-04T10:39:46.000Z</time>
      </trkpt>
      <trkpt lat="49.8062" lon="5.61168">
        <ele>435.94</ele>
        <time>2020-11-04T10:39:51.000Z</time>
      </trkpt>
      <trkpt lat="49.8062" lon="5.61168">
        <ele>435.04</ele>
        <time>2020-11-04T10:39:55.411Z</time>
      </trkpt>
      <trkpt lat="49.8062" lon="5.61169">
        <ele>434.52</ele>
        <time>2020-11-04T10:40:00.000Z</time>
      </trkpt>
      <trkpt lat="49.80619" lon="5.61169">
        <ele>434.05</ele>
        <time>2020-11-04T10:40:05.000Z</time>
      </trkpt>
      <trkpt lat="49.8062" lon="5.61171">
        <ele>434.29</ele>
        <time>2020-11-04T10:40:09.636Z</time>
      </trkpt>
      <trkpt lat="49.8062" lon="5.61177">
        <ele>435.52</ele>
        <time>2020-11-04T10:40:14.000Z</time>
      </trkpt>
      <trkpt lat="49.80626" lon="5.61191">
        <ele>436.64</ele>
        <time>2020-11-04T10:40:18.547Z</time>
      </trkpt>
      <trkpt lat="49.80632" lon="5.61208">
        <ele>437.85</ele>
        <time>2020-11-04T10:40:22.546Z</time>
      </trkpt>
      <trkpt lat="49.80638" lon="5.61219">
        <ele>439.05</ele>
        <time>2020-11-04T10:40:25.544Z</time>
      </trkpt>
      <trkpt lat="49.80643" lon="5.61231">
        <ele>439.97</ele>
        <time>2020-11-04T10:40:29.060Z</time>
      </trkpt>
      <trkpt lat="49.80649" lon="5.61248">
        <ele>440.03</ele>
        <time>2020-11-04T10:40:33.598Z</time>
      </trkpt>
      <trkpt lat="49.80652" lon="5.61262">
        <ele>440.09</ele>
        <time>2020-11-04T10:40:36.529Z</time>
      </trkpt>
      <trkpt lat="49.80654" lon="5.61277">
        <ele>439.81</ele>
        <time>2020-11-04T10:40:41.533Z</time>
      </trkpt>
      <trkpt lat="49.80658" lon="5.61291">
        <ele>439.56</ele>
        <time>2020-11-04T10:40:46.003Z</time>
      </trkpt>
      <trkpt lat="49.80662" lon="5.61307">
        <ele>440.02</ele>
        <time>2020-11-04T10:40:50.573Z</time>
      </trkpt>
      <trkpt lat="49.80667" lon="5.6132">
        <ele>440.45</ele>
        <time>2020-11-04T10:40:53.544Z</time>
      </trkpt>
      <trkpt lat="49.80675" lon="5.61334">
        <ele>440.78</ele>
        <time>2020-11-04T10:40:57.531Z</time>
      </trkpt>
      <trkpt lat="49.80682" lon="5.61346">
        <ele>442.36</ele>
        <time>2020-11-04T10:41:01.518Z</time>
      </trkpt>
      <trkpt lat="49.8069" lon="5.61357">
        <ele>443.52</ele>
        <time>2020-11-04T10:41:04.534Z</time>
      </trkpt>
      <trkpt lat="49.80697" lon="5.6137">
        <ele>444.93</ele>
        <time>2020-11-04T10:41:08.529Z</time>
      </trkpt>
      <trkpt lat="49.80701" lon="5.61387">
        <ele>446.49</ele>
        <time>2020-11-04T10:41:12.521Z</time>
      </trkpt>
      <trkpt lat="49.80703" lon="5.61401">
        <ele>448.64</ele>
        <time>2020-11-04T10:41:17.542Z</time>
      </trkpt>
      <trkpt lat="49.80709" lon="5.61413">
        <ele>449.52</ele>
        <time>2020-11-04T10:41:20.523Z</time>
      </trkpt>
      <trkpt lat="49.80714" lon="5.61429">
        <ele>449.76</ele>
        <time>2020-11-04T10:41:24.530Z</time>
      </trkpt>
      <trkpt lat="49.80719" lon="5.61442">
        <ele>449.89</ele>
        <time>2020-11-04T10:41:28.575Z</time>
      </trkpt>
      <trkpt lat="49.80724" lon="5.61455">
        <ele>450.02</ele>
        <time>2020-11-04T10:41:31.529Z</time>
      </trkpt>
      <trkpt lat="49.80727" lon="5.61472">
        <ele>449.89</ele>
        <time>2020-11-04T10:41:35.535Z</time>
      </trkpt>
      <trkpt lat="49.80731" lon="5.61485">
        <ele>449.35</ele>
        <time>2020-11-04T10:41:38.146Z</time>
      </trkpt>
      <trkpt lat="49.80737" lon="5.61502">
        <ele>449.42</ele>
        <time>2020-11-04T10:41:42.511Z</time>
      </trkpt>
      <trkpt lat="49.80743" lon="5.61517">
        <ele>448.71</ele>
        <time>2020-11-04T10:41:46.561Z</time>
      </trkpt>
      <trkpt lat="49.80752" lon="5.6153">
        <ele>447.75</ele>
        <time>2020-11-04T10:41:49.571Z</time>
      </trkpt>
      <trkpt lat="49.80761" lon="5.61543">
        <ele>447.17</ele>
        <time>2020-11-04T10:41:52.575Z</time>
      </trkpt>
      <trkpt lat="49.80766" lon="5.61558">
        <ele>446.94</ele>
        <time>2020-11-04T10:41:55.554Z</time>
      </trkpt>
      <trkpt lat="49.8077" lon="5.61571">
        <ele>447.19</ele>
        <time>2020-11-04T10:41:58.514Z</time>
      </trkpt>
      <trkpt lat="49.80773" lon="5.61584">
        <ele>447.49</ele>
        <time>2020-11-04T10:42:01.549Z</time>
      </trkpt>
      <trkpt lat="49.80777" lon="5.61603">
        <ele>446.74</ele>
        <time>2020-11-04T10:42:04.532Z</time>
      </trkpt>
      <trkpt lat="49.80781" lon="5.61622">
        <ele>445.28</ele>
        <time>2020-11-04T10:42:07.548Z</time>
      </trkpt>
      <trkpt lat="49.80785" lon="5.61636">
        <ele>443.6</ele>
        <time>2020-11-04T10:42:10.511Z</time>
      </trkpt>
      <trkpt lat="49.80789" lon="5.61651">
        <ele>442.18</ele>
        <time>2020-11-04T10:42:13.534Z</time>
      </trkpt>
      <trkpt lat="49.80792" lon="5.61665">
        <ele>441.4</ele>
        <time>2020-11-04T10:42:16.551Z</time>
      </trkpt>
      <trkpt lat="49.80797" lon="5.61681">
        <ele>441.24</ele>
        <time>2020-11-04T10:42:19.528Z</time>
      </trkpt>
      <trkpt lat="49.80803" lon="5.61694">
        <ele>441.43</ele>
        <time>2020-11-04T10:42:22.537Z</time>
      </trkpt>
      <trkpt lat="49.80809" lon="5.61708">
        <ele>442.16</ele>
        <time>2020-11-04T10:42:25.532Z</time>
      </trkpt>
      <trkpt lat="49.80814" lon="5.61722">
        <ele>443.01</ele>
        <time>2020-11-04T10:42:28.519Z</time>
      </trkpt>
      <trkpt lat="49.80816" lon="5.61731">
        <ele>444.04</ele>
        <time>2020-11-04T10:42:32.535Z</time>
      </trkpt>
      <trkpt lat="49.80821" lon="5.61743">
        <ele>445.11</ele>
        <time>2020-11-04T10:42:35.540Z</time>
      </trkpt>
      <trkpt lat="49.80825" lon="5.61758">
        <ele>447.08</ele>
        <time>2020-11-04T10:42:39.542Z</time>
      </trkpt>
      <trkpt lat="49.80829" lon="5.61773">
        <ele>447.84</ele>
        <time>2020-11-04T10:42:42.557Z</time>
      </trkpt>
      <trkpt lat="49.80832" lon="5.61788">
        <ele>448.55</ele>
        <time>2020-11-04T10:42:46.075Z</time>
      </trkpt>
      <trkpt lat="49.80824" lon="5.61798">
        <ele>447.75</ele>
        <time>2020-11-04T10:42:50.537Z</time>
      </trkpt>
      <trkpt lat="49.80813" lon="5.618">
        <ele>447.13</ele>
        <time>2020-11-04T10:42:55.519Z</time>
      </trkpt>
      <trkpt lat="49.80801" lon="5.61803">
        <ele>448.62</ele>
        <time>2020-11-04T10:42:59.576Z</time>
      </trkpt>
      <trkpt lat="49.80788" lon="5.61807">
        <ele>450.1</ele>
        <time>2020-11-04T10:43:02.519Z</time>
      </trkpt>
      <trkpt lat="49.80774" lon="5.61811">
        <ele>451.24</ele>
        <time>2020-11-04T10:43:06.578Z</time>
      </trkpt>
      <trkpt lat="49.80765" lon="5.61815">
        <ele>451.11</ele>
        <time>2020-11-04T10:43:08.711Z</time>
      </trkpt>
      <trkpt lat="49.80754" lon="5.61818">
        <ele>450.89</ele>
        <time>2020-11-04T10:43:11.518Z</time>
      </trkpt>
      <trkpt lat="49.80742" lon="5.6182">
        <ele>450.35</ele>
        <time>2020-11-04T10:43:13.000Z</time>
      </trkpt>
      <trkpt lat="49.80729" lon="5.61829">
        <ele>449.55</ele>
        <time>2020-11-04T10:43:16.552Z</time>
      </trkpt>
      <trkpt lat="49.80734" lon="5.61843">
        <ele>449.13</ele>
        <time>2020-11-04T10:43:18.531Z</time>
      </trkpt>
      <trkpt lat="49.80742" lon="5.61849">
        <ele>448.59</ele>
        <time>2020-11-04T10:43:20.538Z</time>
      </trkpt>
      <trkpt lat="49.80752" lon="5.61857">
        <ele>448.16</ele>
        <time>2020-11-04T10:43:23.419Z</time>
      </trkpt>
      <trkpt lat="49.80764" lon="5.61869">
        <ele>448.06</ele>
        <time>2020-11-04T10:43:27.534Z</time>
      </trkpt>
      <trkpt lat="49.80773" lon="5.61877">
        <ele>447.37</ele>
        <time>2020-11-04T10:43:32.536Z</time>
      </trkpt>
      <trkpt lat="49.80782" lon="5.61887">
        <ele>447.73</ele>
        <time>2020-11-04T10:43:36.539Z</time>
      </trkpt>
      <trkpt lat="49.80792" lon="5.6189">
        <ele>448.16</ele>
        <time>2020-11-04T10:43:40.549Z</time>
      </trkpt>
      <trkpt lat="49.80802" lon="5.61896">
        <ele>448.13</ele>
        <time>2020-11-04T10:43:43.282Z</time>
      </trkpt>
      <trkpt lat="49.80808" lon="5.61899">
        <ele>447.9</ele>
        <time>2020-11-04T10:43:47.555Z</time>
      </trkpt>
      <trkpt lat="49.80819" lon="5.61904">
        <ele>447.85</ele>
        <time>2020-11-04T10:43:51.553Z</time>
      </trkpt>
      <trkpt lat="49.80829" lon="5.61911">
        <ele>447.73</ele>
        <time>2020-11-04T10:43:55.543Z</time>
      </trkpt>
      <trkpt lat="49.80839" lon="5.61913">
        <ele>447.56</ele>
        <time>2020-11-04T10:43:58.551Z</time>
      </trkpt>
      <trkpt lat="49.80852" lon="5.6191">
        <ele>447.04</ele>
        <time>2020-11-04T10:44:01.565Z</time>
      </trkpt>
      <trkpt lat="49.80861" lon="5.6191">
        <ele>446.69</ele>
        <time>2020-11-04T10:44:04.559Z</time>
      </trkpt>
      <trkpt lat="49.80873" lon="5.61907">
        <ele>445.64</ele>
        <time>2020-11-04T10:44:08.541Z</time>
      </trkpt>
      <trkpt lat="49.80886" lon="5.61904">
        <ele>444.71</ele>
        <time>2020-11-04T10:44:11.550Z</time>
      </trkpt>
      <trkpt lat="49.80898" lon="5.61903">
        <ele>444.31</ele>
        <time>2020-11-04T10:44:14.533Z</time>
      </trkpt>
      <trkpt lat="49.80913" lon="5.61902">
        <ele>443.75</ele>
        <time>2020-11-04T10:44:17.558Z</time>
      </trkpt>
      <trkpt lat="49.80923" lon="5.619">
        <ele>443.55</ele>
        <time>2020-11-04T10:44:19.554Z</time>
      </trkpt>
      <trkpt lat="49.80933" lon="5.61898">
        <ele>443.31</ele>
        <time>2020-11-04T10:44:23.527Z</time>
      </trkpt>
      <trkpt lat="49.80938" lon="5.619">
        <ele>443.09</ele>
        <time>2020-11-04T10:44:27.537Z</time>
      </trkpt>
      <trkpt lat="49.80945" lon="5.61899">
        <ele>442.79</ele>
        <time>2020-11-04T10:44:31.538Z</time>
      </trkpt>
      <trkpt lat="49.80952" lon="5.61901">
        <ele>442.51</ele>
        <time>2020-11-04T10:44:35.543Z</time>
      </trkpt>
      <trkpt lat="49.80957" lon="5.61902">
        <ele>442.4</ele>
        <time>2020-11-04T10:44:39.545Z</time>
      </trkpt>
      <trkpt lat="49.80964" lon="5.61903">
        <ele>442.89</ele>
        <time>2020-11-04T10:44:43.561Z</time>
      </trkpt>
      <trkpt lat="49.80971" lon="5.619">
        <ele>443.11</ele>
        <time>2020-11-04T10:44:48.540Z</time>
      </trkpt>
      <trkpt lat="49.8098" lon="5.61897">
        <ele>442.44</ele>
        <time>2020-11-04T10:44:52.546Z</time>
      </trkpt>
      <trkpt lat="49.80989" lon="5.61893">
        <ele>442.1</ele>
        <time>2020-11-04T10:44:57.395Z</time>
      </trkpt>
      <trkpt lat="49.81" lon="5.61888">
        <ele>442.98</ele>
        <time>2020-11-04T10:45:02.583Z</time>
      </trkpt>
      <trkpt lat="49.81009" lon="5.61883">
        <ele>443.49</ele>
        <time>2020-11-04T10:45:07.541Z</time>
      </trkpt>
      <trkpt lat="49.81014" lon="5.61883">
        <ele>443.91</ele>
        <time>2020-11-04T10:45:12.538Z</time>
      </trkpt>
      <trkpt lat="49.81013" lon="5.61883">
        <ele>444.81</ele>
        <time>2020-11-04T10:45:17.000Z</time>
      </trkpt>
      <trkpt lat="49.81013" lon="5.61883">
        <ele>445.23</ele>
        <time>2020-11-04T10:45:22.000Z</time>
      </trkpt>
      <trkpt lat="49.81013" lon="5.61883">
        <ele>445.63</ele>
        <time>2020-11-04T10:45:27.000Z</time>
      </trkpt>
      <trkpt lat="49.81013" lon="5.61883">
        <ele>445.76</ele>
        <time>2020-11-04T10:45:32.000Z</time>
      </trkpt>
      <trkpt lat="49.81012" lon="5.61882">
        <ele>445.73</ele>
        <time>2020-11-04T10:45:37.000Z</time>
      </trkpt>
      <trkpt lat="49.81012" lon="5.61882">
        <ele>445.54</ele>
        <time>2020-11-04T10:45:42.582Z</time>
      </trkpt>
      <trkpt lat="49.81012" lon="5.61882">
        <ele>445.51</ele>
        <time>2020-11-04T10:45:47.000Z</time>
      </trkpt>
      <trkpt lat="49.81012" lon="5.61881">
        <ele>445.49</ele>
        <time>2020-11-04T10:45:52.000Z</time>
      </trkpt>
      <trkpt lat="49.81012" lon="5.61881">
        <ele>445.48</ele>
        <time>2020-11-04T10:45:57.527Z</time>
      </trkpt>
      <trkpt lat="49.81012" lon="5.61881">
        <ele>445.47</ele>
        <time>2020-11-04T10:46:02.000Z</time>
      </trkpt>
      <trkpt lat="49.81011" lon="5.61882">
        <ele>445.45</ele>
        <time>2020-11-04T10:46:07.000Z</time>
      </trkpt>
      <trkpt lat="49.81011" lon="5.61882">
        <ele>445.41</ele>
        <time>2020-11-04T10:46:12.000Z</time>
      </trkpt>
      <trkpt lat="49.81013" lon="5.6188">
        <ele>445.72</ele>
        <time>2020-11-04T10:46:16.545Z</time>
      </trkpt>
      <trkpt lat="49.8102" lon="5.61879">
        <ele>447.31</ele>
        <time>2020-11-04T10:46:21.257Z</time>
      </trkpt>
      <trkpt lat="49.81027" lon="5.61874">
        <ele>448.74</ele>
        <time>2020-11-04T10:46:26.518Z</time>
      </trkpt>
      <trkpt lat="49.81034" lon="5.6188">
        <ele>450.37</ele>
        <time>2020-11-04T10:46:30.540Z</time>
      </trkpt>
      <trkpt lat="49.81041" lon="5.61878">
        <ele>452.69</ele>
        <time>2020-11-04T10:46:35.551Z</time>
      </trkpt>
      <trkpt lat="49.81044" lon="5.61877">
        <ele>454.38</ele>
        <time>2020-11-04T10:46:40.558Z</time>
      </trkpt>
      <trkpt lat="49.81052" lon="5.61876">
        <ele>455.67</ele>
        <time>2020-11-04T10:46:45.530Z</time>
      </trkpt>
      <trkpt lat="49.8106" lon="5.61874">
        <ele>456.8</ele>
        <time>2020-11-04T10:46:49.875Z</time>
      </trkpt>
      <trkpt lat="49.81069" lon="5.61869">
        <ele>457.02</ele>
        <time>2020-11-04T10:46:53.531Z</time>
      </trkpt>
      <trkpt lat="49.81076" lon="5.61866">
        <ele>457.21</ele>
        <time>2020-11-04T10:46:57.538Z</time>
      </trkpt>
      <trkpt lat="49.81084" lon="5.61866">
        <ele>457.1</ele>
        <time>2020-11-04T10:47:02.527Z</time>
      </trkpt>
      <trkpt lat="49.81084" lon="5.61865">
        <ele>457.22</ele>
        <time>2020-11-04T10:47:06.536Z</time>
      </trkpt>
      <trkpt lat="49.81088" lon="5.61865">
        <ele>457.84</ele>
        <time>2020-11-04T10:47:10.560Z</time>
      </trkpt>
      <trkpt lat="49.81092" lon="5.61866">
        <ele>458.33</ele>
        <time>2020-11-04T10:47:14.891Z</time>
      </trkpt>
      <trkpt lat="49.811" lon="5.61867">
        <ele>459.32</ele>
        <time>2020-11-04T10:47:19.418Z</time>
      </trkpt>
      <trkpt lat="49.81104" lon="5.61864">
        <ele>460.52</ele>
        <time>2020-11-04T10:47:23.572Z</time>
      </trkpt>
      <trkpt lat="49.81111" lon="5.61861">
        <ele>462.31</ele>
        <time>2020-11-04T10:47:28.515Z</time>
      </trkpt>
      <trkpt lat="49.81116" lon="5.61856">
        <ele>462.71</ele>
        <time>2020-11-04T10:47:32.519Z</time>
      </trkpt>
      <trkpt lat="49.8112" lon="5.61853">
        <ele>464.1</ele>
        <time>2020-11-04T10:47:36.557Z</time>
      </trkpt>
      <trkpt lat="49.81124" lon="5.6185">
        <ele>466.31</ele>
        <time>2020-11-04T10:47:40.567Z</time>
      </trkpt>
      <trkpt lat="49.81132" lon="5.61846">
        <ele>467.36</ele>
        <time>2020-11-04T10:47:44.652Z</time>
      </trkpt>
      <trkpt lat="49.81139" lon="5.61839">
        <ele>467.93</ele>
        <time>2020-11-04T10:47:49.511Z</time>
      </trkpt>
      <trkpt lat="49.81141" lon="5.61834">
        <ele>469.97</ele>
        <time>2020-11-04T10:47:53.856Z</time>
      </trkpt>
      <trkpt lat="49.81147" lon="5.61834">
        <ele>472.3</ele>
        <time>2020-11-04T10:47:58.000Z</time>
      </trkpt>
      <trkpt lat="49.81154" lon="5.61837">
        <ele>473.58</ele>
        <time>2020-11-04T10:48:02.523Z</time>
      </trkpt>
      <trkpt lat="49.81157" lon="5.61846">
        <ele>473.72</ele>
        <time>2020-11-04T10:48:06.536Z</time>
      </trkpt>
      <trkpt lat="49.81164" lon="5.6185">
        <ele>473.31</ele>
        <time>2020-11-04T10:48:11.535Z</time>
      </trkpt>
      <trkpt lat="49.81169" lon="5.61859">
        <ele>473.51</ele>
        <time>2020-11-04T10:48:16.545Z</time>
      </trkpt>
      <trkpt lat="49.81178" lon="5.61863">
        <ele>473.3</ele>
        <time>2020-11-04T10:48:19.526Z</time>
      </trkpt>
      <trkpt lat="49.81184" lon="5.61871">
        <ele>472.79</ele>
        <time>2020-11-04T10:48:23.531Z</time>
      </trkpt>
      <trkpt lat="49.81188" lon="5.61886">
        <ele>473.49</ele>
        <time>2020-11-04T10:48:28.512Z</time>
      </trkpt>
      <trkpt lat="49.81198" lon="5.61895">
        <ele>473.72</ele>
        <time>2020-11-04T10:48:32.562Z</time>
      </trkpt>
      <trkpt lat="49.81208" lon="5.61903">
        <ele>473.93</ele>
        <time>2020-11-04T10:48:36.522Z</time>
      </trkpt>
      <trkpt lat="49.81214" lon="5.61915">
        <ele>475.43</ele>
        <time>2020-11-04T10:48:41.033Z</time>
      </trkpt>
      <trkpt lat="49.81217" lon="5.6193">
        <ele>476.09</ele>
        <time>2020-11-04T10:48:45.565Z</time>
      </trkpt>
      <trkpt lat="49.81228" lon="5.61939">
        <ele>476.28</ele>
        <time>2020-11-04T10:48:49.520Z</time>
      </trkpt>
      <trkpt lat="49.81236" lon="5.61949">
        <ele>476.32</ele>
        <time>2020-11-04T10:48:52.577Z</time>
      </trkpt>
      <trkpt lat="49.81246" lon="5.61957">
        <ele>477.03</ele>
        <time>2020-11-04T10:48:56.547Z</time>
      </trkpt>
      <trkpt lat="49.81254" lon="5.61969">
        <ele>478.04</ele>
        <time>2020-11-04T10:49:00.564Z</time>
      </trkpt>
      <trkpt lat="49.8126" lon="5.61981">
        <ele>478.53</ele>
        <time>2020-11-04T10:49:03.579Z</time>
      </trkpt>
      <trkpt lat="49.8127" lon="5.61988">
        <ele>478.82</ele>
        <time>2020-11-04T10:49:07.532Z</time>
      </trkpt>
      <trkpt lat="49.81273" lon="5.61997">
        <ele>478.79</ele>
        <time>2020-11-04T10:49:11.555Z</time>
      </trkpt>
      <trkpt lat="49.81267" lon="5.6201">
        <ele>478.53</ele>
        <time>2020-11-04T10:49:16.543Z</time>
      </trkpt>
      <trkpt lat="49.81261" lon="5.6202">
        <ele>478.3</ele>
        <time>2020-11-04T10:49:21.520Z</time>
      </trkpt>
      <trkpt lat="49.81257" lon="5.62034">
        <ele>478.61</ele>
        <time>2020-11-04T10:49:25.438Z</time>
      </trkpt>
      <trkpt lat="49.81256" lon="5.62051">
        <ele>479.2</ele>
        <time>2020-11-04T10:49:28.516Z</time>
      </trkpt>
      <trkpt lat="49.81261" lon="5.62074">
        <ele>479.36</ele>
        <time>2020-11-04T10:49:31.517Z</time>
      </trkpt>
      <trkpt lat="49.81267" lon="5.62088">
        <ele>479.15</ele>
        <time>2020-11-04T10:49:33.576Z</time>
      </trkpt>
      <trkpt lat="49.81273" lon="5.62101">
        <ele>478.61</ele>
        <time>2020-11-04T10:49:35.454Z</time>
      </trkpt>
      <trkpt lat="49.81278" lon="5.62115">
        <ele>477.65</ele>
        <time>2020-11-04T10:49:37.578Z</time>
      </trkpt>
      <trkpt lat="49.81284" lon="5.62129">
        <ele>476.78</ele>
        <time>2020-11-04T10:49:39.448Z</time>
      </trkpt>
      <trkpt lat="49.81292" lon="5.62143">
        <ele>475.79</ele>
        <time>2020-11-04T10:49:41.000Z</time>
      </trkpt>
      <trkpt lat="49.81301" lon="5.62159">
        <ele>474.55</ele>
        <time>2020-11-04T10:49:43.000Z</time>
      </trkpt>
      <trkpt lat="49.81311" lon="5.62179">
        <ele>473.09</ele>
        <time>2020-11-04T10:49:45.000Z</time>
      </trkpt>
      <trkpt lat="49.81322" lon="5.62202">
        <ele>471.63</ele>
        <time>2020-11-04T10:49:47.000Z</time>
      </trkpt>
      <trkpt lat="49.81327" lon="5.62213">
        <ele>470.7</ele>
        <time>2020-11-04T10:49:48.000Z</time>
      </trkpt>
      <trkpt lat="49.81335" lon="5.62224">
        <ele>469.54</ele>
        <time>2020-11-04T10:49:49.000Z</time>
      </trkpt>
      <trkpt lat="49.81341" lon="5.62235">
        <ele>468.54</ele>
        <time>2020-11-04T10:49:50.000Z</time>
      </trkpt>
      <trkpt lat="49.8135" lon="5.62257">
        <ele>466.8</ele>
        <time>2020-11-04T10:49:52.000Z</time>
      </trkpt>
      <trkpt lat="49.81358" lon="5.62279">
        <ele>465.97</ele>
        <time>2020-11-04T10:49:54.000Z</time>
      </trkpt>
      <trkpt lat="49.81366" lon="5.62299">
        <ele>465.25</ele>
        <time>2020-11-04T10:49:56.000Z</time>
      </trkpt>
      <trkpt lat="49.81374" lon="5.62317">
        <ele>464.57</ele>
        <time>2020-11-04T10:49:58.000Z</time>
      </trkpt>
      <trkpt lat="49.81382" lon="5.62336">
        <ele>463.98</ele>
        <time>2020-11-04T10:50:00.000Z</time>
      </trkpt>
      <trkpt lat="49.81391" lon="5.62356">
        <ele>463.43</ele>
        <time>2020-11-04T10:50:02.000Z</time>
      </trkpt>
      <trkpt lat="49.81398" lon="5.62374">
        <ele>462.6</ele>
        <time>2020-11-04T10:50:04.000Z</time>
      </trkpt>
      <trkpt lat="49.81398" lon="5.62396">
        <ele>461.71</ele>
        <time>2020-11-04T10:50:06.000Z</time>
      </trkpt>
      <trkpt lat="49.81395" lon="5.62418">
        <ele>460.87</ele>
        <time>2020-11-04T10:50:08.000Z</time>
      </trkpt>
      <trkpt lat="49.81391" lon="5.62437">
        <ele>460.08</ele>
        <time>2020-11-04T10:50:10.000Z</time>
      </trkpt>
      <trkpt lat="49.81388" lon="5.62452">
        <ele>459.29</ele>
        <time>2020-11-04T10:50:12.000Z</time>
      </trkpt>
      <trkpt lat="49.81388" lon="5.62466">
        <ele>458.53</ele>
        <time>2020-11-04T10:50:14.000Z</time>
      </trkpt>
      <trkpt lat="49.81385" lon="5.62477">
        <ele>460.52</ele>
        <time>2020-11-04T10:50:19.000Z</time>
      </trkpt>
      <trkpt lat="49.81387" lon="5.6249">
        <ele>463.03</ele>
        <time>2020-11-04T10:50:23.034Z</time>
      </trkpt>
      <trkpt lat="49.81384" lon="5.62504">
        <ele>465.61</ele>
        <time>2020-11-04T10:50:26.768Z</time>
      </trkpt>
      <trkpt lat="49.81384" lon="5.62519">
        <ele>466.96</ele>
        <time>2020-11-04T10:50:30.925Z</time>
      </trkpt>
      <trkpt lat="49.81384" lon="5.62533">
        <ele>466.23</ele>
        <time>2020-11-04T10:50:34.164Z</time>
      </trkpt>
      <trkpt lat="49.81386" lon="5.6255">
        <ele>465.33</ele>
        <time>2020-11-04T10:50:38.528Z</time>
      </trkpt>
      <trkpt lat="49.81385" lon="5.62564">
        <ele>465.12</ele>
        <time>2020-11-04T10:50:43.000Z</time>
      </trkpt>
      <trkpt lat="49.81387" lon="5.62577">
        <ele>466.77</ele>
        <time>2020-11-04T10:50:48.000Z</time>
      </trkpt>
      <trkpt lat="49.81388" lon="5.62595">
        <ele>468.97</ele>
        <time>2020-11-04T10:50:53.000Z</time>
      </trkpt>
      <trkpt lat="49.8139" lon="5.62612">
        <ele>470.24</ele>
        <time>2020-11-04T10:50:57.000Z</time>
      </trkpt>
      <trkpt lat="49.81391" lon="5.62626">
        <ele>471.36</ele>
        <time>2020-11-04T10:51:01.000Z</time>
      </trkpt>
      <trkpt lat="49.81393" lon="5.62639">
        <ele>472.93</ele>
        <time>2020-11-04T10:51:06.000Z</time>
      </trkpt>
      <trkpt lat="49.81395" lon="5.62651">
        <ele>474.96</ele>
        <time>2020-11-04T10:51:11.000Z</time>
      </trkpt>
      <trkpt lat="49.81396" lon="5.62666">
        <ele>476.55</ele>
        <time>2020-11-04T10:51:16.000Z</time>
      </trkpt>
      <trkpt lat="49.81397" lon="5.6268">
        <ele>476.87</ele>
        <time>2020-11-04T10:51:20.000Z</time>
      </trkpt>
      <trkpt lat="49.81396" lon="5.62695">
        <ele>476.64</ele>
        <time>2020-11-04T10:51:25.000Z</time>
      </trkpt>
      <trkpt lat="49.81398" lon="5.62709">
        <ele>475.45</ele>
        <time>2020-11-04T10:51:30.000Z</time>
      </trkpt>
      <trkpt lat="49.81395" lon="5.6272">
        <ele>476.24</ele>
        <time>2020-11-04T10:51:35.000Z</time>
      </trkpt>
      <trkpt lat="49.81394" lon="5.6273">
        <ele>478.11</ele>
        <time>2020-11-04T10:51:40.000Z</time>
      </trkpt>
      <trkpt lat="49.81392" lon="5.62742">
        <ele>479.77</ele>
        <time>2020-11-04T10:51:44.520Z</time>
      </trkpt>
      <trkpt lat="49.81392" lon="5.62753">
        <ele>481.68</ele>
        <time>2020-11-04T10:51:48.521Z</time>
      </trkpt>
      <trkpt lat="49.81391" lon="5.62764">
        <ele>483.69</ele>
        <time>2020-11-04T10:51:53.534Z</time>
      </trkpt>
      <trkpt lat="49.81395" lon="5.62776">
        <ele>484.85</ele>
        <time>2020-11-04T10:51:58.506Z</time>
      </trkpt>
      <trkpt lat="49.81396" lon="5.62786">
        <ele>486.29</ele>
        <time>2020-11-04T10:52:02.535Z</time>
      </trkpt>
      <trkpt lat="49.81395" lon="5.62799">
        <ele>487.46</ele>
        <time>2020-11-04T10:52:07.294Z</time>
      </trkpt>
      <trkpt lat="49.81395" lon="5.62811">
        <ele>487.79</ele>
        <time>2020-11-04T10:52:12.106Z</time>
      </trkpt>
      <trkpt lat="49.81396" lon="5.6282">
        <ele>488.02</ele>
        <time>2020-11-04T10:52:16.408Z</time>
      </trkpt>
      <trkpt lat="49.81397" lon="5.6283">
        <ele>488.89</ele>
        <time>2020-11-04T10:52:20.992Z</time>
      </trkpt>
      <trkpt lat="49.81398" lon="5.6284">
        <ele>490.1</ele>
        <time>2020-11-04T10:52:25.211Z</time>
      </trkpt>
      <trkpt lat="49.81398" lon="5.62849">
        <ele>491.37</ele>
        <time>2020-11-04T10:52:29.559Z</time>
      </trkpt>
      <trkpt lat="49.81397" lon="5.62861">
        <ele>493.34</ele>
        <time>2020-11-04T10:52:34.000Z</time>
      </trkpt>
      <trkpt lat="49.81398" lon="5.62873">
        <ele>494.53</ele>
        <time>2020-11-04T10:52:38.534Z</time>
      </trkpt>
      <trkpt lat="49.81398" lon="5.6288">
        <ele>495.92</ele>
        <time>2020-11-04T10:52:42.558Z</time>
      </trkpt>
      <trkpt lat="49.81396" lon="5.62892">
        <ele>496.76</ele>
        <time>2020-11-04T10:52:47.520Z</time>
      </trkpt>
      <trkpt lat="49.81396" lon="5.62901">
        <ele>497.75</ele>
        <time>2020-11-04T10:52:51.563Z</time>
      </trkpt>
      <trkpt lat="49.814" lon="5.62914">
        <ele>498.71</ele>
        <time>2020-11-04T10:52:56.544Z</time>
      </trkpt>
      <trkpt lat="49.81399" lon="5.62928">
        <ele>499.44</ele>
        <time>2020-11-04T10:53:01.530Z</time>
      </trkpt>
      <trkpt lat="49.81401" lon="5.62939">
        <ele>500.05</ele>
        <time>2020-11-04T10:53:05.544Z</time>
      </trkpt>
      <trkpt lat="49.81401" lon="5.6295">
        <ele>500.93</ele>
        <time>2020-11-04T10:53:09.960Z</time>
      </trkpt>
      <trkpt lat="49.81399" lon="5.62963">
        <ele>502.1</ele>
        <time>2020-11-04T10:53:14.355Z</time>
      </trkpt>
      <trkpt lat="49.814" lon="5.62978">
        <ele>502.08</ele>
        <time>2020-11-04T10:53:18.536Z</time>
      </trkpt>
      <trkpt lat="49.81401" lon="5.62993">
        <ele>503.16</ele>
        <time>2020-11-04T10:53:22.558Z</time>
      </trkpt>
      <trkpt lat="49.81401" lon="5.6301">
        <ele>504.85</ele>
        <time>2020-11-04T10:53:27.334Z</time>
      </trkpt>
      <trkpt lat="49.81399" lon="5.63025">
        <ele>506.58</ele>
        <time>2020-11-04T10:53:31.350Z</time>
      </trkpt>
      <trkpt lat="49.814" lon="5.63042">
        <ele>509.32</ele>
        <time>2020-11-04T10:53:35.546Z</time>
      </trkpt>
      <trkpt lat="49.81405" lon="5.63061">
        <ele>511.29</ele>
        <time>2020-11-04T10:53:39.576Z</time>
      </trkpt>
      <trkpt lat="49.81406" lon="5.63079">
        <ele>514.4</ele>
        <time>2020-11-04T10:53:44.539Z</time>
      </trkpt>
      <trkpt lat="49.8141" lon="5.63096">
        <ele>515.26</ele>
        <time>2020-11-04T10:53:47.523Z</time>
      </trkpt>
      <trkpt lat="49.81415" lon="5.63114">
        <ele>515.05</ele>
        <time>2020-11-04T10:53:50.530Z</time>
      </trkpt>
      <trkpt lat="49.81417" lon="5.63128">
        <ele>514.67</ele>
        <time>2020-11-04T10:53:53.003Z</time>
      </trkpt>
      <trkpt lat="49.81417" lon="5.63144">
        <ele>513.59</ele>
        <time>2020-11-04T10:53:55.526Z</time>
      </trkpt>
      <trkpt lat="49.81417" lon="5.63161">
        <ele>512.75</ele>
        <time>2020-11-04T10:53:58.529Z</time>
      </trkpt>
      <trkpt lat="49.81419" lon="5.63175">
        <ele>512.44</ele>
        <time>2020-11-04T10:54:01.548Z</time>
      </trkpt>
      <trkpt lat="49.81413" lon="5.63189">
        <ele>514.62</ele>
        <time>2020-11-04T10:54:05.533Z</time>
      </trkpt>
      <trkpt lat="49.8141" lon="5.63201">
        <ele>519.48</ele>
        <time>2020-11-04T10:54:10.054Z</time>
      </trkpt>
      <trkpt lat="49.81409" lon="5.63215">
        <ele>519.66</ele>
        <time>2020-11-04T10:54:13.535Z</time>
      </trkpt>
      <trkpt lat="49.81406" lon="5.63233">
        <ele>520.38</ele>
        <time>2020-11-04T10:54:17.539Z</time>
      </trkpt>
      <trkpt lat="49.81397" lon="5.63245">
        <ele>528.09</ele>
        <time>2020-11-04T10:54:22.528Z</time>
      </trkpt>
      <trkpt lat="49.8139" lon="5.63254">
        <ele>533.88</ele>
        <time>2020-11-04T10:54:25.526Z</time>
      </trkpt>
      <trkpt lat="49.81383" lon="5.63265">
        <ele>543.03</ele>
        <time>2020-11-04T10:54:29.561Z</time>
      </trkpt>
      <trkpt lat="49.81384" lon="5.63286">
        <ele>542.86</ele>
        <time>2020-11-04T10:54:32.527Z</time>
      </trkpt>
      <trkpt lat="49.81384" lon="5.63301">
        <ele>542.91</ele>
        <time>2020-11-04T10:54:34.530Z</time>
      </trkpt>
      <trkpt lat="49.81382" lon="5.63317">
        <ele>544.87</ele>
        <time>2020-11-04T10:54:37.416Z</time>
      </trkpt>
      <trkpt lat="49.81379" lon="5.63331">
        <ele>547.07</ele>
        <time>2020-11-04T10:54:40.522Z</time>
      </trkpt>
      <trkpt lat="49.81374" lon="5.63344">
        <ele>553.15</ele>
        <time>2020-11-04T10:54:44.528Z</time>
      </trkpt>
      <trkpt lat="49.81369" lon="5.63358">
        <ele>561.74</ele>
        <time>2020-11-04T10:54:48.540Z</time>
      </trkpt>
      <trkpt lat="49.81372" lon="5.63374">
        <ele>560.15</ele>
        <time>2020-11-04T10:54:50.535Z</time>
      </trkpt>
      <trkpt lat="49.81375" lon="5.63394">
        <ele>556.61</ele>
        <time>2020-11-04T10:54:52.533Z</time>
      </trkpt>
      <trkpt lat="49.81376" lon="5.63413">
        <ele>553.59</ele>
        <time>2020-11-04T10:54:54.517Z</time>
      </trkpt>
      <trkpt lat="49.81374" lon="5.63428">
        <ele>551.19</ele>
        <time>2020-11-04T10:54:56.547Z</time>
      </trkpt>
      <trkpt lat="49.81372" lon="5.63443">
        <ele>548.79</ele>
        <time>2020-11-04T10:54:58.532Z</time>
      </trkpt>
      <trkpt lat="49.8137" lon="5.63461">
        <ele>544.19</ele>
        <time>2020-11-04T10:55:01.347Z</time>
      </trkpt>
      <trkpt lat="49.81368" lon="5.63481">
        <ele>541.55</ele>
        <time>2020-11-04T10:55:04.529Z</time>
      </trkpt>
      <trkpt lat="49.81361" lon="5.63498">
        <ele>539.32</ele>
        <time>2020-11-04T10:55:07.540Z</time>
      </trkpt>
      <trkpt lat="49.81359" lon="5.63514">
        <ele>538.79</ele>
        <time>2020-11-04T10:55:10.554Z</time>
      </trkpt>
      <trkpt lat="49.81354" lon="5.63527">
        <ele>538.39</ele>
        <time>2020-11-04T10:55:14.567Z</time>
      </trkpt>
      <trkpt lat="49.81349" lon="5.63542">
        <ele>537.58</ele>
        <time>2020-11-04T10:55:17.536Z</time>
      </trkpt>
      <trkpt lat="49.81345" lon="5.63556">
        <ele>537.52</ele>
        <time>2020-11-04T10:55:20.568Z</time>
      </trkpt>
      <trkpt lat="49.81342" lon="5.6357">
        <ele>535.33</ele>
        <time>2020-11-04T10:55:25.542Z</time>
      </trkpt>
      <trkpt lat="49.81335" lon="5.63581">
        <ele>533.59</ele>
        <time>2020-11-04T10:55:29.536Z</time>
      </trkpt>
      <trkpt lat="49.81328" lon="5.63595">
        <ele>531.72</ele>
        <time>2020-11-04T10:55:33.584Z</time>
      </trkpt>
      <trkpt lat="49.81323" lon="5.63609">
        <ele>526.79</ele>
        <time>2020-11-04T10:55:36.546Z</time>
      </trkpt>
      <trkpt lat="49.81319" lon="5.63624">
        <ele>519.29</ele>
        <time>2020-11-04T10:55:41.540Z</time>
      </trkpt>
      <trkpt lat="49.81317" lon="5.63633">
        <ele>514.22</ele>
        <time>2020-11-04T10:55:45.551Z</time>
      </trkpt>
      <trkpt lat="49.81337" lon="5.63898">
        <ele>510.67</ele>
        <time>2020-11-04T10:55:52.000Z</time>
      </trkpt>
      <trkpt lat="49.81339" lon="5.63939">
        <ele>509.63</ele>
        <time>2020-11-04T10:55:53.000Z</time>
      </trkpt>
      <trkpt lat="49.81339" lon="5.6396">
        <ele>508.7</ele>
        <time>2020-11-04T10:55:54.000Z</time>
      </trkpt>
      <trkpt lat="49.81338" lon="5.63975">
        <ele>507.78</ele>
        <time>2020-11-04T10:55:55.000Z</time>
      </trkpt>
      <trkpt lat="49.81339" lon="5.64003">
        <ele>506.38</ele>
        <time>2020-11-04T10:55:57.000Z</time>
      </trkpt>
      <trkpt lat="49.81338" lon="5.64026">
        <ele>505.2</ele>
        <time>2020-11-04T10:55:59.000Z</time>
      </trkpt>
      <trkpt lat="49.81337" lon="5.64045">
        <ele>504.24</ele>
        <time>2020-11-04T10:56:01.000Z</time>
      </trkpt>
      <trkpt lat="49.81336" lon="5.64064">
        <ele>503.62</ele>
        <time>2020-11-04T10:56:03.000Z</time>
      </trkpt>
      <trkpt lat="49.81335" lon="5.64082">
        <ele>502.7</ele>
        <time>2020-11-04T10:56:05.000Z</time>
      </trkpt>
      <trkpt lat="49.81335" lon="5.64103">
        <ele>501.79</ele>
        <time>2020-11-04T10:56:07.000Z</time>
      </trkpt>
      <trkpt lat="49.81334" lon="5.64125">
        <ele>500.55</ele>
        <time>2020-11-04T10:56:09.000Z</time>
      </trkpt>
      <trkpt lat="49.81333" lon="5.64142">
        <ele>499.68</ele>
        <time>2020-11-04T10:56:11.000Z</time>
      </trkpt>
      <trkpt lat="49.81331" lon="5.64158">
        <ele>498.59</ele>
        <time>2020-11-04T10:56:14.000Z</time>
      </trkpt>
      <trkpt lat="49.81328" lon="5.64172">
        <ele>497.87</ele>
        <time>2020-11-04T10:56:18.640Z</time>
      </trkpt>
      <trkpt lat="49.81319" lon="5.64169">
        <ele>497.15</ele>
        <time>2020-11-04T10:56:23.256Z</time>
      </trkpt>
      <trkpt lat="49.81308" lon="5.64168">
        <ele>497.95</ele>
        <time>2020-11-04T10:56:27.543Z</time>
      </trkpt>
      <trkpt lat="49.81297" lon="5.64166">
        <ele>497.98</ele>
        <time>2020-11-04T10:56:30.551Z</time>
      </trkpt>
      <trkpt lat="49.81284" lon="5.64174">
        <ele>498.06</ele>
        <time>2020-11-04T10:56:34.000Z</time>
      </trkpt>
      <trkpt lat="49.81274" lon="5.64175">
        <ele>497.95</ele>
        <time>2020-11-04T10:56:35.855Z</time>
      </trkpt>
      <trkpt lat="49.81265" lon="5.64178">
        <ele>497.79</ele>
        <time>2020-11-04T10:56:38.000Z</time>
      </trkpt>
      <trkpt lat="49.81252" lon="5.64185">
        <ele>497.61</ele>
        <time>2020-11-04T10:56:41.514Z</time>
      </trkpt>
      <trkpt lat="49.81243" lon="5.64194">
        <ele>497.12</ele>
        <time>2020-11-04T10:56:45.526Z</time>
      </trkpt>
      <trkpt lat="49.81233" lon="5.64195">
        <ele>496.18</ele>
        <time>2020-11-04T10:56:49.714Z</time>
      </trkpt>
      <trkpt lat="49.81222" lon="5.64195">
        <ele>495.15</ele>
        <time>2020-11-04T10:56:53.209Z</time>
      </trkpt>
      <trkpt lat="49.81215" lon="5.6419">
        <ele>491.79</ele>
        <time>2020-11-04T10:56:57.575Z</time>
      </trkpt>
      <trkpt lat="49.81209" lon="5.64194">
        <ele>489.56</ele>
        <time>2020-11-04T10:57:01.595Z</time>
      </trkpt>
      <trkpt lat="49.812" lon="5.64202">
        <ele>489.63</ele>
        <time>2020-11-04T10:57:06.547Z</time>
      </trkpt>
      <trkpt lat="49.8119" lon="5.64204">
        <ele>489.83</ele>
        <time>2020-11-04T10:57:09.541Z</time>
      </trkpt>
      <trkpt lat="49.81181" lon="5.64203">
        <ele>489.82</ele>
        <time>2020-11-04T10:57:12.547Z</time>
      </trkpt>
      <trkpt lat="49.81176" lon="5.64208">
        <ele>488.8</ele>
        <time>2020-11-04T10:57:17.415Z</time>
      </trkpt>
      <trkpt lat="49.81168" lon="5.64211">
        <ele>487.93</ele>
        <time>2020-11-04T10:57:21.531Z</time>
      </trkpt>
      <trkpt lat="49.81157" lon="5.64214">
        <ele>488.09</ele>
        <time>2020-11-04T10:57:24.526Z</time>
      </trkpt>
      <trkpt lat="49.81148" lon="5.6421">
        <ele>487.57</ele>
        <time>2020-11-04T10:57:27.533Z</time>
      </trkpt>
      <trkpt lat="49.81137" lon="5.64203">
        <ele>487.15</ele>
        <time>2020-11-04T10:57:30.545Z</time>
      </trkpt>
      <trkpt lat="49.81128" lon="5.64192">
        <ele>486</ele>
        <time>2020-11-04T10:57:33.534Z</time>
      </trkpt>
      <trkpt lat="49.81115" lon="5.64191">
        <ele>484.46</ele>
        <time>2020-11-04T10:57:35.000Z</time>
      </trkpt>
      <trkpt lat="49.811" lon="5.64185">
        <ele>482.8</ele>
        <time>2020-11-04T10:57:37.000Z</time>
      </trkpt>
      <trkpt lat="49.81089" lon="5.64181">
        <ele>481.95</ele>
        <time>2020-11-04T10:57:38.000Z</time>
      </trkpt>
      <trkpt lat="49.81073" lon="5.64172">
        <ele>480.29</ele>
        <time>2020-11-04T10:57:40.000Z</time>
      </trkpt>
      <trkpt lat="49.81056" lon="5.64167">
        <ele>478.59</ele>
        <time>2020-11-04T10:57:42.000Z</time>
      </trkpt>
      <trkpt lat="49.81047" lon="5.64164">
        <ele>477.86</ele>
        <time>2020-11-04T10:57:43.000Z</time>
      </trkpt>
      <trkpt lat="49.8103" lon="5.6416">
        <ele>476.56</ele>
        <time>2020-11-04T10:57:45.000Z</time>
      </trkpt>
      <trkpt lat="49.81016" lon="5.64154">
        <ele>475.53</ele>
        <time>2020-11-04T10:57:47.000Z</time>
      </trkpt>
      <trkpt lat="49.81004" lon="5.64154">
        <ele>474.48</ele>
        <time>2020-11-04T10:57:50.000Z</time>
      </trkpt>
      <trkpt lat="49.80995" lon="5.64156">
        <ele>473.52</ele>
        <time>2020-11-04T10:57:54.326Z</time>
      </trkpt>
      <trkpt lat="49.80985" lon="5.64157">
        <ele>472.55</ele>
        <time>2020-11-04T10:57:58.267Z</time>
      </trkpt>
      <trkpt lat="49.80975" lon="5.6416">
        <ele>471.16</ele>
        <time>2020-11-04T10:58:02.852Z</time>
      </trkpt>
      <trkpt lat="49.80965" lon="5.64163">
        <ele>470.64</ele>
        <time>2020-11-04T10:58:07.128Z</time>
      </trkpt>
      <trkpt lat="49.80957" lon="5.64157">
        <ele>470.82</ele>
        <time>2020-11-04T10:58:11.440Z</time>
      </trkpt>
      <trkpt lat="49.80951" lon="5.64155">
        <ele>470.32</ele>
        <time>2020-11-04T10:58:15.769Z</time>
      </trkpt>
      <trkpt lat="49.80945" lon="5.64155">
        <ele>469.9</ele>
        <time>2020-11-04T10:58:20.000Z</time>
      </trkpt>
      <trkpt lat="49.80942" lon="5.64151">
        <ele>470.52</ele>
        <time>2020-11-04T10:58:24.392Z</time>
      </trkpt>
      <trkpt lat="49.80935" lon="5.64151">
        <ele>470.26</ele>
        <time>2020-11-04T10:58:28.669Z</time>
      </trkpt>
      <trkpt lat="49.80928" lon="5.64149">
        <ele>469.5</ele>
        <time>2020-11-04T10:58:32.804Z</time>
      </trkpt>
      <trkpt lat="49.80922" lon="5.64143">
        <ele>470.13</ele>
        <time>2020-11-04T10:58:37.369Z</time>
      </trkpt>
      <trkpt lat="49.80916" lon="5.64136">
        <ele>473.79</ele>
        <time>2020-11-04T10:58:42.290Z</time>
      </trkpt>
      <trkpt lat="49.80908" lon="5.64127">
        <ele>478.11</ele>
        <time>2020-11-04T10:58:46.680Z</time>
      </trkpt>
      <trkpt lat="49.809" lon="5.64121">
        <ele>482.06</ele>
        <time>2020-11-04T10:58:51.205Z</time>
      </trkpt>
      <trkpt lat="49.80893" lon="5.64114">
        <ele>484.6</ele>
        <time>2020-11-04T10:58:55.557Z</time>
      </trkpt>
      <trkpt lat="49.80882" lon="5.64106">
        <ele>485.58</ele>
        <time>2020-11-04T10:58:59.527Z</time>
      </trkpt>
      <trkpt lat="49.80873" lon="5.64102">
        <ele>485.55</ele>
        <time>2020-11-04T10:59:03.047Z</time>
      </trkpt>
      <trkpt lat="49.80863" lon="5.64097">
        <ele>485.43</ele>
        <time>2020-11-04T10:59:07.542Z</time>
      </trkpt>
      <trkpt lat="49.80854" lon="5.64093">
        <ele>485.67</ele>
        <time>2020-11-04T10:59:10.555Z</time>
      </trkpt>
      <trkpt lat="49.80844" lon="5.64085">
        <ele>485.45</ele>
        <time>2020-11-04T10:59:13.550Z</time>
      </trkpt>
      <trkpt lat="49.80834" lon="5.64081">
        <ele>484.44</ele>
        <time>2020-11-04T10:59:16.825Z</time>
      </trkpt>
      <trkpt lat="49.80825" lon="5.64078">
        <ele>483.98</ele>
        <time>2020-11-04T10:59:20.322Z</time>
      </trkpt>
      <trkpt lat="49.80816" lon="5.64071">
        <ele>482.87</ele>
        <time>2020-11-04T10:59:24.000Z</time>
      </trkpt>
      <trkpt lat="49.80807" lon="5.64066">
        <ele>482.75</ele>
        <time>2020-11-04T10:59:27.651Z</time>
      </trkpt>
      <trkpt lat="49.80798" lon="5.64059">
        <ele>483.19</ele>
        <time>2020-11-04T10:59:31.367Z</time>
      </trkpt>
      <trkpt lat="49.80788" lon="5.64055">
        <ele>484.06</ele>
        <time>2020-11-04T10:59:34.931Z</time>
      </trkpt>
      <trkpt lat="49.8078" lon="5.64049">
        <ele>484.89</ele>
        <time>2020-11-04T10:59:38.231Z</time>
      </trkpt>
      <trkpt lat="49.8077" lon="5.64047">
        <ele>485.86</ele>
        <time>2020-11-04T10:59:42.232Z</time>
      </trkpt>
      <trkpt lat="49.80761" lon="5.64047">
        <ele>486.9</ele>
        <time>2020-11-04T10:59:45.551Z</time>
      </trkpt>
      <trkpt lat="49.80752" lon="5.64049">
        <ele>487.45</ele>
        <time>2020-11-04T10:59:49.388Z</time>
      </trkpt>
      <trkpt lat="49.80741" lon="5.64051">
        <ele>488.88</ele>
        <time>2020-11-04T10:59:54.291Z</time>
      </trkpt>
      <trkpt lat="49.80732" lon="5.64054">
        <ele>489.87</ele>
        <time>2020-11-04T10:59:59.008Z</time>
      </trkpt>
      <trkpt lat="49.80723" lon="5.64054">
        <ele>493.06</ele>
        <time>2020-11-04T11:00:04.006Z</time>
      </trkpt>
      <trkpt lat="49.80711" lon="5.64056">
        <ele>496.66</ele>
        <time>2020-11-04T11:00:09.289Z</time>
      </trkpt>
      <trkpt lat="49.807" lon="5.64056">
        <ele>497.95</ele>
        <time>2020-11-04T11:00:12.991Z</time>
      </trkpt>
      <trkpt lat="49.8069" lon="5.64057">
        <ele>498.64</ele>
        <time>2020-11-04T11:00:15.732Z</time>
      </trkpt>
      <trkpt lat="49.80681" lon="5.64059">
        <ele>499.18</ele>
        <time>2020-11-04T11:00:18.131Z</time>
      </trkpt>
      <trkpt lat="49.80671" lon="5.64064">
        <ele>500.34</ele>
        <time>2020-11-04T11:00:21.571Z</time>
      </trkpt>
      <trkpt lat="49.80659" lon="5.64068">
        <ele>501.91</ele>
        <time>2020-11-04T11:00:25.520Z</time>
      </trkpt>
      <trkpt lat="49.80649" lon="5.64068">
        <ele>503.33</ele>
        <time>2020-11-04T11:00:28.554Z</time>
      </trkpt>
      <trkpt lat="49.80637" lon="5.6407">
        <ele>503.91</ele>
        <time>2020-11-04T11:00:30.528Z</time>
      </trkpt>
      <trkpt lat="49.80627" lon="5.64069">
        <ele>504.22</ele>
        <time>2020-11-04T11:00:32.186Z</time>
      </trkpt>
      <trkpt lat="49.80616" lon="5.64071">
        <ele>504.66</ele>
        <time>2020-11-04T11:00:35.028Z</time>
      </trkpt>
      <trkpt lat="49.80607" lon="5.6407">
        <ele>505.15</ele>
        <time>2020-11-04T11:00:39.308Z</time>
      </trkpt>
      <trkpt lat="49.80596" lon="5.6407">
        <ele>505.66</ele>
        <time>2020-11-04T11:00:43.543Z</time>
      </trkpt>
      <trkpt lat="49.80584" lon="5.64073">
        <ele>506.05</ele>
        <time>2020-11-04T11:00:47.523Z</time>
      </trkpt>
      <trkpt lat="49.80573" lon="5.64071">
        <ele>505.99</ele>
        <time>2020-11-04T11:00:51.538Z</time>
      </trkpt>
      <trkpt lat="49.80561" lon="5.64071">
        <ele>505.74</ele>
        <time>2020-11-04T11:00:55.544Z</time>
      </trkpt>
      <trkpt lat="49.80549" lon="5.64073">
        <ele>505.29</ele>
        <time>2020-11-04T11:00:58.548Z</time>
      </trkpt>
      <trkpt lat="49.80539" lon="5.64077">
        <ele>505.07</ele>
        <time>2020-11-04T11:01:01.106Z</time>
      </trkpt>
      <trkpt lat="49.80528" lon="5.64078">
        <ele>505.98</ele>
        <time>2020-11-04T11:01:05.558Z</time>
      </trkpt>
      <trkpt lat="49.80517" lon="5.64076">
        <ele>506.45</ele>
        <time>2020-11-04T11:01:08.528Z</time>
      </trkpt>
      <trkpt lat="49.80507" lon="5.64068">
        <ele>506.63</ele>
        <time>2020-11-04T11:01:12.538Z</time>
      </trkpt>
      <trkpt lat="49.80499" lon="5.64061">
        <ele>505.62</ele>
        <time>2020-11-04T11:01:16.541Z</time>
      </trkpt>
      <trkpt lat="49.80489" lon="5.64063">
        <ele>503.83</ele>
        <time>2020-11-04T11:01:19.558Z</time>
      </trkpt>
      <trkpt lat="49.80479" lon="5.64067">
        <ele>501.76</ele>
        <time>2020-11-04T11:01:23.533Z</time>
      </trkpt>
      <trkpt lat="49.80469" lon="5.64066">
        <ele>500.86</ele>
        <time>2020-11-04T11:01:25.542Z</time>
      </trkpt>
      <trkpt lat="49.8046" lon="5.64062">
        <ele>500.02</ele>
        <time>2020-11-04T11:01:27.543Z</time>
      </trkpt>
      <trkpt lat="49.8045" lon="5.64064">
        <ele>499.1</ele>
        <time>2020-11-04T11:01:29.535Z</time>
      </trkpt>
      <trkpt lat="49.80439" lon="5.64071">
        <ele>497.91</ele>
        <time>2020-11-04T11:01:32.545Z</time>
      </trkpt>
      <trkpt lat="49.8043" lon="5.64075">
        <ele>496.99</ele>
        <time>2020-11-04T11:01:36.167Z</time>
      </trkpt>
      <trkpt lat="49.80421" lon="5.64075">
        <ele>497.02</ele>
        <time>2020-11-04T11:01:38.860Z</time>
      </trkpt>
      <trkpt lat="49.80409" lon="5.64082">
        <ele>498.01</ele>
        <time>2020-11-04T11:01:42.548Z</time>
      </trkpt>
      <trkpt lat="49.80402" lon="5.64091">
        <ele>498.48</ele>
        <time>2020-11-04T11:01:44.551Z</time>
      </trkpt>
      <trkpt lat="49.80391" lon="5.64095">
        <ele>500.06</ele>
        <time>2020-11-04T11:01:47.543Z</time>
      </trkpt>
      <trkpt lat="49.8038" lon="5.64086">
        <ele>501.19</ele>
        <time>2020-11-04T11:01:50.541Z</time>
      </trkpt>
      <trkpt lat="49.8037" lon="5.64092">
        <ele>501.48</ele>
        <time>2020-11-04T11:01:53.527Z</time>
      </trkpt>
      <trkpt lat="49.8036" lon="5.64094">
        <ele>501.59</ele>
        <time>2020-11-04T11:01:57.537Z</time>
      </trkpt>
      <trkpt lat="49.80349" lon="5.64101">
        <ele>501.49</ele>
        <time>2020-11-04T11:02:01.513Z</time>
      </trkpt>
      <trkpt lat="49.80338" lon="5.64106">
        <ele>500.53</ele>
        <time>2020-11-04T11:02:05.538Z</time>
      </trkpt>
      <trkpt lat="49.80327" lon="5.64111">
        <ele>498.96</ele>
        <time>2020-11-04T11:02:08.497Z</time>
      </trkpt>
      <trkpt lat="49.80316" lon="5.64113">
        <ele>496.8</ele>
        <time>2020-11-04T11:02:11.553Z</time>
      </trkpt>
      <trkpt lat="49.80306" lon="5.64111">
        <ele>494.86</ele>
        <time>2020-11-04T11:02:14.529Z</time>
      </trkpt>
      <trkpt lat="49.80301" lon="5.64098">
        <ele>492.28</ele>
        <time>2020-11-04T11:02:18.531Z</time>
      </trkpt>
      <trkpt lat="49.80298" lon="5.64087">
        <ele>491.55</ele>
        <time>2020-11-04T11:02:22.542Z</time>
      </trkpt>
      <trkpt lat="49.80296" lon="5.64075">
        <ele>492.42</ele>
        <time>2020-11-04T11:02:27.538Z</time>
      </trkpt>
      <trkpt lat="49.80294" lon="5.64065">
        <ele>493.05</ele>
        <time>2020-11-04T11:02:32.521Z</time>
      </trkpt>
      <trkpt lat="49.80291" lon="5.64056">
        <ele>493.56</ele>
        <time>2020-11-04T11:02:36.543Z</time>
      </trkpt>
      <trkpt lat="49.80284" lon="5.64044">
        <ele>493.19</ele>
        <time>2020-11-04T11:02:40.530Z</time>
      </trkpt>
      <trkpt lat="49.80277" lon="5.64034">
        <ele>491.36</ele>
        <time>2020-11-04T11:02:43.102Z</time>
      </trkpt>
      <trkpt lat="49.8027" lon="5.64024">
        <ele>489.17</ele>
        <time>2020-11-04T11:02:46.521Z</time>
      </trkpt>
      <trkpt lat="49.80263" lon="5.64014">
        <ele>487.95</ele>
        <time>2020-11-04T11:02:49.535Z</time>
      </trkpt>
      <trkpt lat="49.80257" lon="5.64003">
        <ele>487.36</ele>
        <time>2020-11-04T11:02:52.519Z</time>
      </trkpt>
      <trkpt lat="49.80247" lon="5.63992">
        <ele>487.6</ele>
        <time>2020-11-04T11:02:55.529Z</time>
      </trkpt>
      <trkpt lat="49.80238" lon="5.63983">
        <ele>488.69</ele>
        <time>2020-11-04T11:02:58.548Z</time>
      </trkpt>
      <trkpt lat="49.80232" lon="5.63969">
        <ele>489.47</ele>
        <time>2020-11-04T11:03:01.536Z</time>
      </trkpt>
      <trkpt lat="49.80225" lon="5.63955">
        <ele>489.45</ele>
        <time>2020-11-04T11:03:05.306Z</time>
      </trkpt>
      <trkpt lat="49.8022" lon="5.63943">
        <ele>488.47</ele>
        <time>2020-11-04T11:03:09.543Z</time>
      </trkpt>
      <trkpt lat="49.80212" lon="5.63931">
        <ele>487.69</ele>
        <time>2020-11-04T11:03:12.544Z</time>
      </trkpt>
      <trkpt lat="49.80211" lon="5.63931">
        <ele>487.77</ele>
        <time>2020-11-04T11:03:17.209Z</time>
      </trkpt>
      <trkpt lat="49.80215" lon="5.63923">
        <ele>488.98</ele>
        <time>2020-11-04T11:03:21.537Z</time>
      </trkpt>
      <trkpt lat="49.80216" lon="5.63917">
        <ele>491.18</ele>
        <time>2020-11-04T11:03:26.551Z</time>
      </trkpt>
      <trkpt lat="49.80219" lon="5.63912">
        <ele>493.35</ele>
        <time>2020-11-04T11:03:30.554Z</time>
      </trkpt>
      <trkpt lat="49.80225" lon="5.63901">
        <ele>494.69</ele>
        <time>2020-11-04T11:03:33.563Z</time>
      </trkpt>
      <trkpt lat="49.80229" lon="5.63885">
        <ele>496.17</ele>
        <time>2020-11-04T11:03:36.547Z</time>
      </trkpt>
      <trkpt lat="49.80231" lon="5.6387">
        <ele>496.13</ele>
        <time>2020-11-04T11:03:38.555Z</time>
      </trkpt>
      <trkpt lat="49.80228" lon="5.63856">
        <ele>495.84</ele>
        <time>2020-11-04T11:03:40.555Z</time>
      </trkpt>
      <trkpt lat="49.80218" lon="5.63847">
        <ele>494.94</ele>
        <time>2020-11-04T11:03:43.535Z</time>
      </trkpt>
      <trkpt lat="49.80208" lon="5.63836">
        <ele>493.72</ele>
        <time>2020-11-04T11:03:47.543Z</time>
      </trkpt>
      <trkpt lat="49.80201" lon="5.63827">
        <ele>493.26</ele>
        <time>2020-11-04T11:03:50.555Z</time>
      </trkpt>
      <trkpt lat="49.80193" lon="5.63814">
        <ele>493.42</ele>
        <time>2020-11-04T11:03:54.528Z</time>
      </trkpt>
      <trkpt lat="49.80183" lon="5.63806">
        <ele>493.95</ele>
        <time>2020-11-04T11:03:57.537Z</time>
      </trkpt>
      <trkpt lat="49.80179" lon="5.63806">
        <ele>494.59</ele>
        <time>2020-11-04T11:04:02.548Z</time>
      </trkpt>
      <trkpt lat="49.80174" lon="5.63805">
        <ele>493.84</ele>
        <time>2020-11-04T11:04:07.541Z</time>
      </trkpt>
      <trkpt lat="49.80169" lon="5.63801">
        <ele>492.11</ele>
        <time>2020-11-04T11:04:11.944Z</time>
      </trkpt>
      <trkpt lat="49.80159" lon="5.63796">
        <ele>489.88</ele>
        <time>2020-11-04T11:04:15.692Z</time>
      </trkpt>
      <trkpt lat="49.8015" lon="5.6379">
        <ele>488.7</ele>
        <time>2020-11-04T11:04:20.524Z</time>
      </trkpt>
      <trkpt lat="49.80141" lon="5.6379">
        <ele>488.18</ele>
        <time>2020-11-04T11:04:23.525Z</time>
      </trkpt>
      <trkpt lat="49.80132" lon="5.63789">
        <ele>487.91</ele>
        <time>2020-11-04T11:04:25.781Z</time>
      </trkpt>
      <trkpt lat="49.80121" lon="5.63788">
        <ele>487.68</ele>
        <time>2020-11-04T11:04:28.145Z</time>
      </trkpt>
      <trkpt lat="49.80112" lon="5.63787">
        <ele>487.53</ele>
        <time>2020-11-04T11:04:29.950Z</time>
      </trkpt>
      <trkpt lat="49.80103" lon="5.63793">
        <ele>486.67</ele>
        <time>2020-11-04T11:04:34.188Z</time>
      </trkpt>
      <trkpt lat="49.80103" lon="5.63793">
        <ele>485.86</ele>
        <time>2020-11-04T11:04:39.000Z</time>
      </trkpt>
      <trkpt lat="49.801" lon="5.63793">
        <ele>484.79</ele>
        <time>2020-11-04T11:04:43.305Z</time>
      </trkpt>
      <trkpt lat="49.80094" lon="5.63793">
        <ele>483.7</ele>
        <time>2020-11-04T11:04:47.306Z</time>
      </trkpt>
      <trkpt lat="49.80083" lon="5.63792">
        <ele>482.97</ele>
        <time>2020-11-04T11:04:49.999Z</time>
      </trkpt>
      <trkpt lat="49.80074" lon="5.63789">
        <ele>482.49</ele>
        <time>2020-11-04T11:04:53.000Z</time>
      </trkpt>
      <trkpt lat="49.80062" lon="5.63791">
        <ele>482.32</ele>
        <time>2020-11-04T11:04:56.205Z</time>
      </trkpt>
      <trkpt lat="49.80051" lon="5.63792">
        <ele>482.09</ele>
        <time>2020-11-04T11:04:59.444Z</time>
      </trkpt>
      <trkpt lat="49.8004" lon="5.63793">
        <ele>481.65</ele>
        <time>2020-11-04T11:05:02.929Z</time>
      </trkpt>
      <trkpt lat="49.8003" lon="5.63793">
        <ele>481.21</ele>
        <time>2020-11-04T11:05:05.686Z</time>
      </trkpt>
      <trkpt lat="49.8002" lon="5.63793">
        <ele>480.73</ele>
        <time>2020-11-04T11:05:08.706Z</time>
      </trkpt>
      <trkpt lat="49.8001" lon="5.6379">
        <ele>479.37</ele>
        <time>2020-11-04T11:05:12.000Z</time>
      </trkpt>
      <trkpt lat="49.80005" lon="5.63785">
        <ele>477</ele>
        <time>2020-11-04T11:05:16.415Z</time>
      </trkpt>
      <trkpt lat="49.79998" lon="5.63774">
        <ele>477.23</ele>
        <time>2020-11-04T11:05:20.984Z</time>
      </trkpt>
      <trkpt lat="49.79988" lon="5.63771">
        <ele>475.42</ele>
        <time>2020-11-04T11:05:25.001Z</time>
      </trkpt>
      <trkpt lat="49.7998" lon="5.63761">
        <ele>474.43</ele>
        <time>2020-11-04T11:05:29.547Z</time>
      </trkpt>
      <trkpt lat="49.79969" lon="5.63756">
        <ele>471.94</ele>
        <time>2020-11-04T11:05:33.540Z</time>
      </trkpt>
      <trkpt lat="49.7996" lon="5.63753">
        <ele>470.88</ele>
        <time>2020-11-04T11:05:37.593Z</time>
      </trkpt>
      <trkpt lat="49.79956" lon="5.63753">
        <ele>471.6</ele>
        <time>2020-11-04T11:05:42.523Z</time>
      </trkpt>
      <trkpt lat="49.79949" lon="5.6375">
        <ele>471.48</ele>
        <time>2020-11-04T11:05:46.552Z</time>
      </trkpt>
      <trkpt lat="49.79937" lon="5.63748">
        <ele>469.84</ele>
        <time>2020-11-04T11:05:50.951Z</time>
      </trkpt>
      <trkpt lat="49.79928" lon="5.63743">
        <ele>468.65</ele>
        <time>2020-11-04T11:05:54.188Z</time>
      </trkpt>
      <trkpt lat="49.7992" lon="5.63745">
        <ele>467.39</ele>
        <time>2020-11-04T11:05:58.446Z</time>
      </trkpt>
      <trkpt lat="49.7992" lon="5.63749">
        <ele>466.83</ele>
        <time>2020-11-04T11:06:03.000Z</time>
      </trkpt>
      <trkpt lat="49.79921" lon="5.63752">
        <ele>467.28</ele>
        <time>2020-11-04T11:06:08.000Z</time>
      </trkpt>
      <trkpt lat="49.79921" lon="5.63754">
        <ele>467.79</ele>
        <time>2020-11-04T11:06:13.000Z</time>
      </trkpt>
      <trkpt lat="49.79921" lon="5.63754">
        <ele>467.85</ele>
        <time>2020-11-04T11:06:18.000Z</time>
      </trkpt>
      <trkpt lat="49.79921" lon="5.63754">
        <ele>467.82</ele>
        <time>2020-11-04T11:06:23.012Z</time>
      </trkpt>
      <trkpt lat="49.79919" lon="5.63755">
        <ele>467.38</ele>
        <time>2020-11-04T11:06:27.601Z</time>
      </trkpt>
      <trkpt lat="49.79914" lon="5.63755">
        <ele>466.91</ele>
        <time>2020-11-04T11:06:32.528Z</time>
      </trkpt>
      <trkpt lat="49.79914" lon="5.63753">
        <ele>467.17</ele>
        <time>2020-11-04T11:06:37.000Z</time>
      </trkpt>
      <trkpt lat="49.79913" lon="5.63753">
        <ele>468.08</ele>
        <time>2020-11-04T11:06:42.000Z</time>
      </trkpt>
      <trkpt lat="49.79912" lon="5.63752">
        <ele>468.6</ele>
        <time>2020-11-04T11:06:47.000Z</time>
      </trkpt>
      <trkpt lat="49.79911" lon="5.63752">
        <ele>468.92</ele>
        <time>2020-11-04T11:06:52.000Z</time>
      </trkpt>
      <trkpt lat="49.79913" lon="5.63751">
        <ele>469.46</ele>
        <time>2020-11-04T11:06:57.000Z</time>
      </trkpt>
      <trkpt lat="49.79914" lon="5.6375">
        <ele>469.7</ele>
        <time>2020-11-04T11:07:02.514Z</time>
      </trkpt>
      <trkpt lat="49.79913" lon="5.63749">
        <ele>469.79</ele>
        <time>2020-11-04T11:07:06.515Z</time>
      </trkpt>
      <trkpt lat="49.79909" lon="5.63742">
        <ele>469.57</ele>
        <time>2020-11-04T11:07:11.536Z</time>
      </trkpt>
      <trkpt lat="49.79907" lon="5.63741">
        <ele>469.19</ele>
        <time>2020-11-04T11:07:16.000Z</time>
      </trkpt>
      <trkpt lat="49.79906" lon="5.63743">
        <ele>468.52</ele>
        <time>2020-11-04T11:07:21.512Z</time>
      </trkpt>
      <trkpt lat="49.79904" lon="5.63742">
        <ele>467.55</ele>
        <time>2020-11-04T11:07:26.505Z</time>
      </trkpt>
      <trkpt lat="49.79903" lon="5.63741">
        <ele>467.11</ele>
        <time>2020-11-04T11:07:31.550Z</time>
      </trkpt>
      <trkpt lat="49.79902" lon="5.63741">
        <ele>466.66</ele>
        <time>2020-11-04T11:07:36.556Z</time>
      </trkpt>
      <trkpt lat="49.79899" lon="5.63744">
        <ele>467.2</ele>
        <time>2020-11-04T11:07:41.000Z</time>
      </trkpt>
      <trkpt lat="49.79898" lon="5.63745">
        <ele>467.96</ele>
        <time>2020-11-04T11:07:45.806Z</time>
      </trkpt>
      <trkpt lat="49.79892" lon="5.63744">
        <ele>469.74</ele>
        <time>2020-11-04T11:07:50.000Z</time>
      </trkpt>
      <trkpt lat="49.79884" lon="5.63735">
        <ele>470.83</ele>
        <time>2020-11-04T11:07:54.542Z</time>
      </trkpt>
      <trkpt lat="49.79874" lon="5.63729">
        <ele>472.83</ele>
        <time>2020-11-04T11:07:59.099Z</time>
      </trkpt>
      <trkpt lat="49.79868" lon="5.63729">
        <ele>475.03</ele>
        <time>2020-11-04T11:08:03.467Z</time>
      </trkpt>
      <trkpt lat="49.7986" lon="5.63721">
        <ele>476.01</ele>
        <time>2020-11-04T11:08:06.705Z</time>
      </trkpt>
      <trkpt lat="49.79855" lon="5.6372">
        <ele>477.35</ele>
        <time>2020-11-04T11:08:11.023Z</time>
      </trkpt>
      <trkpt lat="49.79856" lon="5.63721">
        <ele>477.54</ele>
        <time>2020-11-04T11:08:16.000Z</time>
      </trkpt>
      <trkpt lat="49.79855" lon="5.6372">
        <ele>477.16</ele>
        <time>2020-11-04T11:08:21.000Z</time>
      </trkpt>
      <trkpt lat="49.79854" lon="5.6372">
        <ele>476.94</ele>
        <time>2020-11-04T11:08:26.000Z</time>
      </trkpt>
      <trkpt lat="49.79853" lon="5.63721">
        <ele>477.04</ele>
        <time>2020-11-04T11:08:31.000Z</time>
      </trkpt>
      <trkpt lat="49.79852" lon="5.63721">
        <ele>477.23</ele>
        <time>2020-11-04T11:08:36.000Z</time>
      </trkpt>
      <trkpt lat="49.79852" lon="5.63721">
        <ele>477.33</ele>
        <time>2020-11-04T11:08:41.000Z</time>
      </trkpt>
      <trkpt lat="49.79852" lon="5.63721">
        <ele>477.38</ele>
        <time>2020-11-04T11:08:46.000Z</time>
      </trkpt>
      <trkpt lat="49.79851" lon="5.63722">
        <ele>477.48</ele>
        <time>2020-11-04T11:08:51.000Z</time>
      </trkpt>
      <trkpt lat="49.79853" lon="5.6372">
        <ele>477.46</ele>
        <time>2020-11-04T11:08:56.000Z</time>
      </trkpt>
      <trkpt lat="49.79853" lon="5.63719">
        <ele>477.59</ele>
        <time>2020-11-04T11:09:01.000Z</time>
      </trkpt>
      <trkpt lat="49.79852" lon="5.6372">
        <ele>477.6</ele>
        <time>2020-11-04T11:09:06.000Z</time>
      </trkpt>
      <trkpt lat="49.79851" lon="5.6372">
        <ele>477.65</ele>
        <time>2020-11-04T11:09:10.549Z</time>
      </trkpt>
      <trkpt lat="49.79848" lon="5.63713">
        <ele>478.2</ele>
        <time>2020-11-04T11:09:14.558Z</time>
      </trkpt>
      <trkpt lat="49.7984" lon="5.63702">
        <ele>478.83</ele>
        <time>2020-11-04T11:09:19.547Z</time>
      </trkpt>
      <trkpt lat="49.79829" lon="5.637">
        <ele>478.86</ele>
        <time>2020-11-04T11:09:22.328Z</time>
      </trkpt>
      <trkpt lat="49.79819" lon="5.63696">
        <ele>479.43</ele>
        <time>2020-11-04T11:09:26.468Z</time>
      </trkpt>
      <trkpt lat="49.79812" lon="5.63684">
        <ele>481.27</ele>
        <time>2020-11-04T11:09:31.559Z</time>
      </trkpt>
      <trkpt lat="49.79803" lon="5.63672">
        <ele>481.94</ele>
        <time>2020-11-04T11:09:34.536Z</time>
      </trkpt>
      <trkpt lat="49.79792" lon="5.63664">
        <ele>482.69</ele>
        <time>2020-11-04T11:09:38.547Z</time>
      </trkpt>
      <trkpt lat="49.79782" lon="5.63652">
        <ele>483.22</ele>
        <time>2020-11-04T11:09:41.554Z</time>
      </trkpt>
      <trkpt lat="49.79773" lon="5.6364">
        <ele>483.29</ele>
        <time>2020-11-04T11:09:44.547Z</time>
      </trkpt>
      <trkpt lat="49.79769" lon="5.63627">
        <ele>482.72</ele>
        <time>2020-11-04T11:09:47.537Z</time>
      </trkpt>
      <trkpt lat="49.79759" lon="5.63612">
        <ele>481.78</ele>
        <time>2020-11-04T11:09:52.594Z</time>
      </trkpt>
      <trkpt lat="49.79729" lon="5.63609">
        <ele>481.15</ele>
        <time>2020-11-04T11:09:54.000Z</time>
      </trkpt>
      <trkpt lat="49.79718" lon="5.63607">
        <ele>480.69</ele>
        <time>2020-11-04T11:09:55.000Z</time>
      </trkpt>
      <trkpt lat="49.79704" lon="5.63606">
        <ele>479.54</ele>
        <time>2020-11-04T11:09:57.000Z</time>
      </trkpt>
      <trkpt lat="49.79686" lon="5.6361">
        <ele>478.68</ele>
        <time>2020-11-04T11:09:59.000Z</time>
      </trkpt>
      <trkpt lat="49.79673" lon="5.6361">
        <ele>477.95</ele>
        <time>2020-11-04T11:10:01.550Z</time>
      </trkpt>
      <trkpt lat="49.79669" lon="5.63611">
        <ele>478</ele>
        <time>2020-11-04T11:10:06.536Z</time>
      </trkpt>
      <trkpt lat="49.79669" lon="5.63607">
        <ele>478.39</ele>
        <time>2020-11-04T11:10:11.072Z</time>
      </trkpt>
      <trkpt lat="49.7966" lon="5.63604">
        <ele>480.08</ele>
        <time>2020-11-04T11:10:15.096Z</time>
      </trkpt>
      <trkpt lat="49.79653" lon="5.63608">
        <ele>480</ele>
        <time>2020-11-04T11:10:19.492Z</time>
      </trkpt>
      <trkpt lat="49.79642" lon="5.63607">
        <ele>479.54</ele>
        <time>2020-11-04T11:10:22.640Z</time>
      </trkpt>
      <trkpt lat="49.79632" lon="5.63605">
        <ele>479</ele>
        <time>2020-11-04T11:10:26.699Z</time>
      </trkpt>
      <trkpt lat="49.79622" lon="5.63602">
        <ele>478.62</ele>
        <time>2020-11-04T11:10:29.831Z</time>
      </trkpt>
      <trkpt lat="49.79614" lon="5.63596">
        <ele>478.59</ele>
        <time>2020-11-04T11:10:32.950Z</time>
      </trkpt>
      <trkpt lat="49.79603" lon="5.63593">
        <ele>476.58</ele>
        <time>2020-11-04T11:10:36.233Z</time>
      </trkpt>
      <trkpt lat="49.79594" lon="5.63583">
        <ele>474.83</ele>
        <time>2020-11-04T11:10:39.568Z</time>
      </trkpt>
      <trkpt lat="49.79587" lon="5.63576">
        <ele>472.15</ele>
        <time>2020-11-04T11:10:42.077Z</time>
      </trkpt>
      <trkpt lat="49.79575" lon="5.63572">
        <ele>469.87</ele>
        <time>2020-11-04T11:10:44.530Z</time>
      </trkpt>
      <trkpt lat="49.79565" lon="5.63571">
        <ele>468.15</ele>
        <time>2020-11-04T11:10:47.525Z</time>
      </trkpt>
      <trkpt lat="49.79553" lon="5.63568">
        <ele>466.8</ele>
        <time>2020-11-04T11:10:50.528Z</time>
      </trkpt>
      <trkpt lat="49.79544" lon="5.63566">
        <ele>466.34</ele>
        <time>2020-11-04T11:10:54.594Z</time>
      </trkpt>
      <trkpt lat="49.79534" lon="5.6356">
        <ele>466.86</ele>
        <time>2020-11-04T11:10:57.929Z</time>
      </trkpt>
      <trkpt lat="49.79527" lon="5.63551">
        <ele>467.6</ele>
        <time>2020-11-04T11:11:01.531Z</time>
      </trkpt>
      <trkpt lat="49.79519" lon="5.63539">
        <ele>468.31</ele>
        <time>2020-11-04T11:11:05.548Z</time>
      </trkpt>
      <trkpt lat="49.79511" lon="5.63527">
        <ele>467.78</ele>
        <time>2020-11-04T11:11:09.538Z</time>
      </trkpt>
      <trkpt lat="49.79504" lon="5.63512">
        <ele>467.96</ele>
        <time>2020-11-04T11:11:13.550Z</time>
      </trkpt>
      <trkpt lat="49.79495" lon="5.635">
        <ele>468.26</ele>
        <time>2020-11-04T11:11:17.594Z</time>
      </trkpt>
      <trkpt lat="49.79487" lon="5.63489">
        <ele>467.86</ele>
        <time>2020-11-04T11:11:21.546Z</time>
      </trkpt>
      <trkpt lat="49.79476" lon="5.63478">
        <ele>466.78</ele>
        <time>2020-11-04T11:11:25.543Z</time>
      </trkpt>
      <trkpt lat="49.79467" lon="5.63468">
        <ele>465.92</ele>
        <time>2020-11-04T11:11:28.053Z</time>
      </trkpt>
      <trkpt lat="49.79459" lon="5.63459">
        <ele>465.31</ele>
        <time>2020-11-04T11:11:30.561Z</time>
      </trkpt>
      <trkpt lat="49.7945" lon="5.63447">
        <ele>464.8</ele>
        <time>2020-11-04T11:11:33.546Z</time>
      </trkpt>
      <trkpt lat="49.79443" lon="5.63436">
        <ele>464.39</ele>
        <time>2020-11-04T11:11:36.551Z</time>
      </trkpt>
      <trkpt lat="49.79436" lon="5.63422">
        <ele>464.25</ele>
        <time>2020-11-04T11:11:40.551Z</time>
      </trkpt>
      <trkpt lat="49.79429" lon="5.6341">
        <ele>464</ele>
        <time>2020-11-04T11:11:44.559Z</time>
      </trkpt>
      <trkpt lat="49.79423" lon="5.63397">
        <ele>464.25</ele>
        <time>2020-11-04T11:11:48.552Z</time>
      </trkpt>
      <trkpt lat="49.79415" lon="5.63398">
        <ele>464.63</ele>
        <time>2020-11-04T11:11:52.584Z</time>
      </trkpt>
      <trkpt lat="49.79404" lon="5.63399">
        <ele>465.56</ele>
        <time>2020-11-04T11:11:56.542Z</time>
      </trkpt>
      <trkpt lat="49.79393" lon="5.63396">
        <ele>465.73</ele>
        <time>2020-11-04T11:11:59.000Z</time>
      </trkpt>
      <trkpt lat="49.7938" lon="5.63394">
        <ele>465.3</ele>
        <time>2020-11-04T11:12:01.512Z</time>
      </trkpt>
      <trkpt lat="49.79366" lon="5.63391">
        <ele>464.89</ele>
        <time>2020-11-04T11:12:03.000Z</time>
      </trkpt>
      <trkpt lat="49.79356" lon="5.6339">
        <ele>464.63</ele>
        <time>2020-11-04T11:12:05.000Z</time>
      </trkpt>
      <trkpt lat="49.79346" lon="5.63388">
        <ele>464.43</ele>
        <time>2020-11-04T11:12:07.000Z</time>
      </trkpt>
      <trkpt lat="49.79335" lon="5.63386">
        <ele>464.28</ele>
        <time>2020-11-04T11:12:09.000Z</time>
      </trkpt>
      <trkpt lat="49.79326" lon="5.63385">
        <ele>464.13</ele>
        <time>2020-11-04T11:12:11.000Z</time>
      </trkpt>
      <trkpt lat="49.79314" lon="5.63385">
        <ele>464.07</ele>
        <time>2020-11-04T11:12:13.511Z</time>
      </trkpt>
      <trkpt lat="49.79302" lon="5.6339">
        <ele>463.61</ele>
        <time>2020-11-04T11:12:16.000Z</time>
      </trkpt>
      <trkpt lat="49.79291" lon="5.63393">
        <ele>463.5</ele>
        <time>2020-11-04T11:12:18.000Z</time>
      </trkpt>
      <trkpt lat="49.79281" lon="5.63397">
        <ele>463.26</ele>
        <time>2020-11-04T11:12:20.000Z</time>
      </trkpt>
      <trkpt lat="49.7927" lon="5.63401">
        <ele>463.05</ele>
        <time>2020-11-04T11:12:22.000Z</time>
      </trkpt>
      <trkpt lat="49.7926" lon="5.63404">
        <ele>462.93</ele>
        <time>2020-11-04T11:12:24.000Z</time>
      </trkpt>
      <trkpt lat="49.7925" lon="5.63407">
        <ele>462.95</ele>
        <time>2020-11-04T11:12:26.000Z</time>
      </trkpt>
      <trkpt lat="49.7924" lon="5.63411">
        <ele>463.13</ele>
        <time>2020-11-04T11:12:28.000Z</time>
      </trkpt>
      <trkpt lat="49.79231" lon="5.63414">
        <ele>463.43</ele>
        <time>2020-11-04T11:12:30.000Z</time>
      </trkpt>
      <trkpt lat="49.79219" lon="5.63418">
        <ele>463.92</ele>
        <time>2020-11-04T11:12:33.000Z</time>
      </trkpt>
      <trkpt lat="49.79209" lon="5.63421">
        <ele>464.43</ele>
        <time>2020-11-04T11:12:35.713Z</time>
      </trkpt>
      <trkpt lat="49.79195" lon="5.63424">
        <ele>464.71</ele>
        <time>2020-11-04T11:12:39.000Z</time>
      </trkpt>
      <trkpt lat="49.79185" lon="5.63427">
        <ele>464.95</ele>
        <time>2020-11-04T11:12:42.000Z</time>
      </trkpt>
      <trkpt lat="49.79172" lon="5.63432">
        <ele>465.02</ele>
        <time>2020-11-04T11:12:45.535Z</time>
      </trkpt>
      <trkpt lat="49.7916" lon="5.63445">
        <ele>464.84</ele>
        <time>2020-11-04T11:12:49.531Z</time>
      </trkpt>
      <trkpt lat="49.79168" lon="5.63465">
        <ele>464.82</ele>
        <time>2020-11-04T11:12:51.536Z</time>
      </trkpt>
      <trkpt lat="49.79176" lon="5.6348">
        <ele>464.78</ele>
        <time>2020-11-04T11:12:53.563Z</time>
      </trkpt>
      <trkpt lat="49.79181" lon="5.63494">
        <ele>464.87</ele>
        <time>2020-11-04T11:12:55.528Z</time>
      </trkpt>
      <trkpt lat="49.79187" lon="5.63511">
        <ele>465.11</ele>
        <time>2020-11-04T11:12:58.292Z</time>
      </trkpt>
      <trkpt lat="49.79187" lon="5.63531">
        <ele>465.31</ele>
        <time>2020-11-04T11:13:01.535Z</time>
      </trkpt>
      <trkpt lat="49.79178" lon="5.6354">
        <ele>465.36</ele>
        <time>2020-11-04T11:13:03.545Z</time>
      </trkpt>
      <trkpt lat="49.79168" lon="5.63539">
        <ele>465.45</ele>
        <time>2020-11-04T11:13:05.532Z</time>
      </trkpt>
      <trkpt lat="49.79158" lon="5.63547">
        <ele>465.42</ele>
        <time>2020-11-04T11:13:09.554Z</time>
      </trkpt>
      <trkpt lat="49.7915" lon="5.63555">
        <ele>465.15</ele>
        <time>2020-11-04T11:13:13.548Z</time>
      </trkpt>
      <trkpt lat="49.79141" lon="5.63564">
        <ele>465.08</ele>
        <time>2020-11-04T11:13:16.564Z</time>
      </trkpt>
      <trkpt lat="49.79132" lon="5.63575">
        <ele>465</ele>
        <time>2020-11-04T11:13:20.566Z</time>
      </trkpt>
      <trkpt lat="49.79122" lon="5.63583">
        <ele>465.19</ele>
        <time>2020-11-04T11:13:24.536Z</time>
      </trkpt>
      <trkpt lat="49.79113" lon="5.63586">
        <ele>465.41</ele>
        <time>2020-11-04T11:13:27.890Z</time>
      </trkpt>
      <trkpt lat="49.791" lon="5.6359">
        <ele>465.56</ele>
        <time>2020-11-04T11:13:31.576Z</time>
      </trkpt>
      <trkpt lat="49.79089" lon="5.63594">
        <ele>465.69</ele>
        <time>2020-11-04T11:13:34.531Z</time>
      </trkpt>
      <trkpt lat="49.79077" lon="5.63597">
        <ele>465.69</ele>
        <time>2020-11-04T11:13:37.544Z</time>
      </trkpt>
      <trkpt lat="49.79065" lon="5.63595">
        <ele>465.9</ele>
        <time>2020-11-04T11:13:41.548Z</time>
      </trkpt>
      <trkpt lat="49.79054" lon="5.63592">
        <ele>465.82</ele>
        <time>2020-11-04T11:13:44.544Z</time>
      </trkpt>
      <trkpt lat="49.79045" lon="5.6359">
        <ele>465.83</ele>
        <time>2020-11-04T11:13:47.576Z</time>
      </trkpt>
      <trkpt lat="49.79035" lon="5.63589">
        <ele>466.12</ele>
        <time>2020-11-04T11:13:50.546Z</time>
      </trkpt>
      <trkpt lat="49.79026" lon="5.63586">
        <ele>466.44</ele>
        <time>2020-11-04T11:13:53.564Z</time>
      </trkpt>
      <trkpt lat="49.79016" lon="5.63582">
        <ele>466.7</ele>
        <time>2020-11-04T11:13:56.565Z</time>
      </trkpt>
      <trkpt lat="49.79004" lon="5.63576">
        <ele>467.28</ele>
        <time>2020-11-04T11:14:01.556Z</time>
      </trkpt>
      <trkpt lat="49.78992" lon="5.63571">
        <ele>467.52</ele>
        <time>2020-11-04T11:14:04.559Z</time>
      </trkpt>
      <trkpt lat="49.78983" lon="5.63566">
        <ele>467.61</ele>
        <time>2020-11-04T11:14:06.550Z</time>
      </trkpt>
      <trkpt lat="49.78973" lon="5.6356">
        <ele>467.67</ele>
        <time>2020-11-04T11:14:08.555Z</time>
      </trkpt>
      <trkpt lat="49.78964" lon="5.63555">
        <ele>467.77</ele>
        <time>2020-11-04T11:14:10.541Z</time>
      </trkpt>
      <trkpt lat="49.78955" lon="5.63543">
        <ele>467.82</ele>
        <time>2020-11-04T11:14:14.000Z</time>
      </trkpt>
      <trkpt lat="49.78947" lon="5.63536">
        <ele>467.79</ele>
        <time>2020-11-04T11:14:16.000Z</time>
      </trkpt>
      <trkpt lat="49.78939" lon="5.63529">
        <ele>467.8</ele>
        <time>2020-11-04T11:14:18.000Z</time>
      </trkpt>
      <trkpt lat="49.7893" lon="5.63523">
        <ele>467.84</ele>
        <time>2020-11-04T11:14:20.000Z</time>
      </trkpt>
      <trkpt lat="49.78921" lon="5.63516">
        <ele>467.9</ele>
        <time>2020-11-04T11:14:22.000Z</time>
      </trkpt>
      <trkpt lat="49.78912" lon="5.63511">
        <ele>468.02</ele>
        <time>2020-11-04T11:14:24.000Z</time>
      </trkpt>
      <trkpt lat="49.78903" lon="5.63506">
        <ele>468.12</ele>
        <time>2020-11-04T11:14:26.000Z</time>
      </trkpt>
      <trkpt lat="49.78893" lon="5.63502">
        <ele>468.16</ele>
        <time>2020-11-04T11:14:28.000Z</time>
      </trkpt>
      <trkpt lat="49.78884" lon="5.63499">
        <ele>468.19</ele>
        <time>2020-11-04T11:14:30.000Z</time>
      </trkpt>
      <trkpt lat="49.78875" lon="5.63497">
        <ele>468.29</ele>
        <time>2020-11-04T11:14:32.000Z</time>
      </trkpt>
      <trkpt lat="49.78866" lon="5.63494">
        <ele>468.49</ele>
        <time>2020-11-04T11:14:34.000Z</time>
      </trkpt>
      <trkpt lat="49.78856" lon="5.63492">
        <ele>468.59</ele>
        <time>2020-11-04T11:14:36.000Z</time>
      </trkpt>
      <trkpt lat="49.78846" lon="5.6349">
        <ele>468.59</ele>
        <time>2020-11-04T11:14:38.000Z</time>
      </trkpt>
      <trkpt lat="49.78837" lon="5.63489">
        <ele>468.69</ele>
        <time>2020-11-04T11:14:40.000Z</time>
      </trkpt>
      <trkpt lat="49.78827" lon="5.63489">
        <ele>468.8</ele>
        <time>2020-11-04T11:14:42.000Z</time>
      </trkpt>
      <trkpt lat="49.78817" lon="5.63489">
        <ele>468.83</ele>
        <time>2020-11-04T11:14:44.000Z</time>
      </trkpt>
      <trkpt lat="49.78807" lon="5.6349">
        <ele>468.89</ele>
        <time>2020-11-04T11:14:46.000Z</time>
      </trkpt>
      <trkpt lat="49.78797" lon="5.6349">
        <ele>468.89</ele>
        <time>2020-11-04T11:14:48.000Z</time>
      </trkpt>
      <trkpt lat="49.78786" lon="5.63492">
        <ele>468.74</ele>
        <time>2020-11-04T11:14:50.000Z</time>
      </trkpt>
      <trkpt lat="49.78775" lon="5.63495">
        <ele>468.54</ele>
        <time>2020-11-04T11:14:52.000Z</time>
      </trkpt>
      <trkpt lat="49.78765" lon="5.63493">
        <ele>468.31</ele>
        <time>2020-11-04T11:14:54.000Z</time>
      </trkpt>
      <trkpt lat="49.78756" lon="5.63492">
        <ele>468.16</ele>
        <time>2020-11-04T11:14:56.000Z</time>
      </trkpt>
      <trkpt lat="49.78746" lon="5.6349">
        <ele>467.99</ele>
        <time>2020-11-04T11:14:58.000Z</time>
      </trkpt>
      <trkpt lat="49.78737" lon="5.63488">
        <ele>467.87</ele>
        <time>2020-11-04T11:15:00.000Z</time>
      </trkpt>
      <trkpt lat="49.78724" lon="5.63484">
        <ele>467.55</ele>
        <time>2020-11-04T11:15:03.000Z</time>
      </trkpt>
      <trkpt lat="49.78713" lon="5.63481">
        <ele>467.35</ele>
        <time>2020-11-04T11:15:05.000Z</time>
      </trkpt>
      <trkpt lat="49.78703" lon="5.63478">
        <ele>467.19</ele>
        <time>2020-11-04T11:15:07.000Z</time>
      </trkpt>
      <trkpt lat="49.78692" lon="5.63474">
        <ele>466.98</ele>
        <time>2020-11-04T11:15:09.000Z</time>
      </trkpt>
      <trkpt lat="49.78681" lon="5.63469">
        <ele>466.7</ele>
        <time>2020-11-04T11:15:11.000Z</time>
      </trkpt>
      <trkpt lat="49.7867" lon="5.63463">
        <ele>466.51</ele>
        <time>2020-11-04T11:15:13.000Z</time>
      </trkpt>
      <trkpt lat="49.7866" lon="5.63456">
        <ele>466.39</ele>
        <time>2020-11-04T11:15:15.000Z</time>
      </trkpt>
      <trkpt lat="49.7865" lon="5.63449">
        <ele>466.3</ele>
        <time>2020-11-04T11:15:17.000Z</time>
      </trkpt>
      <trkpt lat="49.7864" lon="5.63442">
        <ele>466.14</ele>
        <time>2020-11-04T11:15:19.000Z</time>
      </trkpt>
      <trkpt lat="49.7863" lon="5.63437">
        <ele>465.95</ele>
        <time>2020-11-04T11:15:21.000Z</time>
      </trkpt>
      <trkpt lat="49.78621" lon="5.63434">
        <ele>465.9</ele>
        <time>2020-11-04T11:15:23.000Z</time>
      </trkpt>
      <trkpt lat="49.78611" lon="5.63432">
        <ele>465.85</ele>
        <time>2020-11-04T11:15:25.000Z</time>
      </trkpt>
      <trkpt lat="49.78602" lon="5.63428">
        <ele>465.86</ele>
        <time>2020-11-04T11:15:27.000Z</time>
      </trkpt>
      <trkpt lat="49.78589" lon="5.63424">
        <ele>465.71</ele>
        <time>2020-11-04T11:15:30.000Z</time>
      </trkpt>
      <trkpt lat="49.78578" lon="5.6342">
        <ele>465.59</ele>
        <time>2020-11-04T11:15:33.000Z</time>
      </trkpt>
      <trkpt lat="49.78568" lon="5.63416">
        <ele>465.6</ele>
        <time>2020-11-04T11:15:35.000Z</time>
      </trkpt>
      <trkpt lat="49.78559" lon="5.6341">
        <ele>465.58</ele>
        <time>2020-11-04T11:15:37.000Z</time>
      </trkpt>
      <trkpt lat="49.78548" lon="5.63405">
        <ele>465.61</ele>
        <time>2020-11-04T11:15:39.000Z</time>
      </trkpt>
      <trkpt lat="49.78539" lon="5.634">
        <ele>465.67</ele>
        <time>2020-11-04T11:15:41.000Z</time>
      </trkpt>
      <trkpt lat="49.7853" lon="5.63394">
        <ele>465.79</ele>
        <time>2020-11-04T11:15:43.000Z</time>
      </trkpt>
      <trkpt lat="49.7852" lon="5.63388">
        <ele>465.96</ele>
        <time>2020-11-04T11:15:45.000Z</time>
      </trkpt>
      <trkpt lat="49.7851" lon="5.63382">
        <ele>466.05</ele>
        <time>2020-11-04T11:15:47.000Z</time>
      </trkpt>
      <trkpt lat="49.785" lon="5.63375">
        <ele>466.09</ele>
        <time>2020-11-04T11:15:49.000Z</time>
      </trkpt>
      <trkpt lat="49.78489" lon="5.63369">
        <ele>466.14</ele>
        <time>2020-11-04T11:15:51.000Z</time>
      </trkpt>
      <trkpt lat="49.78479" lon="5.63361">
        <ele>466.1</ele>
        <time>2020-11-04T11:15:53.000Z</time>
      </trkpt>
      <trkpt lat="49.78468" lon="5.63354">
        <ele>465.98</ele>
        <time>2020-11-04T11:15:55.000Z</time>
      </trkpt>
      <trkpt lat="49.78458" lon="5.63347">
        <ele>465.79</ele>
        <time>2020-11-04T11:15:57.000Z</time>
      </trkpt>
      <trkpt lat="49.78448" lon="5.63341">
        <ele>465.63</ele>
        <time>2020-11-04T11:15:59.000Z</time>
      </trkpt>
      <trkpt lat="49.78438" lon="5.63336">
        <ele>465.53</ele>
        <time>2020-11-04T11:16:01.000Z</time>
      </trkpt>
      <trkpt lat="49.78429" lon="5.6333">
        <ele>465.43</ele>
        <time>2020-11-04T11:16:03.000Z</time>
      </trkpt>
      <trkpt lat="49.78419" lon="5.63324">
        <ele>465.3</ele>
        <time>2020-11-04T11:16:05.000Z</time>
      </trkpt>
      <trkpt lat="49.7841" lon="5.63317">
        <ele>465.2</ele>
        <time>2020-11-04T11:16:07.000Z</time>
      </trkpt>
      <trkpt lat="49.78401" lon="5.6331">
        <ele>465.1</ele>
        <time>2020-11-04T11:16:09.000Z</time>
      </trkpt>
      <trkpt lat="49.78392" lon="5.63302">
        <ele>464.99</ele>
        <time>2020-11-04T11:16:11.000Z</time>
      </trkpt>
      <trkpt lat="49.78383" lon="5.63294">
        <ele>464.86</ele>
        <time>2020-11-04T11:16:13.000Z</time>
      </trkpt>
      <trkpt lat="49.78373" lon="5.63286">
        <ele>464.64</ele>
        <time>2020-11-04T11:16:15.000Z</time>
      </trkpt>
      <trkpt lat="49.78363" lon="5.6328">
        <ele>464.29</ele>
        <time>2020-11-04T11:16:17.000Z</time>
      </trkpt>
      <trkpt lat="49.78352" lon="5.63275">
        <ele>463.93</ele>
        <time>2020-11-04T11:16:19.000Z</time>
      </trkpt>
      <trkpt lat="49.78341" lon="5.6327">
        <ele>463.48</ele>
        <time>2020-11-04T11:16:21.000Z</time>
      </trkpt>
      <trkpt lat="49.78331" lon="5.63264">
        <ele>463.1</ele>
        <time>2020-11-04T11:16:23.000Z</time>
      </trkpt>
      <trkpt lat="49.78321" lon="5.63257">
        <ele>462.73</ele>
        <time>2020-11-04T11:16:25.000Z</time>
      </trkpt>
      <trkpt lat="49.78311" lon="5.63248">
        <ele>462.35</ele>
        <time>2020-11-04T11:16:27.000Z</time>
      </trkpt>
      <trkpt lat="49.78299" lon="5.63237">
        <ele>461.79</ele>
        <time>2020-11-04T11:16:29.000Z</time>
      </trkpt>
      <trkpt lat="49.78288" lon="5.63226">
        <ele>461.21</ele>
        <time>2020-11-04T11:16:31.000Z</time>
      </trkpt>
      <trkpt lat="49.78277" lon="5.63216">
        <ele>460.68</ele>
        <time>2020-11-04T11:16:33.000Z</time>
      </trkpt>
      <trkpt lat="49.78266" lon="5.63207">
        <ele>460.14</ele>
        <time>2020-11-04T11:16:35.000Z</time>
      </trkpt>
      <trkpt lat="49.78255" lon="5.63197">
        <ele>459.77</ele>
        <time>2020-11-04T11:16:37.000Z</time>
      </trkpt>
      <trkpt lat="49.78244" lon="5.63189">
        <ele>459.6</ele>
        <time>2020-11-04T11:16:39.000Z</time>
      </trkpt>
      <trkpt lat="49.78233" lon="5.63181">
        <ele>459.23</ele>
        <time>2020-11-04T11:16:41.000Z</time>
      </trkpt>
      <trkpt lat="49.7822" lon="5.63177">
        <ele>458.84</ele>
        <time>2020-11-04T11:16:43.000Z</time>
      </trkpt>
      <trkpt lat="49.78207" lon="5.63174">
        <ele>458.23</ele>
        <time>2020-11-04T11:16:45.000Z</time>
      </trkpt>
      <trkpt lat="49.78195" lon="5.63172">
        <ele>457.77</ele>
        <time>2020-11-04T11:16:47.000Z</time>
      </trkpt>
      <trkpt lat="49.78183" lon="5.63169">
        <ele>457.35</ele>
        <time>2020-11-04T11:16:49.000Z</time>
      </trkpt>
      <trkpt lat="49.78173" lon="5.63165">
        <ele>456.97</ele>
        <time>2020-11-04T11:16:51.000Z</time>
      </trkpt>
      <trkpt lat="49.78165" lon="5.63157">
        <ele>456.38</ele>
        <time>2020-11-04T11:16:53.000Z</time>
      </trkpt>
      <trkpt lat="49.78157" lon="5.63147">
        <ele>455.86</ele>
        <time>2020-11-04T11:16:55.000Z</time>
      </trkpt>
      <trkpt lat="49.78148" lon="5.63132">
        <ele>455.13</ele>
        <time>2020-11-04T11:16:58.000Z</time>
      </trkpt>
      <trkpt lat="49.78139" lon="5.63118">
        <ele>454.6</ele>
        <time>2020-11-04T11:17:00.000Z</time>
      </trkpt>
      <trkpt lat="49.7813" lon="5.63105">
        <ele>454.14</ele>
        <time>2020-11-04T11:17:02.000Z</time>
      </trkpt>
      <trkpt lat="49.78124" lon="5.63093">
        <ele>453.85</ele>
        <time>2020-11-04T11:17:04.000Z</time>
      </trkpt>
      <trkpt lat="49.78117" lon="5.63081">
        <ele>453.84</ele>
        <time>2020-11-04T11:17:06.000Z</time>
      </trkpt>
      <trkpt lat="49.78106" lon="5.63075">
        <ele>453.72</ele>
        <time>2020-11-04T11:17:08.000Z</time>
      </trkpt>
      <trkpt lat="49.78094" lon="5.63077">
        <ele>453.68</ele>
        <time>2020-11-04T11:17:10.000Z</time>
      </trkpt>
      <trkpt lat="49.78082" lon="5.63077">
        <ele>453.63</ele>
        <time>2020-11-04T11:17:12.000Z</time>
      </trkpt>
      <trkpt lat="49.7807" lon="5.63078">
        <ele>453.32</ele>
        <time>2020-11-04T11:17:14.000Z</time>
      </trkpt>
      <trkpt lat="49.78058" lon="5.63078">
        <ele>452.9</ele>
        <time>2020-11-04T11:17:16.000Z</time>
      </trkpt>
      <trkpt lat="49.78048" lon="5.63081">
        <ele>452.55</ele>
        <time>2020-11-04T11:17:18.000Z</time>
      </trkpt>
      <trkpt lat="49.78038" lon="5.63085">
        <ele>452.39</ele>
        <time>2020-11-04T11:17:20.000Z</time>
      </trkpt>
      <trkpt lat="49.78026" lon="5.63081">
        <ele>452.7</ele>
        <time>2020-11-04T11:17:23.000Z</time>
      </trkpt>
      <trkpt lat="49.78019" lon="5.63067">
        <ele>453.3</ele>
        <time>2020-11-04T11:17:26.535Z</time>
      </trkpt>
      <trkpt lat="49.78015" lon="5.63054">
        <ele>453.56</ele>
        <time>2020-11-04T11:17:28.182Z</time>
      </trkpt>
      <trkpt lat="49.78008" lon="5.63042">
        <ele>453.94</ele>
        <time>2020-11-04T11:17:30.772Z</time>
      </trkpt>
      <trkpt lat="49.77999" lon="5.63035">
        <ele>454.19</ele>
        <time>2020-11-04T11:17:33.541Z</time>
      </trkpt>
      <trkpt lat="49.77989" lon="5.63022">
        <ele>454.36</ele>
        <time>2020-11-04T11:17:36.547Z</time>
      </trkpt>
      <trkpt lat="49.77983" lon="5.63012">
        <ele>454.42</ele>
        <time>2020-11-04T11:17:38.519Z</time>
      </trkpt>
      <trkpt lat="49.77973" lon="5.6301">
        <ele>454.47</ele>
        <time>2020-11-04T11:17:40.521Z</time>
      </trkpt>
      <trkpt lat="49.77961" lon="5.63008">
        <ele>454.52</ele>
        <time>2020-11-04T11:17:43.522Z</time>
      </trkpt>
      <trkpt lat="49.77949" lon="5.63006">
        <ele>454.56</ele>
        <time>2020-11-04T11:17:46.520Z</time>
      </trkpt>
      <trkpt lat="49.77939" lon="5.63005">
        <ele>454.59</ele>
        <time>2020-11-04T11:17:49.523Z</time>
      </trkpt>
      <trkpt lat="49.77928" lon="5.63003">
        <ele>454.62</ele>
        <time>2020-11-04T11:17:52.472Z</time>
      </trkpt>
      <trkpt lat="49.77919" lon="5.63">
        <ele>454.64</ele>
        <time>2020-11-04T11:17:56.538Z</time>
      </trkpt>
      <trkpt lat="49.77909" lon="5.62993">
        <ele>454.66</ele>
        <time>2020-11-04T11:18:00.075Z</time>
      </trkpt>
      <trkpt lat="49.77901" lon="5.62988">
        <ele>454.67</ele>
        <time>2020-11-04T11:18:04.157Z</time>
      </trkpt>
      <trkpt lat="49.77889" lon="5.62979">
        <ele>454.67</ele>
        <time>2020-11-04T11:18:08.559Z</time>
      </trkpt>
      <trkpt lat="49.77879" lon="5.62972">
        <ele>454.67</ele>
        <time>2020-11-04T11:18:12.563Z</time>
      </trkpt>
      <trkpt lat="49.77868" lon="5.62967">
        <ele>454.67</ele>
        <time>2020-11-04T11:18:16.543Z</time>
      </trkpt>
      <trkpt lat="49.77856" lon="5.62963">
        <ele>454.67</ele>
        <time>2020-11-04T11:18:20.541Z</time>
      </trkpt>
      <trkpt lat="49.77846" lon="5.62962">
        <ele>454.67</ele>
        <time>2020-11-04T11:18:24.139Z</time>
      </trkpt>
      <trkpt lat="49.77836" lon="5.62962">
        <ele>456.96</ele>
        <time>2020-11-04T11:18:27.555Z</time>
      </trkpt>
      <trkpt lat="49.77826" lon="5.62962">
        <ele>458.28</ele>
        <time>2020-11-04T11:18:30.545Z</time>
      </trkpt>
      <trkpt lat="49.77815" lon="5.62964">
        <ele>459.97</ele>
        <time>2020-11-04T11:18:34.525Z</time>
      </trkpt>
      <trkpt lat="49.77805" lon="5.62966">
        <ele>460.87</ele>
        <time>2020-11-04T11:18:37.523Z</time>
      </trkpt>
      <trkpt lat="49.77796" lon="5.62968">
        <ele>461.65</ele>
        <time>2020-11-04T11:18:40.520Z</time>
      </trkpt>
      <trkpt lat="49.77784" lon="5.6297">
        <ele>462.49</ele>
        <time>2020-11-04T11:18:44.565Z</time>
      </trkpt>
      <trkpt lat="49.77774" lon="5.62972">
        <ele>462.83</ele>
        <time>2020-11-04T11:18:47.546Z</time>
      </trkpt>
      <trkpt lat="49.77762" lon="5.62974">
        <ele>463.2</ele>
        <time>2020-11-04T11:18:51.535Z</time>
      </trkpt>
      <trkpt lat="49.77753" lon="5.62977">
        <ele>463.49</ele>
        <time>2020-11-04T11:18:55.000Z</time>
      </trkpt>
      <trkpt lat="49.77742" lon="5.6298">
        <ele>463.89</ele>
        <time>2020-11-04T11:18:58.529Z</time>
      </trkpt>
      <trkpt lat="49.77731" lon="5.62983">
        <ele>463.83</ele>
        <time>2020-11-04T11:19:01.535Z</time>
      </trkpt>
      <trkpt lat="49.77722" lon="5.62985">
        <ele>463.59</ele>
        <time>2020-11-04T11:19:04.535Z</time>
      </trkpt>
      <trkpt lat="49.77711" lon="5.62987">
        <ele>463.19</ele>
        <time>2020-11-04T11:19:08.530Z</time>
      </trkpt>
      <trkpt lat="49.777" lon="5.62987">
        <ele>462.76</ele>
        <time>2020-11-04T11:19:12.562Z</time>
      </trkpt>
      <trkpt lat="49.77691" lon="5.62993">
        <ele>462.99</ele>
        <time>2020-11-04T11:19:16.567Z</time>
      </trkpt>
      <trkpt lat="49.77681" lon="5.62992">
        <ele>463.25</ele>
        <time>2020-11-04T11:19:20.543Z</time>
      </trkpt>
      <trkpt lat="49.77671" lon="5.62995">
        <ele>463.14</ele>
        <time>2020-11-04T11:19:24.750Z</time>
      </trkpt>
      <trkpt lat="49.77664" lon="5.62993">
        <ele>463.35</ele>
        <time>2020-11-04T11:19:29.000Z</time>
      </trkpt>
      <trkpt lat="49.77656" lon="5.62987">
        <ele>464.39</ele>
        <time>2020-11-04T11:19:33.532Z</time>
      </trkpt>
      <trkpt lat="49.7765" lon="5.62974">
        <ele>465.36</ele>
        <time>2020-11-04T11:19:36.533Z</time>
      </trkpt>
      <trkpt lat="49.77643" lon="5.62962">
        <ele>466.29</ele>
        <time>2020-11-04T11:19:39.550Z</time>
      </trkpt>
      <trkpt lat="49.77637" lon="5.62965">
        <ele>466.54</ele>
        <time>2020-11-04T11:19:44.555Z</time>
      </trkpt>
      <trkpt lat="49.77629" lon="5.62968">
        <ele>468.28</ele>
        <time>2020-11-04T11:19:49.539Z</time>
      </trkpt>
      <trkpt lat="49.77621" lon="5.62963">
        <ele>470.31</ele>
        <time>2020-11-04T11:19:53.560Z</time>
      </trkpt>
      <trkpt lat="49.77612" lon="5.62963">
        <ele>471.25</ele>
        <time>2020-11-04T11:19:57.543Z</time>
      </trkpt>
      <trkpt lat="49.77604" lon="5.62957">
        <ele>472.44</ele>
        <time>2020-11-04T11:20:01.549Z</time>
      </trkpt>
      <trkpt lat="49.77593" lon="5.62954">
        <ele>473.84</ele>
        <time>2020-11-04T11:20:06.564Z</time>
      </trkpt>
      <trkpt lat="49.77582" lon="5.62951">
        <ele>475.27</ele>
        <time>2020-11-04T11:20:10.551Z</time>
      </trkpt>
      <trkpt lat="49.77573" lon="5.62947">
        <ele>475.79</ele>
        <time>2020-11-04T11:20:13.541Z</time>
      </trkpt>
      <trkpt lat="49.77564" lon="5.62937">
        <ele>475.94</ele>
        <time>2020-11-04T11:20:17.551Z</time>
      </trkpt>
      <trkpt lat="49.77558" lon="5.62923">
        <ele>476.15</ele>
        <time>2020-11-04T11:20:21.557Z</time>
      </trkpt>
      <trkpt lat="49.77554" lon="5.62908">
        <ele>476.66</ele>
        <time>2020-11-04T11:20:25.413Z</time>
      </trkpt>
      <trkpt lat="49.77549" lon="5.62892">
        <ele>477.52</ele>
        <time>2020-11-04T11:20:29.522Z</time>
      </trkpt>
      <trkpt lat="49.77552" lon="5.62876">
        <ele>478.21</ele>
        <time>2020-11-04T11:20:32.492Z</time>
      </trkpt>
      <trkpt lat="49.77561" lon="5.62862">
        <ele>479.03</ele>
        <time>2020-11-04T11:20:35.541Z</time>
      </trkpt>
      <trkpt lat="49.77567" lon="5.62849">
        <ele>479.55</ele>
        <time>2020-11-04T11:20:38.539Z</time>
      </trkpt>
      <trkpt lat="49.77572" lon="5.62837">
        <ele>479.45</ele>
        <time>2020-11-04T11:20:41.529Z</time>
      </trkpt>
      <trkpt lat="49.77579" lon="5.62822">
        <ele>479.65</ele>
        <time>2020-11-04T11:20:45.531Z</time>
      </trkpt>
      <trkpt lat="49.77587" lon="5.62814">
        <ele>479.61</ele>
        <time>2020-11-04T11:20:48.538Z</time>
      </trkpt>
      <trkpt lat="49.77596" lon="5.62807">
        <ele>479.77</ele>
        <time>2020-11-04T11:20:51.529Z</time>
      </trkpt>
      <trkpt lat="49.776" lon="5.62788">
        <ele>479.9</ele>
        <time>2020-11-04T11:20:54.506Z</time>
      </trkpt>
      <trkpt lat="49.77598" lon="5.62772">
        <ele>478.23</ele>
        <time>2020-11-04T11:20:57.067Z</time>
      </trkpt>
      <trkpt lat="49.77595" lon="5.62755">
        <ele>476.45</ele>
        <time>2020-11-04T11:21:01.544Z</time>
      </trkpt>
      <trkpt lat="49.7759" lon="5.6274">
        <ele>476.11</ele>
        <time>2020-11-04T11:21:03.520Z</time>
      </trkpt>
      <trkpt lat="49.77582" lon="5.62731">
        <ele>475.87</ele>
        <time>2020-11-04T11:21:04.000Z</time>
      </trkpt>
      <trkpt lat="49.77572" lon="5.62722">
        <ele>475.4</ele>
        <time>2020-11-04T11:21:06.525Z</time>
      </trkpt>
      <trkpt lat="49.77562" lon="5.62715">
        <ele>475.13</ele>
        <time>2020-11-04T11:21:08.572Z</time>
      </trkpt>
      <trkpt lat="49.7755" lon="5.62712">
        <ele>474.83</ele>
        <time>2020-11-04T11:21:10.525Z</time>
      </trkpt>
      <trkpt lat="49.77539" lon="5.62715">
        <ele>474.44</ele>
        <time>2020-11-04T11:21:12.538Z</time>
      </trkpt>
      <trkpt lat="49.77527" lon="5.62714">
        <ele>473.89</ele>
        <time>2020-11-04T11:21:15.535Z</time>
      </trkpt>
      <trkpt lat="49.77516" lon="5.62705">
        <ele>473.6</ele>
        <time>2020-11-04T11:21:18.577Z</time>
      </trkpt>
      <trkpt lat="49.77503" lon="5.62703">
        <ele>473.66</ele>
        <time>2020-11-04T11:21:21.543Z</time>
      </trkpt>
      <trkpt lat="49.77491" lon="5.62709">
        <ele>473.84</ele>
        <time>2020-11-04T11:21:24.559Z</time>
      </trkpt>
      <trkpt lat="49.7748" lon="5.62716">
        <ele>473.91</ele>
        <time>2020-11-04T11:21:28.476Z</time>
      </trkpt>
      <trkpt lat="49.77473" lon="5.62726">
        <ele>473.84</ele>
        <time>2020-11-04T11:21:30.787Z</time>
      </trkpt>
      <trkpt lat="49.7747" lon="5.6274">
        <ele>473.68</ele>
        <time>2020-11-04T11:21:33.929Z</time>
      </trkpt>
      <trkpt lat="49.77469" lon="5.62757">
        <ele>473.77</ele>
        <time>2020-11-04T11:21:36.872Z</time>
      </trkpt>
      <trkpt lat="49.77462" lon="5.62769">
        <ele>473.82</ele>
        <time>2020-11-04T11:21:39.355Z</time>
      </trkpt>
      <trkpt lat="49.77452" lon="5.62769">
        <ele>473.67</ele>
        <time>2020-11-04T11:21:41.561Z</time>
      </trkpt>
      <trkpt lat="49.7744" lon="5.62768">
        <ele>473.48</ele>
        <time>2020-11-04T11:21:44.606Z</time>
      </trkpt>
      <trkpt lat="49.77431" lon="5.62765">
        <ele>473.45</ele>
        <time>2020-11-04T11:21:47.533Z</time>
      </trkpt>
      <trkpt lat="49.77421" lon="5.62765">
        <ele>473.93</ele>
        <time>2020-11-04T11:21:50.567Z</time>
      </trkpt>
      <trkpt lat="49.77412" lon="5.62766">
        <ele>474.36</ele>
        <time>2020-11-04T11:21:53.568Z</time>
      </trkpt>
      <trkpt lat="49.77403" lon="5.6276">
        <ele>475.06</ele>
        <time>2020-11-04T11:21:58.538Z</time>
      </trkpt>
      <trkpt lat="49.77396" lon="5.6276">
        <ele>475.96</ele>
        <time>2020-11-04T11:22:02.545Z</time>
      </trkpt>
      <trkpt lat="49.77387" lon="5.62765">
        <ele>476.91</ele>
        <time>2020-11-04T11:22:06.546Z</time>
      </trkpt>
      <trkpt lat="49.77374" lon="5.62767">
        <ele>477.36</ele>
        <time>2020-11-04T11:22:09.532Z</time>
      </trkpt>
      <trkpt lat="49.77365" lon="5.62776">
        <ele>476.58</ele>
        <time>2020-11-04T11:22:12.566Z</time>
      </trkpt>
      <trkpt lat="49.77354" lon="5.6278">
        <ele>475.49</ele>
        <time>2020-11-04T11:22:15.572Z</time>
      </trkpt>
      <trkpt lat="49.77344" lon="5.6278">
        <ele>474.67</ele>
        <time>2020-11-04T11:22:17.533Z</time>
      </trkpt>
      <trkpt lat="49.77331" lon="5.62782">
        <ele>473.38</ele>
        <time>2020-11-04T11:22:20.537Z</time>
      </trkpt>
      <trkpt lat="49.77319" lon="5.62787">
        <ele>472.35</ele>
        <time>2020-11-04T11:22:23.527Z</time>
      </trkpt>
      <trkpt lat="49.77309" lon="5.62785">
        <ele>471.76</ele>
        <time>2020-11-04T11:22:25.536Z</time>
      </trkpt>
      <trkpt lat="49.77298" lon="5.62789">
        <ele>470.77</ele>
        <time>2020-11-04T11:22:28.538Z</time>
      </trkpt>
      <trkpt lat="49.77287" lon="5.62792">
        <ele>470.41</ele>
        <time>2020-11-04T11:22:30.532Z</time>
      </trkpt>
      <trkpt lat="49.77278" lon="5.62796">
        <ele>469.75</ele>
        <time>2020-11-04T11:22:33.000Z</time>
      </trkpt>
      <trkpt lat="49.77268" lon="5.62799">
        <ele>469.25</ele>
        <time>2020-11-04T11:22:35.000Z</time>
      </trkpt>
      <trkpt lat="49.77258" lon="5.62803">
        <ele>468.84</ele>
        <time>2020-11-04T11:22:37.000Z</time>
      </trkpt>
      <trkpt lat="49.77247" lon="5.62807">
        <ele>468.51</ele>
        <time>2020-11-04T11:22:39.000Z</time>
      </trkpt>
      <trkpt lat="49.77234" lon="5.6281">
        <ele>468.33</ele>
        <time>2020-11-04T11:22:41.000Z</time>
      </trkpt>
      <trkpt lat="49.77219" lon="5.6281">
        <ele>468.07</ele>
        <time>2020-11-04T11:22:43.000Z</time>
      </trkpt>
      <trkpt lat="49.77209" lon="5.62804">
        <ele>467.73</ele>
        <time>2020-11-04T11:22:45.000Z</time>
      </trkpt>
      <trkpt lat="49.772" lon="5.62791">
        <ele>467.19</ele>
        <time>2020-11-04T11:22:48.000Z</time>
      </trkpt>
      <trkpt lat="49.77198" lon="5.62775">
        <ele>466.78</ele>
        <time>2020-11-04T11:22:51.000Z</time>
      </trkpt>
      <trkpt lat="49.77191" lon="5.62766">
        <ele>466.31</ele>
        <time>2020-11-04T11:22:54.577Z</time>
      </trkpt>
      <trkpt lat="49.77191" lon="5.62746">
        <ele>465.83</ele>
        <time>2020-11-04T11:22:56.855Z</time>
      </trkpt>
      <trkpt lat="49.77187" lon="5.62726">
        <ele>465.56</ele>
        <time>2020-11-04T11:22:59.535Z</time>
      </trkpt>
      <trkpt lat="49.77183" lon="5.62711">
        <ele>465.37</ele>
        <time>2020-11-04T11:23:02.000Z</time>
      </trkpt>
      <trkpt lat="49.7718" lon="5.62696">
        <ele>465.14</ele>
        <time>2020-11-04T11:23:04.000Z</time>
      </trkpt>
      <trkpt lat="49.77177" lon="5.62681">
        <ele>464.89</ele>
        <time>2020-11-04T11:23:06.000Z</time>
      </trkpt>
      <trkpt lat="49.77175" lon="5.62666">
        <ele>464.58</ele>
        <time>2020-11-04T11:23:08.000Z</time>
      </trkpt>
      <trkpt lat="49.7717" lon="5.62644">
        <ele>464.1</ele>
        <time>2020-11-04T11:23:11.546Z</time>
      </trkpt>
      <trkpt lat="49.77168" lon="5.62627">
        <ele>463.64</ele>
        <time>2020-11-04T11:23:14.000Z</time>
      </trkpt>
      <trkpt lat="49.77166" lon="5.62613">
        <ele>463.29</ele>
        <time>2020-11-04T11:23:16.000Z</time>
      </trkpt>
      <trkpt lat="49.77164" lon="5.62596">
        <ele>462.86</ele>
        <time>2020-11-04T11:23:18.000Z</time>
      </trkpt>
      <trkpt lat="49.77161" lon="5.62578">
        <ele>462.21</ele>
        <time>2020-11-04T11:23:20.000Z</time>
      </trkpt>
      <trkpt lat="49.77159" lon="5.62562">
        <ele>461.68</ele>
        <time>2020-11-04T11:23:22.000Z</time>
      </trkpt>
      <trkpt lat="49.77156" lon="5.62544">
        <ele>461.14</ele>
        <time>2020-11-04T11:23:24.000Z</time>
      </trkpt>
      <trkpt lat="49.77153" lon="5.62525">
        <ele>460.55</ele>
        <time>2020-11-04T11:23:26.000Z</time>
      </trkpt>
      <trkpt lat="49.77149" lon="5.62504">
        <ele>460</ele>
        <time>2020-11-04T11:23:28.000Z</time>
      </trkpt>
      <trkpt lat="49.77145" lon="5.62482">
        <ele>459.29</ele>
        <time>2020-11-04T11:23:30.000Z</time>
      </trkpt>
      <trkpt lat="49.7714" lon="5.62461">
        <ele>458.62</ele>
        <time>2020-11-04T11:23:32.000Z</time>
      </trkpt>
      <trkpt lat="49.77128" lon="5.62456">
        <ele>458.04</ele>
        <time>2020-11-04T11:23:35.000Z</time>
      </trkpt>
      <trkpt lat="49.77119" lon="5.62467">
        <ele>457.99</ele>
        <time>2020-11-04T11:23:38.000Z</time>
      </trkpt>
      <trkpt lat="49.77112" lon="5.62478">
        <ele>459.49</ele>
        <time>2020-11-04T11:23:40.526Z</time>
      </trkpt>
      <trkpt lat="49.77102" lon="5.62487">
        <ele>460.7</ele>
        <time>2020-11-04T11:23:42.000Z</time>
      </trkpt>
      <trkpt lat="49.77095" lon="5.62495">
        <ele>461.69</ele>
        <time>2020-11-04T11:23:44.000Z</time>
      </trkpt>
      <trkpt lat="49.77086" lon="5.62502">
        <ele>462.48</ele>
        <time>2020-11-04T11:23:46.000Z</time>
      </trkpt>
      <trkpt lat="49.77077" lon="5.62507">
        <ele>463.13</ele>
        <time>2020-11-04T11:23:48.000Z</time>
      </trkpt>
      <trkpt lat="49.77068" lon="5.62512">
        <ele>463.65</ele>
        <time>2020-11-04T11:23:50.000Z</time>
      </trkpt>
      <trkpt lat="49.77059" lon="5.62518">
        <ele>464.07</ele>
        <time>2020-11-04T11:23:52.000Z</time>
      </trkpt>
      <trkpt lat="49.77049" lon="5.62523">
        <ele>464.42</ele>
        <time>2020-11-04T11:23:54.000Z</time>
      </trkpt>
      <trkpt lat="49.7704" lon="5.62528">
        <ele>464.69</ele>
        <time>2020-11-04T11:23:56.000Z</time>
      </trkpt>
      <trkpt lat="49.77028" lon="5.62536">
        <ele>465.02</ele>
        <time>2020-11-04T11:23:59.000Z</time>
      </trkpt>
      <trkpt lat="49.77017" lon="5.62548">
        <ele>465.25</ele>
        <time>2020-11-04T11:24:02.000Z</time>
      </trkpt>
      <trkpt lat="49.77008" lon="5.62559">
        <ele>465.37</ele>
        <time>2020-11-04T11:24:04.000Z</time>
      </trkpt>
      <trkpt lat="49.76999" lon="5.62573">
        <ele>465.47</ele>
        <time>2020-11-04T11:24:06.000Z</time>
      </trkpt>
      <trkpt lat="49.76991" lon="5.62586">
        <ele>465.54</ele>
        <time>2020-11-04T11:24:08.000Z</time>
      </trkpt>
      <trkpt lat="49.76983" lon="5.62598">
        <ele>465.61</ele>
        <time>2020-11-04T11:24:10.000Z</time>
      </trkpt>
      <trkpt lat="49.76975" lon="5.62613">
        <ele>465.66</ele>
        <time>2020-11-04T11:24:12.000Z</time>
      </trkpt>
      <trkpt lat="49.76966" lon="5.62625">
        <ele>465.7</ele>
        <time>2020-11-04T11:24:14.000Z</time>
      </trkpt>
      <trkpt lat="49.76957" lon="5.62637">
        <ele>465.73</ele>
        <time>2020-11-04T11:24:16.000Z</time>
      </trkpt>
      <trkpt lat="49.76949" lon="5.62652">
        <ele>465.76</ele>
        <time>2020-11-04T11:24:18.000Z</time>
      </trkpt>
      <trkpt lat="49.76941" lon="5.62666">
        <ele>465.78</ele>
        <time>2020-11-04T11:24:20.000Z</time>
      </trkpt>
      <trkpt lat="49.76932" lon="5.62678">
        <ele>465.8</ele>
        <time>2020-11-04T11:24:22.000Z</time>
      </trkpt>
      <trkpt lat="49.76924" lon="5.6269">
        <ele>465.81</ele>
        <time>2020-11-04T11:24:24.000Z</time>
      </trkpt>
      <trkpt lat="49.76917" lon="5.62701">
        <ele>465.83</ele>
        <time>2020-11-04T11:24:26.000Z</time>
      </trkpt>
      <trkpt lat="49.76909" lon="5.62711">
        <ele>465.84</ele>
        <time>2020-11-04T11:24:28.000Z</time>
      </trkpt>
      <trkpt lat="49.76902" lon="5.62722">
        <ele>465.84</ele>
        <time>2020-11-04T11:24:30.000Z</time>
      </trkpt>
      <trkpt lat="49.76895" lon="5.62733">
        <ele>465.85</ele>
        <time>2020-11-04T11:24:32.000Z</time>
      </trkpt>
      <trkpt lat="49.76888" lon="5.62744">
        <ele>465.85</ele>
        <time>2020-11-04T11:24:34.000Z</time>
      </trkpt>
      <trkpt lat="49.76882" lon="5.62756">
        <ele>465.86</ele>
        <time>2020-11-04T11:24:36.000Z</time>
      </trkpt>
      <trkpt lat="49.76875" lon="5.62767">
        <ele>465.86</ele>
        <time>2020-11-04T11:24:38.000Z</time>
      </trkpt>
      <trkpt lat="49.76869" lon="5.62778">
        <ele>465.02</ele>
        <time>2020-11-04T11:24:41.000Z</time>
      </trkpt>
      <trkpt lat="49.76862" lon="5.62786">
        <ele>465.12</ele>
        <time>2020-11-04T11:24:44.578Z</time>
      </trkpt>
      <trkpt lat="49.76853" lon="5.628">
        <ele>465.1</ele>
        <time>2020-11-04T11:24:47.531Z</time>
      </trkpt>
      <trkpt lat="49.76844" lon="5.62811">
        <ele>465.5</ele>
        <time>2020-11-04T11:24:50.093Z</time>
      </trkpt>
      <trkpt lat="49.76834" lon="5.62823">
        <ele>465.73</ele>
        <time>2020-11-04T11:24:52.538Z</time>
      </trkpt>
      <trkpt lat="49.76826" lon="5.62832">
        <ele>465.87</ele>
        <time>2020-11-04T11:24:54.540Z</time>
      </trkpt>
      <trkpt lat="49.76819" lon="5.62845">
        <ele>465.58</ele>
        <time>2020-11-04T11:24:57.000Z</time>
      </trkpt>
      <trkpt lat="49.76813" lon="5.62855">
        <ele>465.34</ele>
        <time>2020-11-04T11:24:59.000Z</time>
      </trkpt>
      <trkpt lat="49.76806" lon="5.62864">
        <ele>465.1</ele>
        <time>2020-11-04T11:25:01.000Z</time>
      </trkpt>
      <trkpt lat="49.76798" lon="5.62875">
        <ele>464.74</ele>
        <time>2020-11-04T11:25:03.724Z</time>
      </trkpt>
      <trkpt lat="49.76786" lon="5.62889">
        <ele>464.62</ele>
        <time>2020-11-04T11:25:06.533Z</time>
      </trkpt>
      <trkpt lat="49.76779" lon="5.62899">
        <ele>464.56</ele>
        <time>2020-11-04T11:25:08.499Z</time>
      </trkpt>
      <trkpt lat="49.7677" lon="5.6291">
        <ele>464.54</ele>
        <time>2020-11-04T11:25:11.535Z</time>
      </trkpt>
      <trkpt lat="49.7676" lon="5.62923">
        <ele>464.48</ele>
        <time>2020-11-04T11:25:14.549Z</time>
      </trkpt>
      <trkpt lat="49.76751" lon="5.62935">
        <ele>464.42</ele>
        <time>2020-11-04T11:25:17.547Z</time>
      </trkpt>
      <trkpt lat="49.76742" lon="5.62948">
        <ele>464.77</ele>
        <time>2020-11-04T11:25:21.549Z</time>
      </trkpt>
      <trkpt lat="49.76733" lon="5.62959">
        <ele>464.87</ele>
        <time>2020-11-04T11:25:24.517Z</time>
      </trkpt>
      <trkpt lat="49.76724" lon="5.62968">
        <ele>465.11</ele>
        <time>2020-11-04T11:25:28.204Z</time>
      </trkpt>
      <trkpt lat="49.76717" lon="5.62978">
        <ele>465.2</ele>
        <time>2020-11-04T11:25:30.548Z</time>
      </trkpt>
      <trkpt lat="49.76707" lon="5.62988">
        <ele>465.33</ele>
        <time>2020-11-04T11:25:33.567Z</time>
      </trkpt>
      <trkpt lat="49.76698" lon="5.62999">
        <ele>465.46</ele>
        <time>2020-11-04T11:25:36.537Z</time>
      </trkpt>
      <trkpt lat="49.76688" lon="5.63008">
        <ele>465.61</ele>
        <time>2020-11-04T11:25:39.522Z</time>
      </trkpt>
      <trkpt lat="49.76677" lon="5.63015">
        <ele>465.73</ele>
        <time>2020-11-04T11:25:42.528Z</time>
      </trkpt>
      <trkpt lat="49.76669" lon="5.63022">
        <ele>465.62</ele>
        <time>2020-11-04T11:25:44.490Z</time>
      </trkpt>
      <trkpt lat="49.76661" lon="5.63029">
        <ele>465.33</ele>
        <time>2020-11-04T11:25:47.000Z</time>
      </trkpt>
      <trkpt lat="49.76652" lon="5.63036">
        <ele>465.11</ele>
        <time>2020-11-04T11:25:49.000Z</time>
      </trkpt>
      <trkpt lat="49.76643" lon="5.63044">
        <ele>464.92</ele>
        <time>2020-11-04T11:25:51.000Z</time>
      </trkpt>
      <trkpt lat="49.76634" lon="5.63051">
        <ele>464.71</ele>
        <time>2020-11-04T11:25:53.000Z</time>
      </trkpt>
      <trkpt lat="49.76625" lon="5.63058">
        <ele>464.55</ele>
        <time>2020-11-04T11:25:55.000Z</time>
      </trkpt>
      <trkpt lat="49.76616" lon="5.63067">
        <ele>464.49</ele>
        <time>2020-11-04T11:25:57.000Z</time>
      </trkpt>
      <trkpt lat="49.76608" lon="5.63075">
        <ele>464.42</ele>
        <time>2020-11-04T11:25:59.000Z</time>
      </trkpt>
      <trkpt lat="49.76599" lon="5.63081">
        <ele>464.3</ele>
        <time>2020-11-04T11:26:01.000Z</time>
      </trkpt>
      <trkpt lat="49.76591" lon="5.63089">
        <ele>464.17</ele>
        <time>2020-11-04T11:26:03.000Z</time>
      </trkpt>
      <trkpt lat="49.76584" lon="5.63097">
        <ele>464.04</ele>
        <time>2020-11-04T11:26:05.000Z</time>
      </trkpt>
      <trkpt lat="49.76572" lon="5.63099">
        <ele>463.92</ele>
        <time>2020-11-04T11:26:08.000Z</time>
      </trkpt>
      <trkpt lat="49.76566" lon="5.63087">
        <ele>463.89</ele>
        <time>2020-11-04T11:26:10.000Z</time>
      </trkpt>
      <trkpt lat="49.76563" lon="5.63071">
        <ele>463.91</ele>
        <time>2020-11-04T11:26:12.675Z</time>
      </trkpt>
      <trkpt lat="49.76557" lon="5.63054">
        <ele>463.99</ele>
        <time>2020-11-04T11:26:15.528Z</time>
      </trkpt>
      <trkpt lat="49.76551" lon="5.63038">
        <ele>464.21</ele>
        <time>2020-11-04T11:26:18.000Z</time>
      </trkpt>
      <trkpt lat="49.76546" lon="5.63025">
        <ele>464.38</ele>
        <time>2020-11-04T11:26:20.000Z</time>
      </trkpt>
      <trkpt lat="49.76541" lon="5.63011">
        <ele>464.53</ele>
        <time>2020-11-04T11:26:22.000Z</time>
      </trkpt>
      <trkpt lat="49.76536" lon="5.62997">
        <ele>464.67</ele>
        <time>2020-11-04T11:26:24.000Z</time>
      </trkpt>
      <trkpt lat="49.7653" lon="5.62982">
        <ele>464.82</ele>
        <time>2020-11-04T11:26:26.000Z</time>
      </trkpt>
      <trkpt lat="49.76524" lon="5.62967">
        <ele>464.94</ele>
        <time>2020-11-04T11:26:28.000Z</time>
      </trkpt>
      <trkpt lat="49.76519" lon="5.62951">
        <ele>464.92</ele>
        <time>2020-11-04T11:26:30.000Z</time>
      </trkpt>
      <trkpt lat="49.76513" lon="5.62935">
        <ele>464.76</ele>
        <time>2020-11-04T11:26:32.000Z</time>
      </trkpt>
      <trkpt lat="49.76508" lon="5.62919">
        <ele>464.73</ele>
        <time>2020-11-04T11:26:34.000Z</time>
      </trkpt>
      <trkpt lat="49.76502" lon="5.62904">
        <ele>464.71</ele>
        <time>2020-11-04T11:26:36.000Z</time>
      </trkpt>
      <trkpt lat="49.76496" lon="5.62888">
        <ele>464.69</ele>
        <time>2020-11-04T11:26:38.000Z</time>
      </trkpt>
      <trkpt lat="49.76491" lon="5.62873">
        <ele>464.6</ele>
        <time>2020-11-04T11:26:40.000Z</time>
      </trkpt>
      <trkpt lat="49.76485" lon="5.62857">
        <ele>464.7</ele>
        <time>2020-11-04T11:26:42.000Z</time>
      </trkpt>
      <trkpt lat="49.76479" lon="5.62842">
        <ele>464.78</ele>
        <time>2020-11-04T11:26:44.000Z</time>
      </trkpt>
      <trkpt lat="49.76474" lon="5.62827">
        <ele>464.8</ele>
        <time>2020-11-04T11:26:46.000Z</time>
      </trkpt>
      <trkpt lat="49.76469" lon="5.62811">
        <ele>464.78</ele>
        <time>2020-11-04T11:26:48.000Z</time>
      </trkpt>
      <trkpt lat="49.76463" lon="5.62796">
        <ele>464.77</ele>
        <time>2020-11-04T11:26:50.000Z</time>
      </trkpt>
      <trkpt lat="49.76458" lon="5.6278">
        <ele>464.87</ele>
        <time>2020-11-04T11:26:52.000Z</time>
      </trkpt>
      <trkpt lat="49.76451" lon="5.62764">
        <ele>464.94</ele>
        <time>2020-11-04T11:26:54.000Z</time>
      </trkpt>
      <trkpt lat="49.76445" lon="5.62749">
        <ele>465.02</ele>
        <time>2020-11-04T11:26:56.000Z</time>
      </trkpt>
      <trkpt lat="49.76439" lon="5.62732">
        <ele>465.06</ele>
        <time>2020-11-04T11:26:58.000Z</time>
      </trkpt>
      <trkpt lat="49.76433" lon="5.62715">
        <ele>465.09</ele>
        <time>2020-11-04T11:27:00.000Z</time>
      </trkpt>
      <trkpt lat="49.76427" lon="5.62698">
        <ele>465.09</ele>
        <time>2020-11-04T11:27:02.000Z</time>
      </trkpt>
      <trkpt lat="49.76422" lon="5.62682">
        <ele>465</ele>
        <time>2020-11-04T11:27:04.000Z</time>
      </trkpt>
      <trkpt lat="49.76416" lon="5.62667">
        <ele>464.81</ele>
        <time>2020-11-04T11:27:06.000Z</time>
      </trkpt>
      <trkpt lat="49.7641" lon="5.62651">
        <ele>464.59</ele>
        <time>2020-11-04T11:27:08.000Z</time>
      </trkpt>
      <trkpt lat="49.76406" lon="5.62635">
        <ele>464.47</ele>
        <time>2020-11-04T11:27:10.000Z</time>
      </trkpt>
      <trkpt lat="49.76401" lon="5.62619">
        <ele>464.34</ele>
        <time>2020-11-04T11:27:12.000Z</time>
      </trkpt>
      <trkpt lat="49.76396" lon="5.62603">
        <ele>464.25</ele>
        <time>2020-11-04T11:27:14.000Z</time>
      </trkpt>
      <trkpt lat="49.76388" lon="5.62592">
        <ele>464.26</ele>
        <time>2020-11-04T11:27:17.000Z</time>
      </trkpt>
      <trkpt lat="49.76379" lon="5.62605">
        <ele>464.23</ele>
        <time>2020-11-04T11:27:21.000Z</time>
      </trkpt>
      <trkpt lat="49.76379" lon="5.6262">
        <ele>464.3</ele>
        <time>2020-11-04T11:27:23.550Z</time>
      </trkpt>
      <trkpt lat="49.76367" lon="5.62631">
        <ele>464.27</ele>
        <time>2020-11-04T11:27:26.000Z</time>
      </trkpt>
      <trkpt lat="49.7636" lon="5.62646">
        <ele>464.13</ele>
        <time>2020-11-04T11:27:28.000Z</time>
      </trkpt>
      <trkpt lat="49.76356" lon="5.62662">
        <ele>464.02</ele>
        <time>2020-11-04T11:27:30.526Z</time>
      </trkpt>
      <trkpt lat="49.76345" lon="5.62674">
        <ele>463.17</ele>
        <time>2020-11-04T11:27:33.000Z</time>
      </trkpt>
      <trkpt lat="49.76335" lon="5.62689">
        <ele>462.24</ele>
        <time>2020-11-04T11:27:35.000Z</time>
      </trkpt>
      <trkpt lat="49.76327" lon="5.62707">
        <ele>461.53</ele>
        <time>2020-11-04T11:27:37.000Z</time>
      </trkpt>
      <trkpt lat="49.76318" lon="5.62725">
        <ele>460.86</ele>
        <time>2020-11-04T11:27:39.000Z</time>
      </trkpt>
      <trkpt lat="49.76309" lon="5.62742">
        <ele>460.39</ele>
        <time>2020-11-04T11:27:41.000Z</time>
      </trkpt>
      <trkpt lat="49.763" lon="5.62762">
        <ele>460.04</ele>
        <time>2020-11-04T11:27:43.000Z</time>
      </trkpt>
      <trkpt lat="49.76292" lon="5.62782">
        <ele>459.7</ele>
        <time>2020-11-04T11:27:45.000Z</time>
      </trkpt>
      <trkpt lat="49.76284" lon="5.62804">
        <ele>459.32</ele>
        <time>2020-11-04T11:27:47.000Z</time>
      </trkpt>
      <trkpt lat="49.76275" lon="5.62825">
        <ele>459.05</ele>
        <time>2020-11-04T11:27:49.000Z</time>
      </trkpt>
      <trkpt lat="49.76266" lon="5.62846">
        <ele>458.86</ele>
        <time>2020-11-04T11:27:51.000Z</time>
      </trkpt>
      <trkpt lat="49.76257" lon="5.62868">
        <ele>458.79</ele>
        <time>2020-11-04T11:27:53.000Z</time>
      </trkpt>
      <trkpt lat="49.7625" lon="5.62885">
        <ele>458.72</ele>
        <time>2020-11-04T11:27:55.000Z</time>
      </trkpt>
      <trkpt lat="49.76244" lon="5.62903">
        <ele>458.54</ele>
        <time>2020-11-04T11:27:57.000Z</time>
      </trkpt>
      <trkpt lat="49.76238" lon="5.62918">
        <ele>458.78</ele>
        <time>2020-11-04T11:28:00.000Z</time>
      </trkpt>
      <trkpt lat="49.76232" lon="5.62933">
        <ele>459.17</ele>
        <time>2020-11-04T11:28:03.000Z</time>
      </trkpt>
      <trkpt lat="49.76227" lon="5.62946">
        <ele>459.6</ele>
        <time>2020-11-04T11:28:05.000Z</time>
      </trkpt>
      <trkpt lat="49.76224" lon="5.62963">
        <ele>459.69</ele>
        <time>2020-11-04T11:28:07.542Z</time>
      </trkpt>
      <trkpt lat="49.76215" lon="5.62983">
        <ele>459.52</ele>
        <time>2020-11-04T11:28:10.533Z</time>
      </trkpt>
      <trkpt lat="49.7621" lon="5.62995">
        <ele>459.82</ele>
        <time>2020-11-04T11:28:12.532Z</time>
      </trkpt>
      <trkpt lat="49.76202" lon="5.63013">
        <ele>460.71</ele>
        <time>2020-11-04T11:28:16.000Z</time>
      </trkpt>
      <trkpt lat="49.76197" lon="5.63028">
        <ele>461.53</ele>
        <time>2020-11-04T11:28:18.532Z</time>
      </trkpt>
      <trkpt lat="49.76191" lon="5.63047">
        <ele>461.6</ele>
        <time>2020-11-04T11:28:21.000Z</time>
      </trkpt>
      <trkpt lat="49.76185" lon="5.63062">
        <ele>461.56</ele>
        <time>2020-11-04T11:28:23.547Z</time>
      </trkpt>
      <trkpt lat="49.76178" lon="5.63075">
        <ele>461.58</ele>
        <time>2020-11-04T11:28:25.549Z</time>
      </trkpt>
      <trkpt lat="49.76171" lon="5.63089">
        <ele>461.63</ele>
        <time>2020-11-04T11:28:29.008Z</time>
      </trkpt>
      <trkpt lat="49.76162" lon="5.631">
        <ele>461.48</ele>
        <time>2020-11-04T11:28:31.563Z</time>
      </trkpt>
      <trkpt lat="49.76157" lon="5.63114">
        <ele>461.5</ele>
        <time>2020-11-04T11:28:33.562Z</time>
      </trkpt>
      <trkpt lat="49.76148" lon="5.63121">
        <ele>461.99</ele>
        <time>2020-11-04T11:28:36.538Z</time>
      </trkpt>
      <trkpt lat="49.76136" lon="5.63128">
        <ele>463.03</ele>
        <time>2020-11-04T11:28:39.537Z</time>
      </trkpt>
      <trkpt lat="49.76125" lon="5.63135">
        <ele>463.88</ele>
        <time>2020-11-04T11:28:41.541Z</time>
      </trkpt>
      <trkpt lat="49.76113" lon="5.63147">
        <ele>464.37</ele>
        <time>2020-11-04T11:28:44.000Z</time>
      </trkpt>
      <trkpt lat="49.76101" lon="5.63154">
        <ele>464.28</ele>
        <time>2020-11-04T11:28:46.000Z</time>
      </trkpt>
      <trkpt lat="49.76089" lon="5.63162">
        <ele>464.08</ele>
        <time>2020-11-04T11:28:48.000Z</time>
      </trkpt>
      <trkpt lat="49.76077" lon="5.63172">
        <ele>463.85</ele>
        <time>2020-11-04T11:28:50.000Z</time>
      </trkpt>
      <trkpt lat="49.76067" lon="5.63183">
        <ele>463.63</ele>
        <time>2020-11-04T11:28:52.000Z</time>
      </trkpt>
      <trkpt lat="49.76056" lon="5.63195">
        <ele>463.39</ele>
        <time>2020-11-04T11:28:54.000Z</time>
      </trkpt>
      <trkpt lat="49.76045" lon="5.6321">
        <ele>462.63</ele>
        <time>2020-11-04T11:28:56.000Z</time>
      </trkpt>
      <trkpt lat="49.76036" lon="5.63227">
        <ele>461.99</ele>
        <time>2020-11-04T11:28:58.000Z</time>
      </trkpt>
      <trkpt lat="49.7603" lon="5.63247">
        <ele>461.41</ele>
        <time>2020-11-04T11:29:00.000Z</time>
      </trkpt>
      <trkpt lat="49.76028" lon="5.6327">
        <ele>460.73</ele>
        <time>2020-11-04T11:29:02.000Z</time>
      </trkpt>
      <trkpt lat="49.76026" lon="5.63285">
        <ele>460.36</ele>
        <time>2020-11-04T11:29:04.000Z</time>
      </trkpt>
      <trkpt lat="49.76018" lon="5.63308">
        <ele>460.09</ele>
        <time>2020-11-04T11:29:07.000Z</time>
      </trkpt>
      <trkpt lat="49.7601" lon="5.63325">
        <ele>459.93</ele>
        <time>2020-11-04T11:29:09.000Z</time>
      </trkpt>
      <trkpt lat="49.75999" lon="5.63337">
        <ele>459.91</ele>
        <time>2020-11-04T11:29:11.000Z</time>
      </trkpt>
      <trkpt lat="49.75989" lon="5.63341">
        <ele>459.93</ele>
        <time>2020-11-04T11:29:13.000Z</time>
      </trkpt>
      <trkpt lat="49.75977" lon="5.63342">
        <ele>459.56</ele>
        <time>2020-11-04T11:29:16.000Z</time>
      </trkpt>
      <trkpt lat="49.75965" lon="5.63344">
        <ele>459.17</ele>
        <time>2020-11-04T11:29:19.000Z</time>
      </trkpt>
      <trkpt lat="49.75953" lon="5.63349">
        <ele>459.09</ele>
        <time>2020-11-04T11:29:21.000Z</time>
      </trkpt>
      <trkpt lat="49.75942" lon="5.6336">
        <ele>459.2</ele>
        <time>2020-11-04T11:29:23.000Z</time>
      </trkpt>
      <trkpt lat="49.75933" lon="5.63364">
        <ele>459.85</ele>
        <time>2020-11-04T11:29:25.000Z</time>
      </trkpt>
      <trkpt lat="49.75921" lon="5.63371">
        <ele>460.64</ele>
        <time>2020-11-04T11:29:27.543Z</time>
      </trkpt>
      <trkpt lat="49.7591" lon="5.63382">
        <ele>461.89</ele>
        <time>2020-11-04T11:29:30.000Z</time>
      </trkpt>
      <trkpt lat="49.75901" lon="5.63398">
        <ele>463.01</ele>
        <time>2020-11-04T11:29:32.000Z</time>
      </trkpt>
      <trkpt lat="49.75891" lon="5.63407">
        <ele>463.85</ele>
        <time>2020-11-04T11:29:34.000Z</time>
      </trkpt>
      <trkpt lat="49.75881" lon="5.63414">
        <ele>464.44</ele>
        <time>2020-11-04T11:29:36.000Z</time>
      </trkpt>
      <trkpt lat="49.75873" lon="5.63429">
        <ele>465.03</ele>
        <time>2020-11-04T11:29:38.000Z</time>
      </trkpt>
      <trkpt lat="49.75862" lon="5.63446">
        <ele>465.2</ele>
        <time>2020-11-04T11:29:40.000Z</time>
      </trkpt>
      <trkpt lat="49.75856" lon="5.63464">
        <ele>465.3</ele>
        <time>2020-11-04T11:29:42.000Z</time>
      </trkpt>
      <trkpt lat="49.75847" lon="5.63477">
        <ele>464.76</ele>
        <time>2020-11-04T11:29:44.000Z</time>
      </trkpt>
      <trkpt lat="49.75832" lon="5.63485">
        <ele>463.65</ele>
        <time>2020-11-04T11:29:46.000Z</time>
      </trkpt>
      <trkpt lat="49.75819" lon="5.63493">
        <ele>462.66</ele>
        <time>2020-11-04T11:29:48.000Z</time>
      </trkpt>
      <trkpt lat="49.75809" lon="5.635">
        <ele>461.88</ele>
        <time>2020-11-04T11:29:50.000Z</time>
      </trkpt>
      <trkpt lat="49.75799" lon="5.63505">
        <ele>461.31</ele>
        <time>2020-11-04T11:29:52.000Z</time>
      </trkpt>
      <trkpt lat="49.7579" lon="5.63509">
        <ele>461.12</ele>
        <time>2020-11-04T11:29:54.000Z</time>
      </trkpt>
      <trkpt lat="49.75781" lon="5.63505">
        <ele>461.86</ele>
        <time>2020-11-04T11:29:56.961Z</time>
      </trkpt>
      <trkpt lat="49.75769" lon="5.63506">
        <ele>463.82</ele>
        <time>2020-11-04T11:30:00.551Z</time>
      </trkpt>
      <trkpt lat="49.75759" lon="5.63515">
        <ele>465.27</ele>
        <time>2020-11-04T11:30:03.534Z</time>
      </trkpt>
      <trkpt lat="49.7575" lon="5.63522">
        <ele>465.37</ele>
        <time>2020-11-04T11:30:05.529Z</time>
      </trkpt>
      <trkpt lat="49.75739" lon="5.6353">
        <ele>464.92</ele>
        <time>2020-11-04T11:30:08.531Z</time>
      </trkpt>
      <trkpt lat="49.75729" lon="5.63543">
        <ele>464.27</ele>
        <time>2020-11-04T11:30:11.565Z</time>
      </trkpt>
      <trkpt lat="49.75722" lon="5.63553">
        <ele>463.67</ele>
        <time>2020-11-04T11:30:13.547Z</time>
      </trkpt>
      <trkpt lat="49.75713" lon="5.63559">
        <ele>462.98</ele>
        <time>2020-11-04T11:30:15.551Z</time>
      </trkpt>
      <trkpt lat="49.75702" lon="5.63566">
        <ele>461.95</ele>
        <time>2020-11-04T11:30:18.551Z</time>
      </trkpt>
      <trkpt lat="49.75692" lon="5.6358">
        <ele>460.82</ele>
        <time>2020-11-04T11:30:21.543Z</time>
      </trkpt>
      <trkpt lat="49.75682" lon="5.6359">
        <ele>459.76</ele>
        <time>2020-11-04T11:30:24.535Z</time>
      </trkpt>
      <trkpt lat="49.75672" lon="5.63597">
        <ele>458.91</ele>
        <time>2020-11-04T11:30:27.967Z</time>
      </trkpt>
      <trkpt lat="49.75654" lon="5.63621">
        <ele>458.98</ele>
        <time>2020-11-04T11:30:31.563Z</time>
      </trkpt>
      <trkpt lat="49.75647" lon="5.63638">
        <ele>459.34</ele>
        <time>2020-11-04T11:30:33.000Z</time>
      </trkpt>
      <trkpt lat="49.75641" lon="5.6365">
        <ele>459.5</ele>
        <time>2020-11-04T11:30:35.000Z</time>
      </trkpt>
      <trkpt lat="49.75629" lon="5.63656">
        <ele>459.49</ele>
        <time>2020-11-04T11:30:37.541Z</time>
      </trkpt>
      <trkpt lat="49.75618" lon="5.6367">
        <ele>460.29</ele>
        <time>2020-11-04T11:30:40.000Z</time>
      </trkpt>
      <trkpt lat="49.7561" lon="5.63678">
        <ele>461</ele>
        <time>2020-11-04T11:30:42.545Z</time>
      </trkpt>
      <trkpt lat="49.75602" lon="5.6369">
        <ele>461.75</ele>
        <time>2020-11-04T11:30:44.000Z</time>
      </trkpt>
      <trkpt lat="49.75593" lon="5.63704">
        <ele>462.83</ele>
        <time>2020-11-04T11:30:46.000Z</time>
      </trkpt>
      <trkpt lat="49.75585" lon="5.63715">
        <ele>463.23</ele>
        <time>2020-11-04T11:30:48.000Z</time>
      </trkpt>
      <trkpt lat="49.75573" lon="5.63718">
        <ele>463.4</ele>
        <time>2020-11-04T11:30:50.000Z</time>
      </trkpt>
      <trkpt lat="49.75561" lon="5.63723">
        <ele>462.95</ele>
        <time>2020-11-04T11:30:52.000Z</time>
      </trkpt>
      <trkpt lat="49.7555" lon="5.63734">
        <ele>462.2</ele>
        <time>2020-11-04T11:30:54.000Z</time>
      </trkpt>
      <trkpt lat="49.7554" lon="5.63745">
        <ele>461.73</ele>
        <time>2020-11-04T11:30:56.000Z</time>
      </trkpt>
      <trkpt lat="49.75528" lon="5.63757">
        <ele>461.11</ele>
        <time>2020-11-04T11:30:58.000Z</time>
      </trkpt>
      <trkpt lat="49.75515" lon="5.6377">
        <ele>460.25</ele>
        <time>2020-11-04T11:31:00.000Z</time>
      </trkpt>
      <trkpt lat="49.75506" lon="5.63778">
        <ele>459.84</ele>
        <time>2020-11-04T11:31:01.000Z</time>
      </trkpt>
      <trkpt lat="49.75497" lon="5.63786">
        <ele>459.46</ele>
        <time>2020-11-04T11:31:02.000Z</time>
      </trkpt>
      <trkpt lat="49.75488" lon="5.63794">
        <ele>459.05</ele>
        <time>2020-11-04T11:31:03.000Z</time>
      </trkpt>
      <trkpt lat="49.7548" lon="5.63802">
        <ele>458.36</ele>
        <time>2020-11-04T11:31:04.000Z</time>
      </trkpt>
      <trkpt lat="49.75466" lon="5.63817">
        <ele>457.22</ele>
        <time>2020-11-04T11:31:06.000Z</time>
      </trkpt>
      <trkpt lat="49.75455" lon="5.6383">
        <ele>456.06</ele>
        <time>2020-11-04T11:31:08.000Z</time>
      </trkpt>
      <trkpt lat="49.75445" lon="5.63837">
        <ele>455.33</ele>
        <time>2020-11-04T11:31:10.000Z</time>
      </trkpt>
      <trkpt lat="49.75432" lon="5.6384">
        <ele>455.23</ele>
        <time>2020-11-04T11:31:13.000Z</time>
      </trkpt>
      <trkpt lat="49.75418" lon="5.63856">
        <ele>454.89</ele>
        <time>2020-11-04T11:31:15.000Z</time>
      </trkpt>
      <trkpt lat="49.7541" lon="5.63863">
        <ele>454.5</ele>
        <time>2020-11-04T11:31:16.000Z</time>
      </trkpt>
      <trkpt lat="49.75397" lon="5.63873">
        <ele>453.79</ele>
        <time>2020-11-04T11:31:18.000Z</time>
      </trkpt>
      <trkpt lat="49.75389" lon="5.63887">
        <ele>453.41</ele>
        <time>2020-11-04T11:31:20.000Z</time>
      </trkpt>
      <trkpt lat="49.75379" lon="5.63897">
        <ele>452.63</ele>
        <time>2020-11-04T11:31:22.000Z</time>
      </trkpt>
      <trkpt lat="49.75369" lon="5.63908">
        <ele>452.09</ele>
        <time>2020-11-04T11:31:24.000Z</time>
      </trkpt>
      <trkpt lat="49.75359" lon="5.63918">
        <ele>451.78</ele>
        <time>2020-11-04T11:31:26.000Z</time>
      </trkpt>
      <trkpt lat="49.75344" lon="5.63934">
        <ele>450.85</ele>
        <time>2020-11-04T11:31:28.000Z</time>
      </trkpt>
      <trkpt lat="49.75336" lon="5.63943">
        <ele>450.51</ele>
        <time>2020-11-04T11:31:29.000Z</time>
      </trkpt>
      <trkpt lat="49.75331" lon="5.63954">
        <ele>450.18</ele>
        <time>2020-11-04T11:31:30.000Z</time>
      </trkpt>
      <trkpt lat="49.75324" lon="5.63976">
        <ele>449.35</ele>
        <time>2020-11-04T11:31:32.000Z</time>
      </trkpt>
      <trkpt lat="49.75319" lon="5.63988">
        <ele>448.88</ele>
        <time>2020-11-04T11:31:33.000Z</time>
      </trkpt>
      <trkpt lat="49.75313" lon="5.64001">
        <ele>448.27</ele>
        <time>2020-11-04T11:31:34.000Z</time>
      </trkpt>
      <trkpt lat="49.75307" lon="5.64013">
        <ele>447.48</ele>
        <time>2020-11-04T11:31:35.000Z</time>
      </trkpt>
      <trkpt lat="49.75302" lon="5.64024">
        <ele>446.72</ele>
        <time>2020-11-04T11:31:36.000Z</time>
      </trkpt>
      <trkpt lat="49.7529" lon="5.64042">
        <ele>445.17</ele>
        <time>2020-11-04T11:31:38.000Z</time>
      </trkpt>
      <trkpt lat="49.75279" lon="5.64056">
        <ele>443.07</ele>
        <time>2020-11-04T11:31:40.000Z</time>
      </trkpt>
      <trkpt lat="49.75268" lon="5.64069">
        <ele>440.77</ele>
        <time>2020-11-04T11:31:42.000Z</time>
      </trkpt>
      <trkpt lat="49.75256" lon="5.64083">
        <ele>438.43</ele>
        <time>2020-11-04T11:31:44.000Z</time>
      </trkpt>
      <trkpt lat="49.75242" lon="5.64085">
        <ele>436.39</ele>
        <time>2020-11-04T11:31:46.000Z</time>
      </trkpt>
      <trkpt lat="49.75233" lon="5.64088">
        <ele>434.45</ele>
        <time>2020-11-04T11:31:48.000Z</time>
      </trkpt>
      <trkpt lat="49.75222" lon="5.64083">
        <ele>432.71</ele>
        <time>2020-11-04T11:31:50.000Z</time>
      </trkpt>
      <trkpt lat="49.75206" lon="5.64077">
        <ele>431.15</ele>
        <time>2020-11-04T11:31:52.000Z</time>
      </trkpt>
      <trkpt lat="49.75193" lon="5.6408">
        <ele>428.79</ele>
        <time>2020-11-04T11:31:54.000Z</time>
      </trkpt>
      <trkpt lat="49.75179" lon="5.64093">
        <ele>426.25</ele>
        <time>2020-11-04T11:31:56.000Z</time>
      </trkpt>
      <trkpt lat="49.75165" lon="5.64092">
        <ele>423.3</ele>
        <time>2020-11-04T11:31:58.000Z</time>
      </trkpt>
      <trkpt lat="49.7515" lon="5.64091">
        <ele>420.41</ele>
        <time>2020-11-04T11:32:00.000Z</time>
      </trkpt>
      <trkpt lat="49.75139" lon="5.6409">
        <ele>419.1</ele>
        <time>2020-11-04T11:32:01.000Z</time>
      </trkpt>
      <trkpt lat="49.75125" lon="5.6409">
        <ele>417.63</ele>
        <time>2020-11-04T11:32:02.000Z</time>
      </trkpt>
      <trkpt lat="49.75113" lon="5.64089">
        <ele>416.29</ele>
        <time>2020-11-04T11:32:03.000Z</time>
      </trkpt>
      <trkpt lat="49.75101" lon="5.64088">
        <ele>414.99</ele>
        <time>2020-11-04T11:32:04.000Z</time>
      </trkpt>
      <trkpt lat="49.75089" lon="5.64087">
        <ele>413.48</ele>
        <time>2020-11-04T11:32:05.000Z</time>
      </trkpt>
      <trkpt lat="49.75078" lon="5.64086">
        <ele>412.13</ele>
        <time>2020-11-04T11:32:06.000Z</time>
      </trkpt>
      <trkpt lat="49.75068" lon="5.64085">
        <ele>410.98</ele>
        <time>2020-11-04T11:32:07.000Z</time>
      </trkpt>
      <trkpt lat="49.75051" lon="5.64081">
        <ele>408.95</ele>
        <time>2020-11-04T11:32:09.000Z</time>
      </trkpt>
      <trkpt lat="49.75043" lon="5.64077">
        <ele>406.79</ele>
        <time>2020-11-04T11:32:11.000Z</time>
      </trkpt>
      <trkpt lat="49.75033" lon="5.64074">
        <ele>403.43</ele>
        <time>2020-11-04T11:32:14.000Z</time>
      </trkpt>
      <trkpt lat="49.75027" lon="5.64073">
        <ele>398.22</ele>
        <time>2020-11-04T11:32:19.000Z</time>
      </trkpt>
      <trkpt lat="49.75028" lon="5.64075">
        <ele>395.07</ele>
        <time>2020-11-04T11:32:24.000Z</time>
      </trkpt>
      <trkpt lat="49.75025" lon="5.64071">
        <ele>393.8</ele>
        <time>2020-11-04T11:32:29.000Z</time>
      </trkpt>
      <trkpt lat="49.75024" lon="5.64066">
        <ele>392.41</ele>
        <time>2020-11-04T11:32:34.000Z</time>
      </trkpt>
      <trkpt lat="49.75024" lon="5.64065">
        <ele>391.45</ele>
        <time>2020-11-04T11:32:39.000Z</time>
      </trkpt>
      <trkpt lat="49.75024" lon="5.64065">
        <ele>390.95</ele>
        <time>2020-11-04T11:32:44.000Z</time>
      </trkpt>
      <trkpt lat="49.75025" lon="5.64066">
        <ele>390.42</ele>
        <time>2020-11-04T11:32:49.000Z</time>
      </trkpt>
      <trkpt lat="49.75025" lon="5.64066">
        <ele>390.09</ele>
        <time>2020-11-04T11:32:54.000Z</time>
      </trkpt>
      <trkpt lat="49.75025" lon="5.64066">
        <ele>389.91</ele>
        <time>2020-11-04T11:32:59.000Z</time>
      </trkpt>
      <trkpt lat="49.75025" lon="5.64066">
        <ele>389.82</ele>
        <time>2020-11-04T11:33:04.000Z</time>
      </trkpt>
      <trkpt lat="49.75025" lon="5.64066">
        <ele>389.77</ele>
        <time>2020-11-04T11:33:09.000Z</time>
      </trkpt>
      <trkpt lat="49.75025" lon="5.64066">
        <ele>389.75</ele>
        <time>2020-11-04T11:33:14.000Z</time>
      </trkpt>
      <trkpt lat="49.75024" lon="5.64066">
        <ele>389.88</ele>
        <time>2020-11-04T11:33:19.000Z</time>
      </trkpt>
      <trkpt lat="49.75021" lon="5.64065">
        <ele>391.02</ele>
        <time>2020-11-04T11:33:24.000Z</time>
      </trkpt>
      <trkpt lat="49.75012" lon="5.64066">
        <ele>393</ele>
        <time>2020-11-04T11:33:28.496Z</time>
      </trkpt>
      <trkpt lat="49.75" lon="5.64066">
        <ele>393.73</ele>
        <time>2020-11-04T11:33:31.545Z</time>
      </trkpt>
      <trkpt lat="49.74989" lon="5.64068">
        <ele>394.49</ele>
        <time>2020-11-04T11:33:34.557Z</time>
      </trkpt>
      <trkpt lat="49.7498" lon="5.64072">
        <ele>395.33</ele>
        <time>2020-11-04T11:33:38.564Z</time>
      </trkpt>
      <trkpt lat="49.74971" lon="5.64077">
        <ele>395.6</ele>
        <time>2020-11-04T11:33:42.561Z</time>
      </trkpt>
      <trkpt lat="49.74965" lon="5.64091">
        <ele>396.22</ele>
        <time>2020-11-04T11:33:46.540Z</time>
      </trkpt>
      <trkpt lat="49.74955" lon="5.64095">
        <ele>397.26</ele>
        <time>2020-11-04T11:33:49.576Z</time>
      </trkpt>
      <trkpt lat="49.74946" lon="5.641">
        <ele>398.44</ele>
        <time>2020-11-04T11:33:52.558Z</time>
      </trkpt>
      <trkpt lat="49.74939" lon="5.6411">
        <ele>400.35</ele>
        <time>2020-11-04T11:33:55.955Z</time>
      </trkpt>
      <trkpt lat="49.7493" lon="5.64119">
        <ele>402.85</ele>
        <time>2020-11-04T11:34:00.559Z</time>
      </trkpt>
      <trkpt lat="49.7492" lon="5.64121">
        <ele>405.08</ele>
        <time>2020-11-04T11:34:04.553Z</time>
      </trkpt>
      <trkpt lat="49.74912" lon="5.64127">
        <ele>406.17</ele>
        <time>2020-11-04T11:34:08.604Z</time>
      </trkpt>
      <trkpt lat="49.74903" lon="5.64133">
        <ele>406.88</ele>
        <time>2020-11-04T11:34:12.599Z</time>
      </trkpt>
      <trkpt lat="49.74893" lon="5.64134">
        <ele>408.19</ele>
        <time>2020-11-04T11:34:16.552Z</time>
      </trkpt>
      <trkpt lat="49.74883" lon="5.64132">
        <ele>409.37</ele>
        <time>2020-11-04T11:34:19.543Z</time>
      </trkpt>
      <trkpt lat="49.74875" lon="5.64136">
        <ele>410.61</ele>
        <time>2020-11-04T11:34:22.533Z</time>
      </trkpt>
      <trkpt lat="49.74866" lon="5.64143">
        <ele>412.02</ele>
        <time>2020-11-04T11:34:26.374Z</time>
      </trkpt>
      <trkpt lat="49.74857" lon="5.64145">
        <ele>412.8</ele>
        <time>2020-11-04T11:34:29.542Z</time>
      </trkpt>
      <trkpt lat="49.74849" lon="5.6414">
        <ele>413.5</ele>
        <time>2020-11-04T11:34:34.518Z</time>
      </trkpt>
      <trkpt lat="49.74842" lon="5.64138">
        <ele>413.78</ele>
        <time>2020-11-04T11:34:38.545Z</time>
      </trkpt>
      <trkpt lat="49.74835" lon="5.64127">
        <ele>413.08</ele>
        <time>2020-11-04T11:34:41.587Z</time>
      </trkpt>
      <trkpt lat="49.74822" lon="5.64118">
        <ele>411.3</ele>
        <time>2020-11-04T11:34:44.361Z</time>
      </trkpt>
      <trkpt lat="49.74813" lon="5.64112">
        <ele>410.83</ele>
        <time>2020-11-04T11:34:46.581Z</time>
      </trkpt>
      <trkpt lat="49.74804" lon="5.64102">
        <ele>409.82</ele>
        <time>2020-11-04T11:34:49.541Z</time>
      </trkpt>
      <trkpt lat="49.74797" lon="5.64093">
        <ele>409.32</ele>
        <time>2020-11-04T11:34:51.561Z</time>
      </trkpt>
      <trkpt lat="49.74789" lon="5.6408">
        <ele>410.19</ele>
        <time>2020-11-04T11:34:54.523Z</time>
      </trkpt>
      <trkpt lat="49.74777" lon="5.64073">
        <ele>410.98</ele>
        <time>2020-11-04T11:34:57.549Z</time>
      </trkpt>
      <trkpt lat="49.74768" lon="5.64065">
        <ele>411.14</ele>
        <time>2020-11-04T11:34:59.000Z</time>
      </trkpt>
      <trkpt lat="49.74758" lon="5.64056">
        <ele>411.24</ele>
        <time>2020-11-04T11:35:01.594Z</time>
      </trkpt>
      <trkpt lat="49.74729" lon="5.64047">
        <ele>411.12</ele>
        <time>2020-11-04T11:35:03.000Z</time>
      </trkpt>
      <trkpt lat="49.74715" lon="5.6404">
        <ele>410.49</ele>
        <time>2020-11-04T11:35:05.000Z</time>
      </trkpt>
      <trkpt lat="49.74701" lon="5.64036">
        <ele>409.47</ele>
        <time>2020-11-04T11:35:07.000Z</time>
      </trkpt>
      <trkpt lat="49.74684" lon="5.64037">
        <ele>408.48</ele>
        <time>2020-11-04T11:35:09.000Z</time>
      </trkpt>
      <trkpt lat="49.74668" lon="5.64043">
        <ele>407.79</ele>
        <time>2020-11-04T11:35:11.000Z</time>
      </trkpt>
      <trkpt lat="49.74655" lon="5.64045">
        <ele>407.79</ele>
        <time>2020-11-04T11:35:13.000Z</time>
      </trkpt>
      <trkpt lat="49.74644" lon="5.64054">
        <ele>407.76</ele>
        <time>2020-11-04T11:35:15.000Z</time>
      </trkpt>
      <trkpt lat="49.74636" lon="5.64067">
        <ele>407.64</ele>
        <time>2020-11-04T11:35:17.000Z</time>
      </trkpt>
      <trkpt lat="49.74626" lon="5.64075">
        <ele>407.67</ele>
        <time>2020-11-04T11:35:19.000Z</time>
      </trkpt>
      <trkpt lat="49.74613" lon="5.64081">
        <ele>407.31</ele>
        <time>2020-11-04T11:35:21.000Z</time>
      </trkpt>
      <trkpt lat="49.74602" lon="5.64087">
        <ele>406.5</ele>
        <time>2020-11-04T11:35:23.000Z</time>
      </trkpt>
      <trkpt lat="49.7459" lon="5.6409">
        <ele>405.87</ele>
        <time>2020-11-04T11:35:25.000Z</time>
      </trkpt>
      <trkpt lat="49.74576" lon="5.64088">
        <ele>404.84</ele>
        <time>2020-11-04T11:35:28.000Z</time>
      </trkpt>
      <trkpt lat="49.74566" lon="5.64087">
        <ele>404.16</ele>
        <time>2020-11-04T11:35:30.000Z</time>
      </trkpt>
      <trkpt lat="49.74556" lon="5.64085">
        <ele>403.43</ele>
        <time>2020-11-04T11:35:32.000Z</time>
      </trkpt>
      <trkpt lat="49.74542" lon="5.6408">
        <ele>402.42</ele>
        <time>2020-11-04T11:35:35.000Z</time>
      </trkpt>
      <trkpt lat="49.74531" lon="5.64076">
        <ele>401.7</ele>
        <time>2020-11-04T11:35:37.000Z</time>
      </trkpt>
      <trkpt lat="49.74522" lon="5.6407">
        <ele>400.97</ele>
        <time>2020-11-04T11:35:39.000Z</time>
      </trkpt>
      <trkpt lat="49.74513" lon="5.64064">
        <ele>400.31</ele>
        <time>2020-11-04T11:35:41.000Z</time>
      </trkpt>
      <trkpt lat="49.74503" lon="5.64055">
        <ele>399.26</ele>
        <time>2020-11-04T11:35:43.649Z</time>
      </trkpt>
      <trkpt lat="49.74494" lon="5.64047">
        <ele>398.46</ele>
        <time>2020-11-04T11:35:47.000Z</time>
      </trkpt>
      <trkpt lat="49.74484" lon="5.64036">
        <ele>398.09</ele>
        <time>2020-11-04T11:35:49.000Z</time>
      </trkpt>
      <trkpt lat="49.74475" lon="5.64026">
        <ele>397.88</ele>
        <time>2020-11-04T11:35:51.000Z</time>
      </trkpt>
      <trkpt lat="49.74465" lon="5.64017">
        <ele>397.53</ele>
        <time>2020-11-04T11:35:53.000Z</time>
      </trkpt>
      <trkpt lat="49.74453" lon="5.64009">
        <ele>397.3</ele>
        <time>2020-11-04T11:35:55.000Z</time>
      </trkpt>
      <trkpt lat="49.74443" lon="5.64004">
        <ele>397.11</ele>
        <time>2020-11-04T11:35:57.000Z</time>
      </trkpt>
      <trkpt lat="49.74433" lon="5.64004">
        <ele>396.75</ele>
        <time>2020-11-04T11:35:59.000Z</time>
      </trkpt>
      <trkpt lat="49.74422" lon="5.64004">
        <ele>396.13</ele>
        <time>2020-11-04T11:36:01.000Z</time>
      </trkpt>
      <trkpt lat="49.74409" lon="5.64007">
        <ele>395.42</ele>
        <time>2020-11-04T11:36:03.000Z</time>
      </trkpt>
      <trkpt lat="49.74397" lon="5.64014">
        <ele>394.75</ele>
        <time>2020-11-04T11:36:05.000Z</time>
      </trkpt>
      <trkpt lat="49.74387" lon="5.64018">
        <ele>394.22</ele>
        <time>2020-11-04T11:36:07.000Z</time>
      </trkpt>
      <trkpt lat="49.74377" lon="5.64021">
        <ele>393.84</ele>
        <time>2020-11-04T11:36:09.000Z</time>
      </trkpt>
      <trkpt lat="49.74366" lon="5.64025">
        <ele>393.49</ele>
        <time>2020-11-04T11:36:11.000Z</time>
      </trkpt>
      <trkpt lat="49.74356" lon="5.64027">
        <ele>392.92</ele>
        <time>2020-11-04T11:36:13.000Z</time>
      </trkpt>
      <trkpt lat="49.74346" lon="5.64029">
        <ele>392.7</ele>
        <time>2020-11-04T11:36:15.000Z</time>
      </trkpt>
      <trkpt lat="49.74336" lon="5.64032">
        <ele>392.58</ele>
        <time>2020-11-04T11:36:17.000Z</time>
      </trkpt>
      <trkpt lat="49.74326" lon="5.64037">
        <ele>392.35</ele>
        <time>2020-11-04T11:36:19.000Z</time>
      </trkpt>
      <trkpt lat="49.74315" lon="5.64042">
        <ele>392.21</ele>
        <time>2020-11-04T11:36:21.000Z</time>
      </trkpt>
      <trkpt lat="49.74304" lon="5.64045">
        <ele>392.12</ele>
        <time>2020-11-04T11:36:23.000Z</time>
      </trkpt>
      <trkpt lat="49.74294" lon="5.64049">
        <ele>391.86</ele>
        <time>2020-11-04T11:36:25.000Z</time>
      </trkpt>
      <trkpt lat="49.74284" lon="5.6405">
        <ele>391.8</ele>
        <time>2020-11-04T11:36:27.000Z</time>
      </trkpt>
      <trkpt lat="49.74274" lon="5.64052">
        <ele>392.13</ele>
        <time>2020-11-04T11:36:29.000Z</time>
      </trkpt>
      <trkpt lat="49.74264" lon="5.64058">
        <ele>390.79</ele>
        <time>2020-11-04T11:36:31.000Z</time>
      </trkpt>
      <trkpt lat="49.74254" lon="5.64063">
        <ele>389.65</ele>
        <time>2020-11-04T11:36:33.000Z</time>
      </trkpt>
      <trkpt lat="49.74242" lon="5.64066">
        <ele>388.68</ele>
        <time>2020-11-04T11:36:35.000Z</time>
      </trkpt>
      <trkpt lat="49.7423" lon="5.64067">
        <ele>387.84</ele>
        <time>2020-11-04T11:36:37.000Z</time>
      </trkpt>
      <trkpt lat="49.74219" lon="5.64068">
        <ele>387.1</ele>
        <time>2020-11-04T11:36:39.000Z</time>
      </trkpt>
      <trkpt lat="49.74207" lon="5.64069">
        <ele>386.6</ele>
        <time>2020-11-04T11:36:41.000Z</time>
      </trkpt>
      <trkpt lat="49.74197" lon="5.64069">
        <ele>386.5</ele>
        <time>2020-11-04T11:36:43.000Z</time>
      </trkpt>
      <trkpt lat="49.74187" lon="5.64069">
        <ele>386.49</ele>
        <time>2020-11-04T11:36:45.000Z</time>
      </trkpt>
      <trkpt lat="49.74174" lon="5.64065">
        <ele>386.39</ele>
        <time>2020-11-04T11:36:47.000Z</time>
      </trkpt>
      <trkpt lat="49.74162" lon="5.64061">
        <ele>386.82</ele>
        <time>2020-11-04T11:36:49.000Z</time>
      </trkpt>
      <trkpt lat="49.74153" lon="5.64052">
        <ele>386.48</ele>
        <time>2020-11-04T11:36:51.000Z</time>
      </trkpt>
      <trkpt lat="49.74144" lon="5.64038">
        <ele>386.39</ele>
        <time>2020-11-04T11:36:53.000Z</time>
      </trkpt>
      <trkpt lat="49.74131" lon="5.64029">
        <ele>386.19</ele>
        <time>2020-11-04T11:36:56.000Z</time>
      </trkpt>
      <trkpt lat="49.74122" lon="5.64021">
        <ele>386.45</ele>
        <time>2020-11-04T11:36:58.000Z</time>
      </trkpt>
      <trkpt lat="49.74112" lon="5.64004">
        <ele>387.08</ele>
        <time>2020-11-04T11:37:02.000Z</time>
      </trkpt>
      <trkpt lat="49.74103" lon="5.63996">
        <ele>387.92</ele>
        <time>2020-11-04T11:37:04.000Z</time>
      </trkpt>
      <trkpt lat="49.74094" lon="5.6398">
        <ele>389.85</ele>
        <time>2020-11-04T11:37:08.336Z</time>
      </trkpt>
      <trkpt lat="49.74085" lon="5.63974">
        <ele>390.25</ele>
        <time>2020-11-04T11:37:09.000Z</time>
      </trkpt>
      <trkpt lat="49.74071" lon="5.63967">
        <ele>390.84</ele>
        <time>2020-11-04T11:37:11.000Z</time>
      </trkpt>
      <trkpt lat="49.74057" lon="5.63964">
        <ele>391.35</ele>
        <time>2020-11-04T11:37:13.000Z</time>
      </trkpt>
      <trkpt lat="49.74045" lon="5.63962">
        <ele>391.55</ele>
        <time>2020-11-04T11:37:15.000Z</time>
      </trkpt>
      <trkpt lat="49.74031" lon="5.63963">
        <ele>391.5</ele>
        <time>2020-11-04T11:37:17.550Z</time>
      </trkpt>
      <trkpt lat="49.7402" lon="5.63968">
        <ele>391.12</ele>
        <time>2020-11-04T11:37:19.557Z</time>
      </trkpt>
      <trkpt lat="49.74014" lon="5.63979">
        <ele>390.98</ele>
        <time>2020-11-04T11:37:20.000Z</time>
      </trkpt>
      <trkpt lat="49.74005" lon="5.63995">
        <ele>390.7</ele>
        <time>2020-11-04T11:37:22.000Z</time>
      </trkpt>
      <trkpt lat="49.73997" lon="5.64016">
        <ele>390.35</ele>
        <time>2020-11-04T11:37:24.000Z</time>
      </trkpt>
      <trkpt lat="49.7399" lon="5.64032">
        <ele>390.33</ele>
        <time>2020-11-04T11:37:26.000Z</time>
      </trkpt>
      <trkpt lat="49.73984" lon="5.64047">
        <ele>389.8</ele>
        <time>2020-11-04T11:37:28.000Z</time>
      </trkpt>
      <trkpt lat="49.73978" lon="5.64063">
        <ele>389.29</ele>
        <time>2020-11-04T11:37:30.000Z</time>
      </trkpt>
      <trkpt lat="49.73972" lon="5.64078">
        <ele>388.91</ele>
        <time>2020-11-04T11:37:32.000Z</time>
      </trkpt>
      <trkpt lat="49.73966" lon="5.64093">
        <ele>388.32</ele>
        <time>2020-11-04T11:37:34.000Z</time>
      </trkpt>
      <trkpt lat="49.73959" lon="5.64108">
        <ele>388.12</ele>
        <time>2020-11-04T11:37:36.000Z</time>
      </trkpt>
      <trkpt lat="49.73951" lon="5.6412">
        <ele>388.18</ele>
        <time>2020-11-04T11:37:38.000Z</time>
      </trkpt>
      <trkpt lat="49.73941" lon="5.6413">
        <ele>388.38</ele>
        <time>2020-11-04T11:37:40.000Z</time>
      </trkpt>
      <trkpt lat="49.73932" lon="5.64135">
        <ele>388.66</ele>
        <time>2020-11-04T11:37:42.000Z</time>
      </trkpt>
      <trkpt lat="49.73923" lon="5.64142">
        <ele>388.5</ele>
        <time>2020-11-04T11:37:45.000Z</time>
      </trkpt>
      <trkpt lat="49.73915" lon="5.6415">
        <ele>388.41</ele>
        <time>2020-11-04T11:37:47.000Z</time>
      </trkpt>
      <trkpt lat="49.73904" lon="5.64156">
        <ele>388.11</ele>
        <time>2020-11-04T11:37:49.287Z</time>
      </trkpt>
      <trkpt lat="49.73889" lon="5.64161">
        <ele>388.06</ele>
        <time>2020-11-04T11:37:52.000Z</time>
      </trkpt>
      <trkpt lat="49.73877" lon="5.64162">
        <ele>388.04</ele>
        <time>2020-11-04T11:37:54.000Z</time>
      </trkpt>
      <trkpt lat="49.73864" lon="5.64162">
        <ele>388.27</ele>
        <time>2020-11-04T11:37:56.000Z</time>
      </trkpt>
      <trkpt lat="49.73852" lon="5.6416">
        <ele>388.75</ele>
        <time>2020-11-04T11:37:58.000Z</time>
      </trkpt>
      <trkpt lat="49.73842" lon="5.64158">
        <ele>389.49</ele>
        <time>2020-11-04T11:38:00.000Z</time>
      </trkpt>
      <trkpt lat="49.7383" lon="5.64154">
        <ele>390.29</ele>
        <time>2020-11-04T11:38:02.000Z</time>
      </trkpt>
      <trkpt lat="49.73818" lon="5.64149">
        <ele>390.85</ele>
        <time>2020-11-04T11:38:04.000Z</time>
      </trkpt>
      <trkpt lat="49.73809" lon="5.64145">
        <ele>391.53</ele>
        <time>2020-11-04T11:38:06.000Z</time>
      </trkpt>
      <trkpt lat="49.73798" lon="5.64139">
        <ele>391.88</ele>
        <time>2020-11-04T11:38:08.000Z</time>
      </trkpt>
      <trkpt lat="49.73788" lon="5.64132">
        <ele>392.21</ele>
        <time>2020-11-04T11:38:10.000Z</time>
      </trkpt>
      <trkpt lat="49.73777" lon="5.64124">
        <ele>392.18</ele>
        <time>2020-11-04T11:38:12.000Z</time>
      </trkpt>
      <trkpt lat="49.73766" lon="5.64115">
        <ele>392.08</ele>
        <time>2020-11-04T11:38:14.000Z</time>
      </trkpt>
      <trkpt lat="49.73755" lon="5.64106">
        <ele>391.97</ele>
        <time>2020-11-04T11:38:16.000Z</time>
      </trkpt>
      <trkpt lat="49.73745" lon="5.64099">
        <ele>391.97</ele>
        <time>2020-11-04T11:38:18.000Z</time>
      </trkpt>
      <trkpt lat="49.73734" lon="5.64091">
        <ele>391.73</ele>
        <time>2020-11-04T11:38:20.000Z</time>
      </trkpt>
      <trkpt lat="49.73722" lon="5.64085">
        <ele>391.47</ele>
        <time>2020-11-04T11:38:22.000Z</time>
      </trkpt>
      <trkpt lat="49.7371" lon="5.6408">
        <ele>391.14</ele>
        <time>2020-11-04T11:38:24.000Z</time>
      </trkpt>
      <trkpt lat="49.73698" lon="5.64078">
        <ele>390.53</ele>
        <time>2020-11-04T11:38:26.000Z</time>
      </trkpt>
      <trkpt lat="49.73685" lon="5.64078">
        <ele>390.12</ele>
        <time>2020-11-04T11:38:28.000Z</time>
      </trkpt>
      <trkpt lat="49.73673" lon="5.64079">
        <ele>389.8</ele>
        <time>2020-11-04T11:38:30.000Z</time>
      </trkpt>
      <trkpt lat="49.7366" lon="5.64085">
        <ele>389.56</ele>
        <time>2020-11-04T11:38:32.000Z</time>
      </trkpt>
      <trkpt lat="49.73649" lon="5.64092">
        <ele>389.22</ele>
        <time>2020-11-04T11:38:34.000Z</time>
      </trkpt>
      <trkpt lat="49.73637" lon="5.64098">
        <ele>388.9</ele>
        <time>2020-11-04T11:38:36.000Z</time>
      </trkpt>
      <trkpt lat="49.73626" lon="5.64107">
        <ele>387.99</ele>
        <time>2020-11-04T11:38:38.000Z</time>
      </trkpt>
      <trkpt lat="49.73615" lon="5.64121">
        <ele>386.18</ele>
        <time>2020-11-04T11:38:40.000Z</time>
      </trkpt>
      <trkpt lat="49.73603" lon="5.64129">
        <ele>384.64</ele>
        <time>2020-11-04T11:38:42.000Z</time>
      </trkpt>
      <trkpt lat="49.73592" lon="5.64138">
        <ele>383.39</ele>
        <time>2020-11-04T11:38:44.000Z</time>
      </trkpt>
      <trkpt lat="49.73581" lon="5.64148">
        <ele>382.36</ele>
        <time>2020-11-04T11:38:46.000Z</time>
      </trkpt>
      <trkpt lat="49.73571" lon="5.64156">
        <ele>381.44</ele>
        <time>2020-11-04T11:38:48.000Z</time>
      </trkpt>
      <trkpt lat="49.7356" lon="5.64161">
        <ele>380.44</ele>
        <time>2020-11-04T11:38:50.000Z</time>
      </trkpt>
      <trkpt lat="49.73549" lon="5.64169">
        <ele>379.75</ele>
        <time>2020-11-04T11:38:52.000Z</time>
      </trkpt>
      <trkpt lat="49.73537" lon="5.64178">
        <ele>379.22</ele>
        <time>2020-11-04T11:38:54.000Z</time>
      </trkpt>
      <trkpt lat="49.73527" lon="5.64184">
        <ele>378.84</ele>
        <time>2020-11-04T11:38:56.000Z</time>
      </trkpt>
      <trkpt lat="49.73518" lon="5.64193">
        <ele>378.76</ele>
        <time>2020-11-04T11:38:58.000Z</time>
      </trkpt>
      <trkpt lat="49.73508" lon="5.64195">
        <ele>378.86</ele>
        <time>2020-11-04T11:39:00.000Z</time>
      </trkpt>
      <trkpt lat="49.73496" lon="5.64193">
        <ele>378.77</ele>
        <time>2020-11-04T11:39:02.000Z</time>
      </trkpt>
      <trkpt lat="49.73485" lon="5.64191">
        <ele>378.93</ele>
        <time>2020-11-04T11:39:04.000Z</time>
      </trkpt>
      <trkpt lat="49.73472" lon="5.64187">
        <ele>379.1</ele>
        <time>2020-11-04T11:39:06.000Z</time>
      </trkpt>
      <trkpt lat="49.73461" lon="5.64186">
        <ele>378.29</ele>
        <time>2020-11-04T11:39:08.000Z</time>
      </trkpt>
      <trkpt lat="49.73447" lon="5.64182">
        <ele>377.37</ele>
        <time>2020-11-04T11:39:11.000Z</time>
      </trkpt>
      <trkpt lat="49.73433" lon="5.64172">
        <ele>376.95</ele>
        <time>2020-11-04T11:39:13.000Z</time>
      </trkpt>
      <trkpt lat="49.7342" lon="5.64162">
        <ele>376.6</ele>
        <time>2020-11-04T11:39:15.000Z</time>
      </trkpt>
      <trkpt lat="49.73407" lon="5.64156">
        <ele>376.14</ele>
        <time>2020-11-04T11:39:17.000Z</time>
      </trkpt>
      <trkpt lat="49.73398" lon="5.64161">
        <ele>375.79</ele>
        <time>2020-11-04T11:39:19.000Z</time>
      </trkpt>
      <trkpt lat="49.73391" lon="5.64176">
        <ele>375.93</ele>
        <time>2020-11-04T11:39:22.000Z</time>
      </trkpt>
      <trkpt lat="49.73389" lon="5.64196">
        <ele>375.95</ele>
        <time>2020-11-04T11:39:25.119Z</time>
      </trkpt>
      <trkpt lat="49.73382" lon="5.64209">
        <ele>375.78</ele>
        <time>2020-11-04T11:39:27.000Z</time>
      </trkpt>
      <trkpt lat="49.73375" lon="5.64222">
        <ele>375.56</ele>
        <time>2020-11-04T11:39:29.000Z</time>
      </trkpt>
      <trkpt lat="49.73369" lon="5.64237">
        <ele>375.38</ele>
        <time>2020-11-04T11:39:31.000Z</time>
      </trkpt>
      <trkpt lat="49.73363" lon="5.64253">
        <ele>375.3</ele>
        <time>2020-11-04T11:39:33.000Z</time>
      </trkpt>
      <trkpt lat="49.73357" lon="5.64268">
        <ele>375.22</ele>
        <time>2020-11-04T11:39:35.000Z</time>
      </trkpt>
      <trkpt lat="49.73352" lon="5.64284">
        <ele>375.25</ele>
        <time>2020-11-04T11:39:37.000Z</time>
      </trkpt>
      <trkpt lat="49.73349" lon="5.64301">
        <ele>375.31</ele>
        <time>2020-11-04T11:39:39.000Z</time>
      </trkpt>
      <trkpt lat="49.73346" lon="5.64318">
        <ele>375.4</ele>
        <time>2020-11-04T11:39:41.000Z</time>
      </trkpt>
      <trkpt lat="49.73345" lon="5.64338">
        <ele>375.48</ele>
        <time>2020-11-04T11:39:43.000Z</time>
      </trkpt>
      <trkpt lat="49.73345" lon="5.64355">
        <ele>375.5</ele>
        <time>2020-11-04T11:39:45.000Z</time>
      </trkpt>
      <trkpt lat="49.73347" lon="5.64375">
        <ele>375.35</ele>
        <time>2020-11-04T11:39:47.000Z</time>
      </trkpt>
      <trkpt lat="49.7335" lon="5.64393">
        <ele>375.11</ele>
        <time>2020-11-04T11:39:49.000Z</time>
      </trkpt>
      <trkpt lat="49.73352" lon="5.64409">
        <ele>374.92</ele>
        <time>2020-11-04T11:39:51.000Z</time>
      </trkpt>
      <trkpt lat="49.73354" lon="5.64426">
        <ele>374.83</ele>
        <time>2020-11-04T11:39:53.000Z</time>
      </trkpt>
      <trkpt lat="49.73356" lon="5.64443">
        <ele>374.75</ele>
        <time>2020-11-04T11:39:55.000Z</time>
      </trkpt>
      <trkpt lat="49.73359" lon="5.6446">
        <ele>374.38</ele>
        <time>2020-11-04T11:39:57.000Z</time>
      </trkpt>
      <trkpt lat="49.73363" lon="5.64477">
        <ele>374.09</ele>
        <time>2020-11-04T11:39:59.000Z</time>
      </trkpt>
      <trkpt lat="49.73367" lon="5.64493">
        <ele>373.78</ele>
        <time>2020-11-04T11:40:01.000Z</time>
      </trkpt>
      <trkpt lat="49.73372" lon="5.64509">
        <ele>373.59</ele>
        <time>2020-11-04T11:40:03.000Z</time>
      </trkpt>
      <trkpt lat="49.73377" lon="5.64525">
        <ele>373.43</ele>
        <time>2020-11-04T11:40:05.000Z</time>
      </trkpt>
      <trkpt lat="49.73382" lon="5.64541">
        <ele>373.36</ele>
        <time>2020-11-04T11:40:07.000Z</time>
      </trkpt>
      <trkpt lat="49.73387" lon="5.64557">
        <ele>373.44</ele>
        <time>2020-11-04T11:40:09.000Z</time>
      </trkpt>
      <trkpt lat="49.73393" lon="5.64573">
        <ele>373.51</ele>
        <time>2020-11-04T11:40:11.000Z</time>
      </trkpt>
      <trkpt lat="49.73398" lon="5.64589">
        <ele>373.68</ele>
        <time>2020-11-04T11:40:13.000Z</time>
      </trkpt>
      <trkpt lat="49.73404" lon="5.64605">
        <ele>373.77</ele>
        <time>2020-11-04T11:40:15.000Z</time>
      </trkpt>
      <trkpt lat="49.73409" lon="5.64622">
        <ele>373.83</ele>
        <time>2020-11-04T11:40:17.000Z</time>
      </trkpt>
      <trkpt lat="49.73413" lon="5.64639">
        <ele>373.84</ele>
        <time>2020-11-04T11:40:19.000Z</time>
      </trkpt>
      <trkpt lat="49.73415" lon="5.64657">
        <ele>373.9</ele>
        <time>2020-11-04T11:40:21.000Z</time>
      </trkpt>
      <trkpt lat="49.73413" lon="5.64674">
        <ele>374.09</ele>
        <time>2020-11-04T11:40:23.000Z</time>
      </trkpt>
      <trkpt lat="49.73409" lon="5.64688">
        <ele>374.29</ele>
        <time>2020-11-04T11:40:25.000Z</time>
      </trkpt>
      <trkpt lat="49.73401" lon="5.64699">
        <ele>374.68</ele>
        <time>2020-11-04T11:40:27.000Z</time>
      </trkpt>
      <trkpt lat="49.73391" lon="5.6471">
        <ele>374.92</ele>
        <time>2020-11-04T11:40:29.000Z</time>
      </trkpt>
      <trkpt lat="49.73382" lon="5.64722">
        <ele>374.7</ele>
        <time>2020-11-04T11:40:31.000Z</time>
      </trkpt>
      <trkpt lat="49.73373" lon="5.64734">
        <ele>374.22</ele>
        <time>2020-11-04T11:40:33.000Z</time>
      </trkpt>
      <trkpt lat="49.73362" lon="5.64743">
        <ele>373.39</ele>
        <time>2020-11-04T11:40:35.000Z</time>
      </trkpt>
      <trkpt lat="49.7335" lon="5.64749">
        <ele>372.85</ele>
        <time>2020-11-04T11:40:37.000Z</time>
      </trkpt>
      <trkpt lat="49.73338" lon="5.64755">
        <ele>372.47</ele>
        <time>2020-11-04T11:40:39.000Z</time>
      </trkpt>
      <trkpt lat="49.73332" lon="5.6477">
        <ele>372.1</ele>
        <time>2020-11-04T11:40:41.000Z</time>
      </trkpt>
      <trkpt lat="49.73331" lon="5.64786">
        <ele>371.51</ele>
        <time>2020-11-04T11:40:44.000Z</time>
      </trkpt>
      <trkpt lat="49.73323" lon="5.64797">
        <ele>370.61</ele>
        <time>2020-11-04T11:40:47.000Z</time>
      </trkpt>
      <trkpt lat="49.73319" lon="5.6481">
        <ele>369.83</ele>
        <time>2020-11-04T11:40:49.600Z</time>
      </trkpt>
      <trkpt lat="49.73311" lon="5.64824">
        <ele>369.12</ele>
        <time>2020-11-04T11:40:53.133Z</time>
      </trkpt>
      <trkpt lat="49.73303" lon="5.6484">
        <ele>369</ele>
        <time>2020-11-04T11:40:55.554Z</time>
      </trkpt>
      <trkpt lat="49.73297" lon="5.64851">
        <ele>368.89</ele>
        <time>2020-11-04T11:40:57.157Z</time>
      </trkpt>
      <trkpt lat="49.73288" lon="5.6486">
        <ele>368.47</ele>
        <time>2020-11-04T11:40:59.769Z</time>
      </trkpt>
      <trkpt lat="49.73277" lon="5.64875">
        <ele>367.93</ele>
        <time>2020-11-04T11:41:04.234Z</time>
      </trkpt>
      <trkpt lat="49.73266" lon="5.64888">
        <ele>367.61</ele>
        <time>2020-11-04T11:41:06.534Z</time>
      </trkpt>
      <trkpt lat="49.73257" lon="5.64898">
        <ele>367.36</ele>
        <time>2020-11-04T11:41:08.534Z</time>
      </trkpt>
      <trkpt lat="49.7325" lon="5.64907">
        <ele>367.1</ele>
        <time>2020-11-04T11:41:10.525Z</time>
      </trkpt>
      <trkpt lat="49.73242" lon="5.64916">
        <ele>366.94</ele>
        <time>2020-11-04T11:41:12.526Z</time>
      </trkpt>
      <trkpt lat="49.73235" lon="5.64925">
        <ele>366.98</ele>
        <time>2020-11-04T11:41:14.549Z</time>
      </trkpt>
      <trkpt lat="49.73226" lon="5.64939">
        <ele>367.42</ele>
        <time>2020-11-04T11:41:17.546Z</time>
      </trkpt>
      <trkpt lat="49.73218" lon="5.64949">
        <ele>367.9</ele>
        <time>2020-11-04T11:41:20.541Z</time>
      </trkpt>
      <trkpt lat="49.73208" lon="5.64958">
        <ele>368.47</ele>
        <time>2020-11-04T11:41:23.538Z</time>
      </trkpt>
      <trkpt lat="49.73199" lon="5.64969">
        <ele>368.73</ele>
        <time>2020-11-04T11:41:26.543Z</time>
      </trkpt>
      <trkpt lat="49.73194" lon="5.64982">
        <ele>369.19</ele>
        <time>2020-11-04T11:41:29.560Z</time>
      </trkpt>
      <trkpt lat="49.73188" lon="5.64995">
        <ele>369.42</ele>
        <time>2020-11-04T11:41:31.563Z</time>
      </trkpt>
      <trkpt lat="49.7318" lon="5.65003">
        <ele>369.52</ele>
        <time>2020-11-04T11:41:33.563Z</time>
      </trkpt>
      <trkpt lat="49.73172" lon="5.65021">
        <ele>369.58</ele>
        <time>2020-11-04T11:41:37.536Z</time>
      </trkpt>
      <trkpt lat="49.73168" lon="5.65034">
        <ele>369.59</ele>
        <time>2020-11-04T11:41:39.000Z</time>
      </trkpt>
      <trkpt lat="49.73162" lon="5.65046">
        <ele>369.79</ele>
        <time>2020-11-04T11:41:41.000Z</time>
      </trkpt>
      <trkpt lat="49.73156" lon="5.65057">
        <ele>370.06</ele>
        <time>2020-11-04T11:41:43.000Z</time>
      </trkpt>
      <trkpt lat="49.7315" lon="5.65068">
        <ele>370.24</ele>
        <time>2020-11-04T11:41:45.000Z</time>
      </trkpt>
      <trkpt lat="49.73144" lon="5.6508">
        <ele>370.38</ele>
        <time>2020-11-04T11:41:47.000Z</time>
      </trkpt>
      <trkpt lat="49.73138" lon="5.65091">
        <ele>370.49</ele>
        <time>2020-11-04T11:41:49.000Z</time>
      </trkpt>
      <trkpt lat="49.73131" lon="5.65102">
        <ele>370.57</ele>
        <time>2020-11-04T11:41:51.000Z</time>
      </trkpt>
      <trkpt lat="49.73122" lon="5.65114">
        <ele>370.63</ele>
        <time>2020-11-04T11:41:54.000Z</time>
      </trkpt>
      <trkpt lat="49.73113" lon="5.6512">
        <ele>370.45</ele>
        <time>2020-11-04T11:41:57.000Z</time>
      </trkpt>
      <trkpt lat="49.73104" lon="5.6513">
        <ele>369.92</ele>
        <time>2020-11-04T11:42:01.586Z</time>
      </trkpt>
      <trkpt lat="49.73096" lon="5.65139">
        <ele>369.76</ele>
        <time>2020-11-04T11:42:03.000Z</time>
      </trkpt>
      <trkpt lat="49.73094" lon="5.65153">
        <ele>369.59</ele>
        <time>2020-11-04T11:42:05.539Z</time>
      </trkpt>
      <trkpt lat="49.73097" lon="5.65169">
        <ele>369.37</ele>
        <time>2020-11-04T11:42:07.594Z</time>
      </trkpt>
      <trkpt lat="49.73101" lon="5.65182">
        <ele>369.32</ele>
        <time>2020-11-04T11:42:09.543Z</time>
      </trkpt>
      <trkpt lat="49.73108" lon="5.65201">
        <ele>369.65</ele>
        <time>2020-11-04T11:42:12.544Z</time>
      </trkpt>
      <trkpt lat="49.73116" lon="5.65212">
        <ele>369.74</ele>
        <time>2020-11-04T11:42:14.557Z</time>
      </trkpt>
      <trkpt lat="49.73123" lon="5.65223">
        <ele>369.9</ele>
        <time>2020-11-04T11:42:16.585Z</time>
      </trkpt>
      <trkpt lat="49.73128" lon="5.65239">
        <ele>370.29</ele>
        <time>2020-11-04T11:42:19.551Z</time>
      </trkpt>
      <trkpt lat="49.73127" lon="5.65244">
        <ele>370.57</ele>
        <time>2020-11-04T11:42:23.563Z</time>
      </trkpt>
      <trkpt lat="49.73117" lon="5.65249">
        <ele>370.62</ele>
        <time>2020-11-04T11:42:26.556Z</time>
      </trkpt>
      <trkpt lat="49.73108" lon="5.65252">
        <ele>369.97</ele>
        <time>2020-11-04T11:42:30.000Z</time>
      </trkpt>
      <trkpt lat="49.73097" lon="5.65255">
        <ele>369.53</ele>
        <time>2020-11-04T11:42:33.547Z</time>
      </trkpt>
      <trkpt lat="49.73087" lon="5.65261">
        <ele>369.05</ele>
        <time>2020-11-04T11:42:36.540Z</time>
      </trkpt>
      <trkpt lat="49.73078" lon="5.65264">
        <ele>369.16</ele>
        <time>2020-11-04T11:42:39.562Z</time>
      </trkpt>
      <trkpt lat="49.73072" lon="5.65277">
        <ele>370.26</ele>
        <time>2020-11-04T11:42:44.555Z</time>
      </trkpt>
      <trkpt lat="49.73077" lon="5.65275">
        <ele>371.87</ele>
        <time>2020-11-04T11:42:49.000Z</time>
      </trkpt>
      <trkpt lat="49.73077" lon="5.65273">
        <ele>373.24</ele>
        <time>2020-11-04T11:42:54.000Z</time>
      </trkpt>
      <trkpt lat="49.73077" lon="5.65272">
        <ele>375.56</ele>
        <time>2020-11-04T11:42:59.000Z</time>
      </trkpt>
      <trkpt lat="49.73078" lon="5.65273">
        <ele>378.28</ele>
        <time>2020-11-04T11:43:04.000Z</time>
      </trkpt>
      <trkpt lat="49.73078" lon="5.65273">
        <ele>379.72</ele>
        <time>2020-11-04T11:43:09.000Z</time>
      </trkpt>
      <trkpt lat="49.73078" lon="5.65273">
        <ele>380.48</ele>
        <time>2020-11-04T11:43:14.000Z</time>
      </trkpt>
      <trkpt lat="49.73078" lon="5.65273">
        <ele>380.82</ele>
        <time>2020-11-04T11:43:19.000Z</time>
      </trkpt>
      <trkpt lat="49.73078" lon="5.65273">
        <ele>381.04</ele>
        <time>2020-11-04T11:43:24.000Z</time>
      </trkpt>
      <trkpt lat="49.73078" lon="5.65273">
        <ele>381.19</ele>
        <time>2020-11-04T11:43:29.000Z</time>
      </trkpt>
      <trkpt lat="49.73073" lon="5.6527">
        <ele>381.25</ele>
        <time>2020-11-04T11:43:34.000Z</time>
      </trkpt>
      <trkpt lat="49.73065" lon="5.65263">
        <ele>381.32</ele>
        <time>2020-11-04T11:43:38.533Z</time>
      </trkpt>
      <trkpt lat="49.73055" lon="5.65267">
        <ele>381.41</ele>
        <time>2020-11-04T11:43:41.000Z</time>
      </trkpt>
      <trkpt lat="49.73051" lon="5.65285">
        <ele>381.49</ele>
        <time>2020-11-04T11:43:45.529Z</time>
      </trkpt>
      <trkpt lat="49.73056" lon="5.65302">
        <ele>381.54</ele>
        <time>2020-11-04T11:43:48.541Z</time>
      </trkpt>
      <trkpt lat="49.73058" lon="5.65315">
        <ele>381.57</ele>
        <time>2020-11-04T11:43:51.544Z</time>
      </trkpt>
      <trkpt lat="49.73061" lon="5.65333">
        <ele>381.6</ele>
        <time>2020-11-04T11:43:55.540Z</time>
      </trkpt>
      <trkpt lat="49.73063" lon="5.65347">
        <ele>381.62</ele>
        <time>2020-11-04T11:43:59.543Z</time>
      </trkpt>
      <trkpt lat="49.73065" lon="5.65361">
        <ele>381.62</ele>
        <time>2020-11-04T11:44:02.533Z</time>
      </trkpt>
      <trkpt lat="49.73068" lon="5.65378">
        <ele>381.63</ele>
        <time>2020-11-04T11:44:05.591Z</time>
      </trkpt>
      <trkpt lat="49.73069" lon="5.65392">
        <ele>381.64</ele>
        <time>2020-11-04T11:44:10.539Z</time>
      </trkpt>
      <trkpt lat="49.73071" lon="5.65408">
        <ele>381.64</ele>
        <time>2020-11-04T11:44:14.533Z</time>
      </trkpt>
      <trkpt lat="49.73074" lon="5.65426">
        <ele>381.64</ele>
        <time>2020-11-04T11:44:18.561Z</time>
      </trkpt>
      <trkpt lat="49.73076" lon="5.6544">
        <ele>381.64</ele>
        <time>2020-11-04T11:44:21.601Z</time>
      </trkpt>
      <trkpt lat="49.73076" lon="5.65457">
        <ele>381.65</ele>
        <time>2020-11-04T11:44:25.560Z</time>
      </trkpt>
      <trkpt lat="49.7308" lon="5.65473">
        <ele>381.65</ele>
        <time>2020-11-04T11:44:30.832Z</time>
      </trkpt>
      <trkpt lat="49.7308" lon="5.65487">
        <ele>381.65</ele>
        <time>2020-11-04T11:44:35.537Z</time>
      </trkpt>
      <trkpt lat="49.73081" lon="5.655">
        <ele>384.62</ele>
        <time>2020-11-04T11:44:39.549Z</time>
      </trkpt>
      <trkpt lat="49.73082" lon="5.65517">
        <ele>388.19</ele>
        <time>2020-11-04T11:44:44.580Z</time>
      </trkpt>
      <trkpt lat="49.73084" lon="5.65532">
        <ele>390.53</ele>
        <time>2020-11-04T11:44:47.496Z</time>
      </trkpt>
      <trkpt lat="49.73087" lon="5.65549">
        <ele>393.99</ele>
        <time>2020-11-04T11:44:51.566Z</time>
      </trkpt>
      <trkpt lat="49.73089" lon="5.65564">
        <ele>395.37</ele>
        <time>2020-11-04T11:44:54.551Z</time>
      </trkpt>
      <trkpt lat="49.73091" lon="5.65578">
        <ele>396.99</ele>
        <time>2020-11-04T11:44:58.577Z</time>
      </trkpt>
      <trkpt lat="49.73092" lon="5.65591">
        <ele>398.05</ele>
        <time>2020-11-04T11:45:02.543Z</time>
      </trkpt>
      <trkpt lat="49.73091" lon="5.65608">
        <ele>399.07</ele>
        <time>2020-11-04T11:45:06.702Z</time>
      </trkpt>
      <trkpt lat="49.7309" lon="5.6561">
        <ele>399.53</ele>
        <time>2020-11-04T11:45:11.608Z</time>
      </trkpt>
      <trkpt lat="49.73084" lon="5.65609">
        <ele>398.67</ele>
        <time>2020-11-04T11:45:16.075Z</time>
      </trkpt>
      <trkpt lat="49.73074" lon="5.65614">
        <ele>398.49</ele>
        <time>2020-11-04T11:45:19.565Z</time>
      </trkpt>
      <trkpt lat="49.73063" lon="5.65618">
        <ele>397.83</ele>
        <time>2020-11-04T11:45:23.586Z</time>
      </trkpt>
      <trkpt lat="49.73054" lon="5.65622">
        <ele>396.48</ele>
        <time>2020-11-04T11:45:27.335Z</time>
      </trkpt>
      <trkpt lat="49.73051" lon="5.65628">
        <ele>395.85</ele>
        <time>2020-11-04T11:45:31.564Z</time>
      </trkpt>
      <trkpt lat="49.73043" lon="5.65636">
        <ele>394.6</ele>
        <time>2020-11-04T11:45:36.000Z</time>
      </trkpt>
      <trkpt lat="49.73035" lon="5.65641">
        <ele>394.77</ele>
        <time>2020-11-04T11:45:41.549Z</time>
      </trkpt>
      <trkpt lat="49.73027" lon="5.65648">
        <ele>395.69</ele>
        <time>2020-11-04T11:45:46.542Z</time>
      </trkpt>
      <trkpt lat="49.73017" lon="5.6565">
        <ele>396.81</ele>
        <time>2020-11-04T11:45:50.539Z</time>
      </trkpt>
      <trkpt lat="49.73013" lon="5.65663">
        <ele>397.3</ele>
        <time>2020-11-04T11:45:54.575Z</time>
      </trkpt>
      <trkpt lat="49.73013" lon="5.65681">
        <ele>397.43</ele>
        <time>2020-11-04T11:45:58.541Z</time>
      </trkpt>
      <trkpt lat="49.73015" lon="5.65699">
        <ele>397.34</ele>
        <time>2020-11-04T11:46:02.000Z</time>
      </trkpt>
      <trkpt lat="49.73016" lon="5.65714">
        <ele>397.25</ele>
        <time>2020-11-04T11:46:05.545Z</time>
      </trkpt>
      <trkpt lat="49.73015" lon="5.65728">
        <ele>397.13</ele>
        <time>2020-11-04T11:46:08.578Z</time>
      </trkpt>
      <trkpt lat="49.73012" lon="5.65744">
        <ele>397.04</ele>
        <time>2020-11-04T11:46:11.538Z</time>
      </trkpt>
      <trkpt lat="49.73008" lon="5.6576">
        <ele>396.92</ele>
        <time>2020-11-04T11:46:14.558Z</time>
      </trkpt>
      <trkpt lat="49.73" lon="5.65774">
        <ele>396.62</ele>
        <time>2020-11-04T11:46:17.540Z</time>
      </trkpt>
      <trkpt lat="49.72993" lon="5.65789">
        <ele>396.15</ele>
        <time>2020-11-04T11:46:20.548Z</time>
      </trkpt>
      <trkpt lat="49.72989" lon="5.65808">
        <ele>395.87</ele>
        <time>2020-11-04T11:46:23.549Z</time>
      </trkpt>
      <trkpt lat="49.72984" lon="5.65826">
        <ele>395.82</ele>
        <time>2020-11-04T11:46:26.571Z</time>
      </trkpt>
      <trkpt lat="49.72978" lon="5.65837">
        <ele>395.63</ele>
        <time>2020-11-04T11:46:30.578Z</time>
      </trkpt>
      <trkpt lat="49.72974" lon="5.65857">
        <ele>395.47</ele>
        <time>2020-11-04T11:46:33.569Z</time>
      </trkpt>
      <trkpt lat="49.7297" lon="5.65872">
        <ele>395.2</ele>
        <time>2020-11-04T11:46:36.557Z</time>
      </trkpt>
      <trkpt lat="49.72966" lon="5.65889">
        <ele>394.67</ele>
        <time>2020-11-04T11:46:40.599Z</time>
      </trkpt>
      <trkpt lat="49.72964" lon="5.65903">
        <ele>394.22</ele>
        <time>2020-11-04T11:46:43.557Z</time>
      </trkpt>
      <trkpt lat="49.72961" lon="5.65926">
        <ele>394.67</ele>
        <time>2020-11-04T11:46:47.560Z</time>
      </trkpt>
      <trkpt lat="49.72953" lon="5.65937">
        <ele>395.85</ele>
        <time>2020-11-04T11:46:50.558Z</time>
      </trkpt>
      <trkpt lat="49.72945" lon="5.6593">
        <ele>396.83</ele>
        <time>2020-11-04T11:46:53.552Z</time>
      </trkpt>
      <trkpt lat="49.72934" lon="5.65927">
        <ele>397.98</ele>
        <time>2020-11-04T11:46:57.553Z</time>
      </trkpt>
      <trkpt lat="49.72943" lon="5.6594">
        <ele>398.25</ele>
        <time>2020-11-04T11:47:02.000Z</time>
      </trkpt>
      <trkpt lat="49.72937" lon="5.65943">
        <ele>399.33</ele>
        <time>2020-11-04T11:47:06.587Z</time>
      </trkpt>
      <trkpt lat="49.72933" lon="5.65946">
        <ele>399.42</ele>
        <time>2020-11-04T11:47:11.439Z</time>
      </trkpt>
      <trkpt lat="49.72936" lon="5.65954">
        <ele>398.62</ele>
        <time>2020-11-04T11:47:16.000Z</time>
      </trkpt>
      <trkpt lat="49.72937" lon="5.65957">
        <ele>398.58</ele>
        <time>2020-11-04T11:47:20.423Z</time>
      </trkpt>
      <trkpt lat="49.72937" lon="5.65959">
        <ele>399.91</ele>
        <time>2020-11-04T11:47:25.000Z</time>
      </trkpt>
      <trkpt lat="49.72938" lon="5.65962">
        <ele>401.1</ele>
        <time>2020-11-04T11:47:29.959Z</time>
      </trkpt>
      <trkpt lat="49.72941" lon="5.65963">
        <ele>401.65</ele>
        <time>2020-11-04T11:47:34.000Z</time>
      </trkpt>
      <trkpt lat="49.72941" lon="5.65964">
        <ele>401.97</ele>
        <time>2020-11-04T11:47:39.000Z</time>
      </trkpt>
      <trkpt lat="49.72942" lon="5.65964">
        <ele>402.19</ele>
        <time>2020-11-04T11:47:44.000Z</time>
      </trkpt>
      <trkpt lat="49.72942" lon="5.65964">
        <ele>402.3</ele>
        <time>2020-11-04T11:47:49.000Z</time>
      </trkpt>
      <trkpt lat="49.72945" lon="5.65964">
        <ele>402.37</ele>
        <time>2020-11-04T11:47:55.000Z</time>
      </trkpt>
      <trkpt lat="49.72944" lon="5.65965">
        <ele>402.4</ele>
        <time>2020-11-04T11:47:59.339Z</time>
      </trkpt>
      <trkpt lat="49.72942" lon="5.65967">
        <ele>402.42</ele>
        <time>2020-11-04T11:48:03.567Z</time>
      </trkpt>
      <trkpt lat="49.72943" lon="5.65965">
        <ele>402.43</ele>
        <time>2020-11-04T11:48:09.000Z</time>
      </trkpt>
      <trkpt lat="49.72944" lon="5.65963">
        <ele>402.44</ele>
        <time>2020-11-04T11:48:14.000Z</time>
      </trkpt>
      <trkpt lat="49.72944" lon="5.65962">
        <ele>402.44</ele>
        <time>2020-11-04T11:48:19.586Z</time>
      </trkpt>
      <trkpt lat="49.72943" lon="5.65963">
        <ele>402.44</ele>
        <time>2020-11-04T11:48:24.000Z</time>
      </trkpt>
      <trkpt lat="49.72942" lon="5.65962">
        <ele>402.44</ele>
        <time>2020-11-04T11:48:29.000Z</time>
      </trkpt>
      <trkpt lat="49.72941" lon="5.65962">
        <ele>402.44</ele>
        <time>2020-11-04T11:48:34.000Z</time>
      </trkpt>
      <trkpt lat="49.7294" lon="5.65961">
        <ele>402.44</ele>
        <time>2020-11-04T11:48:38.571Z</time>
      </trkpt>
      <trkpt lat="49.7294" lon="5.6596">
        <ele>402.44</ele>
        <time>2020-11-04T11:48:44.554Z</time>
      </trkpt>
      <trkpt lat="49.7294" lon="5.6596">
        <ele>402.44</ele>
        <time>2020-11-04T11:48:49.000Z</time>
      </trkpt>
      <trkpt lat="49.72941" lon="5.65959">
        <ele>402.44</ele>
        <time>2020-11-04T11:48:54.000Z</time>
      </trkpt>
      <trkpt lat="49.72941" lon="5.65958">
        <ele>402.44</ele>
        <time>2020-11-04T11:48:58.783Z</time>
      </trkpt>
      <trkpt lat="49.72941" lon="5.65957">
        <ele>402.44</ele>
        <time>2020-11-04T11:49:03.246Z</time>
      </trkpt>
      <trkpt lat="49.72943" lon="5.65958">
        <ele>399.06</ele>
        <time>2020-11-04T11:49:08.457Z</time>
      </trkpt>
      <trkpt lat="49.72944" lon="5.65961">
        <ele>400.44</ele>
        <time>2020-11-04T11:49:13.000Z</time>
      </trkpt>
      <trkpt lat="49.72943" lon="5.65959">
        <ele>401.26</ele>
        <time>2020-11-04T11:49:18.000Z</time>
      </trkpt>
      <trkpt lat="49.72941" lon="5.65953">
        <ele>401.75</ele>
        <time>2020-11-04T11:49:23.000Z</time>
      </trkpt>
      <trkpt lat="49.7294" lon="5.65954">
        <ele>401.99</ele>
        <time>2020-11-04T11:49:28.000Z</time>
      </trkpt>
      <trkpt lat="49.7294" lon="5.65954">
        <ele>402.11</ele>
        <time>2020-11-04T11:49:31.000Z</time>
      </trkpt>
    </trkseg>
  </trk>
</gpx>